<?xml version='1.0' encoding='UTF-8'?><gpx version="1.1" creator="JPX - https://github.com/jenetics/jpx" xmlns="http://www.topografix.com/GPX/1/1"><trk><trkseg><trkpt lat="43.87608" lon="12.4976383"><ele>282.0</ele><time>2026-04-26T10:28:27.937Z</time></trkpt><trkpt lat="43.8760767" lon="12.497475"><ele>282.0</ele><time>2026-04-26T10:28:29.937Z</time></trkpt><trkpt lat="43.87607" lon="12.4973217"><ele>282.0</ele><time>2026-04-26T10:28:31.937Z</time></trkpt><trkpt lat="43.8760583" lon="12.4972133"><ele>282.0</ele><time>2026-04-26T10:28:33.937Z</time></trkpt><trkpt lat="43.8761483" lon="12.4971383"><ele>282.0</ele><time>2026-04-26T10:32:27.937Z</time></trkpt><trkpt lat="43.87611" lon="12.4970517"><ele>283.0</ele><time>2026-04-26T10:32:49.937Z</time></trkpt><trkpt lat="43.8760467" lon="12.4969917"><ele>284.0</ele><time>2026-04-26T10:32:52.937Z</time></trkpt><trkpt lat="43.87599" lon="12.4969433"><ele>285.0</ele><time>2026-04-26T10:32:59.937Z</time></trkpt><trkpt lat="43.875955" lon="12.49681"><ele>286.0</ele><time>2026-04-26T10:34:13.936Z</time></trkpt><trkpt lat="43.8760783" lon="12.4968"><ele>287.0</ele><time>2026-04-26T10:34:15.937Z</time></trkpt><trkpt lat="43.87615" lon="12.4967767"><ele>288.0</ele><time>2026-04-26T10:34:16.936Z</time></trkpt><trkpt lat="43.8762167" lon="12.4967317"><ele>288.00000000000006</ele><time>2026-04-26T10:34:17.937Z</time></trkpt><trkpt lat="43.876275" lon="12.49668"><ele>288.0</ele><time>2026-04-26T10:34:18.937Z</time></trkpt><trkpt lat="43.8763333" lon="12.4966267"><ele>288.0</ele><time>2026-04-26T10:34:19.937Z</time></trkpt><trkpt lat="43.8763867" lon="12.4965717"><ele>288.0</ele><time>2026-04-26T10:34:20.936Z</time></trkpt><trkpt lat="43.8764467" lon="12.4965183"><ele>288.0</ele><time>2026-04-26T10:34:21.937Z</time></trkpt><trkpt lat="43.8765133" lon="12.4964683"><ele>288.00000000000006</ele><time>2026-04-26T10:34:22.936Z</time></trkpt><trkpt lat="43.8765867" lon="12.4964333"><ele>288.0</ele><time>2026-04-26T10:34:23.937Z</time></trkpt><trkpt lat="43.8766617" lon="12.49642"><ele>288.0</ele><time>2026-04-26T10:34:24.937Z</time></trkpt><trkpt lat="43.8767383" lon="12.4964367"><ele>288.0</ele><time>2026-04-26T10:34:25.937Z</time></trkpt><trkpt lat="43.8768217" lon="12.4964717"><ele>288.0</ele><time>2026-04-26T10:34:26.937Z</time></trkpt><trkpt lat="43.8768883" lon="12.49652"><ele>288.0</ele><time>2026-04-26T10:34:27.937Z</time></trkpt><trkpt lat="43.8769683" lon="12.4965683"><ele>288.0</ele><time>2026-04-26T10:34:28.937Z</time></trkpt><trkpt lat="43.8770567" lon="12.4966067"><ele>288.0</ele><time>2026-04-26T10:34:29.937Z</time></trkpt><trkpt lat="43.87715" lon="12.496625"><ele>290.6</ele><time>2026-04-26T10:34:30.937Z</time></trkpt><trkpt lat="43.87725" lon="12.4966217"><ele>293.20000000000005</ele><time>2026-04-26T10:34:31.937Z</time></trkpt><trkpt lat="43.8773617" lon="12.4965933"><ele>295.8</ele><time>2026-04-26T10:34:32.937Z</time></trkpt><trkpt lat="43.8774767" lon="12.496545"><ele>298.40000000000003</ele><time>2026-04-26T10:34:33.936Z</time></trkpt><trkpt lat="43.87758" lon="12.4964917"><ele>301.0</ele><time>2026-04-26T10:34:34.937Z</time></trkpt><trkpt lat="43.877675" lon="12.496445"><ele>303.6</ele><time>2026-04-26T10:34:35.936Z</time></trkpt><trkpt lat="43.877755" lon="12.4964017"><ele>306.20000000000005</ele><time>2026-04-26T10:34:36.936Z</time></trkpt><trkpt lat="43.8778167" lon="12.496365"><ele>308.79999999999995</ele><time>2026-04-26T10:34:37.936Z</time></trkpt><trkpt lat="43.8779" lon="12.4963233"><ele>311.4</ele><time>2026-04-26T10:34:39.936Z</time></trkpt><trkpt lat="43.87799" lon="12.496285"><ele>314.0</ele><time>2026-04-26T10:34:48.937Z</time></trkpt><trkpt lat="43.8780967" lon="12.49622"><ele>314.0</ele><time>2026-04-26T10:35:08.937Z</time></trkpt><trkpt lat="43.8781533" lon="12.496175"><ele>314.0</ele><time>2026-04-26T10:35:10.937Z</time></trkpt><trkpt lat="43.87822" lon="12.496145"><ele>314.0</ele><time>2026-04-26T10:35:13.936Z</time></trkpt><trkpt lat="43.8782883" lon="12.4960983"><ele>314.0</ele><time>2026-04-26T10:35:15.937Z</time></trkpt><trkpt lat="43.878415" lon="12.4960233"><ele>314.0</ele><time>2026-04-26T10:35:17.937Z</time></trkpt><trkpt lat="43.8785" lon="12.49599"><ele>314.0</ele><time>2026-04-26T10:35:18.937Z</time></trkpt><trkpt lat="43.8785833" lon="12.4959717"><ele>316.33333333333337</ele><time>2026-04-26T10:35:19.936Z</time></trkpt><trkpt lat="43.87866" lon="12.4959683"><ele>318.6666666666667</ele><time>2026-04-26T10:35:20.937Z</time></trkpt><trkpt lat="43.8787417" lon="12.4959767"><ele>321.0</ele><time>2026-04-26T10:35:21.937Z</time></trkpt><trkpt lat="43.87883" lon="12.4959933"><ele>323.3333333333333</ele><time>2026-04-26T10:35:22.937Z</time></trkpt><trkpt lat="43.8789167" lon="12.49601"><ele>325.66666666666663</ele><time>2026-04-26T10:35:23.937Z</time></trkpt><trkpt lat="43.8789917" lon="12.496025"><ele>328.0</ele><time>2026-04-26T10:35:24.937Z</time></trkpt><trkpt lat="43.8790583" lon="12.4960233"><ele>328.0</ele><time>2026-04-26T10:35:25.936Z</time></trkpt><trkpt lat="43.8791283" lon="12.496025"><ele>328.0</ele><time>2026-04-26T10:35:26.937Z</time></trkpt><trkpt lat="43.8791933" lon="12.4960233"><ele>328.0</ele><time>2026-04-26T10:35:27.937Z</time></trkpt><trkpt lat="43.8792633" lon="12.49602"><ele>328.0</ele><time>2026-04-26T10:35:28.937Z</time></trkpt><trkpt lat="43.87935" lon="12.4960133"><ele>328.0</ele><time>2026-04-26T10:35:29.937Z</time></trkpt><trkpt lat="43.8794452" lon="12.4960043"><ele>328.0</ele><time>2026-04-26T10:35:30.936Z</time></trkpt><trkpt lat="43.8795379" lon="12.4959891"><ele>330.4</ele><time>2026-04-26T10:35:31.937Z</time></trkpt><trkpt lat="43.8796182" lon="12.4959821"><ele>332.79999999999995</ele><time>2026-04-26T10:35:32.937Z</time></trkpt><trkpt lat="43.879687" lon="12.4959853"><ele>335.2</ele><time>2026-04-26T10:35:33.937Z</time></trkpt><trkpt lat="43.8798039" lon="12.4960632"><ele>337.6</ele><time>2026-04-26T10:35:35.936Z</time></trkpt><trkpt lat="43.8798763" lon="12.4961479"><ele>340.0</ele><time>2026-04-26T10:35:36.937Z</time></trkpt><trkpt lat="43.8799553" lon="12.4962488"><ele>340.2</ele><time>2026-04-26T10:35:37.936Z</time></trkpt><trkpt lat="43.8800379" lon="12.496338"><ele>340.4</ele><time>2026-04-26T10:35:38.937Z</time></trkpt><trkpt lat="43.8801316" lon="12.4964"><ele>340.6</ele><time>2026-04-26T10:35:39.936Z</time></trkpt><trkpt lat="43.8802421" lon="12.4964449"><ele>340.8</ele><time>2026-04-26T10:35:40.937Z</time></trkpt><trkpt lat="43.8803602" lon="12.4964801"><ele>341.0</ele><time>2026-04-26T10:35:41.936Z</time></trkpt><trkpt lat="43.8804864" lon="12.4964995"><ele>343.25</ele><time>2026-04-26T10:35:42.937Z</time></trkpt><trkpt lat="43.8806178" lon="12.49651"><ele>345.5</ele><time>2026-04-26T10:35:43.937Z</time></trkpt><trkpt lat="43.8807445" lon="12.4965298"><ele>347.75</ele><time>2026-04-26T10:35:44.937Z</time></trkpt><trkpt lat="43.8808534" lon="12.496553"><ele>350.0</ele><time>2026-04-26T10:35:45.937Z</time></trkpt><trkpt lat="43.8809369" lon="12.4965703"><ele>352.6</ele><time>2026-04-26T10:35:46.937Z</time></trkpt><trkpt lat="43.8810019" lon="12.4965723"><ele>355.2</ele><time>2026-04-26T10:35:47.937Z</time></trkpt><trkpt lat="43.8810768" lon="12.4964965"><ele>357.79999999999995</ele><time>2026-04-26T10:35:49.937Z</time></trkpt><trkpt lat="43.8811145" lon="12.4963152"><ele>360.4</ele><time>2026-04-26T10:35:51.937Z</time></trkpt><trkpt lat="43.8811349" lon="12.4962127"><ele>363.0</ele><time>2026-04-26T10:35:52.937Z</time></trkpt><trkpt lat="43.8811716" lon="12.4961132"><ele>365.2</ele><time>2026-04-26T10:35:53.937Z</time></trkpt><trkpt lat="43.8812269" lon="12.4960135"><ele>367.4</ele><time>2026-04-26T10:35:54.937Z</time></trkpt><trkpt lat="43.8812962" lon="12.4959162"><ele>369.59999999999997</ele><time>2026-04-26T10:35:55.937Z</time></trkpt><trkpt lat="43.8813606" lon="12.4958245"><ele>371.79999999999995</ele><time>2026-04-26T10:35:56.937Z</time></trkpt><trkpt lat="43.8814178" lon="12.4957261"><ele>374.0</ele><time>2026-04-26T10:35:57.937Z</time></trkpt><trkpt lat="43.8814689" lon="12.4956173"><ele>374.0</ele><time>2026-04-26T10:35:58.937Z</time></trkpt><trkpt lat="43.8815099" lon="12.4955274"><ele>374.0</ele><time>2026-04-26T10:35:59.937Z</time></trkpt><trkpt lat="43.8815946" lon="12.4954349"><ele>374.0</ele><time>2026-04-26T10:36:01.937Z</time></trkpt><trkpt lat="43.8817169" lon="12.495398"><ele>374.0</ele><time>2026-04-26T10:36:03.936Z</time></trkpt><trkpt lat="43.8817806" lon="12.495391"><ele>374.0</ele><time>2026-04-26T10:36:04.936Z</time></trkpt><trkpt lat="43.881895" lon="12.4953284"><ele>378.0</ele><time>2026-04-26T10:36:06.937Z</time></trkpt><trkpt lat="43.8819907" lon="12.4952701"><ele>382.0</ele><time>2026-04-26T10:36:08.936Z</time></trkpt><trkpt lat="43.8820927" lon="12.4952394"><ele>386.0</ele><time>2026-04-26T10:36:10.937Z</time></trkpt><trkpt lat="43.88219" lon="12.4951929"><ele>390.0</ele><time>2026-04-26T10:36:12.937Z</time></trkpt><trkpt lat="43.8822713" lon="12.4951666"><ele>394.0</ele><time>2026-04-26T10:36:14.937Z</time></trkpt><trkpt lat="43.8823354" lon="12.4952054"><ele>394.00000000000006</ele><time>2026-04-26T10:36:16.937Z</time></trkpt><trkpt lat="43.8824402" lon="12.4952392"><ele>394.0</ele><time>2026-04-26T10:36:18.937Z</time></trkpt><trkpt lat="43.8825232" lon="12.4952435"><ele>394.0</ele><time>2026-04-26T10:36:19.936Z</time></trkpt><trkpt lat="43.8826167" lon="12.4952518"><ele>394.0</ele><time>2026-04-26T10:36:20.937Z</time></trkpt><trkpt lat="43.8827021" lon="12.4952653"><ele>394.00000000000006</ele><time>2026-04-26T10:36:21.937Z</time></trkpt><trkpt lat="43.8827704" lon="12.495277"><ele>394.0</ele><time>2026-04-26T10:36:22.936Z</time></trkpt><trkpt lat="43.8828742" lon="12.495261"><ele>396.6</ele><time>2026-04-26T10:36:24.936Z</time></trkpt><trkpt lat="43.8829578" lon="12.4952492"><ele>399.2</ele><time>2026-04-26T10:36:26.937Z</time></trkpt><trkpt lat="43.8830588" lon="12.4952823"><ele>401.8</ele><time>2026-04-26T10:36:28.936Z</time></trkpt><trkpt lat="43.8831803" lon="12.4953341"><ele>404.40000000000003</ele><time>2026-04-26T10:36:30.937Z</time></trkpt><trkpt lat="43.8832529" lon="12.495358"><ele>407.0</ele><time>2026-04-26T10:36:31.936Z</time></trkpt><trkpt lat="43.8833309" lon="12.4953784"><ele>407.00000000000006</ele><time>2026-04-26T10:36:32.936Z</time></trkpt><trkpt lat="43.8834057" lon="12.4954024"><ele>407.0</ele><time>2026-04-26T10:36:33.937Z</time></trkpt><trkpt lat="43.8834718" lon="12.4954273"><ele>407.0</ele><time>2026-04-26T10:36:34.937Z</time></trkpt><trkpt lat="43.8835367" lon="12.4954555"><ele>407.0</ele><time>2026-04-26T10:36:35.937Z</time></trkpt><trkpt lat="43.883607" lon="12.4954904"><ele>407.0</ele><time>2026-04-26T10:36:36.937Z</time></trkpt><trkpt lat="43.8836733" lon="12.4955317"><ele>407.00000000000006</ele><time>2026-04-26T10:36:37.937Z</time></trkpt><trkpt lat="43.8837333" lon="12.4955717"><ele>407.0</ele><time>2026-04-26T10:36:38.937Z</time></trkpt><trkpt lat="43.8838233" lon="12.49568"><ele>409.8333333333333</ele><time>2026-04-26T10:36:40.937Z</time></trkpt><trkpt lat="43.8838833" lon="12.4958267"><ele>412.66666666666663</ele><time>2026-04-26T10:36:42.937Z</time></trkpt><trkpt lat="43.883915" lon="12.4959033"><ele>415.5</ele><time>2026-04-26T10:36:43.937Z</time></trkpt><trkpt lat="43.88398" lon="12.49602"><ele>418.33333333333337</ele><time>2026-04-26T10:36:45.936Z</time></trkpt><trkpt lat="43.8840317" lon="12.49607"><ele>421.1666666666667</ele><time>2026-04-26T10:36:46.937Z</time></trkpt><trkpt lat="43.8840983" lon="12.4961217"><ele>424.0</ele><time>2026-04-26T10:36:47.937Z</time></trkpt><trkpt lat="43.8841683" lon="12.4961683"><ele>424.0</ele><time>2026-04-26T10:36:48.937Z</time></trkpt><trkpt lat="43.8842333" lon="12.4962167"><ele>424.0</ele><time>2026-04-26T10:36:49.937Z</time></trkpt><trkpt lat="43.8842883" lon="12.4963333"><ele>424.0</ele><time>2026-04-26T10:36:51.937Z</time></trkpt><trkpt lat="43.88432" lon="12.4965017"><ele>424.0</ele><time>2026-04-26T10:36:53.936Z</time></trkpt><trkpt lat="43.8843367" lon="12.4965867"><ele>424.0</ele><time>2026-04-26T10:36:54.936Z</time></trkpt><trkpt lat="43.8843767" lon="12.4966983"><ele>427.00000000000006</ele><time>2026-04-26T10:36:56.936Z</time></trkpt><trkpt lat="43.8844767" lon="12.4967283"><ele>430.0</ele><time>2026-04-26T10:36:58.937Z</time></trkpt><trkpt lat="43.8845433" lon="12.496705"><ele>433.0</ele><time>2026-04-26T10:36:59.937Z</time></trkpt><trkpt lat="43.8846133" lon="12.4966667"><ele>436.0</ele><time>2026-04-26T10:37:00.937Z</time></trkpt><trkpt lat="43.8846883" lon="12.4966317"><ele>439.00000000000006</ele><time>2026-04-26T10:37:01.936Z</time></trkpt><trkpt lat="43.8847567" lon="12.4966083"><ele>442.0</ele><time>2026-04-26T10:37:02.937Z</time></trkpt><trkpt lat="43.8848233" lon="12.4965767"><ele>442.00000000000006</ele><time>2026-04-26T10:37:03.937Z</time></trkpt><trkpt lat="43.8849" lon="12.4965417"><ele>442.0</ele><time>2026-04-26T10:37:04.937Z</time></trkpt><trkpt lat="43.8849733" lon="12.4965067"><ele>442.0</ele><time>2026-04-26T10:37:05.936Z</time></trkpt><trkpt lat="43.8850533" lon="12.49648"><ele>442.0</ele><time>2026-04-26T10:37:06.937Z</time></trkpt><trkpt lat="43.8851317" lon="12.4964617"><ele>442.00000000000006</ele><time>2026-04-26T10:37:07.936Z</time></trkpt><trkpt lat="43.885215" lon="12.4964567"><ele>442.0</ele><time>2026-04-26T10:37:08.937Z</time></trkpt><trkpt lat="43.8853083" lon="12.496455"><ele>445.0</ele><time>2026-04-26T10:37:09.936Z</time></trkpt><trkpt lat="43.885415" lon="12.496445"><ele>448.0</ele><time>2026-04-26T10:37:10.936Z</time></trkpt><trkpt lat="43.8855326" lon="12.4964341"><ele>451.0</ele><time>2026-04-26T10:37:11.937Z</time></trkpt><trkpt lat="43.8856504" lon="12.4964239"><ele>454.0</ele><time>2026-04-26T10:37:12.937Z</time></trkpt><trkpt lat="43.8857604" lon="12.4964166"><ele>454.0</ele><time>2026-04-26T10:37:13.937Z</time></trkpt><trkpt lat="43.8858707" lon="12.4964214"><ele>454.0</ele><time>2026-04-26T10:37:14.937Z</time></trkpt><trkpt lat="43.8859835" lon="12.4964461"><ele>454.0</ele><time>2026-04-26T10:37:15.936Z</time></trkpt><trkpt lat="43.8860917" lon="12.4964888"><ele>454.0</ele><time>2026-04-26T10:37:16.937Z</time></trkpt><trkpt lat="43.8861966" lon="12.4965414"><ele>454.0</ele><time>2026-04-26T10:37:17.937Z</time></trkpt><trkpt lat="43.8863011" lon="12.496596"><ele>456.33333333333337</ele><time>2026-04-26T10:37:18.936Z</time></trkpt><trkpt lat="43.8864006" lon="12.4966413"><ele>458.6666666666667</ele><time>2026-04-26T10:37:19.937Z</time></trkpt><trkpt lat="43.8864879" lon="12.4966838"><ele>461.0</ele><time>2026-04-26T10:37:20.937Z</time></trkpt><trkpt lat="43.8865698" lon="12.4967153"><ele>463.33333333333337</ele><time>2026-04-26T10:37:21.937Z</time></trkpt><trkpt lat="43.8866447" lon="12.4967224"><ele>465.6666666666667</ele><time>2026-04-26T10:37:22.936Z</time></trkpt><trkpt lat="43.8867166" lon="12.496695"><ele>468.0</ele><time>2026-04-26T10:37:23.937Z</time></trkpt><trkpt lat="43.8867874" lon="12.496651"><ele>469.8333333333333</ele><time>2026-04-26T10:37:24.937Z</time></trkpt><trkpt lat="43.8868591" lon="12.4966123"><ele>471.66666666666663</ele><time>2026-04-26T10:37:25.937Z</time></trkpt><trkpt lat="43.8869427" lon="12.4965841"><ele>473.5</ele><time>2026-04-26T10:37:26.936Z</time></trkpt><trkpt lat="43.8870314" lon="12.4965643"><ele>475.3333333333333</ele><time>2026-04-26T10:37:27.937Z</time></trkpt><trkpt lat="43.8871245" lon="12.4965512"><ele>477.16666666666663</ele><time>2026-04-26T10:37:28.937Z</time></trkpt><trkpt lat="43.8872198" lon="12.4965366"><ele>479.0</ele><time>2026-04-26T10:37:29.937Z</time></trkpt><trkpt lat="43.8873168" lon="12.496527"><ele>479.0</ele><time>2026-04-26T10:37:30.937Z</time></trkpt><trkpt lat="43.8874169" lon="12.4965258"><ele>479.0</ele><time>2026-04-26T10:37:31.936Z</time></trkpt><trkpt lat="43.8875133" lon="12.4965244"><ele>479.0</ele><time>2026-04-26T10:37:32.937Z</time></trkpt><trkpt lat="43.8876044" lon="12.4965074"><ele>479.0</ele><time>2026-04-26T10:37:33.937Z</time></trkpt><trkpt lat="43.8876869" lon="12.4964682"><ele>479.0</ele><time>2026-04-26T10:37:34.936Z</time></trkpt><trkpt lat="43.8877644" lon="12.4964167"><ele>479.3333333333333</ele><time>2026-04-26T10:37:35.937Z</time></trkpt><trkpt lat="43.8878357" lon="12.4963674"><ele>479.66666666666663</ele><time>2026-04-26T10:37:36.937Z</time></trkpt><trkpt lat="43.8879027" lon="12.4963247"><ele>480.0</ele><time>2026-04-26T10:37:37.937Z</time></trkpt><trkpt lat="43.8879713" lon="12.4962801"><ele>480.33333333333337</ele><time>2026-04-26T10:37:38.937Z</time></trkpt><trkpt lat="43.8880427" lon="12.4962409"><ele>480.6666666666667</ele><time>2026-04-26T10:37:39.937Z</time></trkpt><trkpt lat="43.888123" lon="12.4962218"><ele>481.0</ele><time>2026-04-26T10:37:40.936Z</time></trkpt><trkpt lat="43.8882092" lon="12.4962214"><ele>482.6</ele><time>2026-04-26T10:37:41.937Z</time></trkpt><trkpt lat="43.8883011" lon="12.496227"><ele>484.20000000000005</ele><time>2026-04-26T10:37:42.937Z</time></trkpt><trkpt lat="43.8883949" lon="12.4962315"><ele>485.79999999999995</ele><time>2026-04-26T10:37:43.937Z</time></trkpt><trkpt lat="43.8884917" lon="12.4962233"><ele>487.4</ele><time>2026-04-26T10:37:44.936Z</time></trkpt><trkpt lat="43.88859" lon="12.4961917"><ele>489.0</ele><time>2026-04-26T10:37:45.937Z</time></trkpt><trkpt lat="43.8886867" lon="12.4961383"><ele>489.79999999999995</ele><time>2026-04-26T10:37:46.937Z</time></trkpt><trkpt lat="43.8887867" lon="12.4960683"><ele>490.59999999999997</ele><time>2026-04-26T10:37:47.936Z</time></trkpt><trkpt lat="43.88889" lon="12.496"><ele>491.4</ele><time>2026-04-26T10:37:48.937Z</time></trkpt><trkpt lat="43.8889833" lon="12.4959433"><ele>492.2</ele><time>2026-04-26T10:37:49.937Z</time></trkpt><trkpt lat="43.8890633" lon="12.4958967"><ele>493.0</ele><time>2026-04-26T10:37:50.937Z</time></trkpt><trkpt lat="43.8891267" lon="12.495865"><ele>493.00000000000006</ele><time>2026-04-26T10:37:51.936Z</time></trkpt><trkpt lat="43.8891917" lon="12.49584"><ele>493.0</ele><time>2026-04-26T10:37:53.937Z</time></trkpt><trkpt lat="43.889275" lon="12.495775"><ele>493.0</ele><time>2026-04-26T10:37:56.936Z</time></trkpt><trkpt lat="43.8893533" lon="12.4957433"><ele>493.0</ele><time>2026-04-26T10:37:58.936Z</time></trkpt><trkpt lat="43.88943" lon="12.49577"><ele>493.00000000000006</ele><time>2026-04-26T10:38:00.937Z</time></trkpt><trkpt lat="43.889505" lon="12.4958017"><ele>493.0</ele><time>2026-04-26T10:38:02.937Z</time></trkpt><trkpt lat="43.8895717" lon="12.49587"><ele>491.4</ele><time>2026-04-26T10:38:04.937Z</time></trkpt><trkpt lat="43.8896383" lon="12.49597"><ele>489.79999999999995</ele><time>2026-04-26T10:38:06.937Z</time></trkpt><trkpt lat="43.8897217" lon="12.4960817"><ele>488.2</ele><time>2026-04-26T10:38:08.936Z</time></trkpt><trkpt lat="43.8897733" lon="12.4961367"><ele>486.6</ele><time>2026-04-26T10:38:09.937Z</time></trkpt><trkpt lat="43.88983" lon="12.4961883"><ele>485.0</ele><time>2026-04-26T10:38:10.937Z</time></trkpt><trkpt lat="43.8899367" lon="12.496275"><ele>485.0</ele><time>2026-04-26T10:38:12.937Z</time></trkpt><trkpt lat="43.8900433" lon="12.4963533"><ele>485.0</ele><time>2026-04-26T10:38:14.937Z</time></trkpt><trkpt lat="43.890155" lon="12.4964067"><ele>485.0</ele><time>2026-04-26T10:38:16.937Z</time></trkpt><trkpt lat="43.8902167" lon="12.4964383"><ele>485.0</ele><time>2026-04-26T10:38:17.937Z</time></trkpt><trkpt lat="43.89028" lon="12.4964833"><ele>485.0</ele><time>2026-04-26T10:38:18.937Z</time></trkpt><trkpt lat="43.890345" lon="12.49654"><ele>484.99999999999994</ele><time>2026-04-26T10:38:19.937Z</time></trkpt><trkpt lat="43.8904133" lon="12.4965883"><ele>485.0</ele><time>2026-04-26T10:38:20.937Z</time></trkpt><trkpt lat="43.8905267" lon="12.4966417"><ele>485.0</ele><time>2026-04-26T10:38:22.937Z</time></trkpt><trkpt lat="43.8905933" lon="12.49666"><ele>485.0</ele><time>2026-04-26T10:38:23.937Z</time></trkpt><trkpt lat="43.8906617" lon="12.4966817"><ele>484.99999999999994</ele><time>2026-04-26T10:38:24.937Z</time></trkpt><trkpt lat="43.890725" lon="12.4967017"><ele>485.0</ele><time>2026-04-26T10:38:25.936Z</time></trkpt><trkpt lat="43.8907883" lon="12.49672"><ele>485.0</ele><time>2026-04-26T10:38:26.936Z</time></trkpt><trkpt lat="43.8908483" lon="12.4967517"><ele>485.0</ele><time>2026-04-26T10:38:27.937Z</time></trkpt><trkpt lat="43.89094" lon="12.4967883"><ele>485.0</ele><time>2026-04-26T10:38:29.937Z</time></trkpt><trkpt lat="43.8910267" lon="12.4967917"><ele>485.0</ele><time>2026-04-26T10:38:32.937Z</time></trkpt><trkpt lat="43.891115" lon="12.4968117"><ele>485.0</ele><time>2026-04-26T10:38:35.936Z</time></trkpt><trkpt lat="43.89118" lon="12.4969767"><ele>481.99999999999994</ele><time>2026-04-26T10:38:37.937Z</time></trkpt><trkpt lat="43.8912033" lon="12.497095"><ele>479.0</ele><time>2026-04-26T10:38:38.937Z</time></trkpt><trkpt lat="43.8912133" lon="12.497205"><ele>476.0</ele><time>2026-04-26T10:38:39.936Z</time></trkpt><trkpt lat="43.89122" lon="12.497315"><ele>473.0</ele><time>2026-04-26T10:38:40.936Z</time></trkpt><trkpt lat="43.891225" lon="12.4974283"><ele>469.99999999999994</ele><time>2026-04-26T10:38:41.937Z</time></trkpt><trkpt lat="43.8912317" lon="12.4975467"><ele>467.0</ele><time>2026-04-26T10:38:42.937Z</time></trkpt><trkpt lat="43.89124" lon="12.4976767"><ele>467.0</ele><time>2026-04-26T10:38:43.937Z</time></trkpt><trkpt lat="43.8912467" lon="12.497815"><ele>467.00000000000006</ele><time>2026-04-26T10:38:44.937Z</time></trkpt><trkpt lat="43.8912583" lon="12.4979567"><ele>467.00000000000006</ele><time>2026-04-26T10:38:45.937Z</time></trkpt><trkpt lat="43.8912717" lon="12.4980967"><ele>467.0</ele><time>2026-04-26T10:38:46.937Z</time></trkpt><trkpt lat="43.8912833" lon="12.498235"><ele>467.0</ele><time>2026-04-26T10:38:47.936Z</time></trkpt><trkpt lat="43.8912967" lon="12.4983717"><ele>466.20000000000005</ele><time>2026-04-26T10:38:48.936Z</time></trkpt><trkpt lat="43.89131" lon="12.4985083"><ele>465.40000000000003</ele><time>2026-04-26T10:38:49.937Z</time></trkpt><trkpt lat="43.8913183" lon="12.4986483"><ele>464.59999999999997</ele><time>2026-04-26T10:38:50.937Z</time></trkpt><trkpt lat="43.8913367" lon="12.49879"><ele>463.79999999999995</ele><time>2026-04-26T10:38:51.936Z</time></trkpt><trkpt lat="43.8913483" lon="12.4989283"><ele>463.0</ele><time>2026-04-26T10:38:52.937Z</time></trkpt><trkpt lat="43.8913617" lon="12.4990633"><ele>461.59999999999997</ele><time>2026-04-26T10:38:53.936Z</time></trkpt><trkpt lat="43.8913683" lon="12.499195"><ele>460.19999999999993</ele><time>2026-04-26T10:38:54.936Z</time></trkpt><trkpt lat="43.89138" lon="12.499325"><ele>458.8</ele><time>2026-04-26T10:38:55.937Z</time></trkpt><trkpt lat="43.891385" lon="12.4994633"><ele>457.4</ele><time>2026-04-26T10:38:56.936Z</time></trkpt><trkpt lat="43.8913867" lon="12.4996183"><ele>456.0</ele><time>2026-04-26T10:38:57.937Z</time></trkpt><trkpt lat="43.8913983" lon="12.4997767"><ele>455.0</ele><time>2026-04-26T10:38:58.937Z</time></trkpt><trkpt lat="43.8914133" lon="12.4999333"><ele>454.0</ele><time>2026-04-26T10:38:59.937Z</time></trkpt><trkpt lat="43.8914217" lon="12.5000967"><ele>453.0</ele><time>2026-04-26T10:39:00.936Z</time></trkpt><trkpt lat="43.8914267" lon="12.5002583"><ele>452.0</ele><time>2026-04-26T10:39:01.937Z</time></trkpt><trkpt lat="43.8914217" lon="12.500415"><ele>452.0</ele><time>2026-04-26T10:39:02.937Z</time></trkpt><trkpt lat="43.8914017" lon="12.5005683"><ele>452.0</ele><time>2026-04-26T10:39:03.936Z</time></trkpt><trkpt lat="43.891375" lon="12.5007233"><ele>452.0</ele><time>2026-04-26T10:39:04.936Z</time></trkpt><trkpt lat="43.8913383" lon="12.5008733"><ele>452.0</ele><time>2026-04-26T10:39:05.936Z</time></trkpt><trkpt lat="43.8912833" lon="12.5010183"><ele>452.0</ele><time>2026-04-26T10:39:06.937Z</time></trkpt><trkpt lat="43.891215" lon="12.5011533"><ele>452.0</ele><time>2026-04-26T10:39:07.937Z</time></trkpt><trkpt lat="43.8911333" lon="12.5012733"><ele>452.0</ele><time>2026-04-26T10:39:08.937Z</time></trkpt><trkpt lat="43.8910367" lon="12.501375"><ele>452.0</ele><time>2026-04-26T10:39:09.937Z</time></trkpt><trkpt lat="43.89094" lon="12.5014767"><ele>451.75</ele><time>2026-04-26T10:39:10.936Z</time></trkpt><trkpt lat="43.8908567" lon="12.5015833"><ele>451.5</ele><time>2026-04-26T10:39:11.937Z</time></trkpt><trkpt lat="43.89081" lon="12.5017217"><ele>451.25</ele><time>2026-04-26T10:39:12.937Z</time></trkpt><trkpt lat="43.890795" lon="12.5018833"><ele>451.0</ele><time>2026-04-26T10:39:13.936Z</time></trkpt><trkpt lat="43.8907917" lon="12.50205"><ele>449.75</ele><time>2026-04-26T10:39:14.936Z</time></trkpt><trkpt lat="43.890835" lon="12.5022317"><ele>448.5</ele><time>2026-04-26T10:39:15.936Z</time></trkpt><trkpt lat="43.890895" lon="12.5024217"><ele>447.25</ele><time>2026-04-26T10:39:16.937Z</time></trkpt><trkpt lat="43.8909317" lon="12.5026283"><ele>446.0</ele><time>2026-04-26T10:39:17.937Z</time></trkpt><trkpt lat="43.8909383" lon="12.5028417"><ele>441.3333333333333</ele><time>2026-04-26T10:39:18.936Z</time></trkpt><trkpt lat="43.8909433" lon="12.5030517"><ele>436.66666666666663</ele><time>2026-04-26T10:39:19.936Z</time></trkpt><trkpt lat="43.8909517" lon="12.5032583"><ele>432.0</ele><time>2026-04-26T10:39:20.936Z</time></trkpt><trkpt lat="43.8909783" lon="12.5034683"><ele>432.0</ele><time>2026-04-26T10:39:21.936Z</time></trkpt><trkpt lat="43.891015" lon="12.5036867"><ele>432.0</ele><time>2026-04-26T10:39:22.937Z</time></trkpt><trkpt lat="43.8910533" lon="12.5039117"><ele>432.0</ele><time>2026-04-26T10:39:23.937Z</time></trkpt><trkpt lat="43.8910883" lon="12.5041367"><ele>431.66666666666663</ele><time>2026-04-26T10:39:24.937Z</time></trkpt><trkpt lat="43.891125" lon="12.5043583"><ele>431.3333333333333</ele><time>2026-04-26T10:39:25.937Z</time></trkpt><trkpt lat="43.89116" lon="12.5045717"><ele>431.0</ele><time>2026-04-26T10:39:26.937Z</time></trkpt><trkpt lat="43.8912017" lon="12.504775"><ele>431.0</ele><time>2026-04-26T10:39:27.937Z</time></trkpt><trkpt lat="43.8912683" lon="12.50496"><ele>431.0</ele><time>2026-04-26T10:39:28.937Z</time></trkpt><trkpt lat="43.89136" lon="12.5051167"><ele>431.0</ele><time>2026-04-26T10:39:29.936Z</time></trkpt><trkpt lat="43.8914667" lon="12.5052517"><ele>431.0</ele><time>2026-04-26T10:39:30.937Z</time></trkpt><trkpt lat="43.8915633" lon="12.5053833"><ele>431.0</ele><time>2026-04-26T10:39:31.937Z</time></trkpt><trkpt lat="43.8916433" lon="12.505525"><ele>431.0</ele><time>2026-04-26T10:39:32.937Z</time></trkpt><trkpt lat="43.8916983" lon="12.50569"><ele>431.0</ele><time>2026-04-26T10:39:33.937Z</time></trkpt><trkpt lat="43.8917233" lon="12.505885"><ele>431.0</ele><time>2026-04-26T10:39:34.937Z</time></trkpt><trkpt lat="43.89174" lon="12.50609"><ele>430.0</ele><time>2026-04-26T10:39:35.937Z</time></trkpt><trkpt lat="43.8917533" lon="12.506295"><ele>429.0</ele><time>2026-04-26T10:39:36.937Z</time></trkpt><trkpt lat="43.8917733" lon="12.5065033"><ele>428.0</ele><time>2026-04-26T10:39:37.937Z</time></trkpt><trkpt lat="43.8917883" lon="12.5067233"><ele>427.66666666666663</ele><time>2026-04-26T10:39:38.937Z</time></trkpt><trkpt lat="43.8918067" lon="12.50695"><ele>427.33333333333337</ele><time>2026-04-26T10:39:39.937Z</time></trkpt><trkpt lat="43.89183" lon="12.5071817"><ele>427.0</ele><time>2026-04-26T10:39:40.936Z</time></trkpt><trkpt lat="43.8918483" lon="12.5074133"><ele>431.5</ele><time>2026-04-26T10:39:41.937Z</time></trkpt><trkpt lat="43.891865" lon="12.5076317"><ele>436.0</ele><time>2026-04-26T10:39:42.936Z</time></trkpt><trkpt lat="43.891865" lon="12.5078317"><ele>440.5</ele><time>2026-04-26T10:39:43.937Z</time></trkpt><trkpt lat="43.8918283" lon="12.508015"><ele>445.0</ele><time>2026-04-26T10:39:44.937Z</time></trkpt><trkpt lat="43.89178" lon="12.5081833"><ele>445.2</ele><time>2026-04-26T10:39:45.937Z</time></trkpt><trkpt lat="43.8917083" lon="12.5083183"><ele>445.4</ele><time>2026-04-26T10:39:46.937Z</time></trkpt><trkpt lat="43.8916317" lon="12.5084333"><ele>445.6</ele><time>2026-04-26T10:39:47.937Z</time></trkpt><trkpt lat="43.8915633" lon="12.5085467"><ele>445.8</ele><time>2026-04-26T10:39:48.937Z</time></trkpt><trkpt lat="43.8915033" lon="12.508665"><ele>446.0</ele><time>2026-04-26T10:39:49.937Z</time></trkpt><trkpt lat="43.8914533" lon="12.50879"><ele>448.25</ele><time>2026-04-26T10:39:50.937Z</time></trkpt><trkpt lat="43.8914117" lon="12.508925"><ele>450.5</ele><time>2026-04-26T10:39:51.937Z</time></trkpt><trkpt lat="43.89136" lon="12.509065"><ele>452.75</ele><time>2026-04-26T10:39:52.937Z</time></trkpt><trkpt lat="43.891305" lon="12.5092117"><ele>455.0</ele><time>2026-04-26T10:39:53.937Z</time></trkpt><trkpt lat="43.8912633" lon="12.5093767"><ele>455.0</ele><time>2026-04-26T10:39:54.936Z</time></trkpt><trkpt lat="43.8912367" lon="12.50956"><ele>455.0</ele><time>2026-04-26T10:39:55.937Z</time></trkpt><trkpt lat="43.8912233" lon="12.5097533"><ele>455.0</ele><time>2026-04-26T10:39:56.937Z</time></trkpt><trkpt lat="43.8912267" lon="12.5099533"><ele>455.0</ele><time>2026-04-26T10:39:57.937Z</time></trkpt><trkpt lat="43.8912367" lon="12.5101517"><ele>455.0</ele><time>2026-04-26T10:39:58.937Z</time></trkpt><trkpt lat="43.8912617" lon="12.5103467"><ele>455.0</ele><time>2026-04-26T10:39:59.937Z</time></trkpt><trkpt lat="43.8913017" lon="12.5105317"><ele>455.0</ele><time>2026-04-26T10:40:00.937Z</time></trkpt><trkpt lat="43.8913383" lon="12.5107133"><ele>455.0</ele><time>2026-04-26T10:40:01.937Z</time></trkpt><trkpt lat="43.8913683" lon="12.5108767"><ele>454.3333333333333</ele><time>2026-04-26T10:40:02.937Z</time></trkpt><trkpt lat="43.891395" lon="12.5110233"><ele>453.66666666666663</ele><time>2026-04-26T10:40:03.937Z</time></trkpt><trkpt lat="43.8914" lon="12.5111533"><ele>453.0</ele><time>2026-04-26T10:40:04.937Z</time></trkpt><trkpt lat="43.89137" lon="12.5112583"><ele>452.33333333333337</ele><time>2026-04-26T10:40:05.937Z</time></trkpt><trkpt lat="43.8913133" lon="12.5113267"><ele>451.6666666666667</ele><time>2026-04-26T10:40:06.937Z</time></trkpt><trkpt lat="43.8912467" lon="12.51133"><ele>451.0</ele><time>2026-04-26T10:40:07.937Z</time></trkpt><trkpt lat="43.8911783" lon="12.5112517"><ele>450.6</ele><time>2026-04-26T10:40:08.937Z</time></trkpt><trkpt lat="43.89113" lon="12.511145"><ele>450.20000000000005</ele><time>2026-04-26T10:40:09.937Z</time></trkpt><trkpt lat="43.89109" lon="12.51102"><ele>449.79999999999995</ele><time>2026-04-26T10:40:10.936Z</time></trkpt><trkpt lat="43.8910567" lon="12.5108633"><ele>449.4</ele><time>2026-04-26T10:40:11.937Z</time></trkpt><trkpt lat="43.891025" lon="12.5106783"><ele>449.0</ele><time>2026-04-26T10:40:12.937Z</time></trkpt><trkpt lat="43.8909867" lon="12.5104867"><ele>450.5</ele><time>2026-04-26T10:40:13.936Z</time></trkpt><trkpt lat="43.890945" lon="12.510305"><ele>452.0</ele><time>2026-04-26T10:40:14.937Z</time></trkpt><trkpt lat="43.8909033" lon="12.5101367"><ele>453.5</ele><time>2026-04-26T10:40:15.936Z</time></trkpt><trkpt lat="43.89086" lon="12.5099883"><ele>455.0</ele><time>2026-04-26T10:40:16.937Z</time></trkpt><trkpt lat="43.8907967" lon="12.509875"><ele>450.99999999999994</ele><time>2026-04-26T10:40:17.937Z</time></trkpt><trkpt lat="43.8907133" lon="12.5098083"><ele>447.0</ele><time>2026-04-26T10:40:18.936Z</time></trkpt><trkpt lat="43.8906267" lon="12.5098117"><ele>443.0</ele><time>2026-04-26T10:40:19.936Z</time></trkpt><trkpt lat="43.8905617" lon="12.5098667"><ele>439.0</ele><time>2026-04-26T10:40:20.937Z</time></trkpt><trkpt lat="43.890525" lon="12.5099533"><ele>434.99999999999994</ele><time>2026-04-26T10:40:21.936Z</time></trkpt><trkpt lat="43.890515" lon="12.510095"><ele>431.0</ele><time>2026-04-26T10:40:22.937Z</time></trkpt><trkpt lat="43.8905417" lon="12.5102883"><ele>428.66666666666663</ele><time>2026-04-26T10:40:23.937Z</time></trkpt><trkpt lat="43.890575" lon="12.5104917"><ele>426.33333333333337</ele><time>2026-04-26T10:40:24.937Z</time></trkpt><trkpt lat="43.8905967" lon="12.510695"><ele>424.0</ele><time>2026-04-26T10:40:25.937Z</time></trkpt><trkpt lat="43.89061" lon="12.5109067"><ele>424.0</ele><time>2026-04-26T10:40:26.937Z</time></trkpt><trkpt lat="43.890625" lon="12.511125"><ele>424.0</ele><time>2026-04-26T10:40:27.937Z</time></trkpt><trkpt lat="43.890645" lon="12.5113483"><ele>424.0</ele><time>2026-04-26T10:40:28.937Z</time></trkpt><trkpt lat="43.8906733" lon="12.5115767"><ele>422.0</ele><time>2026-04-26T10:40:29.937Z</time></trkpt><trkpt lat="43.8907217" lon="12.511805"><ele>420.0</ele><time>2026-04-26T10:40:30.937Z</time></trkpt><trkpt lat="43.89079" lon="12.5120367"><ele>418.0</ele><time>2026-04-26T10:40:31.936Z</time></trkpt><trkpt lat="43.8908633" lon="12.5122733"><ele>420.33333333333337</ele><time>2026-04-26T10:40:32.937Z</time></trkpt><trkpt lat="43.8909417" lon="12.51251"><ele>422.66666666666663</ele><time>2026-04-26T10:40:33.937Z</time></trkpt><trkpt lat="43.8910167" lon="12.5127483"><ele>425.0</ele><time>2026-04-26T10:40:34.937Z</time></trkpt><trkpt lat="43.8910867" lon="12.5129883"><ele>425.0</ele><time>2026-04-26T10:40:35.937Z</time></trkpt><trkpt lat="43.89116" lon="12.5132217"><ele>425.0</ele><time>2026-04-26T10:40:36.937Z</time></trkpt><trkpt lat="43.8912333" lon="12.513445"><ele>425.0</ele><time>2026-04-26T10:40:37.937Z</time></trkpt><trkpt lat="43.8913033" lon="12.51367"><ele>415.66666666666663</ele><time>2026-04-26T10:40:38.936Z</time></trkpt><trkpt lat="43.8913717" lon="12.5138867"><ele>406.33333333333337</ele><time>2026-04-26T10:40:39.937Z</time></trkpt><trkpt lat="43.891445" lon="12.5140983"><ele>397.0</ele><time>2026-04-26T10:40:40.937Z</time></trkpt><trkpt lat="43.89152" lon="12.514305"><ele>397.0</ele><time>2026-04-26T10:40:41.937Z</time></trkpt><trkpt lat="43.8915867" lon="12.5144983"><ele>397.0</ele><time>2026-04-26T10:40:42.937Z</time></trkpt><trkpt lat="43.8916417" lon="12.51467"><ele>397.0</ele><time>2026-04-26T10:40:43.936Z</time></trkpt><trkpt lat="43.891685" lon="12.5148133"><ele>397.0</ele><time>2026-04-26T10:40:44.937Z</time></trkpt><trkpt lat="43.8917067" lon="12.514935"><ele>394.6</ele><time>2026-04-26T10:40:45.936Z</time></trkpt><trkpt lat="43.8916833" lon="12.5150367"><ele>392.20000000000005</ele><time>2026-04-26T10:40:46.937Z</time></trkpt><trkpt lat="43.8915817" lon="12.5150883"><ele>389.8</ele><time>2026-04-26T10:40:48.937Z</time></trkpt><trkpt lat="43.8915283" lon="12.5150283"><ele>387.4</ele><time>2026-04-26T10:40:49.937Z</time></trkpt><trkpt lat="43.89149" lon="12.5149067"><ele>385.0</ele><time>2026-04-26T10:40:50.936Z</time></trkpt><trkpt lat="43.8914733" lon="12.5147667"><ele>385.0</ele><time>2026-04-26T10:40:51.937Z</time></trkpt><trkpt lat="43.8914483" lon="12.5146133"><ele>385.0</ele><time>2026-04-26T10:40:52.937Z</time></trkpt><trkpt lat="43.8913867" lon="12.5144967"><ele>385.0</ele><time>2026-04-26T10:40:53.936Z</time></trkpt><trkpt lat="43.8913117" lon="12.5144233"><ele>385.0</ele><time>2026-04-26T10:40:54.937Z</time></trkpt><trkpt lat="43.8912267" lon="12.5144167"><ele>385.0</ele><time>2026-04-26T10:40:55.936Z</time></trkpt><trkpt lat="43.8911567" lon="12.5144533"><ele>385.0</ele><time>2026-04-26T10:40:56.937Z</time></trkpt><trkpt lat="43.8911083" lon="12.5145333"><ele>385.0</ele><time>2026-04-26T10:40:57.937Z</time></trkpt><trkpt lat="43.891095" lon="12.5146717"><ele>385.0</ele><time>2026-04-26T10:40:58.937Z</time></trkpt><trkpt lat="43.8911333" lon="12.5148383"><ele>385.0</ele><time>2026-04-26T10:40:59.936Z</time></trkpt><trkpt lat="43.8911767" lon="12.5150233"><ele>385.0</ele><time>2026-04-26T10:41:00.936Z</time></trkpt><trkpt lat="43.8912267" lon="12.5152383"><ele>382.6666666666667</ele><time>2026-04-26T10:41:01.937Z</time></trkpt><trkpt lat="43.89127" lon="12.51547"><ele>380.33333333333337</ele><time>2026-04-26T10:41:02.937Z</time></trkpt><trkpt lat="43.8913117" lon="12.5157233"><ele>378.0</ele><time>2026-04-26T10:41:03.937Z</time></trkpt><trkpt lat="43.8913617" lon="12.5159817"><ele>374.3333333333333</ele><time>2026-04-26T10:41:04.937Z</time></trkpt><trkpt lat="43.8914183" lon="12.516245"><ele>370.66666666666663</ele><time>2026-04-26T10:41:05.937Z</time></trkpt><trkpt lat="43.8914783" lon="12.5165033"><ele>367.0</ele><time>2026-04-26T10:41:06.936Z</time></trkpt><trkpt lat="43.8915383" lon="12.51676"><ele>367.0</ele><time>2026-04-26T10:41:07.937Z</time></trkpt><trkpt lat="43.8915867" lon="12.5170183"><ele>367.0</ele><time>2026-04-26T10:41:08.937Z</time></trkpt><trkpt lat="43.8916283" lon="12.51727"><ele>367.0</ele><time>2026-04-26T10:41:09.937Z</time></trkpt><trkpt lat="43.8916567" lon="12.5175133"><ele>364.66666666666663</ele><time>2026-04-26T10:41:10.937Z</time></trkpt><trkpt lat="43.89167" lon="12.517755"><ele>362.3333333333333</ele><time>2026-04-26T10:41:11.937Z</time></trkpt><trkpt lat="43.8916717" lon="12.517995"><ele>360.0</ele><time>2026-04-26T10:41:12.937Z</time></trkpt><trkpt lat="43.89167" lon="12.51823"><ele>360.0</ele><time>2026-04-26T10:41:13.937Z</time></trkpt><trkpt lat="43.891655" lon="12.51846"><ele>360.0</ele><time>2026-04-26T10:41:14.937Z</time></trkpt><trkpt lat="43.891615" lon="12.5186817"><ele>360.0</ele><time>2026-04-26T10:41:15.937Z</time></trkpt><trkpt lat="43.8915567" lon="12.5188917"><ele>359.3333333333333</ele><time>2026-04-26T10:41:16.937Z</time></trkpt><trkpt lat="43.89147" lon="12.519085"><ele>358.66666666666663</ele><time>2026-04-26T10:41:17.937Z</time></trkpt><trkpt lat="43.8913767" lon="12.5192733"><ele>358.0</ele><time>2026-04-26T10:41:18.937Z</time></trkpt><trkpt lat="43.8912783" lon="12.5194633"><ele>359.0</ele><time>2026-04-26T10:41:19.937Z</time></trkpt><trkpt lat="43.8911817" lon="12.5196633"><ele>360.0</ele><time>2026-04-26T10:41:20.937Z</time></trkpt><trkpt lat="43.891085" lon="12.5198633"><ele>361.0</ele><time>2026-04-26T10:41:21.937Z</time></trkpt><trkpt lat="43.8909917" lon="12.5200617"><ele>358.3333333333333</ele><time>2026-04-26T10:41:22.937Z</time></trkpt><trkpt lat="43.890905" lon="12.5202583"><ele>355.6666666666667</ele><time>2026-04-26T10:41:23.937Z</time></trkpt><trkpt lat="43.89081" lon="12.5204333"><ele>353.0</ele><time>2026-04-26T10:41:24.937Z</time></trkpt><trkpt lat="43.890725" lon="12.52061"><ele>353.0</ele><time>2026-04-26T10:41:25.937Z</time></trkpt><trkpt lat="43.8906417" lon="12.5207817"><ele>353.0</ele><time>2026-04-26T10:41:26.937Z</time></trkpt><trkpt lat="43.890565" lon="12.5209517"><ele>353.0</ele><time>2026-04-26T10:41:27.936Z</time></trkpt><trkpt lat="43.890505" lon="12.52113"><ele>353.0</ele><time>2026-04-26T10:41:28.937Z</time></trkpt><trkpt lat="43.89047" lon="12.52132"><ele>351.75</ele><time>2026-04-26T10:41:29.937Z</time></trkpt><trkpt lat="43.890455" lon="12.5215067"><ele>350.5</ele><time>2026-04-26T10:41:30.937Z</time></trkpt><trkpt lat="43.8904633" lon="12.5216783"><ele>349.25</ele><time>2026-04-26T10:41:31.937Z</time></trkpt><trkpt lat="43.8904983" lon="12.5218283"><ele>348.0</ele><time>2026-04-26T10:41:32.937Z</time></trkpt><trkpt lat="43.89057" lon="12.5219433"><ele>348.0</ele><time>2026-04-26T10:41:33.937Z</time></trkpt><trkpt lat="43.8906633" lon="12.522015"><ele>348.0</ele><time>2026-04-26T10:41:34.936Z</time></trkpt><trkpt lat="43.8907767" lon="12.5220517"><ele>348.0</ele><time>2026-04-26T10:41:35.936Z</time></trkpt><trkpt lat="43.8908833" lon="12.5220933"><ele>348.0</ele><time>2026-04-26T10:41:36.936Z</time></trkpt><trkpt lat="43.8909683" lon="12.5221583"><ele>348.0</ele><time>2026-04-26T10:41:37.937Z</time></trkpt><trkpt lat="43.8910217" lon="12.5222433"><ele>347.0</ele><time>2026-04-26T10:41:38.937Z</time></trkpt><trkpt lat="43.89104" lon="12.522345"><ele>346.0</ele><time>2026-04-26T10:41:39.937Z</time></trkpt><trkpt lat="43.891015" lon="12.522445"><ele>345.0</ele><time>2026-04-26T10:41:40.937Z</time></trkpt><trkpt lat="43.89095" lon="12.5225167"><ele>344.0</ele><time>2026-04-26T10:41:41.937Z</time></trkpt><trkpt lat="43.8908667" lon="12.5225417"><ele>343.0</ele><time>2026-04-26T10:41:42.937Z</time></trkpt><trkpt lat="43.89077" lon="12.5225217"><ele>342.0</ele><time>2026-04-26T10:41:43.936Z</time></trkpt><trkpt lat="43.8906517" lon="12.5224833"><ele>340.25</ele><time>2026-04-26T10:41:44.937Z</time></trkpt><trkpt lat="43.8905117" lon="12.5224183"><ele>338.5</ele><time>2026-04-26T10:41:45.936Z</time></trkpt><trkpt lat="43.8903767" lon="12.52235"><ele>336.75</ele><time>2026-04-26T10:41:46.937Z</time></trkpt><trkpt lat="43.8902417" lon="12.52229"><ele>335.0</ele><time>2026-04-26T10:41:47.936Z</time></trkpt><trkpt lat="43.8901033" lon="12.52224"><ele>333.5</ele><time>2026-04-26T10:41:48.937Z</time></trkpt><trkpt lat="43.8899733" lon="12.5221917"><ele>332.0</ele><time>2026-04-26T10:41:49.937Z</time></trkpt><trkpt lat="43.8898583" lon="12.52213"><ele>330.5</ele><time>2026-04-26T10:41:50.937Z</time></trkpt><trkpt lat="43.8897733" lon="12.5220233"><ele>329.0</ele><time>2026-04-26T10:41:51.936Z</time></trkpt><trkpt lat="43.8897267" lon="12.5218733"><ele>329.0</ele><time>2026-04-26T10:41:52.937Z</time></trkpt><trkpt lat="43.8897167" lon="12.5217033"><ele>329.0</ele><time>2026-04-26T10:41:53.937Z</time></trkpt><trkpt lat="43.88971" lon="12.5215317"><ele>329.0</ele><time>2026-04-26T10:41:54.936Z</time></trkpt><trkpt lat="43.8896917" lon="12.5213533"><ele>329.0</ele><time>2026-04-26T10:41:55.937Z</time></trkpt><trkpt lat="43.8896417" lon="12.521185"><ele>329.25</ele><time>2026-04-26T10:41:56.937Z</time></trkpt><trkpt lat="43.889555" lon="12.521035"><ele>329.5</ele><time>2026-04-26T10:41:57.937Z</time></trkpt><trkpt lat="43.889455" lon="12.5209017"><ele>329.75</ele><time>2026-04-26T10:41:58.937Z</time></trkpt><trkpt lat="43.8893417" lon="12.5207967"><ele>330.0</ele><time>2026-04-26T10:41:59.937Z</time></trkpt><trkpt lat="43.8892117" lon="12.520725"><ele>326.25</ele><time>2026-04-26T10:42:00.937Z</time></trkpt><trkpt lat="43.8890733" lon="12.5207"><ele>322.5</ele><time>2026-04-26T10:42:01.936Z</time></trkpt><trkpt lat="43.8889267" lon="12.520715"><ele>318.75</ele><time>2026-04-26T10:42:02.937Z</time></trkpt><trkpt lat="43.8887733" lon="12.5207533"><ele>315.0</ele><time>2026-04-26T10:42:03.937Z</time></trkpt><trkpt lat="43.8886117" lon="12.5208067"><ele>315.0</ele><time>2026-04-26T10:42:04.936Z</time></trkpt><trkpt lat="43.888445" lon="12.5208633"><ele>315.0</ele><time>2026-04-26T10:42:05.936Z</time></trkpt><trkpt lat="43.8882817" lon="12.52092"><ele>315.0</ele><time>2026-04-26T10:42:06.937Z</time></trkpt><trkpt lat="43.888125" lon="12.520975"><ele>312.25</ele><time>2026-04-26T10:42:07.937Z</time></trkpt><trkpt lat="43.8879767" lon="12.5210267"><ele>309.5</ele><time>2026-04-26T10:42:08.937Z</time></trkpt><trkpt lat="43.8878417" lon="12.5210833"><ele>306.75</ele><time>2026-04-26T10:42:09.937Z</time></trkpt><trkpt lat="43.88772" lon="12.52116"><ele>304.0</ele><time>2026-04-26T10:42:10.937Z</time></trkpt><trkpt lat="43.8876167" lon="12.521275"><ele>301.0</ele><time>2026-04-26T10:42:11.936Z</time></trkpt><trkpt lat="43.88754" lon="12.5214217"><ele>298.0</ele><time>2026-04-26T10:42:12.937Z</time></trkpt><trkpt lat="43.887485" lon="12.5215883"><ele>295.0</ele><time>2026-04-26T10:42:13.937Z</time></trkpt><trkpt lat="43.8874383" lon="12.521765"><ele>292.0</ele><time>2026-04-26T10:42:14.936Z</time></trkpt><trkpt lat="43.8873883" lon="12.521945"><ele>289.5</ele><time>2026-04-26T10:42:15.937Z</time></trkpt><trkpt lat="43.8873267" lon="12.522115"><ele>287.0</ele><time>2026-04-26T10:42:16.937Z</time></trkpt><trkpt lat="43.8872517" lon="12.52226"><ele>284.5</ele><time>2026-04-26T10:42:17.937Z</time></trkpt><trkpt lat="43.8871583" lon="12.5223683"><ele>282.0</ele><time>2026-04-26T10:42:18.937Z</time></trkpt><trkpt lat="43.887045" lon="12.5224217"><ele>282.0</ele><time>2026-04-26T10:42:19.936Z</time></trkpt><trkpt lat="43.8869183" lon="12.5224283"><ele>282.0</ele><time>2026-04-26T10:42:20.937Z</time></trkpt><trkpt lat="43.8867867" lon="12.5223917"><ele>282.0</ele><time>2026-04-26T10:42:21.936Z</time></trkpt><trkpt lat="43.886655" lon="12.52232"><ele>282.0</ele><time>2026-04-26T10:42:22.937Z</time></trkpt><trkpt lat="43.8865283" lon="12.5222217"><ele>282.0</ele><time>2026-04-26T10:42:23.937Z</time></trkpt><trkpt lat="43.8864017" lon="12.5221233"><ele>282.0</ele><time>2026-04-26T10:42:24.937Z</time></trkpt><trkpt lat="43.886275" lon="12.5220417"><ele>282.0</ele><time>2026-04-26T10:42:25.937Z</time></trkpt><trkpt lat="43.8861583" lon="12.5219583"><ele>282.0</ele><time>2026-04-26T10:42:26.937Z</time></trkpt><trkpt lat="43.8860633" lon="12.5218517"><ele>282.75</ele><time>2026-04-26T10:42:27.937Z</time></trkpt><trkpt lat="43.8860017" lon="12.521715"><ele>283.5</ele><time>2026-04-26T10:42:28.937Z</time></trkpt><trkpt lat="43.88599" lon="12.521555"><ele>284.25</ele><time>2026-04-26T10:42:29.937Z</time></trkpt><trkpt lat="43.8860183" lon="12.5213867"><ele>285.0</ele><time>2026-04-26T10:42:30.937Z</time></trkpt><trkpt lat="43.8860617" lon="12.521225"><ele>283.5</ele><time>2026-04-26T10:42:31.937Z</time></trkpt><trkpt lat="43.886105" lon="12.5210667"><ele>282.0</ele><time>2026-04-26T10:42:32.937Z</time></trkpt><trkpt lat="43.886145" lon="12.5209033"><ele>280.5</ele><time>2026-04-26T10:42:33.936Z</time></trkpt><trkpt lat="43.8861917" lon="12.5207467"><ele>279.0</ele><time>2026-04-26T10:42:34.937Z</time></trkpt><trkpt lat="43.8862317" lon="12.5205917"><ele>279.0</ele><time>2026-04-26T10:42:35.937Z</time></trkpt><trkpt lat="43.8862533" lon="12.52044"><ele>279.0</ele><time>2026-04-26T10:42:36.937Z</time></trkpt><trkpt lat="43.8862517" lon="12.5203033"><ele>279.0</ele><time>2026-04-26T10:42:37.936Z</time></trkpt><trkpt lat="43.886215" lon="12.5201817"><ele>279.0</ele><time>2026-04-26T10:42:38.937Z</time></trkpt><trkpt lat="43.88614" lon="12.5201167"><ele>279.0</ele><time>2026-04-26T10:42:39.937Z</time></trkpt><trkpt lat="43.8860417" lon="12.5201217"><ele>277.0</ele><time>2026-04-26T10:42:40.937Z</time></trkpt><trkpt lat="43.8859417" lon="12.5201483"><ele>275.0</ele><time>2026-04-26T10:42:41.937Z</time></trkpt><trkpt lat="43.8858233" lon="12.5202083"><ele>273.0</ele><time>2026-04-26T10:42:42.937Z</time></trkpt><trkpt lat="43.8856917" lon="12.5203"><ele>271.0</ele><time>2026-04-26T10:42:43.937Z</time></trkpt><trkpt lat="43.8855517" lon="12.520375"><ele>270.0</ele><time>2026-04-26T10:42:44.937Z</time></trkpt><trkpt lat="43.8854117" lon="12.52044"><ele>269.0</ele><time>2026-04-26T10:42:45.936Z</time></trkpt><trkpt lat="43.8852683" lon="12.5205083"><ele>268.0</ele><time>2026-04-26T10:42:46.937Z</time></trkpt><trkpt lat="43.88512" lon="12.5205783"><ele>263.3333333333333</ele><time>2026-04-26T10:42:47.937Z</time></trkpt><trkpt lat="43.884975" lon="12.5206533"><ele>258.6666666666667</ele><time>2026-04-26T10:42:48.937Z</time></trkpt><trkpt lat="43.8848383" lon="12.5207433"><ele>254.0</ele><time>2026-04-26T10:42:49.937Z</time></trkpt><trkpt lat="43.884715" lon="12.5208667"><ele>254.0</ele><time>2026-04-26T10:42:50.937Z</time></trkpt><trkpt lat="43.884605" lon="12.5210167"><ele>254.0</ele><time>2026-04-26T10:42:51.936Z</time></trkpt><trkpt lat="43.8844983" lon="12.5211633"><ele>254.0</ele><time>2026-04-26T10:42:52.937Z</time></trkpt><trkpt lat="43.8843883" lon="12.5213117"><ele>254.0</ele><time>2026-04-26T10:42:53.937Z</time></trkpt><trkpt lat="43.8842717" lon="12.521455"><ele>254.0</ele><time>2026-04-26T10:42:54.937Z</time></trkpt><trkpt lat="43.8841567" lon="12.521595"><ele>254.0</ele><time>2026-04-26T10:42:55.937Z</time></trkpt><trkpt lat="43.884045" lon="12.521735"><ele>251.25</ele><time>2026-04-26T10:42:56.937Z</time></trkpt><trkpt lat="43.8839367" lon="12.5218733"><ele>248.5</ele><time>2026-04-26T10:42:57.937Z</time></trkpt><trkpt lat="43.8838367" lon="12.5220133"><ele>245.75</ele><time>2026-04-26T10:42:58.937Z</time></trkpt><trkpt lat="43.8837383" lon="12.5221467"><ele>243.0</ele><time>2026-04-26T10:42:59.936Z</time></trkpt><trkpt lat="43.88364" lon="12.52228"><ele>242.2</ele><time>2026-04-26T10:43:00.937Z</time></trkpt><trkpt lat="43.8835467" lon="12.522405"><ele>241.4</ele><time>2026-04-26T10:43:01.937Z</time></trkpt><trkpt lat="43.8834617" lon="12.5225283"><ele>240.59999999999997</ele><time>2026-04-26T10:43:02.937Z</time></trkpt><trkpt lat="43.8833917" lon="12.5226233"><ele>239.79999999999998</ele><time>2026-04-26T10:43:03.937Z</time></trkpt><trkpt lat="43.8833383" lon="12.52269"><ele>239.0</ele><time>2026-04-26T10:43:04.937Z</time></trkpt><trkpt lat="43.883265" lon="12.5227583"><ele>239.00000000000003</ele><time>2026-04-26T10:43:06.937Z</time></trkpt><trkpt lat="43.8832017" lon="12.52278"><ele>239.0</ele><time>2026-04-26T10:43:08.936Z</time></trkpt><trkpt lat="43.8831383" lon="12.5228467"><ele>239.0</ele><time>2026-04-26T10:43:16.937Z</time></trkpt><trkpt lat="43.8831667" lon="12.52294"><ele>239.0</ele><time>2026-04-26T10:43:18.937Z</time></trkpt><trkpt lat="43.8832167" lon="12.5229933"><ele>239.00000000000003</ele><time>2026-04-26T10:43:19.937Z</time></trkpt><trkpt lat="43.88329" lon="12.5230533"><ele>239.0</ele><time>2026-04-26T10:43:20.937Z</time></trkpt><trkpt lat="43.88338" lon="12.5231183"><ele>238.0</ele><time>2026-04-26T10:43:21.937Z</time></trkpt><trkpt lat="43.8834717" lon="12.5231917"><ele>236.99999999999997</ele><time>2026-04-26T10:43:22.936Z</time></trkpt><trkpt lat="43.8835667" lon="12.5232667"><ele>235.99999999999997</ele><time>2026-04-26T10:43:23.936Z</time></trkpt><trkpt lat="43.88366" lon="12.5233467"><ele>235.0</ele><time>2026-04-26T10:43:24.937Z</time></trkpt><trkpt lat="43.8837517" lon="12.5234267"><ele>234.0</ele><time>2026-04-26T10:43:25.937Z</time></trkpt><trkpt lat="43.8838317" lon="12.5235183"><ele>234.0</ele><time>2026-04-26T10:43:26.937Z</time></trkpt><trkpt lat="43.8839083" lon="12.5236117"><ele>233.99999999999997</ele><time>2026-04-26T10:43:27.937Z</time></trkpt><trkpt lat="43.883975" lon="12.5237117"><ele>233.99999999999997</ele><time>2026-04-26T10:43:28.937Z</time></trkpt><trkpt lat="43.88404" lon="12.5238183"><ele>234.0</ele><time>2026-04-26T10:43:29.937Z</time></trkpt><trkpt lat="43.8840967" lon="12.5239483"><ele>234.0</ele><time>2026-04-26T10:43:30.936Z</time></trkpt><trkpt lat="43.8841467" lon="12.5240933"><ele>233.25</ele><time>2026-04-26T10:43:31.936Z</time></trkpt><trkpt lat="43.884185" lon="12.524245"><ele>232.5</ele><time>2026-04-26T10:43:32.937Z</time></trkpt><trkpt lat="43.8842267" lon="12.5244017"><ele>231.75</ele><time>2026-04-26T10:43:33.937Z</time></trkpt><trkpt lat="43.8842567" lon="12.5245667"><ele>231.0</ele><time>2026-04-26T10:43:34.937Z</time></trkpt><trkpt lat="43.8843017" lon="12.5247317"><ele>231.0</ele><time>2026-04-26T10:43:35.937Z</time></trkpt><trkpt lat="43.8843467" lon="12.5249067"><ele>231.0</ele><time>2026-04-26T10:43:36.937Z</time></trkpt><trkpt lat="43.8843983" lon="12.52509"><ele>231.0</ele><time>2026-04-26T10:43:37.936Z</time></trkpt><trkpt lat="43.8844583" lon="12.5252733"><ele>231.0</ele><time>2026-04-26T10:43:38.937Z</time></trkpt><trkpt lat="43.884525" lon="12.52545"><ele>228.5</ele><time>2026-04-26T10:43:39.937Z</time></trkpt><trkpt lat="43.8845917" lon="12.5256133"><ele>226.0</ele><time>2026-04-26T10:43:40.936Z</time></trkpt><trkpt lat="43.8846533" lon="12.525765"><ele>223.5</ele><time>2026-04-26T10:43:41.937Z</time></trkpt><trkpt lat="43.8847133" lon="12.525905"><ele>221.0</ele><time>2026-04-26T10:43:42.936Z</time></trkpt><trkpt lat="43.8847583" lon="12.5260417"><ele>221.0</ele><time>2026-04-26T10:43:43.937Z</time></trkpt><trkpt lat="43.884785" lon="12.52618"><ele>221.00000000000003</ele><time>2026-04-26T10:43:44.937Z</time></trkpt><trkpt lat="43.8847983" lon="12.5263217"><ele>221.00000000000003</ele><time>2026-04-26T10:43:45.937Z</time></trkpt><trkpt lat="43.8847967" lon="12.5264633"><ele>221.0</ele><time>2026-04-26T10:43:46.936Z</time></trkpt><trkpt lat="43.88478" lon="12.5266017"><ele>221.0</ele><time>2026-04-26T10:43:47.937Z</time></trkpt><trkpt lat="43.8847767" lon="12.52673"><ele>219.20000000000002</ele><time>2026-04-26T10:43:48.936Z</time></trkpt><trkpt lat="43.8848" lon="12.526845"><ele>217.40000000000003</ele><time>2026-04-26T10:43:49.937Z</time></trkpt><trkpt lat="43.884855" lon="12.5269233"><ele>215.6</ele><time>2026-04-26T10:43:50.937Z</time></trkpt><trkpt lat="43.88494" lon="12.526975"><ele>213.8</ele><time>2026-04-26T10:43:51.937Z</time></trkpt><trkpt lat="43.8850483" lon="12.5270333"><ele>212.0</ele><time>2026-04-26T10:43:52.936Z</time></trkpt><trkpt lat="43.8851667" lon="12.5271167"><ele>212.0</ele><time>2026-04-26T10:43:53.937Z</time></trkpt><trkpt lat="43.8852883" lon="12.5272283"><ele>212.0</ele><time>2026-04-26T10:43:54.936Z</time></trkpt><trkpt lat="43.8854133" lon="12.5273583"><ele>212.0</ele><time>2026-04-26T10:43:55.937Z</time></trkpt><trkpt lat="43.8855417" lon="12.5275033"><ele>212.0</ele><time>2026-04-26T10:43:56.936Z</time></trkpt><trkpt lat="43.8856717" lon="12.5276667"><ele>212.0</ele><time>2026-04-26T10:43:57.937Z</time></trkpt><trkpt lat="43.8858083" lon="12.527845"><ele>212.0</ele><time>2026-04-26T10:43:58.936Z</time></trkpt><trkpt lat="43.8859517" lon="12.5280283"><ele>213.66666666666669</ele><time>2026-04-26T10:43:59.937Z</time></trkpt><trkpt lat="43.8861" lon="12.528215"><ele>215.33333333333331</ele><time>2026-04-26T10:44:00.937Z</time></trkpt><trkpt lat="43.8862417" lon="12.5284083"><ele>217.0</ele><time>2026-04-26T10:44:01.937Z</time></trkpt><trkpt lat="43.8863833" lon="12.5286"><ele>217.66666666666666</ele><time>2026-04-26T10:44:02.937Z</time></trkpt><trkpt lat="43.8865267" lon="12.5287883"><ele>218.33333333333331</ele><time>2026-04-26T10:44:03.937Z</time></trkpt><trkpt lat="43.8866667" lon="12.5289783"><ele>219.0</ele><time>2026-04-26T10:44:04.937Z</time></trkpt><trkpt lat="43.8868033" lon="12.529165"><ele>219.0</ele><time>2026-04-26T10:44:05.937Z</time></trkpt><trkpt lat="43.8869433" lon="12.52935"><ele>219.0</ele><time>2026-04-26T10:44:06.937Z</time></trkpt><trkpt lat="43.8870817" lon="12.5295417"><ele>219.0</ele><time>2026-04-26T10:44:07.937Z</time></trkpt><trkpt lat="43.8872283" lon="12.5297267"><ele>219.33333333333331</ele><time>2026-04-26T10:44:08.937Z</time></trkpt><trkpt lat="43.8873717" lon="12.5299183"><ele>219.66666666666666</ele><time>2026-04-26T10:44:09.937Z</time></trkpt><trkpt lat="43.8875133" lon="12.5301083"><ele>220.0</ele><time>2026-04-26T10:44:10.937Z</time></trkpt><trkpt lat="43.887645" lon="12.5302933"><ele>216.33333333333331</ele><time>2026-04-26T10:44:11.937Z</time></trkpt><trkpt lat="43.887775" lon="12.530475"><ele>212.66666666666669</ele><time>2026-04-26T10:44:12.936Z</time></trkpt><trkpt lat="43.8879017" lon="12.530655"><ele>209.0</ele><time>2026-04-26T10:44:13.937Z</time></trkpt><trkpt lat="43.8880283" lon="12.5308333"><ele>209.0</ele><time>2026-04-26T10:44:14.937Z</time></trkpt><trkpt lat="43.8881583" lon="12.53101"><ele>209.0</ele><time>2026-04-26T10:44:15.936Z</time></trkpt><trkpt lat="43.88829" lon="12.531185"><ele>209.0</ele><time>2026-04-26T10:44:16.937Z</time></trkpt><trkpt lat="43.8884217" lon="12.5313633"><ele>210.33333333333334</ele><time>2026-04-26T10:44:17.937Z</time></trkpt><trkpt lat="43.8885583" lon="12.53154"><ele>211.66666666666669</ele><time>2026-04-26T10:44:18.936Z</time></trkpt><trkpt lat="43.8887" lon="12.531705"><ele>213.0</ele><time>2026-04-26T10:44:19.937Z</time></trkpt><trkpt lat="43.88885" lon="12.5318683"><ele>213.0</ele><time>2026-04-26T10:44:20.937Z</time></trkpt><trkpt lat="43.8890067" lon="12.532025"><ele>213.0</ele><time>2026-04-26T10:44:21.936Z</time></trkpt><trkpt lat="43.8891617" lon="12.5321817"><ele>213.0</ele><time>2026-04-26T10:44:22.937Z</time></trkpt><trkpt lat="43.88932" lon="12.532335"><ele>209.66666666666669</ele><time>2026-04-26T10:44:23.936Z</time></trkpt><trkpt lat="43.8894833" lon="12.5324683"><ele>206.33333333333334</ele><time>2026-04-26T10:44:24.937Z</time></trkpt><trkpt lat="43.8896467" lon="12.5326033"><ele>203.0</ele><time>2026-04-26T10:44:25.937Z</time></trkpt><trkpt lat="43.8898183" lon="12.532725"><ele>203.0</ele><time>2026-04-26T10:44:26.936Z</time></trkpt><trkpt lat="43.889985" lon="12.5328367"><ele>203.0</ele><time>2026-04-26T10:44:27.937Z</time></trkpt><trkpt lat="43.8901483" lon="12.5329433"><ele>203.0</ele><time>2026-04-26T10:44:28.936Z</time></trkpt><trkpt lat="43.890315" lon="12.5330417"><ele>201.66666666666669</ele><time>2026-04-26T10:44:29.937Z</time></trkpt><trkpt lat="43.89048" lon="12.5331367"><ele>200.33333333333331</ele><time>2026-04-26T10:44:30.937Z</time></trkpt><trkpt lat="43.8906467" lon="12.5332167"><ele>199.0</ele><time>2026-04-26T10:44:31.937Z</time></trkpt><trkpt lat="43.8908167" lon="12.533285"><ele>198.33333333333331</ele><time>2026-04-26T10:44:32.937Z</time></trkpt><trkpt lat="43.8909883" lon="12.5333417"><ele>197.66666666666669</ele><time>2026-04-26T10:44:33.937Z</time></trkpt><trkpt lat="43.891165" lon="12.5333883"><ele>197.0</ele><time>2026-04-26T10:44:34.937Z</time></trkpt><trkpt lat="43.8913417" lon="12.5334283"><ele>197.0</ele><time>2026-04-26T10:44:35.937Z</time></trkpt><trkpt lat="43.89152" lon="12.5334633"><ele>197.0</ele><time>2026-04-26T10:44:36.937Z</time></trkpt><trkpt lat="43.8916967" lon="12.5335067"><ele>197.0</ele><time>2026-04-26T10:44:37.937Z</time></trkpt><trkpt lat="43.8918767" lon="12.533545"><ele>196.66666666666669</ele><time>2026-04-26T10:44:38.937Z</time></trkpt><trkpt lat="43.8920567" lon="12.533575"><ele>196.33333333333331</ele><time>2026-04-26T10:44:39.937Z</time></trkpt><trkpt lat="43.8922367" lon="12.5336033"><ele>196.0</ele><time>2026-04-26T10:44:40.936Z</time></trkpt><trkpt lat="43.89242" lon="12.5336317"><ele>195.66666666666666</ele><time>2026-04-26T10:44:41.937Z</time></trkpt><trkpt lat="43.8926017" lon="12.53366"><ele>195.33333333333331</ele><time>2026-04-26T10:44:42.937Z</time></trkpt><trkpt lat="43.892785" lon="12.533685"><ele>195.0</ele><time>2026-04-26T10:44:43.937Z</time></trkpt><trkpt lat="43.8929683" lon="12.5336967"><ele>195.0</ele><time>2026-04-26T10:44:44.937Z</time></trkpt><trkpt lat="43.8931517" lon="12.5336983"><ele>195.0</ele><time>2026-04-26T10:44:45.936Z</time></trkpt><trkpt lat="43.8933383" lon="12.53369"><ele>195.0</ele><time>2026-04-26T10:44:46.937Z</time></trkpt><trkpt lat="43.893525" lon="12.5336783"><ele>196.33333333333331</ele><time>2026-04-26T10:44:47.936Z</time></trkpt><trkpt lat="43.8937133" lon="12.5336667"><ele>197.66666666666666</ele><time>2026-04-26T10:44:48.937Z</time></trkpt><trkpt lat="43.8938983" lon="12.5336483"><ele>199.0</ele><time>2026-04-26T10:44:49.937Z</time></trkpt><trkpt lat="43.8940833" lon="12.53363"><ele>199.33333333333331</ele><time>2026-04-26T10:44:50.937Z</time></trkpt><trkpt lat="43.8942667" lon="12.5336083"><ele>199.66666666666669</ele><time>2026-04-26T10:44:51.937Z</time></trkpt><trkpt lat="43.8944517" lon="12.53359"><ele>200.0</ele><time>2026-04-26T10:44:52.937Z</time></trkpt><trkpt lat="43.894635" lon="12.53357"><ele>200.0</ele><time>2026-04-26T10:44:53.936Z</time></trkpt><trkpt lat="43.8948233" lon="12.53355"><ele>200.0</ele><time>2026-04-26T10:44:54.937Z</time></trkpt><trkpt lat="43.8950117" lon="12.5335317"><ele>200.0</ele><time>2026-04-26T10:44:55.937Z</time></trkpt><trkpt lat="43.8952033" lon="12.5335083"><ele>199.66666666666669</ele><time>2026-04-26T10:44:56.937Z</time></trkpt><trkpt lat="43.8953983" lon="12.5334833"><ele>199.33333333333331</ele><time>2026-04-26T10:44:57.937Z</time></trkpt><trkpt lat="43.89559" lon="12.5334617"><ele>199.0</ele><time>2026-04-26T10:44:58.937Z</time></trkpt><trkpt lat="43.8957783" lon="12.5334433"><ele>199.0</ele><time>2026-04-26T10:44:59.936Z</time></trkpt><trkpt lat="43.8959617" lon="12.5334267"><ele>199.0</ele><time>2026-04-26T10:45:00.937Z</time></trkpt><trkpt lat="43.89614" lon="12.5334183"><ele>199.0</ele><time>2026-04-26T10:45:01.937Z</time></trkpt><trkpt lat="43.8963133" lon="12.5334233"><ele>199.0</ele><time>2026-04-26T10:45:02.937Z</time></trkpt><trkpt lat="43.896475" lon="12.533435"><ele>199.0</ele><time>2026-04-26T10:45:03.937Z</time></trkpt><trkpt lat="43.896625" lon="12.5334517"><ele>199.0</ele><time>2026-04-26T10:45:04.937Z</time></trkpt><trkpt lat="43.8967667" lon="12.5334767"><ele>199.75</ele><time>2026-04-26T10:45:05.937Z</time></trkpt><trkpt lat="43.8969" lon="12.5335083"><ele>200.5</ele><time>2026-04-26T10:45:06.937Z</time></trkpt><trkpt lat="43.8970317" lon="12.5335383"><ele>201.25</ele><time>2026-04-26T10:45:07.936Z</time></trkpt><trkpt lat="43.897165" lon="12.5335667"><ele>202.0</ele><time>2026-04-26T10:45:08.936Z</time></trkpt><trkpt lat="43.8973" lon="12.533595"><ele>202.0</ele><time>2026-04-26T10:45:09.937Z</time></trkpt><trkpt lat="43.8974267" lon="12.53362"><ele>202.0</ele><time>2026-04-26T10:45:10.937Z</time></trkpt><trkpt lat="43.89755" lon="12.5336383"><ele>202.0</ele><time>2026-04-26T10:45:11.936Z</time></trkpt><trkpt lat="43.8976667" lon="12.5336533"><ele>202.0</ele><time>2026-04-26T10:45:12.937Z</time></trkpt><trkpt lat="43.89778" lon="12.5336717"><ele>203.0</ele><time>2026-04-26T10:45:13.937Z</time></trkpt><trkpt lat="43.8978917" lon="12.53369"><ele>204.0</ele><time>2026-04-26T10:45:14.937Z</time></trkpt><trkpt lat="43.898005" lon="12.53371"><ele>205.0</ele><time>2026-04-26T10:45:15.937Z</time></trkpt><trkpt lat="43.89812" lon="12.53373"><ele>206.0</ele><time>2026-04-26T10:45:16.936Z</time></trkpt><trkpt lat="43.8982367" lon="12.53375"><ele>203.25</ele><time>2026-04-26T10:45:17.937Z</time></trkpt><trkpt lat="43.8983517" lon="12.5337717"><ele>200.5</ele><time>2026-04-26T10:45:18.936Z</time></trkpt><trkpt lat="43.89847" lon="12.533785"><ele>197.75</ele><time>2026-04-26T10:45:19.937Z</time></trkpt><trkpt lat="43.8985917" lon="12.5338"><ele>195.0</ele><time>2026-04-26T10:45:20.936Z</time></trkpt><trkpt lat="43.8987133" lon="12.5338217"><ele>194.0</ele><time>2026-04-26T10:45:21.937Z</time></trkpt><trkpt lat="43.89884" lon="12.5338383"><ele>193.0</ele><time>2026-04-26T10:45:22.937Z</time></trkpt><trkpt lat="43.8989717" lon="12.5338633"><ele>192.0</ele><time>2026-04-26T10:45:23.937Z</time></trkpt><trkpt lat="43.89911" lon="12.53388"><ele>191.0</ele><time>2026-04-26T10:45:24.937Z</time></trkpt><trkpt lat="43.8992567" lon="12.5339017"><ele>191.0</ele><time>2026-04-26T10:45:25.936Z</time></trkpt><trkpt lat="43.8994083" lon="12.533925"><ele>191.0</ele><time>2026-04-26T10:45:26.936Z</time></trkpt><trkpt lat="43.899565" lon="12.53395"><ele>191.0</ele><time>2026-04-26T10:45:27.937Z</time></trkpt><trkpt lat="43.8997233" lon="12.5339733"><ele>191.0</ele><time>2026-04-26T10:45:28.936Z</time></trkpt><trkpt lat="43.8998833" lon="12.534"><ele>191.0</ele><time>2026-04-26T10:45:29.936Z</time></trkpt><trkpt lat="43.9000467" lon="12.5340317"><ele>191.0</ele><time>2026-04-26T10:45:30.937Z</time></trkpt><trkpt lat="43.90021" lon="12.534065"><ele>194.33333333333331</ele><time>2026-04-26T10:45:31.937Z</time></trkpt><trkpt lat="43.9003717" lon="12.5341083"><ele>197.66666666666666</ele><time>2026-04-26T10:45:32.936Z</time></trkpt><trkpt lat="43.9005317" lon="12.5341633"><ele>201.0</ele><time>2026-04-26T10:45:33.937Z</time></trkpt><trkpt lat="43.9006933" lon="12.534225"><ele>201.0</ele><time>2026-04-26T10:45:34.936Z</time></trkpt><trkpt lat="43.9008533" lon="12.53431"><ele>201.0</ele><time>2026-04-26T10:45:35.937Z</time></trkpt><trkpt lat="43.9010033" lon="12.53441"><ele>201.0</ele><time>2026-04-26T10:45:36.937Z</time></trkpt><trkpt lat="43.901145" lon="12.534505"><ele>201.25</ele><time>2026-04-26T10:45:37.937Z</time></trkpt><trkpt lat="43.90127" lon="12.5346067"><ele>201.5</ele><time>2026-04-26T10:45:38.936Z</time></trkpt><trkpt lat="43.9013767" lon="12.5347133"><ele>201.75</ele><time>2026-04-26T10:45:39.937Z</time></trkpt><trkpt lat="43.901475" lon="12.534815"><ele>202.0</ele><time>2026-04-26T10:45:40.936Z</time></trkpt><trkpt lat="43.9015667" lon="12.5349083"><ele>201.99999999999997</ele><time>2026-04-26T10:45:41.937Z</time></trkpt><trkpt lat="43.9016483" lon="12.5349933"><ele>202.0</ele><time>2026-04-26T10:45:42.937Z</time></trkpt><trkpt lat="43.9017317" lon="12.5350483"><ele>202.0</ele><time>2026-04-26T10:45:43.937Z</time></trkpt><trkpt lat="43.9018117" lon="12.535065"><ele>202.0</ele><time>2026-04-26T10:45:44.937Z</time></trkpt><trkpt lat="43.9018783" lon="12.5350417"><ele>201.99999999999997</ele><time>2026-04-26T10:45:45.937Z</time></trkpt><trkpt lat="43.9019383" lon="12.534975"><ele>202.0</ele><time>2026-04-26T10:45:46.937Z</time></trkpt><trkpt lat="43.901995" lon="12.5348533"><ele>202.0</ele><time>2026-04-26T10:45:47.936Z</time></trkpt><trkpt lat="43.9020483" lon="12.5347"><ele>202.0</ele><time>2026-04-26T10:45:48.937Z</time></trkpt><trkpt lat="43.9021083" lon="12.5345417"><ele>202.0</ele><time>2026-04-26T10:45:49.937Z</time></trkpt><trkpt lat="43.9021767" lon="12.5343917"><ele>202.0</ele><time>2026-04-26T10:45:50.937Z</time></trkpt><trkpt lat="43.9022317" lon="12.5342467"><ele>202.49999999999997</ele><time>2026-04-26T10:45:51.936Z</time></trkpt><trkpt lat="43.9022883" lon="12.5341133"><ele>203.0</ele><time>2026-04-26T10:45:52.937Z</time></trkpt><trkpt lat="43.9023367" lon="12.534"><ele>203.5</ele><time>2026-04-26T10:45:53.937Z</time></trkpt><trkpt lat="43.9023683" lon="12.5338917"><ele>204.0</ele><time>2026-04-26T10:45:54.937Z</time></trkpt><trkpt lat="43.9023767" lon="12.5337967"><ele>204.49999999999997</ele><time>2026-04-26T10:45:55.937Z</time></trkpt><trkpt lat="43.9023383" lon="12.5337167"><ele>205.0</ele><time>2026-04-26T10:45:56.936Z</time></trkpt><trkpt lat="43.9022667" lon="12.5336583"><ele>206.25</ele><time>2026-04-26T10:45:57.936Z</time></trkpt><trkpt lat="43.9021767" lon="12.533605"><ele>207.5</ele><time>2026-04-26T10:45:58.937Z</time></trkpt><trkpt lat="43.9020617" lon="12.533545"><ele>208.75</ele><time>2026-04-26T10:45:59.937Z</time></trkpt><trkpt lat="43.9019417" lon="12.5334683"><ele>210.0</ele><time>2026-04-26T10:46:00.937Z</time></trkpt><trkpt lat="43.9018167" lon="12.533375"><ele>209.25</ele><time>2026-04-26T10:46:01.937Z</time></trkpt><trkpt lat="43.901695" lon="12.5332817"><ele>208.5</ele><time>2026-04-26T10:46:02.937Z</time></trkpt><trkpt lat="43.90158" lon="12.5332"><ele>207.75</ele><time>2026-04-26T10:46:03.937Z</time></trkpt><trkpt lat="43.901475" lon="12.533125"><ele>207.0</ele><time>2026-04-26T10:46:04.937Z</time></trkpt><trkpt lat="43.9013833" lon="12.5330617"><ele>207.0</ele><time>2026-04-26T10:46:05.937Z</time></trkpt><trkpt lat="43.9013033" lon="12.5330233"><ele>207.0</ele><time>2026-04-26T10:46:06.936Z</time></trkpt><trkpt lat="43.9012333" lon="12.5330317"><ele>207.0</ele><time>2026-04-26T10:46:07.936Z</time></trkpt><trkpt lat="43.9011767" lon="12.53309"><ele>207.0</ele><time>2026-04-26T10:46:08.937Z</time></trkpt><trkpt lat="43.9011217" lon="12.5331883"><ele>207.0</ele><time>2026-04-26T10:46:09.937Z</time></trkpt><trkpt lat="43.901055" lon="12.5333067"><ele>207.0</ele><time>2026-04-26T10:46:10.936Z</time></trkpt><trkpt lat="43.9009717" lon="12.5334133"><ele>205.75</ele><time>2026-04-26T10:46:11.937Z</time></trkpt><trkpt lat="43.900885" lon="12.533535"><ele>204.5</ele><time>2026-04-26T10:46:12.937Z</time></trkpt><trkpt lat="43.9007933" lon="12.5336433"><ele>203.25</ele><time>2026-04-26T10:46:13.937Z</time></trkpt><trkpt lat="43.9006967" lon="12.5337383"><ele>202.0</ele><time>2026-04-26T10:46:14.937Z</time></trkpt><trkpt lat="43.90061" lon="12.5338267"><ele>201.83333333333331</ele><time>2026-04-26T10:46:15.937Z</time></trkpt><trkpt lat="43.9005367" lon="12.5339283"><ele>201.66666666666666</ele><time>2026-04-26T10:46:16.936Z</time></trkpt><trkpt lat="43.90048" lon="12.5340267"><ele>201.5</ele><time>2026-04-26T10:46:17.937Z</time></trkpt><trkpt lat="43.9004367" lon="12.534125"><ele>201.33333333333331</ele><time>2026-04-26T10:46:18.937Z</time></trkpt><trkpt lat="43.9004283" lon="12.5342283"><ele>201.16666666666666</ele><time>2026-04-26T10:46:19.937Z</time></trkpt><trkpt lat="43.9004533" lon="12.53435"><ele>201.0</ele><time>2026-04-26T10:46:21.937Z</time></trkpt><trkpt lat="43.9003583" lon="12.53442"><ele>201.0</ele><time>2026-04-26T10:46:24.937Z</time></trkpt><trkpt lat="43.9002883" lon="12.5344517"><ele>201.0</ele><time>2026-04-26T10:46:25.937Z</time></trkpt><trkpt lat="43.90022" lon="12.5344833"><ele>201.0</ele><time>2026-04-26T10:46:26.937Z</time></trkpt><trkpt lat="43.900155" lon="12.5345317"><ele>201.0</ele><time>2026-04-26T10:46:27.937Z</time></trkpt><trkpt lat="43.9000933" lon="12.5345933"><ele>201.0</ele><time>2026-04-26T10:46:28.937Z</time></trkpt><trkpt lat="43.90003" lon="12.5346683"><ele>201.0</ele><time>2026-04-26T10:46:29.937Z</time></trkpt><trkpt lat="43.8999583" lon="12.5347583"><ele>198.4</ele><time>2026-04-26T10:46:30.937Z</time></trkpt><trkpt lat="43.8998783" lon="12.534835"><ele>195.8</ele><time>2026-04-26T10:46:31.937Z</time></trkpt><trkpt lat="43.899785" lon="12.5349033"><ele>193.20000000000002</ele><time>2026-04-26T10:46:32.937Z</time></trkpt><trkpt lat="43.899685" lon="12.5349633"><ele>190.60000000000002</ele><time>2026-04-26T10:46:33.937Z</time></trkpt><trkpt lat="43.89959" lon="12.5350217"><ele>188.0</ele><time>2026-04-26T10:46:34.937Z</time></trkpt><trkpt lat="43.8995083" lon="12.5350683"><ele>188.0</ele><time>2026-04-26T10:46:35.936Z</time></trkpt><trkpt lat="43.89944" lon="12.5351067"><ele>188.0</ele><time>2026-04-26T10:46:36.937Z</time></trkpt><trkpt lat="43.8993567" lon="12.5351383"><ele>188.0</ele><time>2026-04-26T10:46:38.937Z</time></trkpt><trkpt lat="43.8992833" lon="12.535155"><ele>188.0</ele><time>2026-04-26T10:46:40.937Z</time></trkpt><trkpt lat="43.8991917" lon="12.535205"><ele>188.0</ele><time>2026-04-26T10:46:42.937Z</time></trkpt><trkpt lat="43.8991367" lon="12.535255"><ele>188.0</ele><time>2026-04-26T10:46:43.937Z</time></trkpt><trkpt lat="43.8990567" lon="12.5353483"><ele>187.16666666666666</ele><time>2026-04-26T10:46:45.937Z</time></trkpt><trkpt lat="43.8990433" lon="12.5354483"><ele>186.33333333333331</ele><time>2026-04-26T10:46:47.937Z</time></trkpt><trkpt lat="43.8990617" lon="12.5356167"><ele>185.5</ele><time>2026-04-26T10:46:49.937Z</time></trkpt><trkpt lat="43.8990833" lon="12.535735"><ele>184.66666666666666</ele><time>2026-04-26T10:46:51.936Z</time></trkpt><trkpt lat="43.8991017" lon="12.5358317"><ele>183.83333333333334</ele><time>2026-04-26T10:46:53.936Z</time></trkpt><trkpt lat="43.8991" lon="12.5359367"><ele>183.0</ele><time>2026-04-26T10:46:55.936Z</time></trkpt><trkpt lat="43.899115" lon="12.5360867"><ele>182.83333333333334</ele><time>2026-04-26T10:46:57.937Z</time></trkpt><trkpt lat="43.8991283" lon="12.536235"><ele>182.66666666666666</ele><time>2026-04-26T10:46:59.937Z</time></trkpt><trkpt lat="43.89912" lon="12.5363383"><ele>182.5</ele><time>2026-04-26T10:47:01.937Z</time></trkpt><trkpt lat="43.8991033" lon="12.536425"><ele>182.33333333333331</ele><time>2026-04-26T10:47:03.937Z</time></trkpt><trkpt lat="43.8990833" lon="12.5365083"><ele>182.16666666666666</ele><time>2026-04-26T10:47:07.937Z</time></trkpt><trkpt lat="43.8990117" lon="12.5365517"><ele>182.0</ele><time>2026-04-26T10:47:49.937Z</time></trkpt><trkpt lat="43.8989267" lon="12.5365617"><ele>182.0</ele><time>2026-04-26T10:47:52.937Z</time></trkpt><trkpt lat="43.8988217" lon="12.5365733"><ele>182.0</ele><time>2026-04-26T10:47:54.937Z</time></trkpt><trkpt lat="43.8987583" lon="12.5365867"><ele>182.0</ele><time>2026-04-26T10:47:55.937Z</time></trkpt><trkpt lat="43.8986883" lon="12.5366067"><ele>182.0</ele><time>2026-04-26T10:47:56.937Z</time></trkpt><trkpt lat="43.898615" lon="12.536635"><ele>182.0</ele><time>2026-04-26T10:47:57.936Z</time></trkpt><trkpt lat="43.8985433" lon="12.53665"><ele>182.0</ele><time>2026-04-26T10:47:58.937Z</time></trkpt><trkpt lat="43.8984783" lon="12.5366767"><ele>182.0</ele><time>2026-04-26T10:47:59.937Z</time></trkpt><trkpt lat="43.898425" lon="12.5367283"><ele>182.0</ele><time>2026-04-26T10:48:00.937Z</time></trkpt><trkpt lat="43.8983333" lon="12.5368417"><ele>182.0</ele><time>2026-04-26T10:48:02.937Z</time></trkpt><trkpt lat="43.8982717" lon="12.536965"><ele>182.0</ele><time>2026-04-26T10:48:04.936Z</time></trkpt><trkpt lat="43.898285" lon="12.5370717"><ele>182.0</ele><time>2026-04-26T10:48:06.937Z</time></trkpt><trkpt lat="43.8983383" lon="12.5371717"><ele>182.0</ele><time>2026-04-26T10:48:08.937Z</time></trkpt><trkpt lat="43.8983817" lon="12.537235"><ele>182.0</ele><time>2026-04-26T10:48:10.937Z</time></trkpt><trkpt lat="43.898355" lon="12.5373217"><ele>182.0</ele><time>2026-04-26T10:48:20.937Z</time></trkpt><trkpt lat="43.898265" lon="12.53733"><ele>182.0</ele><time>2026-04-26T10:48:23.937Z</time></trkpt><trkpt lat="43.8981917" lon="12.537365"><ele>182.0</ele><time>2026-04-26T10:48:26.937Z</time></trkpt><trkpt lat="43.8981917" lon="12.53747"><ele>182.0</ele><time>2026-04-26T10:48:33.937Z</time></trkpt><trkpt lat="43.8982417" lon="12.5375667"><ele>182.0</ele><time>2026-04-26T10:48:37.937Z</time></trkpt><trkpt lat="43.8983039" lon="12.5376337"><ele>182.0</ele><time>2026-04-26T10:48:41.177Z</time></trkpt><trkpt lat="43.898349" lon="12.5376958"><ele>182.0</ele><time>2026-04-26T10:48:44.099Z</time></trkpt><trkpt lat="43.8984106" lon="12.5377455"><ele>182.0</ele><time>2026-04-26T10:48:48.215Z</time></trkpt><trkpt lat="43.8984814" lon="12.5377358"><ele>182.0</ele><time>2026-04-26T10:48:51.137Z</time></trkpt><trkpt lat="43.8985609" lon="12.5377478"><ele>182.0</ele><time>2026-04-26T10:48:54.16Z</time></trkpt><trkpt lat="43.898627" lon="12.537768"><ele>182.0</ele><time>2026-04-26T10:48:57.184Z</time></trkpt><trkpt lat="43.8986785" lon="12.53782"><ele>182.0</ele><time>2026-04-26T10:49:06.2Z</time></trkpt><trkpt lat="43.8987414" lon="12.537839"><ele>182.0</ele><time>2026-04-26T10:49:12.2Z</time></trkpt><trkpt lat="43.8988033" lon="12.5378917"><ele>182.0</ele><time>2026-04-26T10:49:15.937Z</time></trkpt><trkpt lat="43.8988667" lon="12.5379533"><ele>182.0</ele><time>2026-04-26T10:49:27.937Z</time></trkpt><trkpt lat="43.8988267" lon="12.5380533"><ele>182.0</ele><time>2026-04-26T10:49:40.937Z</time></trkpt><trkpt lat="43.8987833" lon="12.5381217"><ele>182.0</ele><time>2026-04-26T10:49:42.937Z</time></trkpt><trkpt lat="43.8987167" lon="12.53817"><ele>182.0</ele><time>2026-04-26T10:49:44.937Z</time></trkpt><trkpt lat="43.8986533" lon="12.5382767"><ele>182.0</ele><time>2026-04-26T10:50:49.936Z</time></trkpt><trkpt lat="43.8985817" lon="12.53839"><ele>182.0</ele><time>2026-04-26T10:50:51.937Z</time></trkpt><trkpt lat="43.8985267" lon="12.53845"><ele>182.0</ele><time>2026-04-26T10:50:52.937Z</time></trkpt><trkpt lat="43.898465" lon="12.5385183"><ele>182.0</ele><time>2026-04-26T10:50:53.937Z</time></trkpt><trkpt lat="43.8984033" lon="12.538585"><ele>182.0</ele><time>2026-04-26T10:50:54.937Z</time></trkpt><trkpt lat="43.8983433" lon="12.5386567"><ele>182.0</ele><time>2026-04-26T10:50:55.937Z</time></trkpt><trkpt lat="43.898285" lon="12.5387317"><ele>182.0</ele><time>2026-04-26T10:50:56.937Z</time></trkpt><trkpt lat="43.8982267" lon="12.538805"><ele>182.0</ele><time>2026-04-26T10:50:57.936Z</time></trkpt><trkpt lat="43.89817" lon="12.5388817"><ele>182.0</ele><time>2026-04-26T10:50:58.937Z</time></trkpt><trkpt lat="43.8981117" lon="12.5389633"><ele>182.0</ele><time>2026-04-26T10:50:59.936Z</time></trkpt><trkpt lat="43.8980517" lon="12.539045"><ele>182.0</ele><time>2026-04-26T10:51:00.937Z</time></trkpt><trkpt lat="43.89799" lon="12.5391283"><ele>182.0</ele><time>2026-04-26T10:51:01.937Z</time></trkpt><trkpt lat="43.8979283" lon="12.53921"><ele>182.0</ele><time>2026-04-26T10:51:02.936Z</time></trkpt><trkpt lat="43.8978683" lon="12.53929"><ele>182.0</ele><time>2026-04-26T10:51:03.937Z</time></trkpt><trkpt lat="43.8978117" lon="12.539375"><ele>182.0</ele><time>2026-04-26T10:51:04.937Z</time></trkpt><trkpt lat="43.8977583" lon="12.5394567"><ele>182.0</ele><time>2026-04-26T10:51:05.937Z</time></trkpt><trkpt lat="43.8977033" lon="12.5395267"><ele>182.0</ele><time>2026-04-26T10:51:06.937Z</time></trkpt><trkpt lat="43.8976533" lon="12.53959"><ele>182.0</ele><time>2026-04-26T10:51:07.936Z</time></trkpt><trkpt lat="43.897595" lon="12.5396933"><ele>182.2</ele><time>2026-04-26T10:51:09.937Z</time></trkpt><trkpt lat="43.897655" lon="12.5398017"><ele>182.39999999999998</ele><time>2026-04-26T10:51:12.936Z</time></trkpt><trkpt lat="43.8977117" lon="12.5398483"><ele>182.60000000000002</ele><time>2026-04-26T10:51:13.936Z</time></trkpt><trkpt lat="43.89779" lon="12.5399167"><ele>182.8</ele><time>2026-04-26T10:51:14.937Z</time></trkpt><trkpt lat="43.8978967" lon="12.540005"><ele>183.0</ele><time>2026-04-26T10:51:15.937Z</time></trkpt><trkpt lat="43.8980033" lon="12.5401083"><ele>183.0</ele><time>2026-04-26T10:51:16.936Z</time></trkpt><trkpt lat="43.89813" lon="12.5401983"><ele>183.0</ele><time>2026-04-26T10:51:17.937Z</time></trkpt><trkpt lat="43.8982667" lon="12.540285"><ele>183.0</ele><time>2026-04-26T10:51:18.937Z</time></trkpt><trkpt lat="43.8983983" lon="12.54038"><ele>183.0</ele><time>2026-04-26T10:51:19.937Z</time></trkpt><trkpt lat="43.8985233" lon="12.540485"><ele>182.5</ele><time>2026-04-26T10:51:20.936Z</time></trkpt><trkpt lat="43.8986417" lon="12.5405933"><ele>182.0</ele><time>2026-04-26T10:51:21.936Z</time></trkpt><trkpt lat="43.8987617" lon="12.5406983"><ele>181.5</ele><time>2026-04-26T10:51:22.936Z</time></trkpt><trkpt lat="43.8988867" lon="12.5408083"><ele>181.0</ele><time>2026-04-26T10:51:23.937Z</time></trkpt><trkpt lat="43.89902" lon="12.5409183"><ele>181.0</ele><time>2026-04-26T10:51:24.937Z</time></trkpt><trkpt lat="43.89915" lon="12.5410417"><ele>181.0</ele><time>2026-04-26T10:51:25.936Z</time></trkpt><trkpt lat="43.8992733" lon="12.5411567"><ele>181.0</ele><time>2026-04-26T10:51:26.937Z</time></trkpt><trkpt lat="43.8994" lon="12.541235"><ele>181.0</ele><time>2026-04-26T10:51:27.937Z</time></trkpt><trkpt lat="43.8995283" lon="12.5412983"><ele>181.25</ele><time>2026-04-26T10:51:28.937Z</time></trkpt><trkpt lat="43.8996433" lon="12.5413817"><ele>181.5</ele><time>2026-04-26T10:51:29.937Z</time></trkpt><trkpt lat="43.899755" lon="12.5414767"><ele>181.75</ele><time>2026-04-26T10:51:30.937Z</time></trkpt><trkpt lat="43.89985" lon="12.541605"><ele>182.0</ele><time>2026-04-26T10:51:31.937Z</time></trkpt><trkpt lat="43.8999467" lon="12.5417333"><ele>182.0</ele><time>2026-04-26T10:51:32.937Z</time></trkpt><trkpt lat="43.9000683" lon="12.54184"><ele>182.0</ele><time>2026-04-26T10:51:33.937Z</time></trkpt><trkpt lat="43.9001967" lon="12.5419533"><ele>182.0</ele><time>2026-04-26T10:51:34.937Z</time></trkpt><trkpt lat="43.9003267" lon="12.5420783"><ele>181.33333333333331</ele><time>2026-04-26T10:51:35.937Z</time></trkpt><trkpt lat="43.9004567" lon="12.5422067"><ele>180.66666666666666</ele><time>2026-04-26T10:51:36.936Z</time></trkpt><trkpt lat="43.9005833" lon="12.5423267"><ele>180.0</ele><time>2026-04-26T10:51:37.937Z</time></trkpt><trkpt lat="43.900705" lon="12.5424433"><ele>180.0</ele><time>2026-04-26T10:51:38.937Z</time></trkpt><trkpt lat="43.90082" lon="12.5425417"><ele>180.0</ele><time>2026-04-26T10:51:39.937Z</time></trkpt><trkpt lat="43.900915" lon="12.5426583"><ele>180.0</ele><time>2026-04-26T10:51:40.937Z</time></trkpt><trkpt lat="43.901005" lon="12.5427867"><ele>180.0</ele><time>2026-04-26T10:51:41.937Z</time></trkpt><trkpt lat="43.901095" lon="12.54294"><ele>178.5</ele><time>2026-04-26T10:51:42.937Z</time></trkpt><trkpt lat="43.9011883" lon="12.5430983"><ele>177.0</ele><time>2026-04-26T10:51:43.936Z</time></trkpt><trkpt lat="43.9012933" lon="12.543245"><ele>175.5</ele><time>2026-04-26T10:51:44.936Z</time></trkpt><trkpt lat="43.901405" lon="12.5433633"><ele>174.0</ele><time>2026-04-26T10:51:45.937Z</time></trkpt><trkpt lat="43.901535" lon="12.5434567"><ele>174.0</ele><time>2026-04-26T10:51:46.937Z</time></trkpt><trkpt lat="43.9016783" lon="12.5435383"><ele>174.0</ele><time>2026-04-26T10:51:47.937Z</time></trkpt><trkpt lat="43.9018133" lon="12.5436167"><ele>174.0</ele><time>2026-04-26T10:51:48.936Z</time></trkpt><trkpt lat="43.9019317" lon="12.5437217"><ele>174.0</ele><time>2026-04-26T10:51:49.936Z</time></trkpt><trkpt lat="43.9020333" lon="12.5438633"><ele>173.33333333333334</ele><time>2026-04-26T10:51:50.937Z</time></trkpt><trkpt lat="43.902125" lon="12.5440367"><ele>172.66666666666669</ele><time>2026-04-26T10:51:51.936Z</time></trkpt><trkpt lat="43.9022167" lon="12.544225"><ele>172.0</ele><time>2026-04-26T10:51:52.937Z</time></trkpt><trkpt lat="43.9023033" lon="12.54441"><ele>172.5</ele><time>2026-04-26T10:51:53.937Z</time></trkpt><trkpt lat="43.90238" lon="12.5445917"><ele>173.0</ele><time>2026-04-26T10:51:54.937Z</time></trkpt><trkpt lat="43.90244" lon="12.5447733"><ele>173.5</ele><time>2026-04-26T10:51:55.936Z</time></trkpt><trkpt lat="43.9024833" lon="12.544965"><ele>174.0</ele><time>2026-04-26T10:51:56.937Z</time></trkpt><trkpt lat="43.9024933" lon="12.5451817"><ele>175.66666666666666</ele><time>2026-04-26T10:51:57.937Z</time></trkpt><trkpt lat="43.902505" lon="12.5453983"><ele>177.33333333333331</ele><time>2026-04-26T10:51:58.936Z</time></trkpt><trkpt lat="43.902535" lon="12.5456133"><ele>179.0</ele><time>2026-04-26T10:51:59.937Z</time></trkpt><trkpt lat="43.902555" lon="12.5458267"><ele>178.66666666666666</ele><time>2026-04-26T10:52:00.937Z</time></trkpt><trkpt lat="43.9025933" lon="12.5460367"><ele>178.33333333333334</ele><time>2026-04-26T10:52:01.937Z</time></trkpt><trkpt lat="43.9026517" lon="12.5462483"><ele>178.0</ele><time>2026-04-26T10:52:02.936Z</time></trkpt><trkpt lat="43.9027183" lon="12.5464483"><ele>178.0</ele><time>2026-04-26T10:52:03.937Z</time></trkpt><trkpt lat="43.9027833" lon="12.54663"><ele>178.0</ele><time>2026-04-26T10:52:04.937Z</time></trkpt><trkpt lat="43.9028417" lon="12.5467967"><ele>178.0</ele><time>2026-04-26T10:52:05.936Z</time></trkpt><trkpt lat="43.9028983" lon="12.5469383"><ele>178.0</ele><time>2026-04-26T10:52:06.936Z</time></trkpt><trkpt lat="43.9029667" lon="12.54705"><ele>179.5</ele><time>2026-04-26T10:52:07.936Z</time></trkpt><trkpt lat="43.9030483" lon="12.5471467"><ele>181.0</ele><time>2026-04-26T10:52:08.937Z</time></trkpt><trkpt lat="43.90314" lon="12.54725"><ele>182.5</ele><time>2026-04-26T10:52:09.936Z</time></trkpt><trkpt lat="43.9032283" lon="12.5473733"><ele>184.0</ele><time>2026-04-26T10:52:10.937Z</time></trkpt><trkpt lat="43.90331" lon="12.5475133"><ele>184.0</ele><time>2026-04-26T10:52:11.937Z</time></trkpt><trkpt lat="43.90339" lon="12.5476633"><ele>184.0</ele><time>2026-04-26T10:52:12.936Z</time></trkpt><trkpt lat="43.9034717" lon="12.5478"><ele>184.0</ele><time>2026-04-26T10:52:13.936Z</time></trkpt><trkpt lat="43.9035567" lon="12.5479133"><ele>184.0</ele><time>2026-04-26T10:52:14.936Z</time></trkpt><trkpt lat="43.9036417" lon="12.5480067"><ele>182.2</ele><time>2026-04-26T10:52:15.936Z</time></trkpt><trkpt lat="43.9037283" lon="12.5480817"><ele>180.39999999999998</ele><time>2026-04-26T10:52:16.937Z</time></trkpt><trkpt lat="43.9038267" lon="12.5481317"><ele>178.6</ele><time>2026-04-26T10:52:17.937Z</time></trkpt><trkpt lat="43.9039267" lon="12.548155"><ele>176.8</ele><time>2026-04-26T10:52:18.936Z</time></trkpt><trkpt lat="43.9040117" lon="12.5481917"><ele>175.0</ele><time>2026-04-26T10:52:19.937Z</time></trkpt><trkpt lat="43.9040733" lon="12.54828"><ele>175.0</ele><time>2026-04-26T10:52:20.937Z</time></trkpt><trkpt lat="43.9041133" lon="12.5484167"><ele>175.0</ele><time>2026-04-26T10:52:21.937Z</time></trkpt><trkpt lat="43.904155" lon="12.5485733"><ele>175.0</ele><time>2026-04-26T10:52:22.936Z</time></trkpt><trkpt lat="43.904215" lon="12.5487183"><ele>175.0</ele><time>2026-04-26T10:52:23.936Z</time></trkpt><trkpt lat="43.9042867" lon="12.54885"><ele>175.0</ele><time>2026-04-26T10:52:24.936Z</time></trkpt><trkpt lat="43.9043283" lon="12.5489833"><ele>175.0</ele><time>2026-04-26T10:52:25.937Z</time></trkpt><trkpt lat="43.9043567" lon="12.549105"><ele>175.0</ele><time>2026-04-26T10:52:26.937Z</time></trkpt><trkpt lat="43.9043517" lon="12.5492317"><ele>175.0</ele><time>2026-04-26T10:52:27.937Z</time></trkpt><trkpt lat="43.9043317" lon="12.5493567"><ele>175.0</ele><time>2026-04-26T10:52:28.937Z</time></trkpt><trkpt lat="43.9043033" lon="12.5494783"><ele>176.25</ele><time>2026-04-26T10:52:29.937Z</time></trkpt><trkpt lat="43.90427" lon="12.549615"><ele>177.5</ele><time>2026-04-26T10:52:30.936Z</time></trkpt><trkpt lat="43.9042767" lon="12.5497767"><ele>178.75</ele><time>2026-04-26T10:52:31.937Z</time></trkpt><trkpt lat="43.9043083" lon="12.5499533"><ele>180.0</ele><time>2026-04-26T10:52:32.937Z</time></trkpt><trkpt lat="43.904345" lon="12.5501383"><ele>180.0</ele><time>2026-04-26T10:52:33.937Z</time></trkpt><trkpt lat="43.9043817" lon="12.550325"><ele>180.0</ele><time>2026-04-26T10:52:34.937Z</time></trkpt><trkpt lat="43.9044133" lon="12.5505017"><ele>180.0</ele><time>2026-04-26T10:52:35.937Z</time></trkpt><trkpt lat="43.9044517" lon="12.550665"><ele>180.0</ele><time>2026-04-26T10:52:36.937Z</time></trkpt><trkpt lat="43.9044833" lon="12.5508117"><ele>180.4</ele><time>2026-04-26T10:52:37.937Z</time></trkpt><trkpt lat="43.9045117" lon="12.5509417"><ele>180.8</ele><time>2026-04-26T10:52:38.937Z</time></trkpt><trkpt lat="43.9045133" lon="12.5510717"><ele>181.2</ele><time>2026-04-26T10:52:39.937Z</time></trkpt><trkpt lat="43.904465" lon="12.5511933"><ele>181.6</ele><time>2026-04-26T10:52:40.936Z</time></trkpt><trkpt lat="43.9043817" lon="12.5513067"><ele>182.0</ele><time>2026-04-26T10:52:41.937Z</time></trkpt><trkpt lat="43.9043017" lon="12.5514333"><ele>182.75</ele><time>2026-04-26T10:52:42.937Z</time></trkpt><trkpt lat="43.9042333" lon="12.5515717"><ele>183.5</ele><time>2026-04-26T10:52:43.937Z</time></trkpt><trkpt lat="43.9041883" lon="12.5517217"><ele>184.25</ele><time>2026-04-26T10:52:44.937Z</time></trkpt><trkpt lat="43.904155" lon="12.5518633"><ele>185.0</ele><time>2026-04-26T10:52:45.937Z</time></trkpt><trkpt lat="43.9041617" lon="12.5520117"><ele>184.33333333333331</ele><time>2026-04-26T10:52:46.937Z</time></trkpt><trkpt lat="43.9041967" lon="12.55215"><ele>183.66666666666666</ele><time>2026-04-26T10:52:47.937Z</time></trkpt><trkpt lat="43.9042383" lon="12.5522567"><ele>183.0</ele><time>2026-04-26T10:52:48.937Z</time></trkpt><trkpt lat="43.90429" lon="12.5523267"><ele>182.33333333333334</ele><time>2026-04-26T10:52:49.937Z</time></trkpt><trkpt lat="43.90436" lon="12.5523717"><ele>181.66666666666669</ele><time>2026-04-26T10:52:50.937Z</time></trkpt><trkpt lat="43.90444" lon="12.5524133"><ele>181.0</ele><time>2026-04-26T10:52:51.937Z</time></trkpt><trkpt lat="43.90452" lon="12.5523833"><ele>179.20000000000002</ele><time>2026-04-26T10:52:52.937Z</time></trkpt><trkpt lat="43.9045783" lon="12.552305"><ele>177.4</ele><time>2026-04-26T10:52:53.937Z</time></trkpt><trkpt lat="43.90466" lon="12.55223"><ele>175.6</ele><time>2026-04-26T10:52:55.937Z</time></trkpt><trkpt lat="43.9047467" lon="12.5522067"><ele>173.8</ele><time>2026-04-26T10:52:57.937Z</time></trkpt><trkpt lat="43.9048867" lon="12.5521833"><ele>172.0</ele><time>2026-04-26T10:52:59.936Z</time></trkpt><trkpt lat="43.9049917" lon="12.55218"><ele>170.75</ele><time>2026-04-26T10:53:00.937Z</time></trkpt><trkpt lat="43.90511" lon="12.5522"><ele>169.5</ele><time>2026-04-26T10:53:01.937Z</time></trkpt><trkpt lat="43.90523" lon="12.5522317"><ele>168.25</ele><time>2026-04-26T10:53:02.937Z</time></trkpt><trkpt lat="43.905355" lon="12.55227"><ele>167.0</ele><time>2026-04-26T10:53:03.937Z</time></trkpt><trkpt lat="43.9054883" lon="12.5523067"><ele>167.0</ele><time>2026-04-26T10:53:04.937Z</time></trkpt><trkpt lat="43.9056283" lon="12.55234"><ele>167.0</ele><time>2026-04-26T10:53:05.937Z</time></trkpt><trkpt lat="43.9057633" lon="12.5523483"><ele>167.0</ele><time>2026-04-26T10:53:06.937Z</time></trkpt><trkpt lat="43.9058983" lon="12.55232"><ele>167.0</ele><time>2026-04-26T10:53:07.937Z</time></trkpt><trkpt lat="43.906035" lon="12.5522717"><ele>165.75</ele><time>2026-04-26T10:53:08.936Z</time></trkpt><trkpt lat="43.906175" lon="12.552215"><ele>164.5</ele><time>2026-04-26T10:53:09.937Z</time></trkpt><trkpt lat="43.9063167" lon="12.5521733"><ele>163.25</ele><time>2026-04-26T10:53:10.937Z</time></trkpt><trkpt lat="43.9064583" lon="12.5521517"><ele>162.0</ele><time>2026-04-26T10:53:11.937Z</time></trkpt><trkpt lat="43.9066" lon="12.55214"><ele>162.0</ele><time>2026-04-26T10:53:12.937Z</time></trkpt><trkpt lat="43.906735" lon="12.55215"><ele>162.0</ele><time>2026-04-26T10:53:13.937Z</time></trkpt><trkpt lat="43.9068667" lon="12.5521717"><ele>162.0</ele><time>2026-04-26T10:53:14.937Z</time></trkpt><trkpt lat="43.9069917" lon="12.5521967"><ele>162.0</ele><time>2026-04-26T10:53:15.936Z</time></trkpt><trkpt lat="43.9071083" lon="12.5522317"><ele>161.6</ele><time>2026-04-26T10:53:16.937Z</time></trkpt><trkpt lat="43.9072117" lon="12.5522683"><ele>161.2</ele><time>2026-04-26T10:53:17.936Z</time></trkpt><trkpt lat="43.9072883" lon="12.55232"><ele>160.8</ele><time>2026-04-26T10:53:18.937Z</time></trkpt><trkpt lat="43.9073383" lon="12.5524067"><ele>160.4</ele><time>2026-04-26T10:53:19.937Z</time></trkpt><trkpt lat="43.9073783" lon="12.5525317"><ele>160.0</ele><time>2026-04-26T10:53:20.937Z</time></trkpt><trkpt lat="43.9074133" lon="12.5526933"><ele>160.0</ele><time>2026-04-26T10:53:21.936Z</time></trkpt><trkpt lat="43.90745" lon="12.552885"><ele>160.0</ele><time>2026-04-26T10:53:22.937Z</time></trkpt><trkpt lat="43.9074917" lon="12.5530967"><ele>160.0</ele><time>2026-04-26T10:53:23.937Z</time></trkpt><trkpt lat="43.9075383" lon="12.5533367"><ele>159.66666666666669</ele><time>2026-04-26T10:53:24.936Z</time></trkpt><trkpt lat="43.9075933" lon="12.5535883"><ele>159.33333333333334</ele><time>2026-04-26T10:53:25.936Z</time></trkpt><trkpt lat="43.90765" lon="12.5538367"><ele>159.0</ele><time>2026-04-26T10:53:26.937Z</time></trkpt><trkpt lat="43.9077033" lon="12.554075"><ele>158.33333333333334</ele><time>2026-04-26T10:53:27.937Z</time></trkpt><trkpt lat="43.907755" lon="12.5543117"><ele>157.66666666666669</ele><time>2026-04-26T10:53:28.936Z</time></trkpt><trkpt lat="43.90781" lon="12.5545467"><ele>157.0</ele><time>2026-04-26T10:53:29.936Z</time></trkpt><trkpt lat="43.9078633" lon="12.554775"><ele>156.66666666666669</ele><time>2026-04-26T10:53:30.937Z</time></trkpt><trkpt lat="43.90791" lon="12.5549983"><ele>156.33333333333334</ele><time>2026-04-26T10:53:31.937Z</time></trkpt><trkpt lat="43.90795" lon="12.55521"><ele>156.0</ele><time>2026-04-26T10:53:32.937Z</time></trkpt><trkpt lat="43.907995" lon="12.5554117"><ele>155.66666666666666</ele><time>2026-04-26T10:53:33.936Z</time></trkpt><trkpt lat="43.9080483" lon="12.5556183"><ele>155.33333333333331</ele><time>2026-04-26T10:53:34.937Z</time></trkpt><trkpt lat="43.9081033" lon="12.5558267"><ele>155.0</ele><time>2026-04-26T10:53:35.937Z</time></trkpt><trkpt lat="43.90815" lon="12.5560367"><ele>154.66666666666666</ele><time>2026-04-26T10:53:36.936Z</time></trkpt><trkpt lat="43.9082017" lon="12.5562483"><ele>154.33333333333334</ele><time>2026-04-26T10:53:37.937Z</time></trkpt><trkpt lat="43.90825" lon="12.556455"><ele>154.0</ele><time>2026-04-26T10:53:38.937Z</time></trkpt><trkpt lat="43.9082917" lon="12.556655"><ele>154.0</ele><time>2026-04-26T10:53:39.937Z</time></trkpt><trkpt lat="43.9083233" lon="12.55685"><ele>154.0</ele><time>2026-04-26T10:53:40.937Z</time></trkpt><trkpt lat="43.9083633" lon="12.5570433"><ele>154.0</ele><time>2026-04-26T10:53:41.936Z</time></trkpt><trkpt lat="43.9084067" lon="12.5572317"><ele>154.0</ele><time>2026-04-26T10:53:42.937Z</time></trkpt><trkpt lat="43.9084433" lon="12.5574183"><ele>154.0</ele><time>2026-04-26T10:53:43.936Z</time></trkpt><trkpt lat="43.9084717" lon="12.5576"><ele>154.0</ele><time>2026-04-26T10:53:44.937Z</time></trkpt><trkpt lat="43.9085017" lon="12.55777"><ele>154.0</ele><time>2026-04-26T10:53:45.937Z</time></trkpt><trkpt lat="43.908535" lon="12.5579317"><ele>154.0</ele><time>2026-04-26T10:53:46.937Z</time></trkpt><trkpt lat="43.9085767" lon="12.5581033"><ele>154.0</ele><time>2026-04-26T10:53:47.937Z</time></trkpt><trkpt lat="43.908615" lon="12.55828"><ele>154.0</ele><time>2026-04-26T10:53:48.937Z</time></trkpt><trkpt lat="43.90866" lon="12.558455"><ele>154.0</ele><time>2026-04-26T10:53:49.937Z</time></trkpt><trkpt lat="43.9087033" lon="12.5586317"><ele>154.0</ele><time>2026-04-26T10:53:50.936Z</time></trkpt><trkpt lat="43.9087483" lon="12.5588083"><ele>154.0</ele><time>2026-04-26T10:53:51.936Z</time></trkpt><trkpt lat="43.908795" lon="12.5589917"><ele>154.0</ele><time>2026-04-26T10:53:52.936Z</time></trkpt><trkpt lat="43.908845" lon="12.5591833"><ele>154.0</ele><time>2026-04-26T10:53:53.936Z</time></trkpt><trkpt lat="43.908905" lon="12.559385"><ele>154.0</ele><time>2026-04-26T10:53:54.937Z</time></trkpt><trkpt lat="43.908975" lon="12.559575"><ele>154.0</ele><time>2026-04-26T10:53:55.937Z</time></trkpt><trkpt lat="43.9090583" lon="12.5597483"><ele>154.0</ele><time>2026-04-26T10:53:56.936Z</time></trkpt><trkpt lat="43.9091567" lon="12.5599117"><ele>154.0</ele><time>2026-04-26T10:53:57.936Z</time></trkpt><trkpt lat="43.9092633" lon="12.5600733"><ele>153.66666666666669</ele><time>2026-04-26T10:53:58.937Z</time></trkpt><trkpt lat="43.9093783" lon="12.5602333"><ele>153.33333333333334</ele><time>2026-04-26T10:53:59.937Z</time></trkpt><trkpt lat="43.9094967" lon="12.56039"><ele>153.0</ele><time>2026-04-26T10:54:00.936Z</time></trkpt><trkpt lat="43.9096167" lon="12.5605467"><ele>152.66666666666666</ele><time>2026-04-26T10:54:01.936Z</time></trkpt><trkpt lat="43.909735" lon="12.5607"><ele>152.33333333333331</ele><time>2026-04-26T10:54:02.937Z</time></trkpt><trkpt lat="43.90985" lon="12.56085"><ele>152.0</ele><time>2026-04-26T10:54:03.937Z</time></trkpt><trkpt lat="43.9099633" lon="12.560995"><ele>151.33333333333331</ele><time>2026-04-26T10:54:04.937Z</time></trkpt><trkpt lat="43.9100767" lon="12.56114"><ele>150.66666666666666</ele><time>2026-04-26T10:54:05.937Z</time></trkpt><trkpt lat="43.9101967" lon="12.5612933"><ele>150.0</ele><time>2026-04-26T10:54:06.937Z</time></trkpt><trkpt lat="43.910315" lon="12.5614417"><ele>149.6</ele><time>2026-04-26T10:54:07.936Z</time></trkpt><trkpt lat="43.91042" lon="12.56157"><ele>149.2</ele><time>2026-04-26T10:54:08.937Z</time></trkpt><trkpt lat="43.9105033" lon="12.56168"><ele>148.8</ele><time>2026-04-26T10:54:09.937Z</time></trkpt><trkpt lat="43.91056" lon="12.5617617"><ele>148.4</ele><time>2026-04-26T10:54:10.937Z</time></trkpt><trkpt lat="43.9106317" lon="12.5618517"><ele>148.0</ele><time>2026-04-26T10:54:12.937Z</time></trkpt><trkpt lat="43.9106517" lon="12.5617617"><ele>148.0</ele><time>2026-04-26T10:54:17.937Z</time></trkpt><trkpt lat="43.9106667" lon="12.5616417"><ele>148.0</ele><time>2026-04-26T10:54:20.937Z</time></trkpt><trkpt lat="43.9107417" lon="12.5615433"><ele>148.0</ele><time>2026-04-26T10:54:22.937Z</time></trkpt><trkpt lat="43.9107967" lon="12.561455"><ele>148.0</ele><time>2026-04-26T10:54:24.937Z</time></trkpt><trkpt lat="43.91083" lon="12.5613617"><ele>148.0</ele><time>2026-04-26T10:54:26.936Z</time></trkpt><trkpt lat="43.910865" lon="12.5612783"><ele>148.0</ele><time>2026-04-26T10:54:28.937Z</time></trkpt><trkpt lat="43.910925" lon="12.5612083"><ele>148.33333333333334</ele><time>2026-04-26T10:54:32.937Z</time></trkpt><trkpt lat="43.9109826" lon="12.5611064"><ele>148.66666666666669</ele><time>2026-04-26T10:54:36.94Z</time></trkpt><trkpt lat="43.9110355" lon="12.5610427"><ele>149.0</ele><time>2026-04-26T10:54:39.216Z</time></trkpt><trkpt lat="43.9111169" lon="12.5609972"><ele>149.33333333333334</ele><time>2026-04-26T10:54:41.13Z</time></trkpt><trkpt lat="43.9111877" lon="12.5609424"><ele>149.66666666666666</ele><time>2026-04-26T10:54:43.147Z</time></trkpt><trkpt lat="43.9112183" lon="12.5608577"><ele>150.0</ele><time>2026-04-26T10:54:45.161Z</time></trkpt><trkpt lat="43.9112642" lon="12.5607875"><ele>150.0</ele><time>2026-04-26T10:54:47.178Z</time></trkpt><trkpt lat="43.9113182" lon="12.5607048"><ele>150.0</ele><time>2026-04-26T10:54:49.236Z</time></trkpt><trkpt lat="43.9113658" lon="12.560618"><ele>150.0</ele><time>2026-04-26T10:54:51.223Z</time></trkpt><trkpt lat="43.9114204" lon="12.5605081"><ele>150.0</ele><time>2026-04-26T10:54:52.937Z</time></trkpt><trkpt lat="43.9114836" lon="12.5603852"><ele>150.0</ele><time>2026-04-26T10:54:54.937Z</time></trkpt><trkpt lat="43.9115372" lon="12.5602771"><ele>150.8</ele><time>2026-04-26T10:54:56.937Z</time></trkpt><trkpt lat="43.9115995" lon="12.5601788"><ele>151.6</ele><time>2026-04-26T10:54:58.937Z</time></trkpt><trkpt lat="43.9116518" lon="12.560068"><ele>152.4</ele><time>2026-04-26T10:55:00.937Z</time></trkpt><trkpt lat="43.9117348" lon="12.55993"><ele>153.2</ele><time>2026-04-26T10:55:02.936Z</time></trkpt><trkpt lat="43.9117778" lon="12.5598436"><ele>154.0</ele><time>2026-04-26T10:55:03.937Z</time></trkpt><trkpt lat="43.9118241" lon="12.559749"><ele>155.0</ele><time>2026-04-26T10:55:04.937Z</time></trkpt><trkpt lat="43.9118744" lon="12.5596544"><ele>156.0</ele><time>2026-04-26T10:55:05.937Z</time></trkpt><trkpt lat="43.9119292" lon="12.5595649"><ele>157.0</ele><time>2026-04-26T10:55:06.937Z</time></trkpt><trkpt lat="43.9119871" lon="12.559481"><ele>158.0</ele><time>2026-04-26T10:55:07.937Z</time></trkpt><trkpt lat="43.9120474" lon="12.5594083"><ele>159.0</ele><time>2026-04-26T10:55:08.937Z</time></trkpt><trkpt lat="43.9121159" lon="12.5593637"><ele>160.0</ele><time>2026-04-26T10:55:09.937Z</time></trkpt><trkpt lat="43.9121875" lon="12.5593403"><ele>160.66666666666669</ele><time>2026-04-26T10:55:10.937Z</time></trkpt><trkpt lat="43.91226" lon="12.5593219"><ele>161.33333333333334</ele><time>2026-04-26T10:55:11.937Z</time></trkpt><trkpt lat="43.9123368" lon="12.5592958"><ele>162.0</ele><time>2026-04-26T10:55:12.937Z</time></trkpt><trkpt lat="43.9124173" lon="12.5592633"><ele>162.66666666666666</ele><time>2026-04-26T10:55:13.937Z</time></trkpt><trkpt lat="43.9125021" lon="12.5592321"><ele>163.33333333333331</ele><time>2026-04-26T10:55:14.936Z</time></trkpt><trkpt lat="43.9125821" lon="12.5592021"><ele>164.0</ele><time>2026-04-26T10:55:15.937Z</time></trkpt><trkpt lat="43.9126541" lon="12.5591765"><ele>164.6</ele><time>2026-04-26T10:55:16.937Z</time></trkpt><trkpt lat="43.9127542" lon="12.5591423"><ele>165.2</ele><time>2026-04-26T10:55:18.937Z</time></trkpt><trkpt lat="43.9128333" lon="12.5591783"><ele>165.79999999999998</ele><time>2026-04-26T10:55:25.936Z</time></trkpt><trkpt lat="43.9129133" lon="12.5593183"><ele>166.39999999999998</ele><time>2026-04-26T10:55:27.937Z</time></trkpt><trkpt lat="43.9129583" lon="12.5594183"><ele>167.0</ele><time>2026-04-26T10:55:28.937Z</time></trkpt><trkpt lat="43.9130117" lon="12.559525"><ele>166.39999999999998</ele><time>2026-04-26T10:55:29.936Z</time></trkpt><trkpt lat="43.913075" lon="12.5596317"><ele>165.79999999999998</ele><time>2026-04-26T10:55:30.936Z</time></trkpt><trkpt lat="43.91314" lon="12.5597517"><ele>165.2</ele><time>2026-04-26T10:55:31.937Z</time></trkpt><trkpt lat="43.9132083" lon="12.5598783"><ele>164.6</ele><time>2026-04-26T10:55:32.937Z</time></trkpt><trkpt lat="43.9132767" lon="12.56001"><ele>164.0</ele><time>2026-04-26T10:55:33.937Z</time></trkpt><trkpt lat="43.9133483" lon="12.56014"><ele>164.75</ele><time>2026-04-26T10:55:34.937Z</time></trkpt><trkpt lat="43.91342" lon="12.5602767"><ele>165.5</ele><time>2026-04-26T10:55:35.937Z</time></trkpt><trkpt lat="43.9134967" lon="12.5604167"><ele>166.25</ele><time>2026-04-26T10:55:36.936Z</time></trkpt><trkpt lat="43.91357" lon="12.560565"><ele>167.0</ele><time>2026-04-26T10:55:37.937Z</time></trkpt><trkpt lat="43.9136467" lon="12.560715"><ele>165.5</ele><time>2026-04-26T10:55:38.937Z</time></trkpt><trkpt lat="43.91373" lon="12.560865"><ele>164.0</ele><time>2026-04-26T10:55:39.937Z</time></trkpt><trkpt lat="43.9138183" lon="12.56103"><ele>162.5</ele><time>2026-04-26T10:55:40.937Z</time></trkpt><trkpt lat="43.9139083" lon="12.5612033"><ele>161.0</ele><time>2026-04-26T10:55:41.937Z</time></trkpt><trkpt lat="43.914" lon="12.56138"><ele>160.66666666666666</ele><time>2026-04-26T10:55:42.937Z</time></trkpt><trkpt lat="43.914095" lon="12.561565"><ele>160.33333333333334</ele><time>2026-04-26T10:55:43.937Z</time></trkpt><trkpt lat="43.9141917" lon="12.561755"><ele>160.0</ele><time>2026-04-26T10:55:44.937Z</time></trkpt><trkpt lat="43.91429" lon="12.561945"><ele>159.66666666666669</ele><time>2026-04-26T10:55:45.937Z</time></trkpt><trkpt lat="43.914385" lon="12.56213"><ele>159.33333333333334</ele><time>2026-04-26T10:55:46.936Z</time></trkpt><trkpt lat="43.9144717" lon="12.56231"><ele>159.0</ele><time>2026-04-26T10:55:47.937Z</time></trkpt><trkpt lat="43.9145667" lon="12.56247"><ele>159.0</ele><time>2026-04-26T10:55:48.936Z</time></trkpt><trkpt lat="43.9146633" lon="12.5626217"><ele>159.0</ele><time>2026-04-26T10:55:49.937Z</time></trkpt><trkpt lat="43.9147933" lon="12.56272"><ele>159.0</ele><time>2026-04-26T10:55:50.937Z</time></trkpt><trkpt lat="43.9149383" lon="12.562795"><ele>159.0</ele><time>2026-04-26T10:55:51.937Z</time></trkpt><trkpt lat="43.915085" lon="12.5628517"><ele>159.25</ele><time>2026-04-26T10:55:52.937Z</time></trkpt><trkpt lat="43.9152283" lon="12.5629133"><ele>159.5</ele><time>2026-04-26T10:55:53.936Z</time></trkpt><trkpt lat="43.9153617" lon="12.5629933"><ele>159.75</ele><time>2026-04-26T10:55:54.937Z</time></trkpt><trkpt lat="43.915475" lon="12.56312"><ele>160.0</ele><time>2026-04-26T10:55:55.937Z</time></trkpt><trkpt lat="43.9155667" lon="12.5632717"><ele>160.0</ele><time>2026-04-26T10:55:56.936Z</time></trkpt><trkpt lat="43.9156217" lon="12.5634517"><ele>160.0</ele><time>2026-04-26T10:55:57.937Z</time></trkpt><trkpt lat="43.9156433" lon="12.5636583"><ele>160.0</ele><time>2026-04-26T10:55:58.936Z</time></trkpt><trkpt lat="43.91564" lon="12.56387"><ele>160.0</ele><time>2026-04-26T10:55:59.937Z</time></trkpt><trkpt lat="43.9156283" lon="12.5640917"><ele>157.66666666666669</ele><time>2026-04-26T10:56:00.937Z</time></trkpt><trkpt lat="43.9156017" lon="12.56432"><ele>155.33333333333334</ele><time>2026-04-26T10:56:01.937Z</time></trkpt><trkpt lat="43.9155817" lon="12.5645367"><ele>153.0</ele><time>2026-04-26T10:56:02.937Z</time></trkpt><trkpt lat="43.9155783" lon="12.5647367"><ele>151.75</ele><time>2026-04-26T10:56:03.936Z</time></trkpt><trkpt lat="43.9155983" lon="12.5649233"><ele>150.5</ele><time>2026-04-26T10:56:04.937Z</time></trkpt><trkpt lat="43.91564" lon="12.565105"><ele>149.25</ele><time>2026-04-26T10:56:05.936Z</time></trkpt><trkpt lat="43.9157183" lon="12.5652667"><ele>148.0</ele><time>2026-04-26T10:56:06.937Z</time></trkpt><trkpt lat="43.9158283" lon="12.5654117"><ele>146.0</ele><time>2026-04-26T10:56:07.937Z</time></trkpt><trkpt lat="43.91596" lon="12.5655417"><ele>144.0</ele><time>2026-04-26T10:56:08.937Z</time></trkpt><trkpt lat="43.916095" lon="12.5656783"><ele>142.0</ele><time>2026-04-26T10:56:09.937Z</time></trkpt><trkpt lat="43.9162333" lon="12.565825"><ele>142.0</ele><time>2026-04-26T10:56:10.937Z</time></trkpt><trkpt lat="43.91637" lon="12.565975"><ele>142.0</ele><time>2026-04-26T10:56:11.937Z</time></trkpt><trkpt lat="43.91651" lon="12.566115"><ele>142.0</ele><time>2026-04-26T10:56:12.936Z</time></trkpt><trkpt lat="43.9166433" lon="12.566245"><ele>142.66666666666669</ele><time>2026-04-26T10:56:13.936Z</time></trkpt><trkpt lat="43.9167783" lon="12.5663767"><ele>143.33333333333334</ele><time>2026-04-26T10:56:14.936Z</time></trkpt><trkpt lat="43.9169183" lon="12.5665"><ele>144.0</ele><time>2026-04-26T10:56:15.937Z</time></trkpt><trkpt lat="43.9170517" lon="12.5666233"><ele>144.0</ele><time>2026-04-26T10:56:16.937Z</time></trkpt><trkpt lat="43.9171883" lon="12.5667367"><ele>144.0</ele><time>2026-04-26T10:56:17.936Z</time></trkpt><trkpt lat="43.9173233" lon="12.566865"><ele>144.0</ele><time>2026-04-26T10:56:18.937Z</time></trkpt><trkpt lat="43.9174583" lon="12.5669967"><ele>144.0</ele><time>2026-04-26T10:56:19.937Z</time></trkpt><trkpt lat="43.9175667" lon="12.5671567"><ele>144.0</ele><time>2026-04-26T10:56:20.937Z</time></trkpt><trkpt lat="43.917655" lon="12.5673367"><ele>144.0</ele><time>2026-04-26T10:56:21.936Z</time></trkpt><trkpt lat="43.917715" lon="12.5675367"><ele>144.0</ele><time>2026-04-26T10:56:22.937Z</time></trkpt><trkpt lat="43.917745" lon="12.56775"><ele>144.0</ele><time>2026-04-26T10:56:23.937Z</time></trkpt><trkpt lat="43.9177483" lon="12.5679717"><ele>144.0</ele><time>2026-04-26T10:56:24.936Z</time></trkpt><trkpt lat="43.91774" lon="12.5681983"><ele>143.66666666666666</ele><time>2026-04-26T10:56:25.937Z</time></trkpt><trkpt lat="43.91774" lon="12.5684417"><ele>143.33333333333331</ele><time>2026-04-26T10:56:26.937Z</time></trkpt><trkpt lat="43.9177467" lon="12.5686983"><ele>143.0</ele><time>2026-04-26T10:56:27.937Z</time></trkpt><trkpt lat="43.91776" lon="12.5689683"><ele>143.0</ele><time>2026-04-26T10:56:28.937Z</time></trkpt><trkpt lat="43.9177633" lon="12.5692417"><ele>143.0</ele><time>2026-04-26T10:56:29.937Z</time></trkpt><trkpt lat="43.9177583" lon="12.5695133"><ele>143.0</ele><time>2026-04-26T10:56:30.937Z</time></trkpt><trkpt lat="43.9177417" lon="12.5697833"><ele>143.0</ele><time>2026-04-26T10:56:31.936Z</time></trkpt><trkpt lat="43.9177183" lon="12.570045"><ele>143.0</ele><time>2026-04-26T10:56:32.937Z</time></trkpt><trkpt lat="43.9177017" lon="12.5703"><ele>143.0</ele><time>2026-04-26T10:56:33.936Z</time></trkpt><trkpt lat="43.917695" lon="12.5705517"><ele>143.0</ele><time>2026-04-26T10:56:34.936Z</time></trkpt><trkpt lat="43.9177" lon="12.570805"><ele>143.0</ele><time>2026-04-26T10:56:35.937Z</time></trkpt><trkpt lat="43.917725" lon="12.5710583"><ele>143.0</ele><time>2026-04-26T10:56:36.936Z</time></trkpt><trkpt lat="43.91778" lon="12.571305"><ele>142.66666666666666</ele><time>2026-04-26T10:56:37.936Z</time></trkpt><trkpt lat="43.9178383" lon="12.5715483"><ele>142.33333333333334</ele><time>2026-04-26T10:56:38.937Z</time></trkpt><trkpt lat="43.9179" lon="12.57179"><ele>142.0</ele><time>2026-04-26T10:56:39.936Z</time></trkpt><trkpt lat="43.91796" lon="12.5720333"><ele>141.0</ele><time>2026-04-26T10:56:40.936Z</time></trkpt><trkpt lat="43.9180167" lon="12.572275"><ele>140.0</ele><time>2026-04-26T10:56:41.936Z</time></trkpt><trkpt lat="43.9180733" lon="12.57251"><ele>139.0</ele><time>2026-04-26T10:56:42.937Z</time></trkpt><trkpt lat="43.9181267" lon="12.5727317"><ele>138.33333333333334</ele><time>2026-04-26T10:56:43.937Z</time></trkpt><trkpt lat="43.9181783" lon="12.5729417"><ele>137.66666666666666</ele><time>2026-04-26T10:56:44.937Z</time></trkpt><trkpt lat="43.9182267" lon="12.5731367"><ele>137.0</ele><time>2026-04-26T10:56:45.937Z</time></trkpt><trkpt lat="43.9182717" lon="12.5733233"><ele>137.0</ele><time>2026-04-26T10:56:46.936Z</time></trkpt><trkpt lat="43.9183167" lon="12.5735033"><ele>137.0</ele><time>2026-04-26T10:56:47.937Z</time></trkpt><trkpt lat="43.9183583" lon="12.5736733"><ele>137.0</ele><time>2026-04-26T10:56:48.937Z</time></trkpt><trkpt lat="43.9184" lon="12.5738367"><ele>137.0</ele><time>2026-04-26T10:56:49.937Z</time></trkpt><trkpt lat="43.9184417" lon="12.5739967"><ele>137.0</ele><time>2026-04-26T10:56:50.937Z</time></trkpt><trkpt lat="43.91848" lon="12.5741517"><ele>137.0</ele><time>2026-04-26T10:56:51.936Z</time></trkpt><trkpt lat="43.9185117" lon="12.57429"><ele>137.0</ele><time>2026-04-26T10:56:52.937Z</time></trkpt><trkpt lat="43.918535" lon="12.5744067"><ele>137.0</ele><time>2026-04-26T10:56:53.937Z</time></trkpt><trkpt lat="43.9185283" lon="12.57452"><ele>137.0</ele><time>2026-04-26T10:56:54.937Z</time></trkpt><trkpt lat="43.9185167" lon="12.5746333"><ele>137.0</ele><time>2026-04-26T10:56:55.937Z</time></trkpt><trkpt lat="43.918525" lon="12.574755"><ele>137.0</ele><time>2026-04-26T10:56:56.937Z</time></trkpt><trkpt lat="43.9185567" lon="12.574885"><ele>137.0</ele><time>2026-04-26T10:56:57.936Z</time></trkpt><trkpt lat="43.9185967" lon="12.575025"><ele>137.0</ele><time>2026-04-26T10:56:58.937Z</time></trkpt><trkpt lat="43.9186367" lon="12.5751683"><ele>137.0</ele><time>2026-04-26T10:56:59.937Z</time></trkpt><trkpt lat="43.9186717" lon="12.575315"><ele>136.25</ele><time>2026-04-26T10:57:00.937Z</time></trkpt><trkpt lat="43.918715" lon="12.575465"><ele>135.5</ele><time>2026-04-26T10:57:01.937Z</time></trkpt><trkpt lat="43.918765" lon="12.57562"><ele>134.75</ele><time>2026-04-26T10:57:02.937Z</time></trkpt><trkpt lat="43.9188067" lon="12.575785"><ele>134.0</ele><time>2026-04-26T10:57:03.937Z</time></trkpt><trkpt lat="43.9188467" lon="12.5759567"><ele>134.0</ele><time>2026-04-26T10:57:04.937Z</time></trkpt><trkpt lat="43.9188867" lon="12.57613"><ele>134.0</ele><time>2026-04-26T10:57:05.937Z</time></trkpt><trkpt lat="43.91893" lon="12.576305"><ele>134.0</ele><time>2026-04-26T10:57:06.937Z</time></trkpt><trkpt lat="43.91898" lon="12.5764767"><ele>134.0</ele><time>2026-04-26T10:57:07.937Z</time></trkpt><trkpt lat="43.91903" lon="12.5766517"><ele>133.5</ele><time>2026-04-26T10:57:08.937Z</time></trkpt><trkpt lat="43.9190767" lon="12.5768333"><ele>133.0</ele><time>2026-04-26T10:57:09.937Z</time></trkpt><trkpt lat="43.9191233" lon="12.5770167"><ele>132.5</ele><time>2026-04-26T10:57:10.936Z</time></trkpt><trkpt lat="43.9191717" lon="12.5772"><ele>132.0</ele><time>2026-04-26T10:57:11.937Z</time></trkpt><trkpt lat="43.9192167" lon="12.5773833"><ele>132.0</ele><time>2026-04-26T10:57:12.937Z</time></trkpt><trkpt lat="43.9192583" lon="12.577565"><ele>132.0</ele><time>2026-04-26T10:57:13.937Z</time></trkpt><trkpt lat="43.9192967" lon="12.5777417"><ele>132.0</ele><time>2026-04-26T10:57:14.937Z</time></trkpt><trkpt lat="43.9193333" lon="12.577895"><ele>132.0</ele><time>2026-04-26T10:57:15.937Z</time></trkpt><trkpt lat="43.9193617" lon="12.5780167"><ele>132.0</ele><time>2026-04-26T10:57:16.937Z</time></trkpt><trkpt lat="43.9193917" lon="12.5781133"><ele>132.0</ele><time>2026-04-26T10:57:17.936Z</time></trkpt><trkpt lat="43.9194133" lon="12.5782083"><ele>132.0</ele><time>2026-04-26T10:57:18.937Z</time></trkpt><trkpt lat="43.9194467" lon="12.5783017"><ele>132.0</ele><time>2026-04-26T10:57:19.937Z</time></trkpt><trkpt lat="43.91951" lon="12.5783817"><ele>132.0</ele><time>2026-04-26T10:57:20.937Z</time></trkpt><trkpt lat="43.9195833" lon="12.57847"><ele>132.0</ele><time>2026-04-26T10:57:21.937Z</time></trkpt><trkpt lat="43.9196467" lon="12.5785917"><ele>131.25</ele><time>2026-04-26T10:57:22.936Z</time></trkpt><trkpt lat="43.9196983" lon="12.5787483"><ele>130.5</ele><time>2026-04-26T10:57:23.937Z</time></trkpt><trkpt lat="43.9197467" lon="12.5789267"><ele>129.75</ele><time>2026-04-26T10:57:24.937Z</time></trkpt><trkpt lat="43.9198" lon="12.5791167"><ele>129.0</ele><time>2026-04-26T10:57:25.937Z</time></trkpt><trkpt lat="43.9198533" lon="12.57932"><ele>128.33333333333334</ele><time>2026-04-26T10:57:26.937Z</time></trkpt><trkpt lat="43.9199083" lon="12.579535"><ele>127.66666666666667</ele><time>2026-04-26T10:57:27.937Z</time></trkpt><trkpt lat="43.9199567" lon="12.579765"><ele>127.0</ele><time>2026-04-26T10:57:28.937Z</time></trkpt><trkpt lat="43.919985" lon="12.5800033"><ele>127.0</ele><time>2026-04-26T10:57:29.937Z</time></trkpt><trkpt lat="43.9199917" lon="12.580245"><ele>127.0</ele><time>2026-04-26T10:57:30.937Z</time></trkpt><trkpt lat="43.91999" lon="12.5804883"><ele>127.0</ele><time>2026-04-26T10:57:31.937Z</time></trkpt><trkpt lat="43.9199817" lon="12.5807333"><ele>127.0</ele><time>2026-04-26T10:57:32.936Z</time></trkpt><trkpt lat="43.9199833" lon="12.5809767"><ele>127.0</ele><time>2026-04-26T10:57:33.937Z</time></trkpt><trkpt lat="43.9199867" lon="12.581215"><ele>127.0</ele><time>2026-04-26T10:57:34.937Z</time></trkpt><trkpt lat="43.9199933" lon="12.5814567"><ele>127.0</ele><time>2026-04-26T10:57:35.937Z</time></trkpt><trkpt lat="43.92" lon="12.5817"><ele>127.0</ele><time>2026-04-26T10:57:36.937Z</time></trkpt><trkpt lat="43.9200067" lon="12.5819433"><ele>127.0</ele><time>2026-04-26T10:57:37.937Z</time></trkpt><trkpt lat="43.9200133" lon="12.5821883"><ele>126.66666666666667</ele><time>2026-04-26T10:57:38.937Z</time></trkpt><trkpt lat="43.920015" lon="12.5824333"><ele>126.33333333333334</ele><time>2026-04-26T10:57:39.937Z</time></trkpt><trkpt lat="43.9200083" lon="12.582675"><ele>126.0</ele><time>2026-04-26T10:57:40.937Z</time></trkpt><trkpt lat="43.9199983" lon="12.5829167"><ele>125.66666666666666</ele><time>2026-04-26T10:57:41.937Z</time></trkpt><trkpt lat="43.9199683" lon="12.583155"><ele>125.33333333333333</ele><time>2026-04-26T10:57:42.937Z</time></trkpt><trkpt lat="43.9199133" lon="12.5833933"><ele>125.0</ele><time>2026-04-26T10:57:43.937Z</time></trkpt><trkpt lat="43.919845" lon="12.5836267"><ele>126.33333333333333</ele><time>2026-04-26T10:57:44.936Z</time></trkpt><trkpt lat="43.919765" lon="12.5838583"><ele>127.66666666666666</ele><time>2026-04-26T10:57:45.937Z</time></trkpt><trkpt lat="43.9196867" lon="12.5840967"><ele>129.0</ele><time>2026-04-26T10:57:46.937Z</time></trkpt><trkpt lat="43.9196083" lon="12.58434"><ele>130.33333333333334</ele><time>2026-04-26T10:57:47.937Z</time></trkpt><trkpt lat="43.919535" lon="12.584585"><ele>131.66666666666669</ele><time>2026-04-26T10:57:48.937Z</time></trkpt><trkpt lat="43.9194567" lon="12.5848283"><ele>133.0</ele><time>2026-04-26T10:57:49.936Z</time></trkpt><trkpt lat="43.9193783" lon="12.58507"><ele>133.0</ele><time>2026-04-26T10:57:50.936Z</time></trkpt><trkpt lat="43.9192983" lon="12.5853083"><ele>133.0</ele><time>2026-04-26T10:57:51.936Z</time></trkpt><trkpt lat="43.919215" lon="12.585545"><ele>133.0</ele><time>2026-04-26T10:57:52.937Z</time></trkpt><trkpt lat="43.9191333" lon="12.5857817"><ele>130.33333333333334</ele><time>2026-04-26T10:57:53.937Z</time></trkpt><trkpt lat="43.9190533" lon="12.5860167"><ele>127.66666666666666</ele><time>2026-04-26T10:57:54.936Z</time></trkpt><trkpt lat="43.9189767" lon="12.5862483"><ele>125.0</ele><time>2026-04-26T10:57:55.937Z</time></trkpt><trkpt lat="43.9189" lon="12.5864717"><ele>125.0</ele><time>2026-04-26T10:57:56.937Z</time></trkpt><trkpt lat="43.918825" lon="12.5866967"><ele>125.0</ele><time>2026-04-26T10:57:57.937Z</time></trkpt><trkpt lat="43.9187517" lon="12.586925"><ele>125.0</ele><time>2026-04-26T10:57:58.936Z</time></trkpt><trkpt lat="43.9186783" lon="12.5871533"><ele>125.66666666666666</ele><time>2026-04-26T10:57:59.937Z</time></trkpt><trkpt lat="43.9186033" lon="12.5873767"><ele>126.33333333333334</ele><time>2026-04-26T10:58:00.937Z</time></trkpt><trkpt lat="43.9185217" lon="12.5875967"><ele>127.0</ele><time>2026-04-26T10:58:01.937Z</time></trkpt><trkpt lat="43.918445" lon="12.5878167"><ele>125.66666666666667</ele><time>2026-04-26T10:58:02.937Z</time></trkpt><trkpt lat="43.9183683" lon="12.5880367"><ele>124.33333333333334</ele><time>2026-04-26T10:58:03.936Z</time></trkpt><trkpt lat="43.9182933" lon="12.58826"><ele>123.0</ele><time>2026-04-26T10:58:04.937Z</time></trkpt><trkpt lat="43.91823" lon="12.5884867"><ele>123.25</ele><time>2026-04-26T10:58:05.937Z</time></trkpt><trkpt lat="43.9181883" lon="12.5887067"><ele>123.5</ele><time>2026-04-26T10:58:06.936Z</time></trkpt><trkpt lat="43.918155" lon="12.5889117"><ele>123.75</ele><time>2026-04-26T10:58:07.937Z</time></trkpt><trkpt lat="43.9181283" lon="12.5890883"><ele>124.0</ele><time>2026-04-26T10:58:08.937Z</time></trkpt><trkpt lat="43.9181117" lon="12.5892333"><ele>124.0</ele><time>2026-04-26T10:58:09.937Z</time></trkpt><trkpt lat="43.9180917" lon="12.5893417"><ele>124.0</ele><time>2026-04-26T10:58:10.936Z</time></trkpt><trkpt lat="43.9180517" lon="12.58941"><ele>124.0</ele><time>2026-04-26T10:58:11.936Z</time></trkpt><trkpt lat="43.9179383" lon="12.58943"><ele>124.0</ele><time>2026-04-26T10:58:13.937Z</time></trkpt><trkpt lat="43.9178283" lon="12.589385"><ele>124.0</ele><time>2026-04-26T10:58:15.937Z</time></trkpt><trkpt lat="43.9177283" lon="12.5893317"><ele>124.00000000000001</ele><time>2026-04-26T10:58:17.937Z</time></trkpt><trkpt lat="43.9176517" lon="12.5892583"><ele>124.0</ele><time>2026-04-26T10:58:19.937Z</time></trkpt><trkpt lat="43.91758" lon="12.58919"><ele>124.0</ele><time>2026-04-26T10:58:21.936Z</time></trkpt><trkpt lat="43.9175133" lon="12.589125"><ele>124.0</ele><time>2026-04-26T10:58:23.937Z</time></trkpt><trkpt lat="43.91746" lon="12.5890133"><ele>124.00000000000001</ele><time>2026-04-26T10:58:25.936Z</time></trkpt><trkpt lat="43.9174067" lon="12.5889667"><ele>124.0</ele><time>2026-04-26T10:58:28.936Z</time></trkpt><trkpt lat="43.9173367" lon="12.5890117"><ele>123.28571428571429</ele><time>2026-04-26T10:58:31.937Z</time></trkpt><trkpt lat="43.917275" lon="12.5890683"><ele>122.57142857142858</ele><time>2026-04-26T10:58:33.937Z</time></trkpt><trkpt lat="43.9172183" lon="12.589115"><ele>121.85714285714286</ele><time>2026-04-26T10:58:35.936Z</time></trkpt><trkpt lat="43.9171633" lon="12.5891783"><ele>121.14285714285714</ele><time>2026-04-26T10:58:37.937Z</time></trkpt><trkpt lat="43.9171267" lon="12.589255"><ele>120.42857142857143</ele><time>2026-04-26T10:58:39.937Z</time></trkpt><trkpt lat="43.9170867" lon="12.5893233"><ele>119.71428571428572</ele><time>2026-04-26T10:58:41.937Z</time></trkpt><trkpt lat="43.9170167" lon="12.5893867"><ele>119.0</ele><time>2026-04-26T10:58:44.937Z</time></trkpt><trkpt lat="43.916945" lon="12.5894767"><ele>119.33333333333333</ele><time>2026-04-26T10:58:46.937Z</time></trkpt><trkpt lat="43.9168617" lon="12.5895517"><ele>119.66666666666666</ele><time>2026-04-26T10:58:48.937Z</time></trkpt><trkpt lat="43.9168" lon="12.58959"><ele>120.0</ele><time>2026-04-26T10:58:51.937Z</time></trkpt><trkpt lat="43.9167383" lon="12.5896117"><ele>120.33333333333334</ele><time>2026-04-26T10:59:36.937Z</time></trkpt><trkpt lat="43.9166633" lon="12.5896167"><ele>120.66666666666667</ele><time>2026-04-26T10:59:39.937Z</time></trkpt><trkpt lat="43.9166133" lon="12.589545"><ele>121.0</ele><time>2026-04-26T10:59:44.936Z</time></trkpt><trkpt lat="43.91654" lon="12.5894883"><ele>119.83333333333334</ele><time>2026-04-26T10:59:48.936Z</time></trkpt><trkpt lat="43.9164967" lon="12.589575"><ele>118.66666666666667</ele><time>2026-04-26T10:59:53.937Z</time></trkpt><trkpt lat="43.9164544" lon="12.5896853"><ele>117.5</ele><time>2026-04-26T10:59:57.084Z</time></trkpt><trkpt lat="43.9164211" lon="12.5897717"><ele>116.33333333333334</ele><time>2026-04-26T11:00:01.174Z</time></trkpt><trkpt lat="43.9163978" lon="12.5898555"><ele>115.16666666666667</ele><time>2026-04-26T11:00:21.029Z</time></trkpt><trkpt lat="43.9163842" lon="12.5899771"><ele>114.0</ele><time>2026-04-26T11:00:24.062Z</time></trkpt><trkpt lat="43.9163969" lon="12.5900911"><ele>114.0</ele><time>2026-04-26T11:00:27.175Z</time></trkpt><trkpt lat="43.9164516" lon="12.5901972"><ele>114.0</ele><time>2026-04-26T11:00:30.197Z</time></trkpt><trkpt lat="43.9165102" lon="12.5903136"><ele>114.0</ele><time>2026-04-26T11:00:33.221Z</time></trkpt><trkpt lat="43.9165271" lon="12.5904253"><ele>114.0</ele><time>2026-04-26T11:00:35.21Z</time></trkpt><trkpt lat="43.9165116" lon="12.5905447"><ele>114.0</ele><time>2026-04-26T11:00:36.937Z</time></trkpt><trkpt lat="43.9165137" lon="12.5906935"><ele>114.16666666666667</ele><time>2026-04-26T11:00:38.937Z</time></trkpt><trkpt lat="43.9165296" lon="12.5907983"><ele>114.33333333333334</ele><time>2026-04-26T11:00:40.937Z</time></trkpt><trkpt lat="43.9165528" lon="12.5908918"><ele>114.5</ele><time>2026-04-26T11:00:42.936Z</time></trkpt><trkpt lat="43.9165884" lon="12.5910045"><ele>114.66666666666667</ele><time>2026-04-26T11:00:44.937Z</time></trkpt><trkpt lat="43.9166266" lon="12.5911497"><ele>114.83333333333334</ele><time>2026-04-26T11:00:46.937Z</time></trkpt><trkpt lat="43.9166541" lon="12.5912728"><ele>115.0</ele><time>2026-04-26T11:00:48.937Z</time></trkpt><trkpt lat="43.9166735" lon="12.5913964"><ele>115.00000000000001</ele><time>2026-04-26T11:00:51.937Z</time></trkpt><trkpt lat="43.9166786" lon="12.591494"><ele>115.0</ele><time>2026-04-26T11:00:53.937Z</time></trkpt><trkpt lat="43.9166831" lon="12.591583"><ele>115.0</ele><time>2026-04-26T11:00:55.936Z</time></trkpt><trkpt lat="43.9166879" lon="12.5916744"><ele>115.0</ele><time>2026-04-26T11:00:57.937Z</time></trkpt><trkpt lat="43.9166934" lon="12.5917806"><ele>115.00000000000001</ele><time>2026-04-26T11:00:59.937Z</time></trkpt><trkpt lat="43.9166958" lon="12.5918809"><ele>115.0</ele><time>2026-04-26T11:01:01.875Z</time></trkpt><trkpt lat="43.9166555" lon="12.5920659"><ele>115.66666666666667</ele><time>2026-04-26T11:01:04.937Z</time></trkpt><trkpt lat="43.9166204" lon="12.5921653"><ele>116.33333333333334</ele><time>2026-04-26T11:01:07.22Z</time></trkpt><trkpt lat="43.9165826" lon="12.5922628"><ele>117.0</ele><time>2026-04-26T11:01:09.235Z</time></trkpt><trkpt lat="43.9165376" lon="12.5923501"><ele>117.66666666666666</ele><time>2026-04-26T11:01:12.259Z</time></trkpt><trkpt lat="43.9164641" lon="12.592311"><ele>118.33333333333333</ele><time>2026-04-26T11:01:16.189Z</time></trkpt><trkpt lat="43.9163947" lon="12.5923614"><ele>119.0</ele><time>2026-04-26T11:01:18.141Z</time></trkpt><trkpt lat="43.9163436" lon="12.5924798"><ele>119.0</ele><time>2026-04-26T11:01:20.197Z</time></trkpt><trkpt lat="43.9163043" lon="12.5925981"><ele>119.0</ele><time>2026-04-26T11:01:22.135Z</time></trkpt><trkpt lat="43.9162542" lon="12.5926961"><ele>119.0</ele><time>2026-04-26T11:01:24.151Z</time></trkpt><trkpt lat="43.9161865" lon="12.59279"><ele>119.0</ele><time>2026-04-26T11:01:25.937Z</time></trkpt><trkpt lat="43.9161359" lon="12.5929168"><ele>119.0</ele><time>2026-04-26T11:01:27.937Z</time></trkpt><trkpt lat="43.9160779" lon="12.593047"><ele>118.80000000000001</ele><time>2026-04-26T11:01:29.937Z</time></trkpt><trkpt lat="43.9160271" lon="12.5931637"><ele>118.60000000000001</ele><time>2026-04-26T11:01:31.937Z</time></trkpt><trkpt lat="43.9160147" lon="12.5932531"><ele>118.4</ele><time>2026-04-26T11:01:33.937Z</time></trkpt><trkpt lat="43.9160246" lon="12.5933849"><ele>118.2</ele><time>2026-04-26T11:01:35.937Z</time></trkpt><trkpt lat="43.9159971" lon="12.5935565"><ele>118.0</ele><time>2026-04-26T11:01:37.937Z</time></trkpt><trkpt lat="43.9159676" lon="12.5936494"><ele>117.83333333333334</ele><time>2026-04-26T11:01:38.937Z</time></trkpt><trkpt lat="43.9159363" lon="12.5937451"><ele>117.66666666666667</ele><time>2026-04-26T11:01:39.936Z</time></trkpt><trkpt lat="43.9159065" lon="12.5938458"><ele>117.5</ele><time>2026-04-26T11:01:40.937Z</time></trkpt><trkpt lat="43.9158861" lon="12.5939606"><ele>117.33333333333334</ele><time>2026-04-26T11:01:41.937Z</time></trkpt><trkpt lat="43.9158717" lon="12.594089"><ele>117.16666666666667</ele><time>2026-04-26T11:01:42.936Z</time></trkpt><trkpt lat="43.9158617" lon="12.5942274"><ele>117.0</ele><time>2026-04-26T11:01:43.937Z</time></trkpt><trkpt lat="43.915853" lon="12.5943606"><ele>116.5</ele><time>2026-04-26T11:01:44.936Z</time></trkpt><trkpt lat="43.9158364" lon="12.5944806"><ele>116.0</ele><time>2026-04-26T11:01:45.937Z</time></trkpt><trkpt lat="43.9158144" lon="12.5945948"><ele>115.5</ele><time>2026-04-26T11:01:46.936Z</time></trkpt><trkpt lat="43.9157915" lon="12.5946972"><ele>115.0</ele><time>2026-04-26T11:01:47.937Z</time></trkpt><trkpt lat="43.9157631" lon="12.5947915"><ele>114.5</ele><time>2026-04-26T11:01:48.936Z</time></trkpt><trkpt lat="43.9157283" lon="12.594889"><ele>114.0</ele><time>2026-04-26T11:01:49.937Z</time></trkpt><trkpt lat="43.9156928" lon="12.5949871"><ele>114.0</ele><time>2026-04-26T11:01:50.937Z</time></trkpt><trkpt lat="43.9156557" lon="12.5950884"><ele>114.0</ele><time>2026-04-26T11:01:51.937Z</time></trkpt><trkpt lat="43.9156239" lon="12.5951929"><ele>114.0</ele><time>2026-04-26T11:01:52.936Z</time></trkpt><trkpt lat="43.9155981" lon="12.5953005"><ele>114.0</ele><time>2026-04-26T11:01:53.936Z</time></trkpt><trkpt lat="43.9155813" lon="12.5954168"><ele>114.0</ele><time>2026-04-26T11:01:54.937Z</time></trkpt><trkpt lat="43.9155718" lon="12.5955426"><ele>114.0</ele><time>2026-04-26T11:01:55.936Z</time></trkpt><trkpt lat="43.915563" lon="12.5956762"><ele>114.66666666666667</ele><time>2026-04-26T11:01:56.936Z</time></trkpt><trkpt lat="43.9155476" lon="12.5958041"><ele>115.33333333333334</ele><time>2026-04-26T11:01:57.937Z</time></trkpt><trkpt lat="43.9155321" lon="12.5959116"><ele>116.0</ele><time>2026-04-26T11:01:58.937Z</time></trkpt><trkpt lat="43.9155522" lon="12.5960487"><ele>116.66666666666667</ele><time>2026-04-26T11:02:00.937Z</time></trkpt><trkpt lat="43.9156038" lon="12.5961083"><ele>117.33333333333334</ele><time>2026-04-26T11:02:01.937Z</time></trkpt><trkpt lat="43.9156673" lon="12.596171"><ele>118.0</ele><time>2026-04-26T11:02:02.937Z</time></trkpt><trkpt lat="43.9157177" lon="12.5962319"><ele>118.0</ele><time>2026-04-26T11:02:03.936Z</time></trkpt><trkpt lat="43.9157666" lon="12.5963877"><ele>118.00000000000001</ele><time>2026-04-26T11:02:05.937Z</time></trkpt><trkpt lat="43.9157785" lon="12.59648"><ele>118.00000000000001</ele><time>2026-04-26T11:02:06.937Z</time></trkpt><trkpt lat="43.915827" lon="12.5966305"><ele>118.0</ele><time>2026-04-26T11:02:08.937Z</time></trkpt><trkpt lat="43.9158799" lon="12.5966983"><ele>118.0</ele><time>2026-04-26T11:02:09.937Z</time></trkpt><trkpt lat="43.915948" lon="12.5967711"><ele>119.00000000000001</ele><time>2026-04-26T11:02:10.936Z</time></trkpt><trkpt lat="43.9160169" lon="12.5968476"><ele>120.0</ele><time>2026-04-26T11:02:11.937Z</time></trkpt><trkpt lat="43.9160766" lon="12.5969201"><ele>121.0</ele><time>2026-04-26T11:02:12.937Z</time></trkpt><trkpt lat="43.9161361" lon="12.5969853"><ele>122.0</ele><time>2026-04-26T11:02:13.937Z</time></trkpt><trkpt lat="43.9162107" lon="12.5970481"><ele>123.00000000000001</ele><time>2026-04-26T11:02:14.937Z</time></trkpt><trkpt lat="43.9163002" lon="12.5971171"><ele>124.0</ele><time>2026-04-26T11:02:15.936Z</time></trkpt><trkpt lat="43.9163921" lon="12.5971869"><ele>124.33333333333334</ele><time>2026-04-26T11:02:16.937Z</time></trkpt><trkpt lat="43.9164713" lon="12.5972528"><ele>124.66666666666667</ele><time>2026-04-26T11:02:17.937Z</time></trkpt><trkpt lat="43.9165295" lon="12.5973083"><ele>125.0</ele><time>2026-04-26T11:02:18.937Z</time></trkpt><trkpt lat="43.9165538" lon="12.5974072"><ele>125.33333333333334</ele><time>2026-04-26T11:02:21.936Z</time></trkpt><trkpt lat="43.9164916" lon="12.5974633"><ele>125.66666666666667</ele><time>2026-04-26T11:02:23.937Z</time></trkpt><trkpt lat="43.9164374" lon="12.5975081"><ele>126.0</ele><time>2026-04-26T11:02:24.937Z</time></trkpt><trkpt lat="43.9163671" lon="12.5975601"><ele>126.0</ele><time>2026-04-26T11:02:25.937Z</time></trkpt><trkpt lat="43.9162918" lon="12.5976144"><ele>126.0</ele><time>2026-04-26T11:02:26.937Z</time></trkpt><trkpt lat="43.916228" lon="12.5976715"><ele>126.0</ele><time>2026-04-26T11:02:27.936Z</time></trkpt><trkpt lat="43.916182" lon="12.5977325"><ele>126.0</ele><time>2026-04-26T11:02:28.937Z</time></trkpt><trkpt lat="43.9161546" lon="12.5978119"><ele>126.0</ele><time>2026-04-26T11:02:29.937Z</time></trkpt><trkpt lat="43.9161494" lon="12.5979336"><ele>126.0</ele><time>2026-04-26T11:02:30.937Z</time></trkpt><trkpt lat="43.9161421" lon="12.5980835"><ele>125.8</ele><time>2026-04-26T11:02:31.937Z</time></trkpt><trkpt lat="43.9161282" lon="12.5982377"><ele>125.6</ele><time>2026-04-26T11:02:32.937Z</time></trkpt><trkpt lat="43.9160996" lon="12.5983883"><ele>125.4</ele><time>2026-04-26T11:02:33.937Z</time></trkpt><trkpt lat="43.9160744" lon="12.5985261"><ele>125.2</ele><time>2026-04-26T11:02:34.937Z</time></trkpt><trkpt lat="43.9160629" lon="12.5986474"><ele>125.0</ele><time>2026-04-26T11:02:35.937Z</time></trkpt><trkpt lat="43.9160896" lon="12.5987459"><ele>125.0</ele><time>2026-04-26T11:02:36.937Z</time></trkpt><trkpt lat="43.9161442" lon="12.5988162"><ele>125.0</ele><time>2026-04-26T11:02:37.937Z</time></trkpt><trkpt lat="43.9162203" lon="12.5988649"><ele>125.0</ele><time>2026-04-26T11:02:38.937Z</time></trkpt><trkpt lat="43.9163157" lon="12.5989079"><ele>125.0</ele><time>2026-04-26T11:02:39.937Z</time></trkpt><trkpt lat="43.9164112" lon="12.5989569"><ele>125.0</ele><time>2026-04-26T11:02:40.937Z</time></trkpt><trkpt lat="43.9164995" lon="12.5990099"><ele>124.99999999999999</ele><time>2026-04-26T11:02:41.936Z</time></trkpt><trkpt lat="43.9165783" lon="12.5990656"><ele>125.0</ele><time>2026-04-26T11:02:42.937Z</time></trkpt><trkpt lat="43.9166361" lon="12.5991146"><ele>125.0</ele><time>2026-04-26T11:02:43.937Z</time></trkpt><trkpt lat="43.9166683" lon="12.5992083"><ele>125.0</ele><time>2026-04-26T11:02:45.937Z</time></trkpt><trkpt lat="43.9166533" lon="12.5993133"><ele>124.99999999999999</ele><time>2026-04-26T11:02:47.937Z</time></trkpt><trkpt lat="43.9166183" lon="12.599445"><ele>125.0</ele><time>2026-04-26T11:02:49.937Z</time></trkpt><trkpt lat="43.9165967" lon="12.59953"><ele>124.49999999999999</ele><time>2026-04-26T11:02:50.937Z</time></trkpt><trkpt lat="43.916575" lon="12.5996267"><ele>124.0</ele><time>2026-04-26T11:02:51.937Z</time></trkpt><trkpt lat="43.9165517" lon="12.5997217"><ele>123.5</ele><time>2026-04-26T11:02:52.936Z</time></trkpt><trkpt lat="43.9165217" lon="12.5998117"><ele>123.0</ele><time>2026-04-26T11:02:53.937Z</time></trkpt><trkpt lat="43.91648" lon="12.59995"><ele>122.49999999999999</ele><time>2026-04-26T11:02:55.937Z</time></trkpt><trkpt lat="43.9165483" lon="12.599885"><ele>122.0</ele><time>2026-04-26T11:03:17.937Z</time></trkpt><trkpt lat="43.9166" lon="12.599725"><ele>121.99999999999999</ele><time>2026-04-26T11:03:19.937Z</time></trkpt><trkpt lat="43.9166267" lon="12.5996367"><ele>122.0</ele><time>2026-04-26T11:03:20.937Z</time></trkpt><trkpt lat="43.916655" lon="12.599545"><ele>122.0</ele><time>2026-04-26T11:03:21.937Z</time></trkpt><trkpt lat="43.916685" lon="12.5994433"><ele>122.0</ele><time>2026-04-26T11:03:22.937Z</time></trkpt><trkpt lat="43.9167183" lon="12.5993367"><ele>121.99999999999999</ele><time>2026-04-26T11:03:23.937Z</time></trkpt><trkpt lat="43.9167533" lon="12.5992233"><ele>122.0</ele><time>2026-04-26T11:03:24.937Z</time></trkpt><trkpt lat="43.9167933" lon="12.5991033"><ele>124.39999999999999</ele><time>2026-04-26T11:03:25.937Z</time></trkpt><trkpt lat="43.9168333" lon="12.59898"><ele>126.79999999999998</ele><time>2026-04-26T11:03:26.936Z</time></trkpt><trkpt lat="43.9168733" lon="12.5988517"><ele>129.2</ele><time>2026-04-26T11:03:27.937Z</time></trkpt><trkpt lat="43.91691" lon="12.5987183"><ele>131.6</ele><time>2026-04-26T11:03:28.937Z</time></trkpt><trkpt lat="43.9169467" lon="12.59858"><ele>134.0</ele><time>2026-04-26T11:03:29.937Z</time></trkpt><trkpt lat="43.9169833" lon="12.5984383"><ele>134.0</ele><time>2026-04-26T11:03:30.937Z</time></trkpt><trkpt lat="43.917015" lon="12.5982917"><ele>134.0</ele><time>2026-04-26T11:03:31.937Z</time></trkpt><trkpt lat="43.91704" lon="12.59814"><ele>134.0</ele><time>2026-04-26T11:03:32.937Z</time></trkpt><trkpt lat="43.91706" lon="12.597985"><ele>134.0</ele><time>2026-04-26T11:03:33.936Z</time></trkpt><trkpt lat="43.9170733" lon="12.597825"><ele>133.2</ele><time>2026-04-26T11:03:34.937Z</time></trkpt><trkpt lat="43.9170767" lon="12.5976617"><ele>132.4</ele><time>2026-04-26T11:03:35.936Z</time></trkpt><trkpt lat="43.9170683" lon="12.5975017"><ele>131.6</ele><time>2026-04-26T11:03:36.937Z</time></trkpt><trkpt lat="43.9170583" lon="12.5973517"><ele>130.8</ele><time>2026-04-26T11:03:37.936Z</time></trkpt><trkpt lat="43.917055" lon="12.5972167"><ele>130.0</ele><time>2026-04-26T11:03:38.937Z</time></trkpt><trkpt lat="43.91705" lon="12.5971067"><ele>130.0</ele><time>2026-04-26T11:03:39.937Z</time></trkpt><trkpt lat="43.91706" lon="12.59702"><ele>130.0</ele><time>2026-04-26T11:03:40.936Z</time></trkpt><trkpt lat="43.917145" lon="12.59688"><ele>130.0</ele><time>2026-04-26T11:03:42.937Z</time></trkpt><trkpt lat="43.9172217" lon="12.596835"><ele>130.0</ele><time>2026-04-26T11:03:43.937Z</time></trkpt><trkpt lat="43.917315" lon="12.5968117"><ele>130.0</ele><time>2026-04-26T11:03:44.937Z</time></trkpt><trkpt lat="43.9174217" lon="12.5968133"><ele>129.75</ele><time>2026-04-26T11:03:45.937Z</time></trkpt><trkpt lat="43.917535" lon="12.59684"><ele>129.5</ele><time>2026-04-26T11:03:46.937Z</time></trkpt><trkpt lat="43.91765" lon="12.5968833"><ele>129.25</ele><time>2026-04-26T11:03:47.937Z</time></trkpt><trkpt lat="43.9177667" lon="12.5969417"><ele>129.0</ele><time>2026-04-26T11:03:48.937Z</time></trkpt><trkpt lat="43.9178867" lon="12.5970067"><ele>131.0</ele><time>2026-04-26T11:03:49.936Z</time></trkpt><trkpt lat="43.917995" lon="12.597075"><ele>133.0</ele><time>2026-04-26T11:03:50.937Z</time></trkpt><trkpt lat="43.91808" lon="12.5971617"><ele>135.0</ele><time>2026-04-26T11:03:51.937Z</time></trkpt><trkpt lat="43.918125" lon="12.597275"><ele>137.0</ele><time>2026-04-26T11:03:52.937Z</time></trkpt><trkpt lat="43.91812" lon="12.5974067"><ele>139.0</ele><time>2026-04-26T11:03:53.937Z</time></trkpt><trkpt lat="43.91808" lon="12.5975467"><ele>139.0</ele><time>2026-04-26T11:03:54.937Z</time></trkpt><trkpt lat="43.9180167" lon="12.59769"><ele>139.0</ele><time>2026-04-26T11:03:55.937Z</time></trkpt><trkpt lat="43.9179483" lon="12.5978367"><ele>139.0</ele><time>2026-04-26T11:03:56.936Z</time></trkpt><trkpt lat="43.9178867" lon="12.5979833"><ele>139.0</ele><time>2026-04-26T11:03:57.937Z</time></trkpt><trkpt lat="43.917855" lon="12.598125"><ele>140.4</ele><time>2026-04-26T11:03:58.937Z</time></trkpt><trkpt lat="43.9178417" lon="12.59824"><ele>141.8</ele><time>2026-04-26T11:03:59.936Z</time></trkpt><trkpt lat="43.91787" lon="12.59832"><ele>143.2</ele><time>2026-04-26T11:04:00.936Z</time></trkpt><trkpt lat="43.9179917" lon="12.5983467"><ele>144.6</ele><time>2026-04-26T11:04:02.937Z</time></trkpt><trkpt lat="43.918075" lon="12.598295"><ele>146.0</ele><time>2026-04-26T11:04:03.937Z</time></trkpt><trkpt lat="43.9181617" lon="12.59822"><ele>146.0</ele><time>2026-04-26T11:04:04.937Z</time></trkpt><trkpt lat="43.9182583" lon="12.5981167"><ele>146.0</ele><time>2026-04-26T11:04:05.937Z</time></trkpt><trkpt lat="43.9183733" lon="12.59802"><ele>146.0</ele><time>2026-04-26T11:04:06.936Z</time></trkpt><trkpt lat="43.9185017" lon="12.59795"><ele>146.0</ele><time>2026-04-26T11:04:07.937Z</time></trkpt><trkpt lat="43.9186317" lon="12.5979"><ele>147.25</ele><time>2026-04-26T11:04:08.937Z</time></trkpt><trkpt lat="43.918755" lon="12.59784"><ele>148.5</ele><time>2026-04-26T11:04:09.936Z</time></trkpt><trkpt lat="43.9188733" lon="12.59777"><ele>149.75</ele><time>2026-04-26T11:04:10.937Z</time></trkpt><trkpt lat="43.91896" lon="12.597665"><ele>151.0</ele><time>2026-04-26T11:04:11.937Z</time></trkpt><trkpt lat="43.9189983" lon="12.5975183"><ele>151.0</ele><time>2026-04-26T11:04:12.936Z</time></trkpt><trkpt lat="43.9189867" lon="12.5973417"><ele>151.0</ele><time>2026-04-26T11:04:13.936Z</time></trkpt><trkpt lat="43.918945" lon="12.5971417"><ele>151.0</ele><time>2026-04-26T11:04:14.937Z</time></trkpt><trkpt lat="43.9189183" lon="12.5969333"><ele>151.0</ele><time>2026-04-26T11:04:15.937Z</time></trkpt><trkpt lat="43.91889" lon="12.5967183"><ele>153.33333333333334</ele><time>2026-04-26T11:04:16.937Z</time></trkpt><trkpt lat="43.918865" lon="12.5965067"><ele>155.66666666666666</ele><time>2026-04-26T11:04:17.937Z</time></trkpt><trkpt lat="43.9188467" lon="12.5962933"><ele>158.0</ele><time>2026-04-26T11:04:18.936Z</time></trkpt><trkpt lat="43.9188483" lon="12.596085"><ele>158.33333333333331</ele><time>2026-04-26T11:04:19.937Z</time></trkpt><trkpt lat="43.918885" lon="12.5958867"><ele>158.66666666666666</ele><time>2026-04-26T11:04:20.936Z</time></trkpt><trkpt lat="43.9189517" lon="12.5957017"><ele>159.0</ele><time>2026-04-26T11:04:21.937Z</time></trkpt><trkpt lat="43.91905" lon="12.5955367"><ele>159.0</ele><time>2026-04-26T11:04:22.937Z</time></trkpt><trkpt lat="43.9191583" lon="12.5953733"><ele>159.0</ele><time>2026-04-26T11:04:23.937Z</time></trkpt><trkpt lat="43.9192633" lon="12.5952017"><ele>159.0</ele><time>2026-04-26T11:04:24.937Z</time></trkpt><trkpt lat="43.9193767" lon="12.5950317"><ele>159.33333333333334</ele><time>2026-04-26T11:04:25.936Z</time></trkpt><trkpt lat="43.9194933" lon="12.5948583"><ele>159.66666666666669</ele><time>2026-04-26T11:04:26.937Z</time></trkpt><trkpt lat="43.9196083" lon="12.594675"><ele>160.0</ele><time>2026-04-26T11:04:27.937Z</time></trkpt><trkpt lat="43.9197317" lon="12.5944983"><ele>160.0</ele><time>2026-04-26T11:04:28.937Z</time></trkpt><trkpt lat="43.919865" lon="12.59433"><ele>160.0</ele><time>2026-04-26T11:04:29.937Z</time></trkpt><trkpt lat="43.920005" lon="12.5941717"><ele>160.0</ele><time>2026-04-26T11:04:30.937Z</time></trkpt><trkpt lat="43.9201483" lon="12.5940233"><ele>163.0</ele><time>2026-04-26T11:04:31.937Z</time></trkpt><trkpt lat="43.9202933" lon="12.59388"><ele>166.0</ele><time>2026-04-26T11:04:32.937Z</time></trkpt><trkpt lat="43.92043" lon="12.5937383"><ele>169.0</ele><time>2026-04-26T11:04:33.937Z</time></trkpt><trkpt lat="43.920565" lon="12.593615"><ele>169.0</ele><time>2026-04-26T11:04:34.937Z</time></trkpt><trkpt lat="43.9206817" lon="12.593465"><ele>169.0</ele><time>2026-04-26T11:04:35.936Z</time></trkpt><trkpt lat="43.9207867" lon="12.5932933"><ele>169.0</ele><time>2026-04-26T11:04:36.937Z</time></trkpt><trkpt lat="43.9208567" lon="12.5931033"><ele>169.25</ele><time>2026-04-26T11:04:37.937Z</time></trkpt><trkpt lat="43.9209117" lon="12.5929233"><ele>169.5</ele><time>2026-04-26T11:04:38.937Z</time></trkpt><trkpt lat="43.9209733" lon="12.5927667"><ele>169.75</ele><time>2026-04-26T11:04:39.936Z</time></trkpt><trkpt lat="43.9210533" lon="12.59265"><ele>170.0</ele><time>2026-04-26T11:04:40.937Z</time></trkpt><trkpt lat="43.9211683" lon="12.5926"><ele>170.0</ele><time>2026-04-26T11:04:41.937Z</time></trkpt><trkpt lat="43.9213033" lon="12.5925833"><ele>170.0</ele><time>2026-04-26T11:04:42.937Z</time></trkpt><trkpt lat="43.92145" lon="12.5925767"><ele>170.0</ele><time>2026-04-26T11:04:43.936Z</time></trkpt><trkpt lat="43.9216017" lon="12.5925533"><ele>170.0</ele><time>2026-04-26T11:04:44.937Z</time></trkpt><trkpt lat="43.9217633" lon="12.5925283"><ele>173.25</ele><time>2026-04-26T11:04:45.936Z</time></trkpt><trkpt lat="43.92192" lon="12.5925067"><ele>176.5</ele><time>2026-04-26T11:04:46.937Z</time></trkpt><trkpt lat="43.9220667" lon="12.5924783"><ele>179.75</ele><time>2026-04-26T11:04:47.937Z</time></trkpt><trkpt lat="43.922205" lon="12.5924617"><ele>183.0</ele><time>2026-04-26T11:04:48.937Z</time></trkpt><trkpt lat="43.9223317" lon="12.59244"><ele>183.0</ele><time>2026-04-26T11:04:49.937Z</time></trkpt><trkpt lat="43.9224483" lon="12.59242"><ele>183.0</ele><time>2026-04-26T11:04:50.937Z</time></trkpt><trkpt lat="43.9225467" lon="12.592365"><ele>183.0</ele><time>2026-04-26T11:04:51.937Z</time></trkpt><trkpt lat="43.9226133" lon="12.5922667"><ele>183.0</ele><time>2026-04-26T11:04:52.937Z</time></trkpt><trkpt lat="43.9226333" lon="12.5921317"><ele>183.0</ele><time>2026-04-26T11:04:53.937Z</time></trkpt><trkpt lat="43.9226033" lon="12.5919867"><ele>182.75</ele><time>2026-04-26T11:04:54.937Z</time></trkpt><trkpt lat="43.9225367" lon="12.5918417"><ele>182.5</ele><time>2026-04-26T11:04:55.937Z</time></trkpt><trkpt lat="43.9224567" lon="12.5916833"><ele>182.25</ele><time>2026-04-26T11:04:56.937Z</time></trkpt><trkpt lat="43.9223767" lon="12.5915133"><ele>182.0</ele><time>2026-04-26T11:04:57.936Z</time></trkpt><trkpt lat="43.9223117" lon="12.591345"><ele>182.0</ele><time>2026-04-26T11:04:58.936Z</time></trkpt><trkpt lat="43.9222617" lon="12.5912"><ele>182.0</ele><time>2026-04-26T11:04:59.936Z</time></trkpt><trkpt lat="43.922245" lon="12.5910767"><ele>182.0</ele><time>2026-04-26T11:05:00.937Z</time></trkpt><trkpt lat="43.9222667" lon="12.5909767"><ele>182.0</ele><time>2026-04-26T11:05:01.937Z</time></trkpt><trkpt lat="43.9223783" lon="12.590935"><ele>182.0</ele><time>2026-04-26T11:05:03.937Z</time></trkpt><trkpt lat="43.9224483" lon="12.59101"><ele>183.75</ele><time>2026-04-26T11:05:04.937Z</time></trkpt><trkpt lat="43.9225133" lon="12.59114"><ele>185.5</ele><time>2026-04-26T11:05:05.937Z</time></trkpt><trkpt lat="43.9225917" lon="12.591285"><ele>187.25</ele><time>2026-04-26T11:05:06.937Z</time></trkpt><trkpt lat="43.9227" lon="12.5914217"><ele>189.0</ele><time>2026-04-26T11:05:07.937Z</time></trkpt><trkpt lat="43.9228033" lon="12.591565"><ele>189.5</ele><time>2026-04-26T11:05:08.937Z</time></trkpt><trkpt lat="43.922905" lon="12.5917083"><ele>190.0</ele><time>2026-04-26T11:05:09.937Z</time></trkpt><trkpt lat="43.9230067" lon="12.5918483"><ele>190.5</ele><time>2026-04-26T11:05:10.937Z</time></trkpt><trkpt lat="43.9231017" lon="12.5919867"><ele>191.0</ele><time>2026-04-26T11:05:11.937Z</time></trkpt><trkpt lat="43.9231967" lon="12.5921233"><ele>191.0</ele><time>2026-04-26T11:05:12.937Z</time></trkpt><trkpt lat="43.9232917" lon="12.5922467"><ele>191.0</ele><time>2026-04-26T11:05:13.937Z</time></trkpt><trkpt lat="43.9233717" lon="12.592355"><ele>191.0</ele><time>2026-04-26T11:05:14.937Z</time></trkpt><trkpt lat="43.923425" lon="12.5924483"><ele>191.0</ele><time>2026-04-26T11:05:15.937Z</time></trkpt><trkpt lat="43.9234617" lon="12.5925283"><ele>191.0</ele><time>2026-04-26T11:05:16.937Z</time></trkpt><trkpt lat="43.9234583" lon="12.592625"><ele>191.0</ele><time>2026-04-26T11:05:17.937Z</time></trkpt><trkpt lat="43.92344" lon="12.5927217"><ele>191.0</ele><time>2026-04-26T11:05:18.936Z</time></trkpt><trkpt lat="43.923395" lon="12.5928083"><ele>191.0</ele><time>2026-04-26T11:05:19.937Z</time></trkpt><trkpt lat="43.923335" lon="12.592895"><ele>191.0</ele><time>2026-04-26T11:05:20.937Z</time></trkpt><trkpt lat="43.9232667" lon="12.5929917"><ele>191.0</ele><time>2026-04-26T11:05:21.937Z</time></trkpt><trkpt lat="43.9231883" lon="12.5930817"><ele>191.0</ele><time>2026-04-26T11:05:22.936Z</time></trkpt><trkpt lat="43.9231317" lon="12.5931933"><ele>190.4</ele><time>2026-04-26T11:05:23.937Z</time></trkpt><trkpt lat="43.9231183" lon="12.5933333"><ele>189.8</ele><time>2026-04-26T11:05:24.937Z</time></trkpt><trkpt lat="43.92314" lon="12.5934767"><ele>189.20000000000002</ele><time>2026-04-26T11:05:25.937Z</time></trkpt><trkpt lat="43.9231967" lon="12.5936017"><ele>188.60000000000002</ele><time>2026-04-26T11:05:26.937Z</time></trkpt><trkpt lat="43.9232883" lon="12.5936833"><ele>188.0</ele><time>2026-04-26T11:05:27.937Z</time></trkpt><trkpt lat="43.9234017" lon="12.5937233"><ele>186.25</ele><time>2026-04-26T11:05:28.937Z</time></trkpt><trkpt lat="43.9235317" lon="12.5937367"><ele>184.5</ele><time>2026-04-26T11:05:29.937Z</time></trkpt><trkpt lat="43.9236617" lon="12.59374"><ele>182.75</ele><time>2026-04-26T11:05:30.937Z</time></trkpt><trkpt lat="43.9237917" lon="12.5937433"><ele>181.0</ele><time>2026-04-26T11:05:31.936Z</time></trkpt><trkpt lat="43.9239217" lon="12.593735"><ele>181.0</ele><time>2026-04-26T11:05:32.937Z</time></trkpt><trkpt lat="43.9240517" lon="12.5937283"><ele>181.0</ele><time>2026-04-26T11:05:33.937Z</time></trkpt><trkpt lat="43.9241783" lon="12.593715"><ele>181.0</ele><time>2026-04-26T11:05:34.937Z</time></trkpt><trkpt lat="43.9243067" lon="12.5937017"><ele>181.0</ele><time>2026-04-26T11:05:35.937Z</time></trkpt><trkpt lat="43.9244367" lon="12.5936917"><ele>182.0</ele><time>2026-04-26T11:05:36.937Z</time></trkpt><trkpt lat="43.92457" lon="12.593675"><ele>183.0</ele><time>2026-04-26T11:05:37.936Z</time></trkpt><trkpt lat="43.9246983" lon="12.5936583"><ele>184.0</ele><time>2026-04-26T11:05:38.937Z</time></trkpt><trkpt lat="43.9248283" lon="12.593645"><ele>185.0</ele><time>2026-04-26T11:05:39.936Z</time></trkpt><trkpt lat="43.9249567" lon="12.5936267"><ele>183.75</ele><time>2026-04-26T11:05:40.937Z</time></trkpt><trkpt lat="43.925085" lon="12.5936067"><ele>182.5</ele><time>2026-04-26T11:05:41.936Z</time></trkpt><trkpt lat="43.925205" lon="12.59358"><ele>181.25</ele><time>2026-04-26T11:05:42.936Z</time></trkpt><trkpt lat="43.9253133" lon="12.59355"><ele>180.0</ele><time>2026-04-26T11:05:43.936Z</time></trkpt><trkpt lat="43.9254067" lon="12.5935117"><ele>180.0</ele><time>2026-04-26T11:05:44.937Z</time></trkpt><trkpt lat="43.9254767" lon="12.5934833"><ele>180.0</ele><time>2026-04-26T11:05:45.937Z</time></trkpt><trkpt lat="43.92557" lon="12.5934533"><ele>180.0</ele><time>2026-04-26T11:05:47.937Z</time></trkpt><trkpt lat="43.9256617" lon="12.59343"><ele>180.0</ele><time>2026-04-26T11:05:50.937Z</time></trkpt><trkpt lat="43.9255917" lon="12.5933767"><ele>180.0</ele><time>2026-04-26T11:05:57.937Z</time></trkpt><trkpt lat="43.925665" lon="12.5934183"><ele>180.0</ele><time>2026-04-26T11:06:16.937Z</time></trkpt><trkpt lat="43.925745" lon="12.5934067"><ele>180.0</ele><time>2026-04-26T11:06:18.937Z</time></trkpt><trkpt lat="43.92586" lon="12.5933967"><ele>180.0</ele><time>2026-04-26T11:06:20.937Z</time></trkpt><trkpt lat="43.92593" lon="12.5933783"><ele>180.0</ele><time>2026-04-26T11:06:21.937Z</time></trkpt><trkpt lat="43.9260083" lon="12.5933583"><ele>180.0</ele><time>2026-04-26T11:06:22.937Z</time></trkpt><trkpt lat="43.926085" lon="12.593345"><ele>180.0</ele><time>2026-04-26T11:06:23.937Z</time></trkpt><trkpt lat="43.926165" lon="12.593325"><ele>180.0</ele><time>2026-04-26T11:06:24.937Z</time></trkpt><trkpt lat="43.926245" lon="12.5933017"><ele>179.83333333333334</ele><time>2026-04-26T11:06:25.937Z</time></trkpt><trkpt lat="43.926325" lon="12.5932817"><ele>179.66666666666666</ele><time>2026-04-26T11:06:26.936Z</time></trkpt><trkpt lat="43.926405" lon="12.5932617"><ele>179.5</ele><time>2026-04-26T11:06:27.937Z</time></trkpt><trkpt lat="43.9264917" lon="12.59324"><ele>179.33333333333331</ele><time>2026-04-26T11:06:28.937Z</time></trkpt><trkpt lat="43.9265833" lon="12.5932167"><ele>179.16666666666666</ele><time>2026-04-26T11:06:29.937Z</time></trkpt><trkpt lat="43.92668" lon="12.59319"><ele>179.0</ele><time>2026-04-26T11:06:30.937Z</time></trkpt><trkpt lat="43.9267817" lon="12.59316"><ele>177.5</ele><time>2026-04-26T11:06:31.937Z</time></trkpt><trkpt lat="43.9268983" lon="12.5931367"><ele>176.0</ele><time>2026-04-26T11:06:32.937Z</time></trkpt><trkpt lat="43.927025" lon="12.5931133"><ele>174.5</ele><time>2026-04-26T11:06:33.936Z</time></trkpt><trkpt lat="43.92716" lon="12.593105"><ele>173.0</ele><time>2026-04-26T11:06:34.937Z</time></trkpt><trkpt lat="43.927295" lon="12.5931083"><ele>173.0</ele><time>2026-04-26T11:06:35.937Z</time></trkpt><trkpt lat="43.92743" lon="12.5931383"><ele>173.0</ele><time>2026-04-26T11:06:36.936Z</time></trkpt><trkpt lat="43.927565" lon="12.5931783"><ele>173.0</ele><time>2026-04-26T11:06:37.937Z</time></trkpt><trkpt lat="43.9277067" lon="12.5932267"><ele>173.0</ele><time>2026-04-26T11:06:38.936Z</time></trkpt><trkpt lat="43.9278533" lon="12.5932767"><ele>171.0</ele><time>2026-04-26T11:06:39.936Z</time></trkpt><trkpt lat="43.928" lon="12.59332"><ele>169.0</ele><time>2026-04-26T11:06:40.937Z</time></trkpt><trkpt lat="43.9281467" lon="12.593345"><ele>167.0</ele><time>2026-04-26T11:06:41.937Z</time></trkpt><trkpt lat="43.928295" lon="12.5933517"><ele>165.0</ele><time>2026-04-26T11:06:42.937Z</time></trkpt><trkpt lat="43.9284417" lon="12.593345"><ele>164.0</ele><time>2026-04-26T11:06:43.936Z</time></trkpt><trkpt lat="43.92859" lon="12.5933133"><ele>163.0</ele><time>2026-04-26T11:06:44.936Z</time></trkpt><trkpt lat="43.9287383" lon="12.5932717"><ele>162.0</ele><time>2026-04-26T11:06:45.937Z</time></trkpt><trkpt lat="43.92889" lon="12.59323"><ele>162.0</ele><time>2026-04-26T11:06:46.937Z</time></trkpt><trkpt lat="43.9290433" lon="12.593175"><ele>162.0</ele><time>2026-04-26T11:06:47.937Z</time></trkpt><trkpt lat="43.9292" lon="12.5931117"><ele>162.0</ele><time>2026-04-26T11:06:48.937Z</time></trkpt><trkpt lat="43.9293617" lon="12.5930583"><ele>161.33333333333334</ele><time>2026-04-26T11:06:49.937Z</time></trkpt><trkpt lat="43.929525" lon="12.593005"><ele>160.66666666666669</ele><time>2026-04-26T11:06:50.937Z</time></trkpt><trkpt lat="43.92969" lon="12.59296"><ele>160.0</ele><time>2026-04-26T11:06:51.937Z</time></trkpt><trkpt lat="43.9298567" lon="12.592925"><ele>160.0</ele><time>2026-04-26T11:06:52.937Z</time></trkpt><trkpt lat="43.9300283" lon="12.5929033"><ele>160.0</ele><time>2026-04-26T11:06:53.937Z</time></trkpt><trkpt lat="43.9302017" lon="12.5928967"><ele>160.0</ele><time>2026-04-26T11:06:54.937Z</time></trkpt><trkpt lat="43.9303767" lon="12.5929"><ele>159.66666666666669</ele><time>2026-04-26T11:06:55.936Z</time></trkpt><trkpt lat="43.93055" lon="12.5929033"><ele>159.33333333333334</ele><time>2026-04-26T11:06:56.937Z</time></trkpt><trkpt lat="43.9307233" lon="12.5929133"><ele>159.0</ele><time>2026-04-26T11:06:57.936Z</time></trkpt><trkpt lat="43.930895" lon="12.5929233"><ele>159.0</ele><time>2026-04-26T11:06:58.936Z</time></trkpt><trkpt lat="43.9310683" lon="12.592935"><ele>159.0</ele><time>2026-04-26T11:06:59.937Z</time></trkpt><trkpt lat="43.9312417" lon="12.5929533"><ele>159.0</ele><time>2026-04-26T11:07:00.936Z</time></trkpt><trkpt lat="43.9314167" lon="12.5929617"><ele>159.0</ele><time>2026-04-26T11:07:01.936Z</time></trkpt><trkpt lat="43.9315917" lon="12.5929483"><ele>159.0</ele><time>2026-04-26T11:07:02.937Z</time></trkpt><trkpt lat="43.931765" lon="12.59292"><ele>159.0</ele><time>2026-04-26T11:07:03.937Z</time></trkpt><trkpt lat="43.93194" lon="12.5928917"><ele>158.66666666666666</ele><time>2026-04-26T11:07:04.937Z</time></trkpt><trkpt lat="43.9321117" lon="12.5928683"><ele>158.33333333333331</ele><time>2026-04-26T11:07:05.937Z</time></trkpt><trkpt lat="43.93228" lon="12.592865"><ele>158.0</ele><time>2026-04-26T11:07:06.936Z</time></trkpt><trkpt lat="43.9324483" lon="12.59287"><ele>155.66666666666666</ele><time>2026-04-26T11:07:07.937Z</time></trkpt><trkpt lat="43.932615" lon="12.592905"><ele>153.33333333333334</ele><time>2026-04-26T11:07:08.937Z</time></trkpt><trkpt lat="43.9327833" lon="12.5929567"><ele>151.0</ele><time>2026-04-26T11:07:09.937Z</time></trkpt><trkpt lat="43.9329483" lon="12.5930383"><ele>151.0</ele><time>2026-04-26T11:07:10.936Z</time></trkpt><trkpt lat="43.9331133" lon="12.5931283"><ele>151.0</ele><time>2026-04-26T11:07:11.936Z</time></trkpt><trkpt lat="43.9332883" lon="12.5931983"><ele>151.0</ele><time>2026-04-26T11:07:12.937Z</time></trkpt><trkpt lat="43.9334667" lon="12.59326"><ele>148.0</ele><time>2026-04-26T11:07:13.937Z</time></trkpt><trkpt lat="43.9336433" lon="12.5933267"><ele>145.0</ele><time>2026-04-26T11:07:14.937Z</time></trkpt><trkpt lat="43.9338233" lon="12.59339"><ele>142.0</ele><time>2026-04-26T11:07:15.936Z</time></trkpt><trkpt lat="43.934" lon="12.5934533"><ele>142.0</ele><time>2026-04-26T11:07:16.937Z</time></trkpt><trkpt lat="43.93417" lon="12.5935217"><ele>142.0</ele><time>2026-04-26T11:07:17.936Z</time></trkpt><trkpt lat="43.9343333" lon="12.5935883"><ele>142.0</ele><time>2026-04-26T11:07:18.937Z</time></trkpt><trkpt lat="43.934495" lon="12.5936533"><ele>145.33333333333334</ele><time>2026-04-26T11:07:19.937Z</time></trkpt><trkpt lat="43.9346583" lon="12.5936933"><ele>148.66666666666666</ele><time>2026-04-26T11:07:20.936Z</time></trkpt><trkpt lat="43.9348183" lon="12.5937167"><ele>152.0</ele><time>2026-04-26T11:07:21.936Z</time></trkpt><trkpt lat="43.9349717" lon="12.5937317"><ele>151.5</ele><time>2026-04-26T11:07:22.936Z</time></trkpt><trkpt lat="43.9351183" lon="12.593745"><ele>151.0</ele><time>2026-04-26T11:07:23.937Z</time></trkpt><trkpt lat="43.93526" lon="12.5937567"><ele>150.5</ele><time>2026-04-26T11:07:24.936Z</time></trkpt><trkpt lat="43.9353967" lon="12.5937717"><ele>150.0</ele><time>2026-04-26T11:07:25.937Z</time></trkpt><trkpt lat="43.9355317" lon="12.5937967"><ele>150.0</ele><time>2026-04-26T11:07:26.937Z</time></trkpt><trkpt lat="43.935665" lon="12.593825"><ele>150.0</ele><time>2026-04-26T11:07:27.937Z</time></trkpt><trkpt lat="43.935795" lon="12.5938567"><ele>150.0</ele><time>2026-04-26T11:07:28.937Z</time></trkpt><trkpt lat="43.93592" lon="12.593895"><ele>150.0</ele><time>2026-04-26T11:07:29.937Z</time></trkpt><trkpt lat="43.93604" lon="12.59393"><ele>147.25</ele><time>2026-04-26T11:07:30.937Z</time></trkpt><trkpt lat="43.9361617" lon="12.5939767"><ele>144.5</ele><time>2026-04-26T11:07:31.936Z</time></trkpt><trkpt lat="43.9362783" lon="12.5940267"><ele>141.75</ele><time>2026-04-26T11:07:32.937Z</time></trkpt><trkpt lat="43.9363867" lon="12.5941"><ele>139.0</ele><time>2026-04-26T11:07:33.937Z</time></trkpt><trkpt lat="43.9364933" lon="12.5941817"><ele>139.0</ele><time>2026-04-26T11:07:34.937Z</time></trkpt><trkpt lat="43.9366017" lon="12.59427"><ele>139.0</ele><time>2026-04-26T11:07:35.936Z</time></trkpt><trkpt lat="43.936705" lon="12.5943567"><ele>139.0</ele><time>2026-04-26T11:07:36.936Z</time></trkpt><trkpt lat="43.9368083" lon="12.5944383"><ele>139.0</ele><time>2026-04-26T11:07:37.937Z</time></trkpt><trkpt lat="43.9369117" lon="12.5945183"><ele>139.25</ele><time>2026-04-26T11:07:38.937Z</time></trkpt><trkpt lat="43.937015" lon="12.5946017"><ele>139.5</ele><time>2026-04-26T11:07:39.936Z</time></trkpt><trkpt lat="43.93712" lon="12.59468"><ele>139.75</ele><time>2026-04-26T11:07:40.937Z</time></trkpt><trkpt lat="43.9372233" lon="12.59476"><ele>140.0</ele><time>2026-04-26T11:07:41.937Z</time></trkpt><trkpt lat="43.9373217" lon="12.594825"><ele>140.0</ele><time>2026-04-26T11:07:42.937Z</time></trkpt><trkpt lat="43.9374017" lon="12.5948767"><ele>140.0</ele><time>2026-04-26T11:07:43.937Z</time></trkpt><trkpt lat="43.9374683" lon="12.59491"><ele>140.0</ele><time>2026-04-26T11:07:44.937Z</time></trkpt><trkpt lat="43.93749" lon="12.594995"><ele>140.0</ele><time>2026-04-26T11:07:46.937Z</time></trkpt><trkpt lat="43.9374083" lon="12.5949967"><ele>140.0</ele><time>2026-04-26T11:07:48.937Z</time></trkpt><trkpt lat="43.93727" lon="12.595"><ele>140.0</ele><time>2026-04-26T11:07:50.937Z</time></trkpt><trkpt lat="43.937165" lon="12.5949917"><ele>140.0</ele><time>2026-04-26T11:07:51.937Z</time></trkpt><trkpt lat="43.93706" lon="12.5949983"><ele>140.0</ele><time>2026-04-26T11:07:52.937Z</time></trkpt><trkpt lat="43.9369483" lon="12.595"><ele>140.0</ele><time>2026-04-26T11:07:53.937Z</time></trkpt><trkpt lat="43.9368283" lon="12.5949983"><ele>140.0</ele><time>2026-04-26T11:07:54.937Z</time></trkpt><trkpt lat="43.9367017" lon="12.5949917"><ele>141.5</ele><time>2026-04-26T11:07:55.937Z</time></trkpt><trkpt lat="43.9365683" lon="12.594985"><ele>143.0</ele><time>2026-04-26T11:07:56.937Z</time></trkpt><trkpt lat="43.93644" lon="12.594985"><ele>144.5</ele><time>2026-04-26T11:07:57.937Z</time></trkpt><trkpt lat="43.9363183" lon="12.5949833"><ele>146.0</ele><time>2026-04-26T11:07:58.937Z</time></trkpt><trkpt lat="43.9362083" lon="12.5949867"><ele>146.0</ele><time>2026-04-26T11:07:59.937Z</time></trkpt><trkpt lat="43.936115" lon="12.595"><ele>146.0</ele><time>2026-04-26T11:08:00.937Z</time></trkpt><trkpt lat="43.93604" lon="12.59503"><ele>146.0</ele><time>2026-04-26T11:08:01.937Z</time></trkpt><trkpt lat="43.935985" lon="12.595075"><ele>146.0</ele><time>2026-04-26T11:08:02.937Z</time></trkpt><trkpt lat="43.9360067" lon="12.5951817"><ele>146.0</ele><time>2026-04-26T11:08:03.937Z</time></trkpt><trkpt lat="43.9360267" lon="12.5953"><ele>146.0</ele><time>2026-04-26T11:08:04.937Z</time></trkpt><trkpt lat="43.9360483" lon="12.59544"><ele>145.75</ele><time>2026-04-26T11:08:05.937Z</time></trkpt><trkpt lat="43.936065" lon="12.595595"><ele>145.5</ele><time>2026-04-26T11:08:06.937Z</time></trkpt><trkpt lat="43.9360817" lon="12.5957667"><ele>145.25</ele><time>2026-04-26T11:08:07.936Z</time></trkpt><trkpt lat="43.9360983" lon="12.595945"><ele>145.0</ele><time>2026-04-26T11:08:08.937Z</time></trkpt><trkpt lat="43.9361167" lon="12.5961283"><ele>143.75</ele><time>2026-04-26T11:08:09.937Z</time></trkpt><trkpt lat="43.9361367" lon="12.5963233"><ele>142.5</ele><time>2026-04-26T11:08:10.937Z</time></trkpt><trkpt lat="43.9361517" lon="12.5965217"><ele>141.25</ele><time>2026-04-26T11:08:11.936Z</time></trkpt><trkpt lat="43.9361633" lon="12.59672"><ele>140.0</ele><time>2026-04-26T11:08:12.937Z</time></trkpt><trkpt lat="43.9361767" lon="12.5969283"><ele>138.75</ele><time>2026-04-26T11:08:13.937Z</time></trkpt><trkpt lat="43.9361883" lon="12.59714"><ele>137.5</ele><time>2026-04-26T11:08:14.937Z</time></trkpt><trkpt lat="43.9361967" lon="12.5973467"><ele>136.25</ele><time>2026-04-26T11:08:15.937Z</time></trkpt><trkpt lat="43.936205" lon="12.5975467"><ele>135.0</ele><time>2026-04-26T11:08:16.937Z</time></trkpt><trkpt lat="43.936215" lon="12.5977517"><ele>132.33333333333334</ele><time>2026-04-26T11:08:17.937Z</time></trkpt><trkpt lat="43.9362283" lon="12.59796"><ele>129.66666666666669</ele><time>2026-04-26T11:08:18.937Z</time></trkpt><trkpt lat="43.9362383" lon="12.5981733"><ele>127.0</ele><time>2026-04-26T11:08:19.937Z</time></trkpt><trkpt lat="43.9362467" lon="12.5983917"><ele>127.0</ele><time>2026-04-26T11:08:20.937Z</time></trkpt><trkpt lat="43.9362583" lon="12.5986167"><ele>127.0</ele><time>2026-04-26T11:08:21.937Z</time></trkpt><trkpt lat="43.9362733" lon="12.5988467"><ele>127.0</ele><time>2026-04-26T11:08:22.937Z</time></trkpt><trkpt lat="43.9362933" lon="12.5990783"><ele>125.33333333333334</ele><time>2026-04-26T11:08:23.937Z</time></trkpt><trkpt lat="43.93632" lon="12.5993083"><ele>123.66666666666666</ele><time>2026-04-26T11:08:24.936Z</time></trkpt><trkpt lat="43.9363533" lon="12.5995283"><ele>122.0</ele><time>2026-04-26T11:08:25.937Z</time></trkpt><trkpt lat="43.9363933" lon="12.5997367"><ele>120.5</ele><time>2026-04-26T11:08:26.937Z</time></trkpt><trkpt lat="43.936445" lon="12.599935"><ele>119.0</ele><time>2026-04-26T11:08:27.937Z</time></trkpt><trkpt lat="43.9365033" lon="12.6001233"><ele>117.5</ele><time>2026-04-26T11:08:28.937Z</time></trkpt><trkpt lat="43.9365517" lon="12.6003133"><ele>116.0</ele><time>2026-04-26T11:08:29.937Z</time></trkpt><trkpt lat="43.93659" lon="12.6005217"><ele>113.33333333333333</ele><time>2026-04-26T11:08:30.936Z</time></trkpt><trkpt lat="43.9366183" lon="12.6007417"><ele>110.66666666666666</ele><time>2026-04-26T11:08:31.937Z</time></trkpt><trkpt lat="43.9366467" lon="12.6009683"><ele>108.0</ele><time>2026-04-26T11:08:32.936Z</time></trkpt><trkpt lat="43.936675" lon="12.601205"><ele>105.66666666666666</ele><time>2026-04-26T11:08:33.936Z</time></trkpt><trkpt lat="43.9367017" lon="12.6014417"><ele>103.33333333333333</ele><time>2026-04-26T11:08:34.937Z</time></trkpt><trkpt lat="43.9367317" lon="12.6016717"><ele>101.0</ele><time>2026-04-26T11:08:35.937Z</time></trkpt><trkpt lat="43.9367617" lon="12.6018933"><ele>99.0</ele><time>2026-04-26T11:08:36.936Z</time></trkpt><trkpt lat="43.93679" lon="12.6021083"><ele>97.0</ele><time>2026-04-26T11:08:37.937Z</time></trkpt><trkpt lat="43.9368167" lon="12.60232"><ele>95.0</ele><time>2026-04-26T11:08:38.936Z</time></trkpt><trkpt lat="43.93684" lon="12.602525"><ele>95.0</ele><time>2026-04-26T11:08:39.936Z</time></trkpt><trkpt lat="43.9368633" lon="12.60273"><ele>95.0</ele><time>2026-04-26T11:08:40.936Z</time></trkpt><trkpt lat="43.9368867" lon="12.6029267"><ele>95.0</ele><time>2026-04-26T11:08:41.937Z</time></trkpt><trkpt lat="43.936905" lon="12.6031"><ele>95.0</ele><time>2026-04-26T11:08:42.937Z</time></trkpt><trkpt lat="43.9369183" lon="12.6032417"><ele>93.8</ele><time>2026-04-26T11:08:43.937Z</time></trkpt><trkpt lat="43.93692" lon="12.6033567"><ele>92.6</ele><time>2026-04-26T11:08:44.937Z</time></trkpt><trkpt lat="43.936945" lon="12.6034383"><ele>91.4</ele><time>2026-04-26T11:08:45.937Z</time></trkpt><trkpt lat="43.9370633" lon="12.6034933"><ele>90.2</ele><time>2026-04-26T11:08:47.937Z</time></trkpt><trkpt lat="43.9371433" lon="12.6034883"><ele>89.0</ele><time>2026-04-26T11:08:48.937Z</time></trkpt><trkpt lat="43.9372417" lon="12.6034533"><ele>89.0</ele><time>2026-04-26T11:08:49.937Z</time></trkpt><trkpt lat="43.937345" lon="12.6033917"><ele>89.0</ele><time>2026-04-26T11:08:50.937Z</time></trkpt><trkpt lat="43.937455" lon="12.6033283"><ele>89.0</ele><time>2026-04-26T11:08:51.936Z</time></trkpt><trkpt lat="43.9375733" lon="12.6032867"><ele>89.0</ele><time>2026-04-26T11:08:52.937Z</time></trkpt><trkpt lat="43.9376917" lon="12.60325"><ele>88.0</ele><time>2026-04-26T11:08:53.937Z</time></trkpt><trkpt lat="43.9378" lon="12.603235"><ele>87.0</ele><time>2026-04-26T11:08:54.936Z</time></trkpt><trkpt lat="43.937895" lon="12.603245"><ele>86.0</ele><time>2026-04-26T11:08:55.937Z</time></trkpt><trkpt lat="43.9379767" lon="12.6032883"><ele>85.0</ele><time>2026-04-26T11:08:56.936Z</time></trkpt><trkpt lat="43.9380483" lon="12.603375"><ele>84.0</ele><time>2026-04-26T11:08:57.936Z</time></trkpt><trkpt lat="43.9381167" lon="12.6034933"><ele>84.0</ele><time>2026-04-26T11:08:58.937Z</time></trkpt><trkpt lat="43.9381883" lon="12.6036333"><ele>84.0</ele><time>2026-04-26T11:08:59.937Z</time></trkpt><trkpt lat="43.9382667" lon="12.6037917"><ele>84.0</ele><time>2026-04-26T11:09:00.936Z</time></trkpt><trkpt lat="43.9383617" lon="12.60395"><ele>84.0</ele><time>2026-04-26T11:09:01.936Z</time></trkpt><trkpt lat="43.9384533" lon="12.6041117"><ele>80.33333333333333</ele><time>2026-04-26T11:09:02.937Z</time></trkpt><trkpt lat="43.9385433" lon="12.6042733"><ele>76.66666666666666</ele><time>2026-04-26T11:09:03.936Z</time></trkpt><trkpt lat="43.9386183" lon="12.6044583"><ele>73.0</ele><time>2026-04-26T11:09:04.937Z</time></trkpt><trkpt lat="43.9387" lon="12.60464"><ele>72.5</ele><time>2026-04-26T11:09:05.937Z</time></trkpt><trkpt lat="43.938775" lon="12.6048133"><ele>72.0</ele><time>2026-04-26T11:09:06.936Z</time></trkpt><trkpt lat="43.9388467" lon="12.6049717"><ele>71.5</ele><time>2026-04-26T11:09:07.937Z</time></trkpt><trkpt lat="43.9389033" lon="12.6051133"><ele>71.0</ele><time>2026-04-26T11:09:08.937Z</time></trkpt><trkpt lat="43.9389533" lon="12.6052383"><ele>70.0</ele><time>2026-04-26T11:09:09.937Z</time></trkpt><trkpt lat="43.9390083" lon="12.6053517"><ele>69.0</ele><time>2026-04-26T11:09:10.936Z</time></trkpt><trkpt lat="43.9390467" lon="12.6054783"><ele>68.0</ele><time>2026-04-26T11:09:11.936Z</time></trkpt><trkpt lat="43.93908" lon="12.6056283"><ele>67.0</ele><time>2026-04-26T11:09:12.937Z</time></trkpt><trkpt lat="43.9391083" lon="12.6057967"><ele>66.0</ele><time>2026-04-26T11:09:13.937Z</time></trkpt><trkpt lat="43.9391333" lon="12.6059817"><ele>64.0</ele><time>2026-04-26T11:09:14.937Z</time></trkpt><trkpt lat="43.93916" lon="12.6061833"><ele>62.0</ele><time>2026-04-26T11:09:15.937Z</time></trkpt><trkpt lat="43.9391867" lon="12.6063967"><ele>60.0</ele><time>2026-04-26T11:09:16.937Z</time></trkpt><trkpt lat="43.9392183" lon="12.606605"><ele>59.5</ele><time>2026-04-26T11:09:17.937Z</time></trkpt><trkpt lat="43.9392517" lon="12.6068033"><ele>59.0</ele><time>2026-04-26T11:09:18.937Z</time></trkpt><trkpt lat="43.9392867" lon="12.6069883"><ele>58.5</ele><time>2026-04-26T11:09:19.937Z</time></trkpt><trkpt lat="43.9393133" lon="12.60717"><ele>58.0</ele><time>2026-04-26T11:09:20.937Z</time></trkpt><trkpt lat="43.9393317" lon="12.60735"><ele>57.75</ele><time>2026-04-26T11:09:21.937Z</time></trkpt><trkpt lat="43.9393517" lon="12.6075317"><ele>57.5</ele><time>2026-04-26T11:09:22.937Z</time></trkpt><trkpt lat="43.9393683" lon="12.6077233"><ele>57.25</ele><time>2026-04-26T11:09:23.937Z</time></trkpt><trkpt lat="43.9393967" lon="12.60792"><ele>57.0</ele><time>2026-04-26T11:09:24.936Z</time></trkpt><trkpt lat="43.9394367" lon="12.6080983"><ele>57.25</ele><time>2026-04-26T11:09:25.936Z</time></trkpt><trkpt lat="43.9394917" lon="12.6082517"><ele>57.5</ele><time>2026-04-26T11:09:26.936Z</time></trkpt><trkpt lat="43.9395617" lon="12.6083967"><ele>57.75</ele><time>2026-04-26T11:09:27.937Z</time></trkpt><trkpt lat="43.9396317" lon="12.60855"><ele>58.0</ele><time>2026-04-26T11:09:28.936Z</time></trkpt><trkpt lat="43.9396983" lon="12.6087167"><ele>58.0</ele><time>2026-04-26T11:09:29.937Z</time></trkpt><trkpt lat="43.9397683" lon="12.608895"><ele>58.0</ele><time>2026-04-26T11:09:30.937Z</time></trkpt><trkpt lat="43.9398417" lon="12.60908"><ele>58.0</ele><time>2026-04-26T11:09:31.937Z</time></trkpt><trkpt lat="43.9399117" lon="12.6092567"><ele>58.0</ele><time>2026-04-26T11:09:32.937Z</time></trkpt><trkpt lat="43.9399733" lon="12.6094133"><ele>58.33333333333333</ele><time>2026-04-26T11:09:33.937Z</time></trkpt><trkpt lat="43.9400233" lon="12.6095467"><ele>58.666666666666664</ele><time>2026-04-26T11:09:34.937Z</time></trkpt><trkpt lat="43.9400683" lon="12.60965"><ele>59.0</ele><time>2026-04-26T11:09:35.937Z</time></trkpt><trkpt lat="43.9401117" lon="12.609715"><ele>59.33333333333333</ele><time>2026-04-26T11:09:36.937Z</time></trkpt><trkpt lat="43.9402233" lon="12.6097567"><ele>59.666666666666664</ele><time>2026-04-26T11:09:38.937Z</time></trkpt><trkpt lat="43.9402883" lon="12.6097417"><ele>60.0</ele><time>2026-04-26T11:09:39.937Z</time></trkpt><trkpt lat="43.940355" lon="12.60975"><ele>59.2</ele><time>2026-04-26T11:09:40.936Z</time></trkpt><trkpt lat="43.9404133" lon="12.609805"><ele>58.4</ele><time>2026-04-26T11:09:41.937Z</time></trkpt><trkpt lat="43.94046" lon="12.6098967"><ele>57.599999999999994</ele><time>2026-04-26T11:09:42.937Z</time></trkpt><trkpt lat="43.9404917" lon="12.6100217"><ele>56.8</ele><time>2026-04-26T11:09:43.936Z</time></trkpt><trkpt lat="43.9405033" lon="12.6101667"><ele>56.0</ele><time>2026-04-26T11:09:44.937Z</time></trkpt><trkpt lat="43.940515" lon="12.6103317"><ele>55.0</ele><time>2026-04-26T11:09:45.937Z</time></trkpt><trkpt lat="43.9405267" lon="12.61052"><ele>54.0</ele><time>2026-04-26T11:09:46.937Z</time></trkpt><trkpt lat="43.9405467" lon="12.6107133"><ele>53.0</ele><time>2026-04-26T11:09:47.937Z</time></trkpt><trkpt lat="43.94056" lon="12.6108917"><ele>52.0</ele><time>2026-04-26T11:09:48.937Z</time></trkpt><trkpt lat="43.94056" lon="12.6110567"><ele>52.0</ele><time>2026-04-26T11:09:49.936Z</time></trkpt><trkpt lat="43.94054" lon="12.6112133"><ele>52.0</ele><time>2026-04-26T11:09:50.936Z</time></trkpt><trkpt lat="43.9405083" lon="12.611355"><ele>52.0</ele><time>2026-04-26T11:09:51.937Z</time></trkpt><trkpt lat="43.9404583" lon="12.61147"><ele>52.0</ele><time>2026-04-26T11:09:52.937Z</time></trkpt><trkpt lat="43.9403917" lon="12.61158"><ele>52.0</ele><time>2026-04-26T11:09:53.936Z</time></trkpt><trkpt lat="43.9403117" lon="12.6117083"><ele>52.0</ele><time>2026-04-26T11:09:54.937Z</time></trkpt><trkpt lat="43.9402167" lon="12.611855"><ele>52.0</ele><time>2026-04-26T11:09:55.937Z</time></trkpt><trkpt lat="43.9401117" lon="12.612015"><ele>52.0</ele><time>2026-04-26T11:09:56.937Z</time></trkpt><trkpt lat="43.9400017" lon="12.6121983"><ele>53.0</ele><time>2026-04-26T11:09:57.937Z</time></trkpt><trkpt lat="43.9398983" lon="12.6123883"><ele>54.0</ele><time>2026-04-26T11:09:58.936Z</time></trkpt><trkpt lat="43.9398067" lon="12.6125767"><ele>55.0</ele><time>2026-04-26T11:09:59.937Z</time></trkpt><trkpt lat="43.93973" lon="12.6127683"><ele>55.666666666666664</ele><time>2026-04-26T11:10:00.937Z</time></trkpt><trkpt lat="43.939665" lon="12.6129667"><ele>56.33333333333333</ele><time>2026-04-26T11:10:01.936Z</time></trkpt><trkpt lat="43.9396083" lon="12.61318"><ele>57.0</ele><time>2026-04-26T11:10:02.937Z</time></trkpt><trkpt lat="43.9395533" lon="12.6134117"><ele>58.0</ele><time>2026-04-26T11:10:03.936Z</time></trkpt><trkpt lat="43.9394933" lon="12.6136583"><ele>59.0</ele><time>2026-04-26T11:10:04.937Z</time></trkpt><trkpt lat="43.939435" lon="12.6139"><ele>60.0</ele><time>2026-04-26T11:10:05.936Z</time></trkpt><trkpt lat="43.9393717" lon="12.6141383"><ele>60.0</ele><time>2026-04-26T11:10:06.936Z</time></trkpt><trkpt lat="43.9393017" lon="12.61436"><ele>60.0</ele><time>2026-04-26T11:10:07.936Z</time></trkpt><trkpt lat="43.93922" lon="12.61456"><ele>60.0</ele><time>2026-04-26T11:10:08.937Z</time></trkpt><trkpt lat="43.939125" lon="12.6147383"><ele>61.5</ele><time>2026-04-26T11:10:09.936Z</time></trkpt><trkpt lat="43.9390317" lon="12.6149017"><ele>63.0</ele><time>2026-04-26T11:10:10.936Z</time></trkpt><trkpt lat="43.9389533" lon="12.61507"><ele>64.5</ele><time>2026-04-26T11:10:11.937Z</time></trkpt><trkpt lat="43.9388917" lon="12.61525"><ele>66.0</ele><time>2026-04-26T11:10:12.937Z</time></trkpt><trkpt lat="43.9388417" lon="12.6154433"><ele>67.75</ele><time>2026-04-26T11:10:13.937Z</time></trkpt><trkpt lat="43.93879" lon="12.6156417"><ele>69.5</ele><time>2026-04-26T11:10:14.937Z</time></trkpt><trkpt lat="43.9387383" lon="12.61584"><ele>71.25</ele><time>2026-04-26T11:10:15.936Z</time></trkpt><trkpt lat="43.9386733" lon="12.616015"><ele>73.0</ele><time>2026-04-26T11:10:16.937Z</time></trkpt><trkpt lat="43.9386067" lon="12.616145"><ele>74.2</ele><time>2026-04-26T11:10:17.937Z</time></trkpt><trkpt lat="43.93855" lon="12.6162383"><ele>75.4</ele><time>2026-04-26T11:10:18.937Z</time></trkpt><trkpt lat="43.9385067" lon="12.6163217"><ele>76.60000000000001</ele><time>2026-04-26T11:10:19.937Z</time></trkpt><trkpt lat="43.9384667" lon="12.6164217"><ele>77.8</ele><time>2026-04-26T11:10:20.936Z</time></trkpt><trkpt lat="43.938417" lon="12.6165511"><ele>79.0</ele><time>2026-04-26T11:10:21.936Z</time></trkpt><trkpt lat="43.9383549" lon="12.6167122"><ele>81.75</ele><time>2026-04-26T11:10:22.937Z</time></trkpt><trkpt lat="43.9382819" lon="12.6168915"><ele>84.5</ele><time>2026-04-26T11:10:23.936Z</time></trkpt><trkpt lat="43.9382117" lon="12.617063"><ele>87.25</ele><time>2026-04-26T11:10:24.937Z</time></trkpt><trkpt lat="43.9381519" lon="12.617212"><ele>90.0</ele><time>2026-04-26T11:10:25.937Z</time></trkpt><trkpt lat="43.9381037" lon="12.6173554"><ele>91.0</ele><time>2026-04-26T11:10:26.937Z</time></trkpt><trkpt lat="43.9380731" lon="12.617502"><ele>92.0</ele><time>2026-04-26T11:10:27.937Z</time></trkpt><trkpt lat="43.9380631" lon="12.61764"><ele>93.0</ele><time>2026-04-26T11:10:28.937Z</time></trkpt><trkpt lat="43.938073" lon="12.6177801"><ele>94.0</ele><time>2026-04-26T11:10:29.937Z</time></trkpt><trkpt lat="43.9380973" lon="12.6179286"><ele>95.0</ele><time>2026-04-26T11:10:30.936Z</time></trkpt><trkpt lat="43.9381141" lon="12.6180834"><ele>96.5</ele><time>2026-04-26T11:10:31.936Z</time></trkpt><trkpt lat="43.9381149" lon="12.6182495"><ele>98.0</ele><time>2026-04-26T11:10:32.936Z</time></trkpt><trkpt lat="43.9380958" lon="12.6184251"><ele>99.5</ele><time>2026-04-26T11:10:33.937Z</time></trkpt><trkpt lat="43.9380671" lon="12.6186073"><ele>101.0</ele><time>2026-04-26T11:10:34.937Z</time></trkpt><trkpt lat="43.9380375" lon="12.6187902"><ele>101.5</ele><time>2026-04-26T11:10:35.936Z</time></trkpt><trkpt lat="43.9380094" lon="12.6189733"><ele>102.0</ele><time>2026-04-26T11:10:36.937Z</time></trkpt><trkpt lat="43.9379756" lon="12.6191536"><ele>102.5</ele><time>2026-04-26T11:10:37.937Z</time></trkpt><trkpt lat="43.9379361" lon="12.619321"><ele>103.0</ele><time>2026-04-26T11:10:38.937Z</time></trkpt><trkpt lat="43.9378998" lon="12.6194807"><ele>105.0</ele><time>2026-04-26T11:10:39.936Z</time></trkpt><trkpt lat="43.9378723" lon="12.6196529"><ele>107.0</ele><time>2026-04-26T11:10:40.937Z</time></trkpt><trkpt lat="43.93785" lon="12.6198462"><ele>109.0</ele><time>2026-04-26T11:10:41.937Z</time></trkpt><trkpt lat="43.9378312" lon="12.6200398"><ele>111.0</ele><time>2026-04-26T11:10:42.937Z</time></trkpt><trkpt lat="43.9378185" lon="12.6202283"><ele>113.5</ele><time>2026-04-26T11:10:43.937Z</time></trkpt><trkpt lat="43.9378161" lon="12.620423"><ele>116.0</ele><time>2026-04-26T11:10:44.936Z</time></trkpt><trkpt lat="43.9378235" lon="12.6206252"><ele>118.5</ele><time>2026-04-26T11:10:45.937Z</time></trkpt><trkpt lat="43.937832" lon="12.6208276"><ele>121.0</ele><time>2026-04-26T11:10:46.937Z</time></trkpt><trkpt lat="43.9378422" lon="12.6210164"><ele>123.6</ele><time>2026-04-26T11:10:47.937Z</time></trkpt><trkpt lat="43.9378396" lon="12.6211837"><ele>126.19999999999999</ele><time>2026-04-26T11:10:48.937Z</time></trkpt><trkpt lat="43.9378132" lon="12.6213299"><ele>128.8</ele><time>2026-04-26T11:10:49.937Z</time></trkpt><trkpt lat="43.937772" lon="12.6214494"><ele>131.4</ele><time>2026-04-26T11:10:50.936Z</time></trkpt><trkpt lat="43.9377248" lon="12.6215488"><ele>134.0</ele><time>2026-04-26T11:10:51.937Z</time></trkpt><trkpt lat="43.9376755" lon="12.6216216"><ele>134.0</ele><time>2026-04-26T11:10:52.937Z</time></trkpt><trkpt lat="43.9376198" lon="12.6216641"><ele>134.0</ele><time>2026-04-26T11:10:53.936Z</time></trkpt><trkpt lat="43.9375584" lon="12.6216863"><ele>134.0</ele><time>2026-04-26T11:10:54.937Z</time></trkpt><trkpt lat="43.9374978" lon="12.6217223"><ele>134.0</ele><time>2026-04-26T11:10:55.936Z</time></trkpt><trkpt lat="43.9374377" lon="12.6217778"><ele>134.0</ele><time>2026-04-26T11:10:56.936Z</time></trkpt><trkpt lat="43.9373791" lon="12.6218534"><ele>134.0</ele><time>2026-04-26T11:10:57.936Z</time></trkpt><trkpt lat="43.9373248" lon="12.6219434"><ele>134.0</ele><time>2026-04-26T11:10:58.937Z</time></trkpt><trkpt lat="43.9372816" lon="12.6220518"><ele>136.8</ele><time>2026-04-26T11:10:59.936Z</time></trkpt><trkpt lat="43.9372583" lon="12.6221782"><ele>139.60000000000002</ele><time>2026-04-26T11:11:00.937Z</time></trkpt><trkpt lat="43.9372495" lon="12.6223131"><ele>142.4</ele><time>2026-04-26T11:11:01.936Z</time></trkpt><trkpt lat="43.9372551" lon="12.6224507"><ele>145.20000000000002</ele><time>2026-04-26T11:11:02.937Z</time></trkpt><trkpt lat="43.9372823" lon="12.6225815"><ele>148.0</ele><time>2026-04-26T11:11:03.937Z</time></trkpt><trkpt lat="43.9373179" lon="12.6226983"><ele>148.0</ele><time>2026-04-26T11:11:04.937Z</time></trkpt><trkpt lat="43.9373458" lon="12.6227924"><ele>148.0</ele><time>2026-04-26T11:11:05.936Z</time></trkpt><trkpt lat="43.9373691" lon="12.6229108"><ele>148.0</ele><time>2026-04-26T11:11:07.937Z</time></trkpt><trkpt lat="43.9373989" lon="12.6230186"><ele>148.0</ele><time>2026-04-26T11:11:11.937Z</time></trkpt><trkpt lat="43.9374179" lon="12.6231061"><ele>148.0</ele><time>2026-04-26T11:11:14.937Z</time></trkpt><trkpt lat="43.9374435" lon="12.6232051"><ele>148.0</ele><time>2026-04-26T11:11:16.936Z</time></trkpt><trkpt lat="43.9374695" lon="12.6233369"><ele>148.66666666666669</ele><time>2026-04-26T11:11:18.936Z</time></trkpt><trkpt lat="43.9375015" lon="12.6234537"><ele>149.33333333333334</ele><time>2026-04-26T11:11:20.937Z</time></trkpt><trkpt lat="43.9375273" lon="12.6235604"><ele>150.0</ele><time>2026-04-26T11:11:22.937Z</time></trkpt><trkpt lat="43.937559" lon="12.6236426"><ele>150.66666666666666</ele><time>2026-04-26T11:11:25.937Z</time></trkpt><trkpt lat="43.9375533" lon="12.6235167"><ele>151.33333333333331</ele><time>2026-04-26T11:11:38.936Z</time></trkpt><trkpt lat="43.93752" lon="12.6233917"><ele>152.0</ele><time>2026-04-26T11:11:40.937Z</time></trkpt><trkpt lat="43.937495" lon="12.623285"><ele>152.0</ele><time>2026-04-26T11:11:43.937Z</time></trkpt><trkpt lat="43.9374683" lon="12.6232"><ele>152.0</ele><time>2026-04-26T11:11:47.936Z</time></trkpt><trkpt lat="43.9374767" lon="12.62332"><ele>152.0</ele><time>2026-04-26T11:11:52.937Z</time></trkpt><trkpt lat="43.9375233" lon="12.6233817"><ele>152.0</ele><time>2026-04-26T11:12:20.937Z</time></trkpt><trkpt lat="43.9375467" lon="12.6235217"><ele>152.0</ele><time>2026-04-26T11:12:22.936Z</time></trkpt><trkpt lat="43.9375633" lon="12.62362"><ele>152.0</ele><time>2026-04-26T11:12:23.937Z</time></trkpt><trkpt lat="43.9375767" lon="12.6237333"><ele>152.79999999999998</ele><time>2026-04-26T11:12:24.936Z</time></trkpt><trkpt lat="43.9375817" lon="12.623865"><ele>153.6</ele><time>2026-04-26T11:12:25.937Z</time></trkpt><trkpt lat="43.9375667" lon="12.6240133"><ele>154.39999999999998</ele><time>2026-04-26T11:12:26.937Z</time></trkpt><trkpt lat="43.9375233" lon="12.6241617"><ele>155.2</ele><time>2026-04-26T11:12:27.936Z</time></trkpt><trkpt lat="43.9374467" lon="12.624295"><ele>156.0</ele><time>2026-04-26T11:12:28.937Z</time></trkpt><trkpt lat="43.9373467" lon="12.6244167"><ele>157.25</ele><time>2026-04-26T11:12:29.937Z</time></trkpt><trkpt lat="43.93723" lon="12.6245233"><ele>158.5</ele><time>2026-04-26T11:12:30.937Z</time></trkpt><trkpt lat="43.937105" lon="12.6246183"><ele>159.75</ele><time>2026-04-26T11:12:31.937Z</time></trkpt><trkpt lat="43.9369833" lon="12.62471"><ele>161.0</ele><time>2026-04-26T11:12:32.937Z</time></trkpt><trkpt lat="43.936865" lon="12.6247983"><ele>161.0</ele><time>2026-04-26T11:12:33.937Z</time></trkpt><trkpt lat="43.9367533" lon="12.6248733"><ele>161.0</ele><time>2026-04-26T11:12:34.937Z</time></trkpt><trkpt lat="43.93665" lon="12.6249217"><ele>161.0</ele><time>2026-04-26T11:12:35.937Z</time></trkpt><trkpt lat="43.9365483" lon="12.624935"><ele>161.0</ele><time>2026-04-26T11:12:36.937Z</time></trkpt><trkpt lat="43.9364483" lon="12.624925"><ele>161.0</ele><time>2026-04-26T11:12:37.936Z</time></trkpt><trkpt lat="43.9363533" lon="12.6249033"><ele>160.33333333333331</ele><time>2026-04-26T11:12:38.937Z</time></trkpt><trkpt lat="43.9362667" lon="12.62488"><ele>159.66666666666666</ele><time>2026-04-26T11:12:39.937Z</time></trkpt><trkpt lat="43.9361833" lon="12.624855"><ele>159.0</ele><time>2026-04-26T11:12:40.936Z</time></trkpt><trkpt lat="43.9360983" lon="12.624835"><ele>158.33333333333334</ele><time>2026-04-26T11:12:41.937Z</time></trkpt><trkpt lat="43.9360233" lon="12.6248183"><ele>157.66666666666669</ele><time>2026-04-26T11:12:42.936Z</time></trkpt><trkpt lat="43.935935" lon="12.6248033"><ele>157.0</ele><time>2026-04-26T11:12:44.936Z</time></trkpt><trkpt lat="43.9358717" lon="12.6247917"><ele>156.83333333333334</ele><time>2026-04-26T11:12:47.937Z</time></trkpt><trkpt lat="43.9357867" lon="12.62477"><ele>156.66666666666669</ele><time>2026-04-26T11:12:49.937Z</time></trkpt><trkpt lat="43.93572" lon="12.6247567"><ele>156.5</ele><time>2026-04-26T11:12:50.937Z</time></trkpt><trkpt lat="43.93564" lon="12.6247433"><ele>156.33333333333334</ele><time>2026-04-26T11:12:51.937Z</time></trkpt><trkpt lat="43.935545" lon="12.6247267"><ele>156.16666666666666</ele><time>2026-04-26T11:12:52.937Z</time></trkpt><trkpt lat="43.935435" lon="12.6247083"><ele>156.0</ele><time>2026-04-26T11:12:53.936Z</time></trkpt><trkpt lat="43.935315" lon="12.6246917"><ele>156.0</ele><time>2026-04-26T11:12:54.937Z</time></trkpt><trkpt lat="43.93519" lon="12.62469"><ele>156.0</ele><time>2026-04-26T11:12:55.937Z</time></trkpt><trkpt lat="43.93506" lon="12.624705"><ele>156.0</ele><time>2026-04-26T11:12:56.936Z</time></trkpt><trkpt lat="43.9349283" lon="12.6247333"><ele>156.0</ele><time>2026-04-26T11:12:57.937Z</time></trkpt><trkpt lat="43.9347967" lon="12.62477"><ele>156.5</ele><time>2026-04-26T11:12:58.936Z</time></trkpt><trkpt lat="43.9346667" lon="12.6248017"><ele>157.0</ele><time>2026-04-26T11:12:59.937Z</time></trkpt><trkpt lat="43.9345383" lon="12.6248283"><ele>157.5</ele><time>2026-04-26T11:13:00.937Z</time></trkpt><trkpt lat="43.9344117" lon="12.6248617"><ele>158.0</ele><time>2026-04-26T11:13:01.936Z</time></trkpt><trkpt lat="43.93429" lon="12.6248917"><ele>159.75</ele><time>2026-04-26T11:13:02.937Z</time></trkpt><trkpt lat="43.9341733" lon="12.624915"><ele>161.5</ele><time>2026-04-26T11:13:03.936Z</time></trkpt><trkpt lat="43.9340567" lon="12.6249467"><ele>163.25</ele><time>2026-04-26T11:13:04.936Z</time></trkpt><trkpt lat="43.9339317" lon="12.6249733"><ele>165.0</ele><time>2026-04-26T11:13:05.936Z</time></trkpt><trkpt lat="43.933805" lon="12.624995"><ele>165.0</ele><time>2026-04-26T11:13:06.937Z</time></trkpt><trkpt lat="43.93368" lon="12.6250133"><ele>165.0</ele><time>2026-04-26T11:13:07.937Z</time></trkpt><trkpt lat="43.9335583" lon="12.6250283"><ele>165.0</ele><time>2026-04-26T11:13:08.936Z</time></trkpt><trkpt lat="43.933445" lon="12.6250383"><ele>165.0</ele><time>2026-04-26T11:13:09.937Z</time></trkpt><trkpt lat="43.93334" lon="12.62509"><ele>166.0</ele><time>2026-04-26T11:13:10.937Z</time></trkpt><trkpt lat="43.9332517" lon="12.6251817"><ele>167.0</ele><time>2026-04-26T11:13:11.936Z</time></trkpt><trkpt lat="43.9331617" lon="12.6252883"><ele>168.0</ele><time>2026-04-26T11:13:12.937Z</time></trkpt><trkpt lat="43.933075" lon="12.6253933"><ele>169.0</ele><time>2026-04-26T11:13:13.937Z</time></trkpt><trkpt lat="43.9329833" lon="12.6254967"><ele>169.0</ele><time>2026-04-26T11:13:14.936Z</time></trkpt><trkpt lat="43.93289" lon="12.6255883"><ele>169.0</ele><time>2026-04-26T11:13:15.937Z</time></trkpt><trkpt lat="43.932795" lon="12.6256767"><ele>169.0</ele><time>2026-04-26T11:13:16.937Z</time></trkpt><trkpt lat="43.9327083" lon="12.6257617"><ele>169.0</ele><time>2026-04-26T11:13:17.937Z</time></trkpt><trkpt lat="43.9326283" lon="12.625845"><ele>169.0</ele><time>2026-04-26T11:13:18.937Z</time></trkpt><trkpt lat="43.9325583" lon="12.62592"><ele>169.5</ele><time>2026-04-26T11:13:19.936Z</time></trkpt><trkpt lat="43.9324983" lon="12.62598"><ele>170.0</ele><time>2026-04-26T11:13:20.937Z</time></trkpt><trkpt lat="43.9324233" lon="12.626055"><ele>170.5</ele><time>2026-04-26T11:13:22.937Z</time></trkpt><trkpt lat="43.9323517" lon="12.6261283"><ele>171.0</ele><time>2026-04-26T11:13:40.936Z</time></trkpt><trkpt lat="43.9322467" lon="12.6262017"><ele>171.5</ele><time>2026-04-26T11:13:42.937Z</time></trkpt><trkpt lat="43.9321833" lon="12.62624"><ele>172.0</ele><time>2026-04-26T11:13:43.937Z</time></trkpt><trkpt lat="43.93211" lon="12.6262733"><ele>172.0</ele><time>2026-04-26T11:13:44.936Z</time></trkpt><trkpt lat="43.9320367" lon="12.62634"><ele>172.0</ele><time>2026-04-26T11:13:45.936Z</time></trkpt><trkpt lat="43.931975" lon="12.62644"><ele>172.0</ele><time>2026-04-26T11:13:46.937Z</time></trkpt><trkpt lat="43.9319283" lon="12.6265767"><ele>172.0</ele><time>2026-04-26T11:13:47.937Z</time></trkpt><trkpt lat="43.9318917" lon="12.6267267"><ele>172.0</ele><time>2026-04-26T11:13:48.936Z</time></trkpt><trkpt lat="43.9318583" lon="12.6268883"><ele>172.0</ele><time>2026-04-26T11:13:49.937Z</time></trkpt><trkpt lat="43.93182" lon="12.62706"><ele>172.0</ele><time>2026-04-26T11:13:50.937Z</time></trkpt><trkpt lat="43.9317817" lon="12.6272317"><ele>172.0</ele><time>2026-04-26T11:13:51.937Z</time></trkpt><trkpt lat="43.931745" lon="12.6274033"><ele>172.0</ele><time>2026-04-26T11:13:52.937Z</time></trkpt><trkpt lat="43.93171" lon="12.6275767"><ele>172.0</ele><time>2026-04-26T11:13:53.937Z</time></trkpt><trkpt lat="43.93168" lon="12.62775"><ele>172.0</ele><time>2026-04-26T11:13:54.937Z</time></trkpt><trkpt lat="43.931655" lon="12.6279233"><ele>172.0</ele><time>2026-04-26T11:13:55.937Z</time></trkpt><trkpt lat="43.9316333" lon="12.6281017"><ele>172.0</ele><time>2026-04-26T11:13:56.937Z</time></trkpt><trkpt lat="43.9316117" lon="12.6282767"><ele>171.75</ele><time>2026-04-26T11:13:57.936Z</time></trkpt><trkpt lat="43.931595" lon="12.6284483"><ele>171.5</ele><time>2026-04-26T11:13:58.937Z</time></trkpt><trkpt lat="43.931575" lon="12.628615"><ele>171.25</ele><time>2026-04-26T11:13:59.936Z</time></trkpt><trkpt lat="43.9315517" lon="12.6287783"><ele>171.0</ele><time>2026-04-26T11:14:00.937Z</time></trkpt><trkpt lat="43.931535" lon="12.628945"><ele>170.75</ele><time>2026-04-26T11:14:01.936Z</time></trkpt><trkpt lat="43.9315233" lon="12.6291117"><ele>170.5</ele><time>2026-04-26T11:14:02.937Z</time></trkpt><trkpt lat="43.9315067" lon="12.6292733"><ele>170.25</ele><time>2026-04-26T11:14:03.937Z</time></trkpt><trkpt lat="43.9314917" lon="12.6294383"><ele>170.0</ele><time>2026-04-26T11:14:04.937Z</time></trkpt><trkpt lat="43.931485" lon="12.629605"><ele>169.5</ele><time>2026-04-26T11:14:05.937Z</time></trkpt><trkpt lat="43.931475" lon="12.6297717"><ele>169.0</ele><time>2026-04-26T11:14:06.937Z</time></trkpt><trkpt lat="43.9314633" lon="12.6299417"><ele>168.5</ele><time>2026-04-26T11:14:07.936Z</time></trkpt><trkpt lat="43.9314517" lon="12.6301183"><ele>168.0</ele><time>2026-04-26T11:14:08.937Z</time></trkpt><trkpt lat="43.9314367" lon="12.6302983"><ele>167.0</ele><time>2026-04-26T11:14:09.936Z</time></trkpt><trkpt lat="43.93142" lon="12.6304817"><ele>166.0</ele><time>2026-04-26T11:14:10.937Z</time></trkpt><trkpt lat="43.9314117" lon="12.6306683"><ele>165.0</ele><time>2026-04-26T11:14:11.937Z</time></trkpt><trkpt lat="43.9313983" lon="12.6308517"><ele>164.0</ele><time>2026-04-26T11:14:12.936Z</time></trkpt><trkpt lat="43.9313883" lon="12.6310233"><ele>163.2</ele><time>2026-04-26T11:14:13.937Z</time></trkpt><trkpt lat="43.9313783" lon="12.631165"><ele>162.39999999999998</ele><time>2026-04-26T11:14:14.936Z</time></trkpt><trkpt lat="43.93137" lon="12.6312833"><ele>161.6</ele><time>2026-04-26T11:14:15.936Z</time></trkpt><trkpt lat="43.93136" lon="12.6313833"><ele>160.8</ele><time>2026-04-26T11:14:16.937Z</time></trkpt><trkpt lat="43.9314033" lon="12.6315217"><ele>160.0</ele><time>2026-04-26T11:14:18.937Z</time></trkpt><trkpt lat="43.9315283" lon="12.6315317"><ele>160.0</ele><time>2026-04-26T11:14:20.937Z</time></trkpt><trkpt lat="43.9315933" lon="12.6315333"><ele>160.0</ele><time>2026-04-26T11:14:21.936Z</time></trkpt><trkpt lat="43.931695" lon="12.6316333"><ele>160.0</ele><time>2026-04-26T11:14:23.937Z</time></trkpt><trkpt lat="43.9317417" lon="12.6317067"><ele>160.0</ele><time>2026-04-26T11:14:24.937Z</time></trkpt><trkpt lat="43.93176" lon="12.6318183"><ele>160.0</ele><time>2026-04-26T11:14:25.937Z</time></trkpt><trkpt lat="43.9317633" lon="12.6319483"><ele>160.0</ele><time>2026-04-26T11:14:26.937Z</time></trkpt><trkpt lat="43.9317417" lon="12.6320933"><ele>159.25</ele><time>2026-04-26T11:14:27.936Z</time></trkpt><trkpt lat="43.9317033" lon="12.6322433"><ele>158.5</ele><time>2026-04-26T11:14:28.937Z</time></trkpt><trkpt lat="43.9316617" lon="12.6323933"><ele>157.75</ele><time>2026-04-26T11:14:29.937Z</time></trkpt><trkpt lat="43.9316217" lon="12.6325433"><ele>157.0</ele><time>2026-04-26T11:14:30.936Z</time></trkpt><trkpt lat="43.9315733" lon="12.63269"><ele>156.2</ele><time>2026-04-26T11:14:31.937Z</time></trkpt><trkpt lat="43.9315183" lon="12.6328283"><ele>155.39999999999998</ele><time>2026-04-26T11:14:32.937Z</time></trkpt><trkpt lat="43.9314633" lon="12.6329617"><ele>154.60000000000002</ele><time>2026-04-26T11:14:33.937Z</time></trkpt><trkpt lat="43.931415" lon="12.6330933"><ele>153.8</ele><time>2026-04-26T11:14:34.936Z</time></trkpt><trkpt lat="43.9313983" lon="12.6332383"><ele>153.0</ele><time>2026-04-26T11:14:35.936Z</time></trkpt><trkpt lat="43.93142" lon="12.6334033"><ele>153.0</ele><time>2026-04-26T11:14:36.937Z</time></trkpt><trkpt lat="43.93145" lon="12.6335667"><ele>153.0</ele><time>2026-04-26T11:14:37.936Z</time></trkpt><trkpt lat="43.93148" lon="12.6337267"><ele>153.0</ele><time>2026-04-26T11:14:38.937Z</time></trkpt><trkpt lat="43.931495" lon="12.6338867"><ele>153.0</ele><time>2026-04-26T11:14:39.937Z</time></trkpt><trkpt lat="43.9315067" lon="12.6340483"><ele>151.75</ele><time>2026-04-26T11:14:40.936Z</time></trkpt><trkpt lat="43.93151" lon="12.6342117"><ele>150.5</ele><time>2026-04-26T11:14:41.937Z</time></trkpt><trkpt lat="43.9315183" lon="12.63437"><ele>149.25</ele><time>2026-04-26T11:14:42.936Z</time></trkpt><trkpt lat="43.93151" lon="12.63453"><ele>148.0</ele><time>2026-04-26T11:14:43.937Z</time></trkpt><trkpt lat="43.9314933" lon="12.634705"><ele>147.0</ele><time>2026-04-26T11:14:44.937Z</time></trkpt><trkpt lat="43.9314533" lon="12.6348883"><ele>146.0</ele><time>2026-04-26T11:14:45.936Z</time></trkpt><trkpt lat="43.931415" lon="12.6350817"><ele>145.0</ele><time>2026-04-26T11:14:46.936Z</time></trkpt><trkpt lat="43.9313683" lon="12.6352817"><ele>144.0</ele><time>2026-04-26T11:14:47.937Z</time></trkpt><trkpt lat="43.9313317" lon="12.63549"><ele>142.66666666666666</ele><time>2026-04-26T11:14:48.936Z</time></trkpt><trkpt lat="43.9312967" lon="12.6357"><ele>141.33333333333331</ele><time>2026-04-26T11:14:49.936Z</time></trkpt><trkpt lat="43.931275" lon="12.635905"><ele>140.0</ele><time>2026-04-26T11:14:50.936Z</time></trkpt><trkpt lat="43.9312717" lon="12.6361083"><ele>138.75</ele><time>2026-04-26T11:14:51.937Z</time></trkpt><trkpt lat="43.93128" lon="12.6363067"><ele>137.5</ele><time>2026-04-26T11:14:52.937Z</time></trkpt><trkpt lat="43.9312867" lon="12.63651"><ele>136.25</ele><time>2026-04-26T11:14:53.937Z</time></trkpt><trkpt lat="43.9312733" lon="12.6367083"><ele>135.0</ele><time>2026-04-26T11:14:54.936Z</time></trkpt><trkpt lat="43.9312467" lon="12.6368917"><ele>135.0</ele><time>2026-04-26T11:14:55.937Z</time></trkpt><trkpt lat="43.9312133" lon="12.6370633"><ele>135.0</ele><time>2026-04-26T11:14:56.937Z</time></trkpt><trkpt lat="43.93119" lon="12.6372467"><ele>135.0</ele><time>2026-04-26T11:14:57.937Z</time></trkpt><trkpt lat="43.9311783" lon="12.637435"><ele>135.0</ele><time>2026-04-26T11:14:58.937Z</time></trkpt><trkpt lat="43.9311783" lon="12.6376217"><ele>135.25</ele><time>2026-04-26T11:14:59.937Z</time></trkpt><trkpt lat="43.9311817" lon="12.6378083"><ele>135.5</ele><time>2026-04-26T11:15:00.937Z</time></trkpt><trkpt lat="43.9311933" lon="12.63799"><ele>135.75</ele><time>2026-04-26T11:15:01.936Z</time></trkpt><trkpt lat="43.931215" lon="12.6381683"><ele>136.0</ele><time>2026-04-26T11:15:02.937Z</time></trkpt><trkpt lat="43.9312383" lon="12.6383367"><ele>136.0</ele><time>2026-04-26T11:15:03.936Z</time></trkpt><trkpt lat="43.9312583" lon="12.63849"><ele>136.0</ele><time>2026-04-26T11:15:04.937Z</time></trkpt><trkpt lat="43.9312767" lon="12.638625"><ele>136.0</ele><time>2026-04-26T11:15:05.937Z</time></trkpt><trkpt lat="43.9313" lon="12.638745"><ele>136.0</ele><time>2026-04-26T11:15:06.937Z</time></trkpt><trkpt lat="43.9313267" lon="12.6388583"><ele>136.0</ele><time>2026-04-26T11:15:07.936Z</time></trkpt><trkpt lat="43.931375" lon="12.638955"><ele>134.8</ele><time>2026-04-26T11:15:08.937Z</time></trkpt><trkpt lat="43.9314433" lon="12.639035"><ele>133.6</ele><time>2026-04-26T11:15:09.936Z</time></trkpt><trkpt lat="43.9315317" lon="12.639095"><ele>132.4</ele><time>2026-04-26T11:15:10.937Z</time></trkpt><trkpt lat="43.931635" lon="12.63913"><ele>131.2</ele><time>2026-04-26T11:15:11.937Z</time></trkpt><trkpt lat="43.931745" lon="12.6391533"><ele>130.0</ele><time>2026-04-26T11:15:12.937Z</time></trkpt><trkpt lat="43.931865" lon="12.639165"><ele>127.66666666666667</ele><time>2026-04-26T11:15:13.937Z</time></trkpt><trkpt lat="43.932005" lon="12.6391767"><ele>125.33333333333334</ele><time>2026-04-26T11:15:14.937Z</time></trkpt><trkpt lat="43.9321583" lon="12.639185"><ele>123.0</ele><time>2026-04-26T11:15:15.937Z</time></trkpt><trkpt lat="43.9323183" lon="12.63919"><ele>123.0</ele><time>2026-04-26T11:15:16.936Z</time></trkpt><trkpt lat="43.9324833" lon="12.6391917"><ele>123.0</ele><time>2026-04-26T11:15:17.937Z</time></trkpt><trkpt lat="43.9326467" lon="12.6391917"><ele>123.0</ele><time>2026-04-26T11:15:18.937Z</time></trkpt><trkpt lat="43.932805" lon="12.6391883"><ele>120.75</ele><time>2026-04-26T11:15:19.936Z</time></trkpt><trkpt lat="43.9329583" lon="12.6391833"><ele>118.5</ele><time>2026-04-26T11:15:20.937Z</time></trkpt><trkpt lat="43.9331067" lon="12.6391783"><ele>116.25</ele><time>2026-04-26T11:15:21.937Z</time></trkpt><trkpt lat="43.9332467" lon="12.6391733"><ele>114.0</ele><time>2026-04-26T11:15:22.937Z</time></trkpt><trkpt lat="43.9333717" lon="12.6391717"><ele>112.6</ele><time>2026-04-26T11:15:23.937Z</time></trkpt><trkpt lat="43.93348" lon="12.6391833"><ele>111.2</ele><time>2026-04-26T11:15:24.937Z</time></trkpt><trkpt lat="43.9335767" lon="12.6392217"><ele>109.79999999999998</ele><time>2026-04-26T11:15:25.936Z</time></trkpt><trkpt lat="43.933655" lon="12.6392917"><ele>108.39999999999999</ele><time>2026-04-26T11:15:26.937Z</time></trkpt><trkpt lat="43.93371" lon="12.6394"><ele>107.0</ele><time>2026-04-26T11:15:27.936Z</time></trkpt><trkpt lat="43.933755" lon="12.6395317"><ele>107.0</ele><time>2026-04-26T11:15:28.937Z</time></trkpt><trkpt lat="43.9338067" lon="12.63968"><ele>107.0</ele><time>2026-04-26T11:15:29.937Z</time></trkpt><trkpt lat="43.9338667" lon="12.6398367"><ele>107.0</ele><time>2026-04-26T11:15:30.937Z</time></trkpt><trkpt lat="43.9339383" lon="12.6399917"><ele>107.0</ele><time>2026-04-26T11:15:31.937Z</time></trkpt><trkpt lat="43.9340217" lon="12.6401433"><ele>107.0</ele><time>2026-04-26T11:15:32.937Z</time></trkpt><trkpt lat="43.934105" lon="12.6402883"><ele>107.0</ele><time>2026-04-26T11:15:33.936Z</time></trkpt><trkpt lat="43.9341867" lon="12.6404367"><ele>107.0</ele><time>2026-04-26T11:15:34.936Z</time></trkpt><trkpt lat="43.9342683" lon="12.64059"><ele>107.0</ele><time>2026-04-26T11:15:35.937Z</time></trkpt><trkpt lat="43.9343483" lon="12.64075"><ele>103.75</ele><time>2026-04-26T11:15:36.937Z</time></trkpt><trkpt lat="43.934425" lon="12.6409117"><ele>100.5</ele><time>2026-04-26T11:15:37.937Z</time></trkpt><trkpt lat="43.934495" lon="12.6410767"><ele>97.25</ele><time>2026-04-26T11:15:38.937Z</time></trkpt><trkpt lat="43.9345633" lon="12.6412367"><ele>94.0</ele><time>2026-04-26T11:15:39.937Z</time></trkpt><trkpt lat="43.93463" lon="12.6413933"><ele>93.75</ele><time>2026-04-26T11:15:40.936Z</time></trkpt><trkpt lat="43.9346967" lon="12.6415433"><ele>93.5</ele><time>2026-04-26T11:15:41.937Z</time></trkpt><trkpt lat="43.93476" lon="12.64169"><ele>93.25</ele><time>2026-04-26T11:15:42.937Z</time></trkpt><trkpt lat="43.9348233" lon="12.6418317"><ele>93.0</ele><time>2026-04-26T11:15:43.937Z</time></trkpt><trkpt lat="43.9348917" lon="12.6419683"><ele>92.4</ele><time>2026-04-26T11:15:44.937Z</time></trkpt><trkpt lat="43.93496" lon="12.642095"><ele>91.80000000000001</ele><time>2026-04-26T11:15:45.936Z</time></trkpt><trkpt lat="43.935035" lon="12.6422033"><ele>91.2</ele><time>2026-04-26T11:15:46.937Z</time></trkpt><trkpt lat="43.93511" lon="12.6423"><ele>90.6</ele><time>2026-04-26T11:15:47.937Z</time></trkpt><trkpt lat="43.9351833" lon="12.6423867"><ele>90.0</ele><time>2026-04-26T11:15:48.936Z</time></trkpt><trkpt lat="43.9352483" lon="12.642475"><ele>90.0</ele><time>2026-04-26T11:15:49.937Z</time></trkpt><trkpt lat="43.935305" lon="12.6425633"><ele>90.0</ele><time>2026-04-26T11:15:50.937Z</time></trkpt><trkpt lat="43.935345" lon="12.6426467"><ele>90.0</ele><time>2026-04-26T11:15:51.936Z</time></trkpt><trkpt lat="43.93533" lon="12.6427667"><ele>90.0</ele><time>2026-04-26T11:15:53.937Z</time></trkpt><trkpt lat="43.9351983" lon="12.64284"><ele>90.0</ele><time>2026-04-26T11:15:55.937Z</time></trkpt><trkpt lat="43.9351067" lon="12.64289"><ele>89.6</ele><time>2026-04-26T11:15:56.937Z</time></trkpt><trkpt lat="43.935015" lon="12.6429583"><ele>89.2</ele><time>2026-04-26T11:15:57.937Z</time></trkpt><trkpt lat="43.9349333" lon="12.6430367"><ele>88.80000000000001</ele><time>2026-04-26T11:15:58.936Z</time></trkpt><trkpt lat="43.93486" lon="12.6431417"><ele>88.4</ele><time>2026-04-26T11:15:59.937Z</time></trkpt><trkpt lat="43.93479" lon="12.643275"><ele>88.0</ele><time>2026-04-26T11:16:00.937Z</time></trkpt><trkpt lat="43.93472" lon="12.6434283"><ele>88.0</ele><time>2026-04-26T11:16:01.937Z</time></trkpt><trkpt lat="43.934655" lon="12.64359"><ele>88.0</ele><time>2026-04-26T11:16:02.937Z</time></trkpt><trkpt lat="43.9345917" lon="12.6437417"><ele>88.0</ele><time>2026-04-26T11:16:03.937Z</time></trkpt><trkpt lat="43.934525" lon="12.6438833"><ele>88.0</ele><time>2026-04-26T11:16:04.937Z</time></trkpt><trkpt lat="43.9344583" lon="12.644"><ele>87.60000000000001</ele><time>2026-04-26T11:16:05.936Z</time></trkpt><trkpt lat="43.9344033" lon="12.6440833"><ele>87.2</ele><time>2026-04-26T11:16:06.937Z</time></trkpt><trkpt lat="43.9343233" lon="12.6441767"><ele>86.8</ele><time>2026-04-26T11:16:08.937Z</time></trkpt><trkpt lat="43.934225" lon="12.644305"><ele>86.4</ele><time>2026-04-26T11:16:10.936Z</time></trkpt><trkpt lat="43.9341567" lon="12.644385"><ele>86.0</ele><time>2026-04-26T11:16:11.937Z</time></trkpt><trkpt lat="43.93408" lon="12.644465"><ele>85.8</ele><time>2026-04-26T11:16:12.937Z</time></trkpt><trkpt lat="43.934" lon="12.644545"><ele>85.6</ele><time>2026-04-26T11:16:13.937Z</time></trkpt><trkpt lat="43.9339283" lon="12.6446217"><ele>85.4</ele><time>2026-04-26T11:16:14.937Z</time></trkpt><trkpt lat="43.9338583" lon="12.6447083"><ele>85.2</ele><time>2026-04-26T11:16:15.937Z</time></trkpt><trkpt lat="43.9337883" lon="12.64481"><ele>85.0</ele><time>2026-04-26T11:16:16.937Z</time></trkpt><trkpt lat="43.933715" lon="12.644925"><ele>85.0</ele><time>2026-04-26T11:16:17.937Z</time></trkpt><trkpt lat="43.93364" lon="12.64505"><ele>85.0</ele><time>2026-04-26T11:16:18.937Z</time></trkpt><trkpt lat="43.93356" lon="12.64518"><ele>85.0</ele><time>2026-04-26T11:16:19.937Z</time></trkpt><trkpt lat="43.93348" lon="12.6453133"><ele>85.0</ele><time>2026-04-26T11:16:20.936Z</time></trkpt><trkpt lat="43.9334067" lon="12.6454333"><ele>85.0</ele><time>2026-04-26T11:16:21.937Z</time></trkpt><trkpt lat="43.9333483" lon="12.6455383"><ele>85.0</ele><time>2026-04-26T11:16:22.937Z</time></trkpt><trkpt lat="43.93331" lon="12.64564"><ele>85.0</ele><time>2026-04-26T11:16:23.937Z</time></trkpt><trkpt lat="43.93329" lon="12.6457383"><ele>85.0</ele><time>2026-04-26T11:16:24.937Z</time></trkpt><trkpt lat="43.93327" lon="12.6458383"><ele>85.0</ele><time>2026-04-26T11:16:25.936Z</time></trkpt><trkpt lat="43.9332433" lon="12.6459533"><ele>85.0</ele><time>2026-04-26T11:16:26.936Z</time></trkpt><trkpt lat="43.9332033" lon="12.6460617"><ele>84.83333333333333</ele><time>2026-04-26T11:16:27.937Z</time></trkpt><trkpt lat="43.9331583" lon="12.6461633"><ele>84.66666666666666</ele><time>2026-04-26T11:16:28.937Z</time></trkpt><trkpt lat="43.9331067" lon="12.6462617"><ele>84.5</ele><time>2026-04-26T11:16:29.937Z</time></trkpt><trkpt lat="43.9330483" lon="12.646345"><ele>84.33333333333333</ele><time>2026-04-26T11:16:30.937Z</time></trkpt><trkpt lat="43.9329833" lon="12.646405"><ele>84.16666666666667</ele><time>2026-04-26T11:16:31.937Z</time></trkpt><trkpt lat="43.9329083" lon="12.6464467"><ele>84.0</ele><time>2026-04-26T11:16:32.937Z</time></trkpt><trkpt lat="43.9328283" lon="12.646485"><ele>84.0</ele><time>2026-04-26T11:16:33.937Z</time></trkpt><trkpt lat="43.93275" lon="12.6465367"><ele>84.0</ele><time>2026-04-26T11:16:34.937Z</time></trkpt><trkpt lat="43.93268" lon="12.6466267"><ele>84.0</ele><time>2026-04-26T11:16:35.936Z</time></trkpt><trkpt lat="43.9326117" lon="12.6467417"><ele>84.0</ele><time>2026-04-26T11:16:36.937Z</time></trkpt><trkpt lat="43.93254" lon="12.646865"><ele>84.0</ele><time>2026-04-26T11:16:37.937Z</time></trkpt><trkpt lat="43.9324683" lon="12.646985"><ele>84.80000000000001</ele><time>2026-04-26T11:16:38.937Z</time></trkpt><trkpt lat="43.9324033" lon="12.6470933"><ele>85.60000000000001</ele><time>2026-04-26T11:16:39.937Z</time></trkpt><trkpt lat="43.9323533" lon="12.647175"><ele>86.4</ele><time>2026-04-26T11:16:40.937Z</time></trkpt><trkpt lat="43.9323183" lon="12.64726"><ele>87.2</ele><time>2026-04-26T11:16:42.936Z</time></trkpt><trkpt lat="43.93225" lon="12.6472033"><ele>88.0</ele><time>2026-04-26T11:17:05.937Z</time></trkpt><trkpt lat="43.932145" lon="12.6470833"><ele>88.0</ele><time>2026-04-26T11:17:07.937Z</time></trkpt><trkpt lat="43.9320767" lon="12.6470133"><ele>88.0</ele><time>2026-04-26T11:17:08.937Z</time></trkpt><trkpt lat="43.9320117" lon="12.64695"><ele>88.0</ele><time>2026-04-26T11:17:09.937Z</time></trkpt><trkpt lat="43.9319567" lon="12.6469017"><ele>88.0</ele><time>2026-04-26T11:17:10.937Z</time></trkpt><trkpt lat="43.9318633" lon="12.6468267"><ele>88.0</ele><time>2026-04-26T11:17:12.936Z</time></trkpt><trkpt lat="43.9317833" lon="12.6467567"><ele>88.0</ele><time>2026-04-26T11:17:14.937Z</time></trkpt><trkpt lat="43.931715" lon="12.6467083"><ele>88.4</ele><time>2026-04-26T11:17:16.937Z</time></trkpt><trkpt lat="43.9316533" lon="12.6466783"><ele>88.80000000000001</ele><time>2026-04-26T11:17:18.936Z</time></trkpt><trkpt lat="43.9315867" lon="12.6466117"><ele>89.2</ele><time>2026-04-26T11:17:20.936Z</time></trkpt><trkpt lat="43.9315333" lon="12.6465517"><ele>89.6</ele><time>2026-04-26T11:17:22.937Z</time></trkpt><trkpt lat="43.93159" lon="12.6466067"><ele>90.0</ele><time>2026-04-26T11:17:36.937Z</time></trkpt><trkpt lat="43.9317667" lon="12.646745"><ele>90.0</ele><time>2026-04-26T11:17:39.937Z</time></trkpt><trkpt lat="43.931845" lon="12.6468033"><ele>90.0</ele><time>2026-04-26T11:17:40.936Z</time></trkpt><trkpt lat="43.931925" lon="12.6468733"><ele>90.0</ele><time>2026-04-26T11:17:41.936Z</time></trkpt><trkpt lat="43.932005" lon="12.6469467"><ele>90.0</ele><time>2026-04-26T11:17:42.937Z</time></trkpt><trkpt lat="43.9320833" lon="12.647015"><ele>90.0</ele><time>2026-04-26T11:17:43.937Z</time></trkpt><trkpt lat="43.9321533" lon="12.64708"><ele>89.6</ele><time>2026-04-26T11:17:44.937Z</time></trkpt><trkpt lat="43.9322167" lon="12.6471417"><ele>89.2</ele><time>2026-04-26T11:17:45.937Z</time></trkpt><trkpt lat="43.93227" lon="12.6472017"><ele>88.80000000000001</ele><time>2026-04-26T11:17:46.936Z</time></trkpt><trkpt lat="43.932335" lon="12.6473233"><ele>88.4</ele><time>2026-04-26T11:17:48.937Z</time></trkpt><trkpt lat="43.9323367" lon="12.6474633"><ele>88.0</ele><time>2026-04-26T11:17:50.937Z</time></trkpt><trkpt lat="43.9322917" lon="12.6475867"><ele>88.0</ele><time>2026-04-26T11:17:52.937Z</time></trkpt><trkpt lat="43.9322" lon="12.6476833"><ele>88.0</ele><time>2026-04-26T11:17:54.937Z</time></trkpt><trkpt lat="43.932135" lon="12.647725"><ele>88.0</ele><time>2026-04-26T11:17:55.936Z</time></trkpt><trkpt lat="43.9320567" lon="12.6477683"><ele>88.0</ele><time>2026-04-26T11:17:56.937Z</time></trkpt><trkpt lat="43.9319683" lon="12.6478133"><ele>88.0</ele><time>2026-04-26T11:17:57.937Z</time></trkpt><trkpt lat="43.931885" lon="12.647855"><ele>87.5</ele><time>2026-04-26T11:17:58.937Z</time></trkpt><trkpt lat="43.9318167" lon="12.647895"><ele>87.0</ele><time>2026-04-26T11:17:59.937Z</time></trkpt><trkpt lat="43.9317467" lon="12.647935"><ele>86.5</ele><time>2026-04-26T11:18:00.937Z</time></trkpt><trkpt lat="43.9316783" lon="12.6479817"><ele>86.0</ele><time>2026-04-26T11:18:01.937Z</time></trkpt><trkpt lat="43.9316067" lon="12.6480283"><ele>85.5</ele><time>2026-04-26T11:18:02.937Z</time></trkpt><trkpt lat="43.931535" lon="12.648085"><ele>85.0</ele><time>2026-04-26T11:18:03.937Z</time></trkpt><trkpt lat="43.931465" lon="12.6481333"><ele>85.83333333333333</ele><time>2026-04-26T11:18:04.937Z</time></trkpt><trkpt lat="43.9314083" lon="12.6481983"><ele>86.66666666666666</ele><time>2026-04-26T11:18:05.936Z</time></trkpt><trkpt lat="43.9313667" lon="12.64827"><ele>87.5</ele><time>2026-04-26T11:18:06.936Z</time></trkpt><trkpt lat="43.9313383" lon="12.6483583"><ele>88.33333333333333</ele><time>2026-04-26T11:18:07.937Z</time></trkpt><trkpt lat="43.931315" lon="12.6484617"><ele>89.16666666666667</ele><time>2026-04-26T11:18:08.937Z</time></trkpt><trkpt lat="43.931295" lon="12.6485833"><ele>90.0</ele><time>2026-04-26T11:18:09.936Z</time></trkpt><trkpt lat="43.93128" lon="12.648705"><ele>90.0</ele><time>2026-04-26T11:18:10.936Z</time></trkpt><trkpt lat="43.9312683" lon="12.6488167"><ele>90.0</ele><time>2026-04-26T11:18:11.937Z</time></trkpt><trkpt lat="43.931255" lon="12.6489167"><ele>90.0</ele><time>2026-04-26T11:18:12.936Z</time></trkpt><trkpt lat="43.9312067" lon="12.6490667"><ele>90.0</ele><time>2026-04-26T11:18:14.937Z</time></trkpt><trkpt lat="43.9311483" lon="12.64913"><ele>90.0</ele><time>2026-04-26T11:18:15.936Z</time></trkpt><trkpt lat="43.93108" lon="12.6492"><ele>90.0</ele><time>2026-04-26T11:18:16.937Z</time></trkpt><trkpt lat="43.9310283" lon="12.6492767"><ele>90.0</ele><time>2026-04-26T11:18:17.937Z</time></trkpt><trkpt lat="43.9309667" lon="12.64938"><ele>90.0</ele><time>2026-04-26T11:18:19.937Z</time></trkpt><trkpt lat="43.9309167" lon="12.6494483"><ele>90.0</ele><time>2026-04-26T11:18:21.937Z</time></trkpt><trkpt lat="43.930845" lon="12.6495667"><ele>90.0</ele><time>2026-04-26T11:18:23.937Z</time></trkpt><trkpt lat="43.9308" lon="12.6496483"><ele>90.0</ele><time>2026-04-26T11:18:24.936Z</time></trkpt><trkpt lat="43.9307517" lon="12.6497267"><ele>90.0</ele><time>2026-04-26T11:18:25.937Z</time></trkpt><trkpt lat="43.93071" lon="12.6497983"><ele>89.66666666666667</ele><time>2026-04-26T11:18:26.936Z</time></trkpt><trkpt lat="43.930655" lon="12.649855"><ele>89.33333333333333</ele><time>2026-04-26T11:18:27.937Z</time></trkpt><trkpt lat="43.9305983" lon="12.6499333"><ele>89.0</ele><time>2026-04-26T11:18:28.936Z</time></trkpt><trkpt lat="43.9305417" lon="12.6500233"><ele>88.66666666666666</ele><time>2026-04-26T11:18:29.937Z</time></trkpt><trkpt lat="43.9304867" lon="12.6501267"><ele>88.33333333333333</ele><time>2026-04-26T11:18:30.936Z</time></trkpt><trkpt lat="43.9304417" lon="12.650225"><ele>88.0</ele><time>2026-04-26T11:18:31.936Z</time></trkpt><trkpt lat="43.9304067" lon="12.6503033"><ele>88.0</ele><time>2026-04-26T11:18:32.937Z</time></trkpt><trkpt lat="43.9304133" lon="12.650415"><ele>88.0</ele><time>2026-04-26T11:18:34.936Z</time></trkpt><trkpt lat="43.93047" lon="12.6504567"><ele>88.0</ele><time>2026-04-26T11:18:35.937Z</time></trkpt><trkpt lat="43.9305417" lon="12.6505083"><ele>88.0</ele><time>2026-04-26T11:18:36.937Z</time></trkpt><trkpt lat="43.9305983" lon="12.6505683"><ele>88.0</ele><time>2026-04-26T11:18:37.937Z</time></trkpt><trkpt lat="43.93061" lon="12.6507417"><ele>88.0</ele><time>2026-04-26T11:18:39.937Z</time></trkpt><trkpt lat="43.9305867" lon="12.6508433"><ele>88.0</ele><time>2026-04-26T11:18:40.937Z</time></trkpt><trkpt lat="43.9305433" lon="12.650945"><ele>88.0</ele><time>2026-04-26T11:18:41.936Z</time></trkpt><trkpt lat="43.9304767" lon="12.65105"><ele>88.0</ele><time>2026-04-26T11:18:42.937Z</time></trkpt><trkpt lat="43.93041" lon="12.65116"><ele>88.0</ele><time>2026-04-26T11:18:43.937Z</time></trkpt><trkpt lat="43.93035" lon="12.651265"><ele>88.0</ele><time>2026-04-26T11:18:44.937Z</time></trkpt><trkpt lat="43.930305" lon="12.65135"><ele>86.60000000000001</ele><time>2026-04-26T11:18:45.936Z</time></trkpt><trkpt lat="43.930285" lon="12.6514733"><ele>85.2</ele><time>2026-04-26T11:18:47.936Z</time></trkpt><trkpt lat="43.9303533" lon="12.65162"><ele>83.8</ele><time>2026-04-26T11:18:49.937Z</time></trkpt><trkpt lat="43.93043" lon="12.6516933"><ele>82.4</ele><time>2026-04-26T11:18:50.937Z</time></trkpt><trkpt lat="43.93051" lon="12.6517717"><ele>81.0</ele><time>2026-04-26T11:18:51.937Z</time></trkpt><trkpt lat="43.9305867" lon="12.6518367"><ele>81.0</ele><time>2026-04-26T11:18:52.937Z</time></trkpt><trkpt lat="43.9306383" lon="12.6519033"><ele>81.0</ele><time>2026-04-26T11:18:53.937Z</time></trkpt><trkpt lat="43.930665" lon="12.6519867"><ele>81.0</ele><time>2026-04-26T11:18:54.937Z</time></trkpt><trkpt lat="43.9306683" lon="12.6520783"><ele>81.0</ele><time>2026-04-26T11:18:55.936Z</time></trkpt><trkpt lat="43.9306517" lon="12.65217"><ele>81.0</ele><time>2026-04-26T11:18:56.937Z</time></trkpt><trkpt lat="43.9306083" lon="12.65226"><ele>81.0</ele><time>2026-04-26T11:18:57.937Z</time></trkpt><trkpt lat="43.9305317" lon="12.6523567"><ele>80.16666666666667</ele><time>2026-04-26T11:18:58.937Z</time></trkpt><trkpt lat="43.9304583" lon="12.65245"><ele>79.33333333333333</ele><time>2026-04-26T11:18:59.937Z</time></trkpt><trkpt lat="43.9304117" lon="12.65253"><ele>78.5</ele><time>2026-04-26T11:19:00.937Z</time></trkpt><trkpt lat="43.9303833" lon="12.6526133"><ele>77.66666666666666</ele><time>2026-04-26T11:19:03.936Z</time></trkpt><trkpt lat="43.9303833" lon="12.652735"><ele>76.83333333333333</ele><time>2026-04-26T11:19:06.937Z</time></trkpt><trkpt lat="43.930465" lon="12.6528567"><ele>76.0</ele><time>2026-04-26T11:19:08.937Z</time></trkpt><trkpt lat="43.930535" lon="12.6529283"><ele>75.5</ele><time>2026-04-26T11:19:09.937Z</time></trkpt><trkpt lat="43.9306183" lon="12.65302"><ele>75.0</ele><time>2026-04-26T11:19:10.937Z</time></trkpt><trkpt lat="43.93072" lon="12.653125"><ele>74.5</ele><time>2026-04-26T11:19:11.936Z</time></trkpt><trkpt lat="43.9308317" lon="12.65324"><ele>74.0</ele><time>2026-04-26T11:19:12.936Z</time></trkpt><trkpt lat="43.9309517" lon="12.6533617"><ele>74.0</ele><time>2026-04-26T11:19:13.937Z</time></trkpt><trkpt lat="43.9310717" lon="12.65348"><ele>74.0</ele><time>2026-04-26T11:19:14.936Z</time></trkpt><trkpt lat="43.9311867" lon="12.6535917"><ele>74.0</ele><time>2026-04-26T11:19:15.937Z</time></trkpt><trkpt lat="43.931305" lon="12.6537067"><ele>74.0</ele><time>2026-04-26T11:19:16.937Z</time></trkpt><trkpt lat="43.9314167" lon="12.65382"><ele>74.4</ele><time>2026-04-26T11:19:17.937Z</time></trkpt><trkpt lat="43.9315183" lon="12.653925"><ele>74.80000000000001</ele><time>2026-04-26T11:19:18.937Z</time></trkpt><trkpt lat="43.9315967" lon="12.6540283"><ele>75.19999999999999</ele><time>2026-04-26T11:19:19.937Z</time></trkpt><trkpt lat="43.9316467" lon="12.654125"><ele>75.6</ele><time>2026-04-26T11:19:20.936Z</time></trkpt><trkpt lat="43.9316583" lon="12.654215"><ele>76.0</ele><time>2026-04-26T11:19:21.937Z</time></trkpt><trkpt lat="43.9315867" lon="12.65432"><ele>76.0</ele><time>2026-04-26T11:19:23.937Z</time></trkpt><trkpt lat="43.9315267" lon="12.6543567"><ele>76.0</ele><time>2026-04-26T11:19:24.937Z</time></trkpt><trkpt lat="43.9314483" lon="12.6544067"><ele>76.0</ele><time>2026-04-26T11:19:25.937Z</time></trkpt><trkpt lat="43.93137" lon="12.6544817"><ele>76.0</ele><time>2026-04-26T11:19:26.937Z</time></trkpt><trkpt lat="43.9312867" lon="12.6545733"><ele>76.0</ele><time>2026-04-26T11:19:27.937Z</time></trkpt><trkpt lat="43.9312083" lon="12.65468"><ele>76.39999999999999</ele><time>2026-04-26T11:19:28.937Z</time></trkpt><trkpt lat="43.9311333" lon="12.654775"><ele>76.8</ele><time>2026-04-26T11:19:29.937Z</time></trkpt><trkpt lat="43.931065" lon="12.6548583"><ele>77.19999999999999</ele><time>2026-04-26T11:19:30.936Z</time></trkpt><trkpt lat="43.9310383" lon="12.6549767"><ele>77.6</ele><time>2026-04-26T11:19:31.937Z</time></trkpt><trkpt lat="43.93103" lon="12.655115"><ele>78.0</ele><time>2026-04-26T11:19:32.937Z</time></trkpt><trkpt lat="43.9309883" lon="12.6552433"><ele>77.25</ele><time>2026-04-26T11:19:33.937Z</time></trkpt><trkpt lat="43.9309167" lon="12.6553667"><ele>76.5</ele><time>2026-04-26T11:19:34.936Z</time></trkpt><trkpt lat="43.9308283" lon="12.65549"><ele>75.75</ele><time>2026-04-26T11:19:35.936Z</time></trkpt><trkpt lat="43.9307483" lon="12.6556183"><ele>75.0</ele><time>2026-04-26T11:19:36.937Z</time></trkpt><trkpt lat="43.9306767" lon="12.6557317"><ele>75.0</ele><time>2026-04-26T11:19:37.937Z</time></trkpt><trkpt lat="43.9306117" lon="12.655845"><ele>75.0</ele><time>2026-04-26T11:19:38.936Z</time></trkpt><trkpt lat="43.9305433" lon="12.6559633"><ele>75.0</ele><time>2026-04-26T11:19:39.937Z</time></trkpt><trkpt lat="43.9304717" lon="12.656095"><ele>75.0</ele><time>2026-04-26T11:19:40.937Z</time></trkpt><trkpt lat="43.9304" lon="12.6562367"><ele>74.75</ele><time>2026-04-26T11:19:41.937Z</time></trkpt><trkpt lat="43.9303267" lon="12.6563717"><ele>74.5</ele><time>2026-04-26T11:19:42.937Z</time></trkpt><trkpt lat="43.930255" lon="12.65651"><ele>74.25</ele><time>2026-04-26T11:19:43.936Z</time></trkpt><trkpt lat="43.9301833" lon="12.656655"><ele>74.0</ele><time>2026-04-26T11:19:44.937Z</time></trkpt><trkpt lat="43.9301133" lon="12.6568083"><ele>73.66666666666667</ele><time>2026-04-26T11:19:45.937Z</time></trkpt><trkpt lat="43.930035" lon="12.6569733"><ele>73.33333333333333</ele><time>2026-04-26T11:19:46.936Z</time></trkpt><trkpt lat="43.9299483" lon="12.6571483"><ele>73.0</ele><time>2026-04-26T11:19:47.937Z</time></trkpt><trkpt lat="43.9298567" lon="12.65733"><ele>73.0</ele><time>2026-04-26T11:19:48.936Z</time></trkpt><trkpt lat="43.92976" lon="12.6575167"><ele>73.0</ele><time>2026-04-26T11:19:49.937Z</time></trkpt><trkpt lat="43.9296667" lon="12.6577017"><ele>73.0</ele><time>2026-04-26T11:19:50.937Z</time></trkpt><trkpt lat="43.929575" lon="12.6578817"><ele>72.5</ele><time>2026-04-26T11:19:51.937Z</time></trkpt><trkpt lat="43.9294867" lon="12.6580583"><ele>72.0</ele><time>2026-04-26T11:19:52.937Z</time></trkpt><trkpt lat="43.9294017" lon="12.6582267"><ele>71.5</ele><time>2026-04-26T11:19:53.937Z</time></trkpt><trkpt lat="43.929315" lon="12.65839"><ele>71.0</ele><time>2026-04-26T11:19:54.937Z</time></trkpt><trkpt lat="43.9292333" lon="12.65855"><ele>70.75</ele><time>2026-04-26T11:19:55.937Z</time></trkpt><trkpt lat="43.9291617" lon="12.6587083"><ele>70.5</ele><time>2026-04-26T11:19:56.937Z</time></trkpt><trkpt lat="43.92911" lon="12.658865"><ele>70.25</ele><time>2026-04-26T11:19:57.937Z</time></trkpt><trkpt lat="43.9290883" lon="12.6590067"><ele>70.0</ele><time>2026-04-26T11:19:58.937Z</time></trkpt><trkpt lat="43.929095" lon="12.6591317"><ele>70.0</ele><time>2026-04-26T11:19:59.937Z</time></trkpt><trkpt lat="43.92912" lon="12.6592433"><ele>70.0</ele><time>2026-04-26T11:20:00.937Z</time></trkpt><trkpt lat="43.9291567" lon="12.65935"><ele>70.0</ele><time>2026-04-26T11:20:01.937Z</time></trkpt><trkpt lat="43.9291883" lon="12.6594517"><ele>70.0</ele><time>2026-04-26T11:20:02.936Z</time></trkpt><trkpt lat="43.929195" lon="12.6595517"><ele>70.0</ele><time>2026-04-26T11:20:03.937Z</time></trkpt><trkpt lat="43.9291633" lon="12.6596383"><ele>70.0</ele><time>2026-04-26T11:20:04.937Z</time></trkpt><trkpt lat="43.9291067" lon="12.6597167"><ele>70.25</ele><time>2026-04-26T11:20:05.937Z</time></trkpt><trkpt lat="43.9290367" lon="12.6597983"><ele>70.5</ele><time>2026-04-26T11:20:06.937Z</time></trkpt><trkpt lat="43.9289483" lon="12.6598933"><ele>70.75</ele><time>2026-04-26T11:20:07.937Z</time></trkpt><trkpt lat="43.9288533" lon="12.6600033"><ele>71.0</ele><time>2026-04-26T11:20:08.937Z</time></trkpt><trkpt lat="43.9287583" lon="12.660125"><ele>71.0</ele><time>2026-04-26T11:20:09.937Z</time></trkpt><trkpt lat="43.9286633" lon="12.6602333"><ele>71.0</ele><time>2026-04-26T11:20:10.937Z</time></trkpt><trkpt lat="43.9285717" lon="12.6603333"><ele>71.0</ele><time>2026-04-26T11:20:11.937Z</time></trkpt><trkpt lat="43.928485" lon="12.6604483"><ele>71.0</ele><time>2026-04-26T11:20:12.937Z</time></trkpt><trkpt lat="43.9283917" lon="12.6605533"><ele>69.8</ele><time>2026-04-26T11:20:13.936Z</time></trkpt><trkpt lat="43.9282983" lon="12.6606533"><ele>68.6</ele><time>2026-04-26T11:20:14.937Z</time></trkpt><trkpt lat="43.9282117" lon="12.66075"><ele>67.4</ele><time>2026-04-26T11:20:15.936Z</time></trkpt><trkpt lat="43.928125" lon="12.66083"><ele>66.2</ele><time>2026-04-26T11:20:16.937Z</time></trkpt><trkpt lat="43.9280333" lon="12.6608733"><ele>65.0</ele><time>2026-04-26T11:20:17.937Z</time></trkpt><trkpt lat="43.9279417" lon="12.6608733"><ele>65.0</ele><time>2026-04-26T11:20:18.937Z</time></trkpt><trkpt lat="43.927855" lon="12.6608617"><ele>65.0</ele><time>2026-04-26T11:20:19.937Z</time></trkpt><trkpt lat="43.9277867" lon="12.6609033"><ele>65.0</ele><time>2026-04-26T11:20:20.936Z</time></trkpt><trkpt lat="43.9277367" lon="12.660975"><ele>65.0</ele><time>2026-04-26T11:20:21.937Z</time></trkpt><trkpt lat="43.927725" lon="12.6610767"><ele>65.0</ele><time>2026-04-26T11:20:22.937Z</time></trkpt><trkpt lat="43.92775" lon="12.6611817"><ele>65.0</ele><time>2026-04-26T11:20:23.937Z</time></trkpt><trkpt lat="43.9278117" lon="12.6612733"><ele>63.8</ele><time>2026-04-26T11:20:24.937Z</time></trkpt><trkpt lat="43.9278817" lon="12.6613533"><ele>62.6</ele><time>2026-04-26T11:20:25.937Z</time></trkpt><trkpt lat="43.927965" lon="12.661425"><ele>61.400000000000006</ele><time>2026-04-26T11:20:26.936Z</time></trkpt><trkpt lat="43.9280367" lon="12.6615167"><ele>60.2</ele><time>2026-04-26T11:20:27.936Z</time></trkpt><trkpt lat="43.92809" lon="12.66165"><ele>59.0</ele><time>2026-04-26T11:20:28.936Z</time></trkpt><trkpt lat="43.9281383" lon="12.66181"><ele>58.0</ele><time>2026-04-26T11:20:29.936Z</time></trkpt><trkpt lat="43.928195" lon="12.6619867"><ele>57.0</ele><time>2026-04-26T11:20:30.937Z</time></trkpt><trkpt lat="43.928265" lon="12.6621783"><ele>56.0</ele><time>2026-04-26T11:20:31.936Z</time></trkpt><trkpt lat="43.92834" lon="12.662375"><ele>56.333333333333336</ele><time>2026-04-26T11:20:32.937Z</time></trkpt><trkpt lat="43.9284083" lon="12.6625833"><ele>56.66666666666667</ele><time>2026-04-26T11:20:33.937Z</time></trkpt><trkpt lat="43.92848" lon="12.6628067"><ele>57.0</ele><time>2026-04-26T11:20:34.937Z</time></trkpt><trkpt lat="43.9285667" lon="12.6630283"><ele>57.0</ele><time>2026-04-26T11:20:35.937Z</time></trkpt><trkpt lat="43.9286617" lon="12.66325"><ele>57.0</ele><time>2026-04-26T11:20:36.937Z</time></trkpt><trkpt lat="43.92877" lon="12.6634633"><ele>57.0</ele><time>2026-04-26T11:20:37.936Z</time></trkpt><trkpt lat="43.9288783" lon="12.6636667"><ele>57.0</ele><time>2026-04-26T11:20:38.937Z</time></trkpt><trkpt lat="43.928995" lon="12.663865"><ele>57.0</ele><time>2026-04-26T11:20:39.937Z</time></trkpt><trkpt lat="43.9291167" lon="12.6640567"><ele>57.0</ele><time>2026-04-26T11:20:40.937Z</time></trkpt><trkpt lat="43.92924" lon="12.66424"><ele>57.0</ele><time>2026-04-26T11:20:41.937Z</time></trkpt><trkpt lat="43.9293633" lon="12.6644183"><ele>57.0</ele><time>2026-04-26T11:20:42.936Z</time></trkpt><trkpt lat="43.92948" lon="12.6645883"><ele>57.0</ele><time>2026-04-26T11:20:43.937Z</time></trkpt><trkpt lat="43.9295933" lon="12.664745"><ele>56.5</ele><time>2026-04-26T11:20:44.937Z</time></trkpt><trkpt lat="43.9296967" lon="12.664895"><ele>56.0</ele><time>2026-04-26T11:20:45.937Z</time></trkpt><trkpt lat="43.9297783" lon="12.66503"><ele>55.5</ele><time>2026-04-26T11:20:46.936Z</time></trkpt><trkpt lat="43.9298367" lon="12.665165"><ele>55.0</ele><time>2026-04-26T11:20:47.937Z</time></trkpt><trkpt lat="43.92986" lon="12.6653283"><ele>54.5</ele><time>2026-04-26T11:20:48.937Z</time></trkpt><trkpt lat="43.9298767" lon="12.6655"><ele>54.0</ele><time>2026-04-26T11:20:49.937Z</time></trkpt><trkpt lat="43.9298817" lon="12.6656783"><ele>53.5</ele><time>2026-04-26T11:20:50.937Z</time></trkpt><trkpt lat="43.9298533" lon="12.66586"><ele>53.0</ele><time>2026-04-26T11:20:51.937Z</time></trkpt><trkpt lat="43.9297967" lon="12.66604"><ele>53.333333333333336</ele><time>2026-04-26T11:20:52.937Z</time></trkpt><trkpt lat="43.9297283" lon="12.6662233"><ele>53.66666666666667</ele><time>2026-04-26T11:20:53.937Z</time></trkpt><trkpt lat="43.9296567" lon="12.6664183"><ele>54.0</ele><time>2026-04-26T11:20:54.937Z</time></trkpt><trkpt lat="43.9295667" lon="12.666615"><ele>54.0</ele><time>2026-04-26T11:20:55.937Z</time></trkpt><trkpt lat="43.9294667" lon="12.666815"><ele>54.0</ele><time>2026-04-26T11:20:56.937Z</time></trkpt><trkpt lat="43.9293533" lon="12.6670167"><ele>54.0</ele><time>2026-04-26T11:20:57.937Z</time></trkpt><trkpt lat="43.9292217" lon="12.6672067"><ele>53.66666666666667</ele><time>2026-04-26T11:20:58.936Z</time></trkpt><trkpt lat="43.9290783" lon="12.6673883"><ele>53.333333333333336</ele><time>2026-04-26T11:20:59.936Z</time></trkpt><trkpt lat="43.9289217" lon="12.6675583"><ele>53.0</ele><time>2026-04-26T11:21:00.937Z</time></trkpt><trkpt lat="43.92875" lon="12.667705"><ele>52.333333333333336</ele><time>2026-04-26T11:21:01.936Z</time></trkpt><trkpt lat="43.9285717" lon="12.66784"><ele>51.66666666666667</ele><time>2026-04-26T11:21:02.937Z</time></trkpt><trkpt lat="43.928395" lon="12.66798"><ele>51.0</ele><time>2026-04-26T11:21:03.937Z</time></trkpt><trkpt lat="43.9282183" lon="12.6681117"><ele>50.66666666666667</ele><time>2026-04-26T11:21:04.937Z</time></trkpt><trkpt lat="43.92805" lon="12.6682433"><ele>50.333333333333336</ele><time>2026-04-26T11:21:05.937Z</time></trkpt><trkpt lat="43.9278833" lon="12.66838"><ele>50.0</ele><time>2026-04-26T11:21:06.937Z</time></trkpt><trkpt lat="43.92772" lon="12.6685217"><ele>50.333333333333336</ele><time>2026-04-26T11:21:07.937Z</time></trkpt><trkpt lat="43.9275667" lon="12.6686717"><ele>50.66666666666667</ele><time>2026-04-26T11:21:08.937Z</time></trkpt><trkpt lat="43.9274133" lon="12.668825"><ele>51.0</ele><time>2026-04-26T11:21:09.937Z</time></trkpt><trkpt lat="43.9272633" lon="12.66899"><ele>49.666666666666664</ele><time>2026-04-26T11:21:10.936Z</time></trkpt><trkpt lat="43.9271167" lon="12.6691583"><ele>48.33333333333333</ele><time>2026-04-26T11:21:11.937Z</time></trkpt><trkpt lat="43.9269683" lon="12.66933"><ele>47.0</ele><time>2026-04-26T11:21:12.937Z</time></trkpt><trkpt lat="43.9268217" lon="12.6695067"><ele>46.0</ele><time>2026-04-26T11:21:13.937Z</time></trkpt><trkpt lat="43.926675" lon="12.6696867"><ele>45.0</ele><time>2026-04-26T11:21:14.937Z</time></trkpt><trkpt lat="43.9265283" lon="12.669865"><ele>44.0</ele><time>2026-04-26T11:21:15.936Z</time></trkpt><trkpt lat="43.926385" lon="12.670045"><ele>44.0</ele><time>2026-04-26T11:21:16.936Z</time></trkpt><trkpt lat="43.9262417" lon="12.6702267"><ele>44.0</ele><time>2026-04-26T11:21:17.937Z</time></trkpt><trkpt lat="43.9260967" lon="12.6704083"><ele>44.0</ele><time>2026-04-26T11:21:18.937Z</time></trkpt><trkpt lat="43.9259567" lon="12.6705867"><ele>43.0</ele><time>2026-04-26T11:21:19.937Z</time></trkpt><trkpt lat="43.925815" lon="12.6707633"><ele>42.0</ele><time>2026-04-26T11:21:20.937Z</time></trkpt><trkpt lat="43.9256717" lon="12.67094"><ele>41.0</ele><time>2026-04-26T11:21:21.937Z</time></trkpt><trkpt lat="43.925525" lon="12.6711217"><ele>41.0</ele><time>2026-04-26T11:21:22.937Z</time></trkpt><trkpt lat="43.92538" lon="12.6713017"><ele>41.0</ele><time>2026-04-26T11:21:23.936Z</time></trkpt><trkpt lat="43.9252367" lon="12.6714783"><ele>41.0</ele><time>2026-04-26T11:21:24.937Z</time></trkpt><trkpt lat="43.9250917" lon="12.6716517"><ele>42.0</ele><time>2026-04-26T11:21:25.937Z</time></trkpt><trkpt lat="43.92495" lon="12.6718317"><ele>43.0</ele><time>2026-04-26T11:21:26.937Z</time></trkpt><trkpt lat="43.9248083" lon="12.672015"><ele>44.0</ele><time>2026-04-26T11:21:27.937Z</time></trkpt><trkpt lat="43.9246683" lon="12.6721933"><ele>45.0</ele><time>2026-04-26T11:21:28.936Z</time></trkpt><trkpt lat="43.924545" lon="12.672385"><ele>46.0</ele><time>2026-04-26T11:21:29.936Z</time></trkpt><trkpt lat="43.92443" lon="12.6725883"><ele>47.0</ele><time>2026-04-26T11:21:30.937Z</time></trkpt><trkpt lat="43.9243183" lon="12.6727967"><ele>48.666666666666664</ele><time>2026-04-26T11:21:31.936Z</time></trkpt><trkpt lat="43.92422" lon="12.6730033"><ele>50.33333333333333</ele><time>2026-04-26T11:21:32.937Z</time></trkpt><trkpt lat="43.924135" lon="12.6731933"><ele>52.0</ele><time>2026-04-26T11:21:33.937Z</time></trkpt><trkpt lat="43.9240617" lon="12.67336"><ele>52.0</ele><time>2026-04-26T11:21:34.937Z</time></trkpt><trkpt lat="43.924" lon="12.6734967"><ele>52.0</ele><time>2026-04-26T11:21:35.937Z</time></trkpt><trkpt lat="43.92395" lon="12.6736017"><ele>52.0</ele><time>2026-04-26T11:21:36.937Z</time></trkpt><trkpt lat="43.9238967" lon="12.6736733"><ele>52.0</ele><time>2026-04-26T11:21:37.937Z</time></trkpt><trkpt lat="43.923825" lon="12.673725"><ele>52.0</ele><time>2026-04-26T11:21:38.937Z</time></trkpt><trkpt lat="43.9237433" lon="12.6737833"><ele>51.666666666666664</ele><time>2026-04-26T11:21:39.936Z</time></trkpt><trkpt lat="43.92368" lon="12.6738567"><ele>51.33333333333333</ele><time>2026-04-26T11:21:40.937Z</time></trkpt><trkpt lat="43.9236433" lon="12.6739583"><ele>51.0</ele><time>2026-04-26T11:21:41.937Z</time></trkpt><trkpt lat="43.923645" lon="12.674075"><ele>50.66666666666667</ele><time>2026-04-26T11:21:42.937Z</time></trkpt><trkpt lat="43.9236833" lon="12.6741833"><ele>50.333333333333336</ele><time>2026-04-26T11:21:43.937Z</time></trkpt><trkpt lat="43.923745" lon="12.67427"><ele>50.0</ele><time>2026-04-26T11:21:44.936Z</time></trkpt><trkpt lat="43.9238333" lon="12.6743267"><ele>50.0</ele><time>2026-04-26T11:21:45.937Z</time></trkpt><trkpt lat="43.9239467" lon="12.6743667"><ele>50.0</ele><time>2026-04-26T11:21:46.937Z</time></trkpt><trkpt lat="43.9240583" lon="12.6744533"><ele>50.0</ele><time>2026-04-26T11:21:47.937Z</time></trkpt><trkpt lat="43.9241567" lon="12.6745917"><ele>50.0</ele><time>2026-04-26T11:21:48.937Z</time></trkpt><trkpt lat="43.9242583" lon="12.6747517"><ele>49.66666666666667</ele><time>2026-04-26T11:21:49.937Z</time></trkpt><trkpt lat="43.92437" lon="12.6749283"><ele>49.33333333333333</ele><time>2026-04-26T11:21:50.937Z</time></trkpt><trkpt lat="43.92449" lon="12.67511"><ele>49.0</ele><time>2026-04-26T11:21:51.937Z</time></trkpt><trkpt lat="43.9246133" lon="12.6752883"><ele>49.0</ele><time>2026-04-26T11:21:52.936Z</time></trkpt><trkpt lat="43.92474" lon="12.6754717"><ele>49.0</ele><time>2026-04-26T11:21:53.937Z</time></trkpt><trkpt lat="43.9248683" lon="12.6756583"><ele>49.0</ele><time>2026-04-26T11:21:54.937Z</time></trkpt><trkpt lat="43.9249917" lon="12.6758533"><ele>48.666666666666664</ele><time>2026-04-26T11:21:55.937Z</time></trkpt><trkpt lat="43.925115" lon="12.6760533"><ele>48.33333333333333</ele><time>2026-04-26T11:21:56.936Z</time></trkpt><trkpt lat="43.925235" lon="12.67626"><ele>48.0</ele><time>2026-04-26T11:21:57.937Z</time></trkpt><trkpt lat="43.9253533" lon="12.6764683"><ele>48.0</ele><time>2026-04-26T11:21:58.937Z</time></trkpt><trkpt lat="43.9254767" lon="12.6766733"><ele>48.0</ele><time>2026-04-26T11:21:59.937Z</time></trkpt><trkpt lat="43.9255967" lon="12.676885"><ele>48.0</ele><time>2026-04-26T11:22:00.937Z</time></trkpt><trkpt lat="43.9257167" lon="12.6770883"><ele>48.0</ele><time>2026-04-26T11:22:01.937Z</time></trkpt><trkpt lat="43.925835" lon="12.677295"><ele>48.0</ele><time>2026-04-26T11:22:02.937Z</time></trkpt><trkpt lat="43.92595" lon="12.6775017"><ele>48.0</ele><time>2026-04-26T11:22:03.937Z</time></trkpt><trkpt lat="43.926065" lon="12.67771"><ele>48.0</ele><time>2026-04-26T11:22:04.936Z</time></trkpt><trkpt lat="43.9261733" lon="12.67792"><ele>48.0</ele><time>2026-04-26T11:22:05.936Z</time></trkpt><trkpt lat="43.9262817" lon="12.6781267"><ele>48.0</ele><time>2026-04-26T11:22:06.937Z</time></trkpt><trkpt lat="43.9263867" lon="12.6783333"><ele>48.0</ele><time>2026-04-26T11:22:07.937Z</time></trkpt><trkpt lat="43.9264933" lon="12.678535"><ele>48.0</ele><time>2026-04-26T11:22:08.937Z</time></trkpt><trkpt lat="43.9266" lon="12.6787367"><ele>48.0</ele><time>2026-04-26T11:22:09.937Z</time></trkpt><trkpt lat="43.9267033" lon="12.6789317"><ele>48.0</ele><time>2026-04-26T11:22:10.937Z</time></trkpt><trkpt lat="43.9267983" lon="12.6791167"><ele>48.0</ele><time>2026-04-26T11:22:11.937Z</time></trkpt><trkpt lat="43.9268917" lon="12.6793017"><ele>48.0</ele><time>2026-04-26T11:22:12.937Z</time></trkpt><trkpt lat="43.9269883" lon="12.6794917"><ele>48.0</ele><time>2026-04-26T11:22:13.937Z</time></trkpt><trkpt lat="43.9270883" lon="12.6796867"><ele>48.0</ele><time>2026-04-26T11:22:14.936Z</time></trkpt><trkpt lat="43.92719" lon="12.6798833"><ele>48.0</ele><time>2026-04-26T11:22:15.937Z</time></trkpt><trkpt lat="43.9272967" lon="12.6800817"><ele>48.33333333333333</ele><time>2026-04-26T11:22:16.937Z</time></trkpt><trkpt lat="43.9274" lon="12.6802867"><ele>48.666666666666664</ele><time>2026-04-26T11:22:17.937Z</time></trkpt><trkpt lat="43.9275067" lon="12.6804933"><ele>49.0</ele><time>2026-04-26T11:22:18.936Z</time></trkpt><trkpt lat="43.9276233" lon="12.68069"><ele>49.33333333333333</ele><time>2026-04-26T11:22:19.937Z</time></trkpt><trkpt lat="43.9277433" lon="12.6808867"><ele>49.66666666666667</ele><time>2026-04-26T11:22:20.937Z</time></trkpt><trkpt lat="43.9278717" lon="12.6810767"><ele>50.0</ele><time>2026-04-26T11:22:21.937Z</time></trkpt><trkpt lat="43.928" lon="12.68127"><ele>50.0</ele><time>2026-04-26T11:22:22.936Z</time></trkpt><trkpt lat="43.9281317" lon="12.6814683"><ele>50.0</ele><time>2026-04-26T11:22:23.937Z</time></trkpt><trkpt lat="43.9282633" lon="12.6816617"><ele>50.0</ele><time>2026-04-26T11:22:24.937Z</time></trkpt><trkpt lat="43.9283967" lon="12.68185"><ele>49.333333333333336</ele><time>2026-04-26T11:22:25.937Z</time></trkpt><trkpt lat="43.92853" lon="12.6820333"><ele>48.66666666666667</ele><time>2026-04-26T11:22:26.937Z</time></trkpt><trkpt lat="43.928665" lon="12.68221"><ele>48.0</ele><time>2026-04-26T11:22:27.937Z</time></trkpt><trkpt lat="43.9288017" lon="12.68238"><ele>48.0</ele><time>2026-04-26T11:22:28.937Z</time></trkpt><trkpt lat="43.9289383" lon="12.68255"><ele>48.0</ele><time>2026-04-26T11:22:29.936Z</time></trkpt><trkpt lat="43.929075" lon="12.6827233"><ele>48.0</ele><time>2026-04-26T11:22:30.937Z</time></trkpt><trkpt lat="43.9292083" lon="12.68289"><ele>48.0</ele><time>2026-04-26T11:22:31.936Z</time></trkpt><trkpt lat="43.929335" lon="12.6830483"><ele>48.0</ele><time>2026-04-26T11:22:32.936Z</time></trkpt><trkpt lat="43.9294583" lon="12.6832017"><ele>48.0</ele><time>2026-04-26T11:22:33.937Z</time></trkpt><trkpt lat="43.9295817" lon="12.683355"><ele>48.0</ele><time>2026-04-26T11:22:34.937Z</time></trkpt><trkpt lat="43.9297033" lon="12.68351"><ele>48.0</ele><time>2026-04-26T11:22:35.937Z</time></trkpt><trkpt lat="43.92983" lon="12.6836633"><ele>48.0</ele><time>2026-04-26T11:22:36.936Z</time></trkpt><trkpt lat="43.9299567" lon="12.6838183"><ele>47.666666666666664</ele><time>2026-04-26T11:22:37.936Z</time></trkpt><trkpt lat="43.9300817" lon="12.683975"><ele>47.33333333333333</ele><time>2026-04-26T11:22:38.936Z</time></trkpt><trkpt lat="43.9302083" lon="12.68413"><ele>47.0</ele><time>2026-04-26T11:22:39.937Z</time></trkpt><trkpt lat="43.930335" lon="12.68428"><ele>47.0</ele><time>2026-04-26T11:22:40.936Z</time></trkpt><trkpt lat="43.93046" lon="12.6844333"><ele>47.0</ele><time>2026-04-26T11:22:41.936Z</time></trkpt><trkpt lat="43.930585" lon="12.6845867"><ele>47.0</ele><time>2026-04-26T11:22:42.937Z</time></trkpt><trkpt lat="43.93071" lon="12.6847417"><ele>47.0</ele><time>2026-04-26T11:22:43.936Z</time></trkpt><trkpt lat="43.9308367" lon="12.6848983"><ele>47.0</ele><time>2026-04-26T11:22:44.937Z</time></trkpt><trkpt lat="43.9309633" lon="12.6850583"><ele>47.0</ele><time>2026-04-26T11:22:45.937Z</time></trkpt><trkpt lat="43.9310917" lon="12.685215"><ele>47.0</ele><time>2026-04-26T11:22:46.937Z</time></trkpt><trkpt lat="43.9312167" lon="12.68537"><ele>47.0</ele><time>2026-04-26T11:22:47.936Z</time></trkpt><trkpt lat="43.9313383" lon="12.68552"><ele>47.0</ele><time>2026-04-26T11:22:48.937Z</time></trkpt><trkpt lat="43.9314583" lon="12.6856667"><ele>47.0</ele><time>2026-04-26T11:22:49.937Z</time></trkpt><trkpt lat="43.9315717" lon="12.68582"><ele>47.0</ele><time>2026-04-26T11:22:50.937Z</time></trkpt><trkpt lat="43.9316883" lon="12.68596"><ele>47.0</ele><time>2026-04-26T11:22:51.937Z</time></trkpt><trkpt lat="43.9317883" lon="12.686105"><ele>46.5</ele><time>2026-04-26T11:22:52.936Z</time></trkpt><trkpt lat="43.93188" lon="12.686255"><ele>46.0</ele><time>2026-04-26T11:22:53.936Z</time></trkpt><trkpt lat="43.9319517" lon="12.6864283"><ele>45.5</ele><time>2026-04-26T11:22:54.936Z</time></trkpt><trkpt lat="43.93201" lon="12.68661"><ele>45.0</ele><time>2026-04-26T11:22:55.937Z</time></trkpt><trkpt lat="43.9320517" lon="12.686795"><ele>44.75</ele><time>2026-04-26T11:22:56.937Z</time></trkpt><trkpt lat="43.93208" lon="12.6869717"><ele>44.5</ele><time>2026-04-26T11:22:57.937Z</time></trkpt><trkpt lat="43.932085" lon="12.6871367"><ele>44.25</ele><time>2026-04-26T11:22:58.937Z</time></trkpt><trkpt lat="43.93206" lon="12.6872983"><ele>44.0</ele><time>2026-04-26T11:22:59.937Z</time></trkpt><trkpt lat="43.931995" lon="12.6874583"><ele>44.0</ele><time>2026-04-26T11:23:00.936Z</time></trkpt><trkpt lat="43.9319067" lon="12.6876183"><ele>44.0</ele><time>2026-04-26T11:23:01.937Z</time></trkpt><trkpt lat="43.931805" lon="12.6877833"><ele>44.0</ele><time>2026-04-26T11:23:02.936Z</time></trkpt><trkpt lat="43.9316983" lon="12.6879617"><ele>44.0</ele><time>2026-04-26T11:23:03.937Z</time></trkpt><trkpt lat="43.931585" lon="12.68815"><ele>44.0</ele><time>2026-04-26T11:23:04.937Z</time></trkpt><trkpt lat="43.93147" lon="12.6883333"><ele>44.0</ele><time>2026-04-26T11:23:05.937Z</time></trkpt><trkpt lat="43.9313483" lon="12.688515"><ele>43.666666666666664</ele><time>2026-04-26T11:23:06.937Z</time></trkpt><trkpt lat="43.9312167" lon="12.6886783"><ele>43.333333333333336</ele><time>2026-04-26T11:23:07.937Z</time></trkpt><trkpt lat="43.9310867" lon="12.6888383"><ele>43.0</ele><time>2026-04-26T11:23:08.937Z</time></trkpt><trkpt lat="43.9309533" lon="12.688995"><ele>43.0</ele><time>2026-04-26T11:23:09.937Z</time></trkpt><trkpt lat="43.9308183" lon="12.6891467"><ele>43.0</ele><time>2026-04-26T11:23:10.937Z</time></trkpt><trkpt lat="43.93068" lon="12.6892967"><ele>43.0</ele><time>2026-04-26T11:23:11.937Z</time></trkpt><trkpt lat="43.9305417" lon="12.6894467"><ele>43.0</ele><time>2026-04-26T11:23:12.937Z</time></trkpt><trkpt lat="43.9304017" lon="12.6895967"><ele>43.0</ele><time>2026-04-26T11:23:13.936Z</time></trkpt><trkpt lat="43.930265" lon="12.6897433"><ele>43.0</ele><time>2026-04-26T11:23:14.937Z</time></trkpt><trkpt lat="43.9301383" lon="12.68988"><ele>43.25</ele><time>2026-04-26T11:23:15.936Z</time></trkpt><trkpt lat="43.93002" lon="12.6900117"><ele>43.5</ele><time>2026-04-26T11:23:16.936Z</time></trkpt><trkpt lat="43.92991" lon="12.69013"><ele>43.75</ele><time>2026-04-26T11:23:17.938Z</time></trkpt><trkpt lat="43.9298083" lon="12.6902417"><ele>44.0</ele><time>2026-04-26T11:23:18.937Z</time></trkpt><trkpt lat="43.9297117" lon="12.6903333"><ele>44.0</ele><time>2026-04-26T11:23:19.938Z</time></trkpt><trkpt lat="43.92962" lon="12.69039"><ele>44.0</ele><time>2026-04-26T11:23:20.938Z</time></trkpt><trkpt lat="43.9295283" lon="12.690395"><ele>44.0</ele><time>2026-04-26T11:23:21.938Z</time></trkpt><trkpt lat="43.929445" lon="12.690345"><ele>44.0</ele><time>2026-04-26T11:23:22.938Z</time></trkpt><trkpt lat="43.9293717" lon="12.6902367"><ele>44.0</ele><time>2026-04-26T11:23:23.937Z</time></trkpt><trkpt lat="43.9292983" lon="12.6901"><ele>44.5</ele><time>2026-04-26T11:23:24.937Z</time></trkpt><trkpt lat="43.9292167" lon="12.6899433"><ele>45.0</ele><time>2026-04-26T11:23:25.938Z</time></trkpt><trkpt lat="43.929115" lon="12.6897883"><ele>45.5</ele><time>2026-04-26T11:23:26.938Z</time></trkpt><trkpt lat="43.9290067" lon="12.68963"><ele>46.0</ele><time>2026-04-26T11:23:27.938Z</time></trkpt><trkpt lat="43.9288833" lon="12.68949"><ele>46.0</ele><time>2026-04-26T11:23:28.938Z</time></trkpt><trkpt lat="43.9287517" lon="12.6893583"><ele>46.0</ele><time>2026-04-26T11:23:29.938Z</time></trkpt><trkpt lat="43.92862" lon="12.6892217"><ele>46.0</ele><time>2026-04-26T11:23:30.938Z</time></trkpt><trkpt lat="43.9284917" lon="12.6890817"><ele>46.333333333333336</ele><time>2026-04-26T11:23:31.938Z</time></trkpt><trkpt lat="43.9283683" lon="12.6889383"><ele>46.666666666666664</ele><time>2026-04-26T11:23:32.938Z</time></trkpt><trkpt lat="43.9282417" lon="12.6888"><ele>47.0</ele><time>2026-04-26T11:23:33.938Z</time></trkpt><trkpt lat="43.9281217" lon="12.6886667"><ele>47.25</ele><time>2026-04-26T11:23:34.938Z</time></trkpt><trkpt lat="43.9280117" lon="12.688545"><ele>47.5</ele><time>2026-04-26T11:23:35.938Z</time></trkpt><trkpt lat="43.9279133" lon="12.688435"><ele>47.75</ele><time>2026-04-26T11:23:36.938Z</time></trkpt><trkpt lat="43.927815" lon="12.688335"><ele>48.0</ele><time>2026-04-26T11:23:37.938Z</time></trkpt><trkpt lat="43.927715" lon="12.688225"><ele>48.0</ele><time>2026-04-26T11:23:38.937Z</time></trkpt><trkpt lat="43.9276167" lon="12.6881"><ele>48.0</ele><time>2026-04-26T11:23:39.938Z</time></trkpt><trkpt lat="43.927525" lon="12.6879567"><ele>48.0</ele><time>2026-04-26T11:23:40.938Z</time></trkpt><trkpt lat="43.9274417" lon="12.6877967"><ele>48.0</ele><time>2026-04-26T11:23:41.938Z</time></trkpt><trkpt lat="43.9273667" lon="12.6876233"><ele>48.25</ele><time>2026-04-26T11:23:42.937Z</time></trkpt><trkpt lat="43.927285" lon="12.6874517"><ele>48.5</ele><time>2026-04-26T11:23:43.937Z</time></trkpt><trkpt lat="43.9272017" lon="12.68728"><ele>48.75</ele><time>2026-04-26T11:23:44.937Z</time></trkpt><trkpt lat="43.927115" lon="12.6871067"><ele>49.0</ele><time>2026-04-26T11:23:45.936Z</time></trkpt><trkpt lat="43.9270333" lon="12.68693"><ele>49.0</ele><time>2026-04-26T11:23:46.937Z</time></trkpt><trkpt lat="43.92696" lon="12.6867517"><ele>49.0</ele><time>2026-04-26T11:23:47.937Z</time></trkpt><trkpt lat="43.926875" lon="12.686585"><ele>49.0</ele><time>2026-04-26T11:23:48.936Z</time></trkpt><trkpt lat="43.9267783" lon="12.686425"><ele>49.0</ele><time>2026-04-26T11:23:49.937Z</time></trkpt><trkpt lat="43.92667" lon="12.68627"><ele>49.0</ele><time>2026-04-26T11:23:50.937Z</time></trkpt><trkpt lat="43.9265533" lon="12.6861217"><ele>49.0</ele><time>2026-04-26T11:23:51.937Z</time></trkpt><trkpt lat="43.926435" lon="12.685985"><ele>49.0</ele><time>2026-04-26T11:23:52.936Z</time></trkpt><trkpt lat="43.92631" lon="12.6858517"><ele>49.33333333333333</ele><time>2026-04-26T11:23:53.937Z</time></trkpt><trkpt lat="43.92618" lon="12.685715"><ele>49.66666666666667</ele><time>2026-04-26T11:23:54.937Z</time></trkpt><trkpt lat="43.9260483" lon="12.6855767"><ele>50.0</ele><time>2026-04-26T11:23:55.936Z</time></trkpt><trkpt lat="43.925915" lon="12.6854417"><ele>50.0</ele><time>2026-04-26T11:23:56.937Z</time></trkpt><trkpt lat="43.925785" lon="12.6853067"><ele>50.0</ele><time>2026-04-26T11:23:57.937Z</time></trkpt><trkpt lat="43.9256567" lon="12.6851717"><ele>50.0</ele><time>2026-04-26T11:23:58.937Z</time></trkpt><trkpt lat="43.925525" lon="12.685035"><ele>50.0</ele><time>2026-04-26T11:23:59.936Z</time></trkpt><trkpt lat="43.9253933" lon="12.684895"><ele>50.0</ele><time>2026-04-26T11:24:00.937Z</time></trkpt><trkpt lat="43.925265" lon="12.6847517"><ele>50.0</ele><time>2026-04-26T11:24:01.937Z</time></trkpt><trkpt lat="43.92514" lon="12.684605"><ele>50.333333333333336</ele><time>2026-04-26T11:24:02.937Z</time></trkpt><trkpt lat="43.9250183" lon="12.6844517"><ele>50.66666666666667</ele><time>2026-04-26T11:24:03.937Z</time></trkpt><trkpt lat="43.9249067" lon="12.6842867"><ele>51.0</ele><time>2026-04-26T11:24:04.937Z</time></trkpt><trkpt lat="43.9248" lon="12.6841117"><ele>51.33333333333333</ele><time>2026-04-26T11:24:05.937Z</time></trkpt><trkpt lat="43.9247083" lon="12.6839183"><ele>51.666666666666664</ele><time>2026-04-26T11:24:06.937Z</time></trkpt><trkpt lat="43.9246183" lon="12.68372"><ele>52.0</ele><time>2026-04-26T11:24:07.936Z</time></trkpt><trkpt lat="43.92453" lon="12.68352"><ele>52.0</ele><time>2026-04-26T11:24:08.937Z</time></trkpt><trkpt lat="43.924445" lon="12.6833133"><ele>52.0</ele><time>2026-04-26T11:24:09.937Z</time></trkpt><trkpt lat="43.92436" lon="12.68311"><ele>52.0</ele><time>2026-04-26T11:24:10.936Z</time></trkpt><trkpt lat="43.9242717" lon="12.6829117"><ele>52.0</ele><time>2026-04-26T11:24:11.937Z</time></trkpt><trkpt lat="43.924185" lon="12.6827083"><ele>52.0</ele><time>2026-04-26T11:24:12.937Z</time></trkpt><trkpt lat="43.924095" lon="12.6825117"><ele>52.0</ele><time>2026-04-26T11:24:13.937Z</time></trkpt><trkpt lat="43.9240133" lon="12.6823217"><ele>52.0</ele><time>2026-04-26T11:24:14.936Z</time></trkpt><trkpt lat="43.92394" lon="12.6821367"><ele>52.0</ele><time>2026-04-26T11:24:15.936Z</time></trkpt><trkpt lat="43.9238667" lon="12.68196"><ele>52.0</ele><time>2026-04-26T11:24:16.937Z</time></trkpt><trkpt lat="43.9237983" lon="12.6817817"><ele>52.0</ele><time>2026-04-26T11:24:17.937Z</time></trkpt><trkpt lat="43.923725" lon="12.68161"><ele>51.75</ele><time>2026-04-26T11:24:18.936Z</time></trkpt><trkpt lat="43.9236567" lon="12.681445"><ele>51.5</ele><time>2026-04-26T11:24:19.937Z</time></trkpt><trkpt lat="43.923595" lon="12.6812883"><ele>51.25</ele><time>2026-04-26T11:24:20.937Z</time></trkpt><trkpt lat="43.923545" lon="12.68115"><ele>51.0</ele><time>2026-04-26T11:24:21.937Z</time></trkpt><trkpt lat="43.92351" lon="12.681035"><ele>51.333333333333336</ele><time>2026-04-26T11:24:22.937Z</time></trkpt><trkpt lat="43.9234783" lon="12.6809417"><ele>51.66666666666667</ele><time>2026-04-26T11:24:23.936Z</time></trkpt><trkpt lat="43.9234283" lon="12.6808817"><ele>52.0</ele><time>2026-04-26T11:24:24.937Z</time></trkpt><trkpt lat="43.9233617" lon="12.6808667"><ele>52.333333333333336</ele><time>2026-04-26T11:24:25.937Z</time></trkpt><trkpt lat="43.9232833" lon="12.6808983"><ele>52.66666666666667</ele><time>2026-04-26T11:24:26.937Z</time></trkpt><trkpt lat="43.9231917" lon="12.6809483"><ele>53.0</ele><time>2026-04-26T11:24:27.936Z</time></trkpt><trkpt lat="43.9230867" lon="12.6810183"><ele>53.0</ele><time>2026-04-26T11:24:28.937Z</time></trkpt><trkpt lat="43.922975" lon="12.6810917"><ele>53.0</ele><time>2026-04-26T11:24:29.937Z</time></trkpt><trkpt lat="43.922855" lon="12.681165"><ele>53.0</ele><time>2026-04-26T11:24:30.936Z</time></trkpt><trkpt lat="43.9227367" lon="12.681235"><ele>53.0</ele><time>2026-04-26T11:24:31.936Z</time></trkpt><trkpt lat="43.92262" lon="12.681305"><ele>52.75</ele><time>2026-04-26T11:24:32.936Z</time></trkpt><trkpt lat="43.92251" lon="12.68137"><ele>52.5</ele><time>2026-04-26T11:24:33.937Z</time></trkpt><trkpt lat="43.9224033" lon="12.6814383"><ele>52.25</ele><time>2026-04-26T11:24:34.937Z</time></trkpt><trkpt lat="43.9222967" lon="12.6815"><ele>52.0</ele><time>2026-04-26T11:24:35.937Z</time></trkpt><trkpt lat="43.9221933" lon="12.6815667"><ele>52.0</ele><time>2026-04-26T11:24:36.936Z</time></trkpt><trkpt lat="43.922085" lon="12.68164"><ele>52.0</ele><time>2026-04-26T11:24:37.937Z</time></trkpt><trkpt lat="43.92197" lon="12.6817067"><ele>52.0</ele><time>2026-04-26T11:24:38.936Z</time></trkpt><trkpt lat="43.9218467" lon="12.6817767"><ele>52.0</ele><time>2026-04-26T11:24:39.937Z</time></trkpt><trkpt lat="43.9217167" lon="12.6818517"><ele>52.0</ele><time>2026-04-26T11:24:40.936Z</time></trkpt><trkpt lat="43.921585" lon="12.6819267"><ele>52.0</ele><time>2026-04-26T11:24:41.936Z</time></trkpt><trkpt lat="43.9214617" lon="12.6819983"><ele>52.0</ele><time>2026-04-26T11:24:42.937Z</time></trkpt><trkpt lat="43.9213383" lon="12.6820733"><ele>52.0</ele><time>2026-04-26T11:24:43.937Z</time></trkpt><trkpt lat="43.921215" lon="12.6821533"><ele>51.75</ele><time>2026-04-26T11:24:44.937Z</time></trkpt><trkpt lat="43.92109" lon="12.6822383"><ele>51.5</ele><time>2026-04-26T11:24:45.936Z</time></trkpt><trkpt lat="43.9209617" lon="12.68232"><ele>51.25</ele><time>2026-04-26T11:24:46.937Z</time></trkpt><trkpt lat="43.9208367" lon="12.682395"><ele>51.0</ele><time>2026-04-26T11:24:47.937Z</time></trkpt><trkpt lat="43.920725" lon="12.6824583"><ele>51.0</ele><time>2026-04-26T11:24:48.937Z</time></trkpt><trkpt lat="43.9206283" lon="12.6825233"><ele>51.0</ele><time>2026-04-26T11:24:49.937Z</time></trkpt><trkpt lat="43.9205533" lon="12.682585"><ele>51.0</ele><time>2026-04-26T11:24:50.937Z</time></trkpt><trkpt lat="43.9204983" lon="12.6826433"><ele>51.0</ele><time>2026-04-26T11:24:51.936Z</time></trkpt><trkpt lat="43.920445" lon="12.6827933"><ele>51.0</ele><time>2026-04-26T11:24:53.937Z</time></trkpt><trkpt lat="43.9204633" lon="12.6829333"><ele>50.333333333333336</ele><time>2026-04-26T11:24:54.936Z</time></trkpt><trkpt lat="43.9204783" lon="12.6830883"><ele>49.666666666666664</ele><time>2026-04-26T11:24:55.937Z</time></trkpt><trkpt lat="43.9204767" lon="12.683225"><ele>49.0</ele><time>2026-04-26T11:24:56.936Z</time></trkpt><trkpt lat="43.9204617" lon="12.6833367"><ele>48.33333333333333</ele><time>2026-04-26T11:24:57.937Z</time></trkpt><trkpt lat="43.9204317" lon="12.68342"><ele>47.666666666666664</ele><time>2026-04-26T11:24:58.937Z</time></trkpt><trkpt lat="43.9203667" lon="12.6834917"><ele>47.0</ele><time>2026-04-26T11:24:59.937Z</time></trkpt><trkpt lat="43.9202583" lon="12.6835333"><ele>47.0</ele><time>2026-04-26T11:25:00.937Z</time></trkpt><trkpt lat="43.92014" lon="12.6835883"><ele>47.0</ele><time>2026-04-26T11:25:01.937Z</time></trkpt><trkpt lat="43.9200283" lon="12.6836733"><ele>47.0</ele><time>2026-04-26T11:25:02.936Z</time></trkpt><trkpt lat="43.91993" lon="12.683795"><ele>47.0</ele><time>2026-04-26T11:25:03.937Z</time></trkpt><trkpt lat="43.91986" lon="12.68397"><ele>47.666666666666664</ele><time>2026-04-26T11:25:04.936Z</time></trkpt><trkpt lat="43.9198167" lon="12.684175"><ele>48.33333333333333</ele><time>2026-04-26T11:25:05.937Z</time></trkpt><trkpt lat="43.9197633" lon="12.6843767"><ele>49.0</ele><time>2026-04-26T11:25:06.936Z</time></trkpt><trkpt lat="43.9197017" lon="12.6845617"><ele>50.0</ele><time>2026-04-26T11:25:07.937Z</time></trkpt><trkpt lat="43.9196433" lon="12.6847283"><ele>51.0</ele><time>2026-04-26T11:25:08.937Z</time></trkpt><trkpt lat="43.9195933" lon="12.6848767"><ele>52.0</ele><time>2026-04-26T11:25:09.937Z</time></trkpt><trkpt lat="43.9195533" lon="12.6850217"><ele>53.0</ele><time>2026-04-26T11:25:10.937Z</time></trkpt><trkpt lat="43.9195233" lon="12.68519"><ele>53.0</ele><time>2026-04-26T11:25:11.937Z</time></trkpt><trkpt lat="43.919485" lon="12.68537"><ele>53.0</ele><time>2026-04-26T11:25:12.937Z</time></trkpt><trkpt lat="43.9194467" lon="12.68556"><ele>53.0</ele><time>2026-04-26T11:25:13.936Z</time></trkpt><trkpt lat="43.919405" lon="12.68575"><ele>53.0</ele><time>2026-04-26T11:25:14.937Z</time></trkpt><trkpt lat="43.9193633" lon="12.6859433"><ele>54.0</ele><time>2026-04-26T11:25:15.936Z</time></trkpt><trkpt lat="43.919315" lon="12.68614"><ele>55.0</ele><time>2026-04-26T11:25:16.937Z</time></trkpt><trkpt lat="43.9192633" lon="12.6863367"><ele>56.0</ele><time>2026-04-26T11:25:17.936Z</time></trkpt><trkpt lat="43.9192317" lon="12.6865533"><ele>56.0</ele><time>2026-04-26T11:25:18.937Z</time></trkpt><trkpt lat="43.9192283" lon="12.6867833"><ele>56.0</ele><time>2026-04-26T11:25:19.937Z</time></trkpt><trkpt lat="43.9192517" lon="12.6870167"><ele>56.0</ele><time>2026-04-26T11:25:20.937Z</time></trkpt><trkpt lat="43.919295" lon="12.6872517"><ele>59.0</ele><time>2026-04-26T11:25:21.937Z</time></trkpt><trkpt lat="43.9193483" lon="12.6874817"><ele>62.0</ele><time>2026-04-26T11:25:22.937Z</time></trkpt><trkpt lat="43.9193967" lon="12.6877133"><ele>65.0</ele><time>2026-04-26T11:25:23.937Z</time></trkpt><trkpt lat="43.919415" lon="12.6879517"><ele>67.66666666666667</ele><time>2026-04-26T11:25:24.937Z</time></trkpt><trkpt lat="43.91944" lon="12.6881867"><ele>70.33333333333333</ele><time>2026-04-26T11:25:25.936Z</time></trkpt><trkpt lat="43.9194683" lon="12.68842"><ele>73.0</ele><time>2026-04-26T11:25:26.937Z</time></trkpt><trkpt lat="43.9195" lon="12.6886467"><ele>76.33333333333333</ele><time>2026-04-26T11:25:27.936Z</time></trkpt><trkpt lat="43.919535" lon="12.6888767"><ele>79.66666666666667</ele><time>2026-04-26T11:25:28.936Z</time></trkpt><trkpt lat="43.91957" lon="12.68911"><ele>83.0</ele><time>2026-04-26T11:25:29.937Z</time></trkpt><trkpt lat="43.9196033" lon="12.68934"><ele>85.66666666666667</ele><time>2026-04-26T11:25:30.937Z</time></trkpt><trkpt lat="43.919635" lon="12.6895633"><ele>88.33333333333333</ele><time>2026-04-26T11:25:31.937Z</time></trkpt><trkpt lat="43.919665" lon="12.6897733"><ele>91.0</ele><time>2026-04-26T11:25:32.937Z</time></trkpt><trkpt lat="43.919695" lon="12.6899867"><ele>91.0</ele><time>2026-04-26T11:25:33.936Z</time></trkpt><trkpt lat="43.9197267" lon="12.6902033"><ele>91.0</ele><time>2026-04-26T11:25:34.937Z</time></trkpt><trkpt lat="43.9197583" lon="12.6904283"><ele>91.0</ele><time>2026-04-26T11:25:35.937Z</time></trkpt><trkpt lat="43.9197933" lon="12.6906583"><ele>93.66666666666666</ele><time>2026-04-26T11:25:36.937Z</time></trkpt><trkpt lat="43.91983" lon="12.6908917"><ele>96.33333333333333</ele><time>2026-04-26T11:25:37.937Z</time></trkpt><trkpt lat="43.9198667" lon="12.6911267"><ele>99.0</ele><time>2026-04-26T11:25:38.936Z</time></trkpt><trkpt lat="43.919905" lon="12.6913617"><ele>101.33333333333334</ele><time>2026-04-26T11:25:39.937Z</time></trkpt><trkpt lat="43.9199467" lon="12.6915933"><ele>103.66666666666667</ele><time>2026-04-26T11:25:40.937Z</time></trkpt><trkpt lat="43.9199883" lon="12.6918217"><ele>106.0</ele><time>2026-04-26T11:25:41.937Z</time></trkpt><trkpt lat="43.92003" lon="12.6920467"><ele>110.33333333333334</ele><time>2026-04-26T11:25:42.936Z</time></trkpt><trkpt lat="43.92007" lon="12.692265"><ele>114.66666666666666</ele><time>2026-04-26T11:25:43.937Z</time></trkpt><trkpt lat="43.92011" lon="12.69248"><ele>119.0</ele><time>2026-04-26T11:25:44.937Z</time></trkpt><trkpt lat="43.9201467" lon="12.69268"><ele>120.5</ele><time>2026-04-26T11:25:45.936Z</time></trkpt><trkpt lat="43.9201767" lon="12.6928617"><ele>122.0</ele><time>2026-04-26T11:25:46.937Z</time></trkpt><trkpt lat="43.9202067" lon="12.6930333"><ele>123.5</ele><time>2026-04-26T11:25:47.937Z</time></trkpt><trkpt lat="43.9202333" lon="12.6931883"><ele>125.0</ele><time>2026-04-26T11:25:48.937Z</time></trkpt><trkpt lat="43.920255" lon="12.693315"><ele>124.99999999999999</ele><time>2026-04-26T11:25:49.937Z</time></trkpt><trkpt lat="43.9202767" lon="12.6934283"><ele>125.0</ele><time>2026-04-26T11:25:50.936Z</time></trkpt><trkpt lat="43.9202983" lon="12.6935433"><ele>125.0</ele><time>2026-04-26T11:25:51.937Z</time></trkpt><trkpt lat="43.920325" lon="12.6936583"><ele>125.0</ele><time>2026-04-26T11:25:52.937Z</time></trkpt><trkpt lat="43.9203517" lon="12.69377"><ele>124.99999999999999</ele><time>2026-04-26T11:25:53.937Z</time></trkpt><trkpt lat="43.92037" lon="12.6938683"><ele>125.0</ele><time>2026-04-26T11:25:54.937Z</time></trkpt><trkpt lat="43.9203867" lon="12.6939867"><ele>123.6</ele><time>2026-04-26T11:25:56.937Z</time></trkpt><trkpt lat="43.920465" lon="12.694075"><ele>122.2</ele><time>2026-04-26T11:25:58.936Z</time></trkpt><trkpt lat="43.9205383" lon="12.694095"><ele>120.80000000000001</ele><time>2026-04-26T11:25:59.937Z</time></trkpt><trkpt lat="43.9206283" lon="12.6941167"><ele>119.4</ele><time>2026-04-26T11:26:00.937Z</time></trkpt><trkpt lat="43.92073" lon="12.6941517"><ele>118.0</ele><time>2026-04-26T11:26:01.937Z</time></trkpt><trkpt lat="43.9208483" lon="12.6941917"><ele>117.5</ele><time>2026-04-26T11:26:02.936Z</time></trkpt><trkpt lat="43.9209733" lon="12.6942433"><ele>117.0</ele><time>2026-04-26T11:26:03.937Z</time></trkpt><trkpt lat="43.9211017" lon="12.6943133"><ele>116.5</ele><time>2026-04-26T11:26:04.937Z</time></trkpt><trkpt lat="43.9212417" lon="12.6943817"><ele>116.0</ele><time>2026-04-26T11:26:05.937Z</time></trkpt><trkpt lat="43.9213867" lon="12.6944567"><ele>114.33333333333333</ele><time>2026-04-26T11:26:06.937Z</time></trkpt><trkpt lat="43.921535" lon="12.6945383"><ele>112.66666666666666</ele><time>2026-04-26T11:26:07.937Z</time></trkpt><trkpt lat="43.9216883" lon="12.69462"><ele>111.0</ele><time>2026-04-26T11:26:08.937Z</time></trkpt><trkpt lat="43.92184" lon="12.6947067"><ele>111.0</ele><time>2026-04-26T11:26:09.937Z</time></trkpt><trkpt lat="43.92199" lon="12.6947967"><ele>111.0</ele><time>2026-04-26T11:26:10.937Z</time></trkpt><trkpt lat="43.9221367" lon="12.6948917"><ele>111.0</ele><time>2026-04-26T11:26:11.937Z</time></trkpt><trkpt lat="43.9222783" lon="12.6949967"><ele>111.0</ele><time>2026-04-26T11:26:12.937Z</time></trkpt><trkpt lat="43.9224017" lon="12.6951267"><ele>111.0</ele><time>2026-04-26T11:26:13.937Z</time></trkpt><trkpt lat="43.9225083" lon="12.695285"><ele>111.0</ele><time>2026-04-26T11:26:14.936Z</time></trkpt><trkpt lat="43.9226117" lon="12.69544"><ele>110.5</ele><time>2026-04-26T11:26:15.936Z</time></trkpt><trkpt lat="43.9227183" lon="12.6955783"><ele>110.0</ele><time>2026-04-26T11:26:16.937Z</time></trkpt><trkpt lat="43.922835" lon="12.6957017"><ele>109.5</ele><time>2026-04-26T11:26:17.937Z</time></trkpt><trkpt lat="43.92297" lon="12.6958"><ele>109.0</ele><time>2026-04-26T11:26:18.936Z</time></trkpt><trkpt lat="43.923115" lon="12.6958833"><ele>109.0</ele><time>2026-04-26T11:26:19.937Z</time></trkpt><trkpt lat="43.92326" lon="12.6959667"><ele>109.0</ele><time>2026-04-26T11:26:20.937Z</time></trkpt><trkpt lat="43.9234083" lon="12.6960617"><ele>109.0</ele><time>2026-04-26T11:26:21.937Z</time></trkpt><trkpt lat="43.9235567" lon="12.6961717"><ele>109.0</ele><time>2026-04-26T11:26:22.936Z</time></trkpt><trkpt lat="43.9237117" lon="12.69628"><ele>109.0</ele><time>2026-04-26T11:26:23.937Z</time></trkpt><trkpt lat="43.9238683" lon="12.69638"><ele>109.0</ele><time>2026-04-26T11:26:24.937Z</time></trkpt><trkpt lat="43.9240233" lon="12.69649"><ele>109.0</ele><time>2026-04-26T11:26:25.937Z</time></trkpt><trkpt lat="43.9241733" lon="12.6965983"><ele>109.0</ele><time>2026-04-26T11:26:26.937Z</time></trkpt><trkpt lat="43.9243133" lon="12.6967217"><ele>109.0</ele><time>2026-04-26T11:26:27.937Z</time></trkpt><trkpt lat="43.92444" lon="12.69686"><ele>109.0</ele><time>2026-04-26T11:26:28.937Z</time></trkpt><trkpt lat="43.9245483" lon="12.6970117"><ele>109.0</ele><time>2026-04-26T11:26:29.937Z</time></trkpt><trkpt lat="43.9246417" lon="12.6971817"><ele>109.0</ele><time>2026-04-26T11:26:30.936Z</time></trkpt><trkpt lat="43.924725" lon="12.69736"><ele>109.0</ele><time>2026-04-26T11:26:31.937Z</time></trkpt><trkpt lat="43.9247933" lon="12.6975567"><ele>109.0</ele><time>2026-04-26T11:26:32.937Z</time></trkpt><trkpt lat="43.92486" lon="12.69776"><ele>109.0</ele><time>2026-04-26T11:26:33.937Z</time></trkpt><trkpt lat="43.9249183" lon="12.6979667"><ele>109.33333333333334</ele><time>2026-04-26T11:26:34.937Z</time></trkpt><trkpt lat="43.9249767" lon="12.6981667"><ele>109.66666666666666</ele><time>2026-04-26T11:26:35.937Z</time></trkpt><trkpt lat="43.9250383" lon="12.6983667"><ele>110.0</ele><time>2026-04-26T11:26:36.937Z</time></trkpt><trkpt lat="43.925095" lon="12.6985667"><ele>107.33333333333333</ele><time>2026-04-26T11:26:37.937Z</time></trkpt><trkpt lat="43.925155" lon="12.6987717"><ele>104.66666666666666</ele><time>2026-04-26T11:26:38.937Z</time></trkpt><trkpt lat="43.9252167" lon="12.6989783"><ele>102.0</ele><time>2026-04-26T11:26:39.937Z</time></trkpt><trkpt lat="43.9252967" lon="12.69918"><ele>102.0</ele><time>2026-04-26T11:26:40.937Z</time></trkpt><trkpt lat="43.9253817" lon="12.6993683"><ele>102.0</ele><time>2026-04-26T11:26:41.937Z</time></trkpt><trkpt lat="43.9254733" lon="12.6995433"><ele>102.0</ele><time>2026-04-26T11:26:42.937Z</time></trkpt><trkpt lat="43.9255667" lon="12.6997167"><ele>104.0</ele><time>2026-04-26T11:26:43.937Z</time></trkpt><trkpt lat="43.925655" lon="12.6999"><ele>106.0</ele><time>2026-04-26T11:26:44.937Z</time></trkpt><trkpt lat="43.9257333" lon="12.7000967"><ele>108.0</ele><time>2026-04-26T11:26:45.937Z</time></trkpt><trkpt lat="43.9258017" lon="12.7003"><ele>110.0</ele><time>2026-04-26T11:26:46.937Z</time></trkpt><trkpt lat="43.9258717" lon="12.7005"><ele>112.0</ele><time>2026-04-26T11:26:47.937Z</time></trkpt><trkpt lat="43.9259317" lon="12.7007067"><ele>114.0</ele><time>2026-04-26T11:26:48.937Z</time></trkpt><trkpt lat="43.92599" lon="12.7009017"><ele>112.5</ele><time>2026-04-26T11:26:49.936Z</time></trkpt><trkpt lat="43.9260533" lon="12.7010817"><ele>111.0</ele><time>2026-04-26T11:26:50.937Z</time></trkpt><trkpt lat="43.926115" lon="12.7012483"><ele>109.5</ele><time>2026-04-26T11:26:51.937Z</time></trkpt><trkpt lat="43.9261917" lon="12.7014"><ele>108.0</ele><time>2026-04-26T11:26:52.937Z</time></trkpt><trkpt lat="43.9262917" lon="12.7015417"><ele>108.0</ele><time>2026-04-26T11:26:53.936Z</time></trkpt><trkpt lat="43.9264017" lon="12.7016817"><ele>108.0</ele><time>2026-04-26T11:26:54.937Z</time></trkpt><trkpt lat="43.9265183" lon="12.7018217"><ele>108.0</ele><time>2026-04-26T11:26:55.937Z</time></trkpt><trkpt lat="43.92664" lon="12.7019633"><ele>106.0</ele><time>2026-04-26T11:26:56.937Z</time></trkpt><trkpt lat="43.926765" lon="12.7021033"><ele>104.0</ele><time>2026-04-26T11:26:57.936Z</time></trkpt><trkpt lat="43.9268917" lon="12.7022367"><ele>102.0</ele><time>2026-04-26T11:26:58.937Z</time></trkpt><trkpt lat="43.9270183" lon="12.7023617"><ele>102.0</ele><time>2026-04-26T11:26:59.936Z</time></trkpt><trkpt lat="43.92714" lon="12.7024767"><ele>102.0</ele><time>2026-04-26T11:27:00.937Z</time></trkpt><trkpt lat="43.9272617" lon="12.7025917"><ele>102.0</ele><time>2026-04-26T11:27:01.937Z</time></trkpt><trkpt lat="43.9273817" lon="12.702715"><ele>102.0</ele><time>2026-04-26T11:27:02.936Z</time></trkpt><trkpt lat="43.9274967" lon="12.7028517"><ele>100.0</ele><time>2026-04-26T11:27:03.937Z</time></trkpt><trkpt lat="43.9276117" lon="12.703"><ele>98.0</ele><time>2026-04-26T11:27:04.937Z</time></trkpt><trkpt lat="43.9277233" lon="12.7031533"><ele>96.0</ele><time>2026-04-26T11:27:05.936Z</time></trkpt><trkpt lat="43.9278333" lon="12.70331"><ele>96.0</ele><time>2026-04-26T11:27:06.936Z</time></trkpt><trkpt lat="43.92795" lon="12.703465"><ele>96.0</ele><time>2026-04-26T11:27:07.937Z</time></trkpt><trkpt lat="43.92807" lon="12.7036167"><ele>96.0</ele><time>2026-04-26T11:27:08.937Z</time></trkpt><trkpt lat="43.9282017" lon="12.703765"><ele>96.33333333333334</ele><time>2026-04-26T11:27:09.937Z</time></trkpt><trkpt lat="43.9283433" lon="12.7039067"><ele>96.66666666666667</ele><time>2026-04-26T11:27:10.937Z</time></trkpt><trkpt lat="43.9284883" lon="12.7040367"><ele>97.0</ele><time>2026-04-26T11:27:11.937Z</time></trkpt><trkpt lat="43.9286317" lon="12.704165"><ele>97.33333333333334</ele><time>2026-04-26T11:27:12.937Z</time></trkpt><trkpt lat="43.9287767" lon="12.7042933"><ele>97.66666666666666</ele><time>2026-04-26T11:27:13.937Z</time></trkpt><trkpt lat="43.9289117" lon="12.7044233"><ele>98.0</ele><time>2026-04-26T11:27:14.937Z</time></trkpt><trkpt lat="43.9290317" lon="12.7045617"><ele>98.0</ele><time>2026-04-26T11:27:15.937Z</time></trkpt><trkpt lat="43.92913" lon="12.7047167"><ele>98.0</ele><time>2026-04-26T11:27:16.937Z</time></trkpt><trkpt lat="43.9292083" lon="12.7048933"><ele>98.0</ele><time>2026-04-26T11:27:17.936Z</time></trkpt><trkpt lat="43.9292783" lon="12.70509"><ele>98.33333333333333</ele><time>2026-04-26T11:27:18.936Z</time></trkpt><trkpt lat="43.9293483" lon="12.7052917"><ele>98.66666666666666</ele><time>2026-04-26T11:27:19.936Z</time></trkpt><trkpt lat="43.929425" lon="12.7054817"><ele>99.0</ele><time>2026-04-26T11:27:20.937Z</time></trkpt><trkpt lat="43.9295167" lon="12.70566"><ele>99.0</ele><time>2026-04-26T11:27:21.937Z</time></trkpt><trkpt lat="43.9296233" lon="12.7058283"><ele>99.0</ele><time>2026-04-26T11:27:22.937Z</time></trkpt><trkpt lat="43.9297367" lon="12.7059833"><ele>99.0</ele><time>2026-04-26T11:27:23.937Z</time></trkpt><trkpt lat="43.9298417" lon="12.7061367"><ele>98.75</ele><time>2026-04-26T11:27:24.937Z</time></trkpt><trkpt lat="43.9299483" lon="12.70628"><ele>98.5</ele><time>2026-04-26T11:27:25.937Z</time></trkpt><trkpt lat="43.9300517" lon="12.7064083"><ele>98.25</ele><time>2026-04-26T11:27:26.936Z</time></trkpt><trkpt lat="43.930155" lon="12.7065317"><ele>98.0</ele><time>2026-04-26T11:27:27.936Z</time></trkpt><trkpt lat="43.9302583" lon="12.7066517"><ele>97.5</ele><time>2026-04-26T11:27:28.936Z</time></trkpt><trkpt lat="43.9303783" lon="12.7067483"><ele>97.0</ele><time>2026-04-26T11:27:29.936Z</time></trkpt><trkpt lat="43.93051" lon="12.7068183"><ele>96.5</ele><time>2026-04-26T11:27:30.937Z</time></trkpt><trkpt lat="43.930645" lon="12.7068817"><ele>96.0</ele><time>2026-04-26T11:27:31.937Z</time></trkpt><trkpt lat="43.93077" lon="12.70697"><ele>96.0</ele><time>2026-04-26T11:27:32.937Z</time></trkpt><trkpt lat="43.93088" lon="12.707095"><ele>96.0</ele><time>2026-04-26T11:27:33.936Z</time></trkpt><trkpt lat="43.9309667" lon="12.7072483"><ele>96.0</ele><time>2026-04-26T11:27:34.936Z</time></trkpt><trkpt lat="43.9310533" lon="12.7073983"><ele>96.0</ele><time>2026-04-26T11:27:35.937Z</time></trkpt><trkpt lat="43.9311617" lon="12.707515"><ele>93.0</ele><time>2026-04-26T11:27:36.937Z</time></trkpt><trkpt lat="43.9312933" lon="12.7076067"><ele>90.0</ele><time>2026-04-26T11:27:37.937Z</time></trkpt><trkpt lat="43.931435" lon="12.7076867"><ele>87.0</ele><time>2026-04-26T11:27:38.937Z</time></trkpt><trkpt lat="43.931575" lon="12.7077683"><ele>87.0</ele><time>2026-04-26T11:27:39.937Z</time></trkpt><trkpt lat="43.9317017" lon="12.707875"><ele>87.0</ele><time>2026-04-26T11:27:40.936Z</time></trkpt><trkpt lat="43.931825" lon="12.708005"><ele>87.0</ele><time>2026-04-26T11:27:41.936Z</time></trkpt><trkpt lat="43.9319417" lon="12.7081533"><ele>84.33333333333333</ele><time>2026-04-26T11:27:42.937Z</time></trkpt><trkpt lat="43.9320667" lon="12.708295"><ele>81.66666666666666</ele><time>2026-04-26T11:27:43.937Z</time></trkpt><trkpt lat="43.9321983" lon="12.7084317"><ele>79.0</ele><time>2026-04-26T11:27:44.937Z</time></trkpt><trkpt lat="43.932335" lon="12.708565"><ele>78.33333333333333</ele><time>2026-04-26T11:27:45.936Z</time></trkpt><trkpt lat="43.9324667" lon="12.7087"><ele>77.66666666666667</ele><time>2026-04-26T11:27:46.937Z</time></trkpt><trkpt lat="43.9326" lon="12.70883"><ele>77.0</ele><time>2026-04-26T11:27:47.936Z</time></trkpt><trkpt lat="43.9327283" lon="12.7089583"><ele>75.0</ele><time>2026-04-26T11:27:48.937Z</time></trkpt><trkpt lat="43.9328483" lon="12.70909"><ele>73.0</ele><time>2026-04-26T11:27:49.936Z</time></trkpt><trkpt lat="43.9329683" lon="12.7092117"><ele>71.0</ele><time>2026-04-26T11:27:50.937Z</time></trkpt><trkpt lat="43.9330833" lon="12.7093317"><ele>69.0</ele><time>2026-04-26T11:27:51.936Z</time></trkpt><trkpt lat="43.933195" lon="12.7094633"><ele>69.0</ele><time>2026-04-26T11:27:52.936Z</time></trkpt><trkpt lat="43.933295" lon="12.709625"><ele>69.0</ele><time>2026-04-26T11:27:53.937Z</time></trkpt><trkpt lat="43.9333883" lon="12.7098017"><ele>69.0</ele><time>2026-04-26T11:27:54.937Z</time></trkpt><trkpt lat="43.93348" lon="12.70997"><ele>66.5</ele><time>2026-04-26T11:27:55.937Z</time></trkpt><trkpt lat="43.933565" lon="12.7101433"><ele>64.0</ele><time>2026-04-26T11:27:56.937Z</time></trkpt><trkpt lat="43.933655" lon="12.7103"><ele>61.5</ele><time>2026-04-26T11:27:57.936Z</time></trkpt><trkpt lat="43.9337333" lon="12.71046"><ele>59.0</ele><time>2026-04-26T11:27:58.937Z</time></trkpt><trkpt lat="43.9337983" lon="12.7106283"><ele>59.0</ele><time>2026-04-26T11:27:59.937Z</time></trkpt><trkpt lat="43.9338417" lon="12.7108083"><ele>59.0</ele><time>2026-04-26T11:28:00.937Z</time></trkpt><trkpt lat="43.9338783" lon="12.7109933"><ele>59.0</ele><time>2026-04-26T11:28:01.937Z</time></trkpt><trkpt lat="43.93391" lon="12.71117"><ele>59.0</ele><time>2026-04-26T11:28:02.937Z</time></trkpt><trkpt lat="43.9339383" lon="12.7113433"><ele>58.5</ele><time>2026-04-26T11:28:03.937Z</time></trkpt><trkpt lat="43.93396" lon="12.711515"><ele>58.0</ele><time>2026-04-26T11:28:04.937Z</time></trkpt><trkpt lat="43.93395" lon="12.7116917"><ele>57.5</ele><time>2026-04-26T11:28:05.937Z</time></trkpt><trkpt lat="43.9339167" lon="12.711875"><ele>57.0</ele><time>2026-04-26T11:28:06.936Z</time></trkpt><trkpt lat="43.933865" lon="12.712065"><ele>55.33333333333333</ele><time>2026-04-26T11:28:07.937Z</time></trkpt><trkpt lat="43.9338083" lon="12.7122583"><ele>53.666666666666664</ele><time>2026-04-26T11:28:08.937Z</time></trkpt><trkpt lat="43.9337583" lon="12.71246"><ele>52.0</ele><time>2026-04-26T11:28:09.937Z</time></trkpt><trkpt lat="43.9337233" lon="12.712665"><ele>50.666666666666664</ele><time>2026-04-26T11:28:10.937Z</time></trkpt><trkpt lat="43.9337117" lon="12.7128767"><ele>49.33333333333333</ele><time>2026-04-26T11:28:11.937Z</time></trkpt><trkpt lat="43.9337183" lon="12.7130933"><ele>48.0</ele><time>2026-04-26T11:28:12.937Z</time></trkpt><trkpt lat="43.93374" lon="12.7133167"><ele>48.0</ele><time>2026-04-26T11:28:13.937Z</time></trkpt><trkpt lat="43.93378" lon="12.7135417"><ele>48.0</ele><time>2026-04-26T11:28:14.937Z</time></trkpt><trkpt lat="43.933835" lon="12.7137617"><ele>48.0</ele><time>2026-04-26T11:28:15.937Z</time></trkpt><trkpt lat="43.9338917" lon="12.71397"><ele>49.0</ele><time>2026-04-26T11:28:16.937Z</time></trkpt><trkpt lat="43.9339583" lon="12.7141683"><ele>50.0</ele><time>2026-04-26T11:28:17.937Z</time></trkpt><trkpt lat="43.9340167" lon="12.71436"><ele>51.0</ele><time>2026-04-26T11:28:18.937Z</time></trkpt><trkpt lat="43.9340683" lon="12.7145483"><ele>51.25</ele><time>2026-04-26T11:28:19.937Z</time></trkpt><trkpt lat="43.934095" lon="12.7147333"><ele>51.5</ele><time>2026-04-26T11:28:20.937Z</time></trkpt><trkpt lat="43.9340933" lon="12.7149117"><ele>51.75</ele><time>2026-04-26T11:28:21.937Z</time></trkpt><trkpt lat="43.93406" lon="12.715085"><ele>52.0</ele><time>2026-04-26T11:28:22.936Z</time></trkpt><trkpt lat="43.934005" lon="12.715255"><ele>51.0</ele><time>2026-04-26T11:28:23.937Z</time></trkpt><trkpt lat="43.9339567" lon="12.71542"><ele>50.0</ele><time>2026-04-26T11:28:24.937Z</time></trkpt><trkpt lat="43.933925" lon="12.7155883"><ele>49.0</ele><time>2026-04-26T11:28:25.937Z</time></trkpt><trkpt lat="43.9339217" lon="12.7157467"><ele>48.0</ele><time>2026-04-26T11:28:26.937Z</time></trkpt><trkpt lat="43.9339583" lon="12.7158783"><ele>48.0</ele><time>2026-04-26T11:28:27.936Z</time></trkpt><trkpt lat="43.9340217" lon="12.7159617"><ele>48.0</ele><time>2026-04-26T11:28:28.937Z</time></trkpt><trkpt lat="43.9341033" lon="12.7160133"><ele>48.0</ele><time>2026-04-26T11:28:29.937Z</time></trkpt><trkpt lat="43.9341917" lon="12.7160217"><ele>48.0</ele><time>2026-04-26T11:28:30.937Z</time></trkpt><trkpt lat="43.9342817" lon="12.7159283"><ele>48.0</ele><time>2026-04-26T11:28:31.936Z</time></trkpt><trkpt lat="43.93435" lon="12.7158067"><ele>45.5</ele><time>2026-04-26T11:28:32.936Z</time></trkpt><trkpt lat="43.9344" lon="12.7156667"><ele>43.0</ele><time>2026-04-26T11:28:33.937Z</time></trkpt><trkpt lat="43.9344333" lon="12.7155067"><ele>40.5</ele><time>2026-04-26T11:28:34.936Z</time></trkpt><trkpt lat="43.93446" lon="12.715325"><ele>38.0</ele><time>2026-04-26T11:28:35.936Z</time></trkpt><trkpt lat="43.9344933" lon="12.71513"><ele>38.0</ele><time>2026-04-26T11:28:36.937Z</time></trkpt><trkpt lat="43.9345283" lon="12.7149333"><ele>38.0</ele><time>2026-04-26T11:28:37.937Z</time></trkpt><trkpt lat="43.9345567" lon="12.71474"><ele>38.0</ele><time>2026-04-26T11:28:38.937Z</time></trkpt><trkpt lat="43.9345817" lon="12.71457"><ele>38.0</ele><time>2026-04-26T11:28:39.937Z</time></trkpt><trkpt lat="43.93458" lon="12.7144233"><ele>38.0</ele><time>2026-04-26T11:28:40.937Z</time></trkpt><trkpt lat="43.9345983" lon="12.7143233"><ele>38.0</ele><time>2026-04-26T11:28:41.937Z</time></trkpt><trkpt lat="43.9347167" lon="12.7143767"><ele>38.0</ele><time>2026-04-26T11:28:43.937Z</time></trkpt><trkpt lat="43.934785" lon="12.7144883"><ele>38.0</ele><time>2026-04-26T11:28:44.936Z</time></trkpt><trkpt lat="43.9348483" lon="12.7146267"><ele>38.0</ele><time>2026-04-26T11:28:45.937Z</time></trkpt><trkpt lat="43.9349117" lon="12.7147533"><ele>38.0</ele><time>2026-04-26T11:28:46.936Z</time></trkpt><trkpt lat="43.9349933" lon="12.71486"><ele>38.0</ele><time>2026-04-26T11:28:47.937Z</time></trkpt><trkpt lat="43.9350883" lon="12.7149183"><ele>38.0</ele><time>2026-04-26T11:28:48.937Z</time></trkpt><trkpt lat="43.9351967" lon="12.7149383"><ele>38.0</ele><time>2026-04-26T11:28:49.937Z</time></trkpt><trkpt lat="43.935305" lon="12.7149417"><ele>38.0</ele><time>2026-04-26T11:28:50.937Z</time></trkpt><trkpt lat="43.9354133" lon="12.7149533"><ele>36.5</ele><time>2026-04-26T11:28:51.937Z</time></trkpt><trkpt lat="43.9355283" lon="12.714965"><ele>35.0</ele><time>2026-04-26T11:28:52.937Z</time></trkpt><trkpt lat="43.9356433" lon="12.71497"><ele>33.5</ele><time>2026-04-26T11:28:53.936Z</time></trkpt><trkpt lat="43.9357617" lon="12.7149767"><ele>32.0</ele><time>2026-04-26T11:28:54.936Z</time></trkpt><trkpt lat="43.9358817" lon="12.7149883"><ele>31.6</ele><time>2026-04-26T11:28:55.937Z</time></trkpt><trkpt lat="43.9359983" lon="12.7149933"><ele>31.200000000000003</ele><time>2026-04-26T11:28:56.936Z</time></trkpt><trkpt lat="43.936105" lon="12.714995"><ele>30.8</ele><time>2026-04-26T11:28:57.937Z</time></trkpt><trkpt lat="43.9361933" lon="12.71501"><ele>30.4</ele><time>2026-04-26T11:28:58.937Z</time></trkpt><trkpt lat="43.9362617" lon="12.715035"><ele>30.0</ele><time>2026-04-26T11:28:59.937Z</time></trkpt><trkpt lat="43.9363417" lon="12.7150683"><ele>30.0</ele><time>2026-04-26T11:29:01.937Z</time></trkpt><trkpt lat="43.9364417" lon="12.7150917"><ele>30.0</ele><time>2026-04-26T11:29:03.937Z</time></trkpt><trkpt lat="43.9365033" lon="12.7151267"><ele>30.0</ele><time>2026-04-26T11:29:04.937Z</time></trkpt><trkpt lat="43.93656" lon="12.7151883"><ele>30.0</ele><time>2026-04-26T11:29:05.937Z</time></trkpt><trkpt lat="43.9366017" lon="12.7152617"><ele>30.0</ele><time>2026-04-26T11:29:06.937Z</time></trkpt><trkpt lat="43.9366433" lon="12.715345"><ele>30.0</ele><time>2026-04-26T11:29:07.937Z</time></trkpt><trkpt lat="43.9366783" lon="12.7154383"><ele>30.0</ele><time>2026-04-26T11:29:08.937Z</time></trkpt><trkpt lat="43.9367067" lon="12.71553"><ele>30.0</ele><time>2026-04-26T11:29:09.937Z</time></trkpt><trkpt lat="43.93673" lon="12.7156633"><ele>30.0</ele><time>2026-04-26T11:29:11.937Z</time></trkpt><trkpt lat="43.9366767" lon="12.7157367"><ele>30.0</ele><time>2026-04-26T11:29:14.937Z</time></trkpt><trkpt lat="43.93664" lon="12.715815"><ele>30.0</ele><time>2026-04-26T11:29:17.937Z</time></trkpt><trkpt lat="43.93657" lon="12.7158917"><ele>30.0</ele><time>2026-04-26T11:29:19.937Z</time></trkpt><trkpt lat="43.936495" lon="12.7159867"><ele>30.0</ele><time>2026-04-26T11:29:21.937Z</time></trkpt><trkpt lat="43.9364183" lon="12.7160783"><ele>30.0</ele><time>2026-04-26T11:29:23.937Z</time></trkpt><trkpt lat="43.9363533" lon="12.7161633"><ele>30.0</ele><time>2026-04-26T11:29:25.936Z</time></trkpt><trkpt lat="43.9363017" lon="12.716215"><ele>30.0</ele><time>2026-04-26T11:29:27.937Z</time></trkpt><trkpt lat="43.9363617" lon="12.7161583"><ele>30.0</ele><time>2026-04-26T11:29:56.936Z</time></trkpt><trkpt lat="43.9364333" lon="12.7160567"><ele>30.0</ele><time>2026-04-26T11:29:59.937Z</time></trkpt><trkpt lat="43.93653" lon="12.7159483"><ele>30.0</ele><time>2026-04-26T11:30:01.937Z</time></trkpt><trkpt lat="43.9365833" lon="12.715885"><ele>30.0</ele><time>2026-04-26T11:30:02.937Z</time></trkpt><trkpt lat="43.9366333" lon="12.7158183"><ele>30.0</ele><time>2026-04-26T11:30:03.937Z</time></trkpt><trkpt lat="43.93668" lon="12.7157517"><ele>30.0</ele><time>2026-04-26T11:30:04.936Z</time></trkpt><trkpt lat="43.9367183" lon="12.7156817"><ele>30.0</ele><time>2026-04-26T11:30:05.937Z</time></trkpt><trkpt lat="43.9367467" lon="12.7155433"><ele>30.0</ele><time>2026-04-26T11:30:07.937Z</time></trkpt><trkpt lat="43.9366983" lon="12.7154683"><ele>30.0</ele><time>2026-04-26T11:30:08.937Z</time></trkpt><trkpt lat="43.9366583" lon="12.715385"><ele>30.0</ele><time>2026-04-26T11:30:09.937Z</time></trkpt><trkpt lat="43.9366217" lon="12.7152917"><ele>30.0</ele><time>2026-04-26T11:30:10.937Z</time></trkpt><trkpt lat="43.9365833" lon="12.715195"><ele>30.0</ele><time>2026-04-26T11:30:11.937Z</time></trkpt><trkpt lat="43.936555" lon="12.7151017"><ele>30.0</ele><time>2026-04-26T11:30:12.937Z</time></trkpt><trkpt lat="43.93656" lon="12.7149683"><ele>30.0</ele><time>2026-04-26T11:30:14.937Z</time></trkpt><trkpt lat="43.9365967" lon="12.7148717"><ele>30.0</ele><time>2026-04-26T11:30:16.937Z</time></trkpt><trkpt lat="43.9366467" lon="12.7148133"><ele>30.0</ele><time>2026-04-26T11:30:17.937Z</time></trkpt><trkpt lat="43.9367067" lon="12.7147517"><ele>30.0</ele><time>2026-04-26T11:30:18.937Z</time></trkpt><trkpt lat="43.936765" lon="12.7146767"><ele>30.0</ele><time>2026-04-26T11:30:19.936Z</time></trkpt><trkpt lat="43.9368283" lon="12.714605"><ele>30.0</ele><time>2026-04-26T11:30:20.937Z</time></trkpt><trkpt lat="43.9368883" lon="12.7145333"><ele>30.0</ele><time>2026-04-26T11:30:21.937Z</time></trkpt><trkpt lat="43.9369467" lon="12.7144517"><ele>30.0</ele><time>2026-04-26T11:30:22.937Z</time></trkpt><trkpt lat="43.9370083" lon="12.7143733"><ele>30.0</ele><time>2026-04-26T11:30:23.937Z</time></trkpt><trkpt lat="43.9370717" lon="12.7142933"><ele>30.0</ele><time>2026-04-26T11:30:24.937Z</time></trkpt><trkpt lat="43.9371367" lon="12.714215"><ele>30.0</ele><time>2026-04-26T11:30:25.937Z</time></trkpt><trkpt lat="43.9372017" lon="12.71413"><ele>30.0</ele><time>2026-04-26T11:30:26.937Z</time></trkpt><trkpt lat="43.9372717" lon="12.71404"><ele>30.0</ele><time>2026-04-26T11:30:27.936Z</time></trkpt><trkpt lat="43.9373467" lon="12.7139467"><ele>30.0</ele><time>2026-04-26T11:30:28.937Z</time></trkpt><trkpt lat="43.93743" lon="12.71385"><ele>30.0</ele><time>2026-04-26T11:30:29.937Z</time></trkpt><trkpt lat="43.93751" lon="12.7137483"><ele>30.0</ele><time>2026-04-26T11:30:30.937Z</time></trkpt><trkpt lat="43.93759" lon="12.71365"><ele>30.0</ele><time>2026-04-26T11:30:31.936Z</time></trkpt><trkpt lat="43.9376717" lon="12.7135517"><ele>30.0</ele><time>2026-04-26T11:30:32.937Z</time></trkpt><trkpt lat="43.9377517" lon="12.71346"><ele>30.166666666666668</ele><time>2026-04-26T11:30:33.937Z</time></trkpt><trkpt lat="43.93783" lon="12.7133767"><ele>30.333333333333336</ele><time>2026-04-26T11:30:34.937Z</time></trkpt><trkpt lat="43.9379117" lon="12.71333"><ele>30.5</ele><time>2026-04-26T11:30:35.936Z</time></trkpt><trkpt lat="43.9379867" lon="12.7133267"><ele>30.666666666666668</ele><time>2026-04-26T11:30:36.937Z</time></trkpt><trkpt lat="43.93806" lon="12.7133717"><ele>30.833333333333336</ele><time>2026-04-26T11:30:37.937Z</time></trkpt><trkpt lat="43.9381283" lon="12.7134283"><ele>31.0</ele><time>2026-04-26T11:30:38.937Z</time></trkpt><trkpt lat="43.9382033" lon="12.71349"><ele>30.666666666666668</ele><time>2026-04-26T11:30:39.937Z</time></trkpt><trkpt lat="43.9382667" lon="12.7135733"><ele>30.333333333333336</ele><time>2026-04-26T11:30:40.937Z</time></trkpt><trkpt lat="43.938325" lon="12.7136667"><ele>30.0</ele><time>2026-04-26T11:30:41.937Z</time></trkpt><trkpt lat="43.9383917" lon="12.71375"><ele>29.666666666666664</ele><time>2026-04-26T11:30:42.937Z</time></trkpt><trkpt lat="43.9384617" lon="12.713825"><ele>29.333333333333332</ele><time>2026-04-26T11:30:43.937Z</time></trkpt><trkpt lat="43.9385267" lon="12.713905"><ele>29.0</ele><time>2026-04-26T11:30:44.937Z</time></trkpt><trkpt lat="43.9385917" lon="12.713985"><ele>29.0</ele><time>2026-04-26T11:30:45.937Z</time></trkpt><trkpt lat="43.9386583" lon="12.7140683"><ele>29.0</ele><time>2026-04-26T11:30:46.936Z</time></trkpt><trkpt lat="43.93873" lon="12.7141633"><ele>29.0</ele><time>2026-04-26T11:30:47.937Z</time></trkpt><trkpt lat="43.9388083" lon="12.7142583"><ele>29.0</ele><time>2026-04-26T11:30:48.937Z</time></trkpt><trkpt lat="43.9388817" lon="12.7143533"><ele>29.0</ele><time>2026-04-26T11:30:49.937Z</time></trkpt><trkpt lat="43.9389533" lon="12.714455"><ele>29.0</ele><time>2026-04-26T11:30:50.937Z</time></trkpt><trkpt lat="43.93903" lon="12.7145633"><ele>29.0</ele><time>2026-04-26T11:30:51.937Z</time></trkpt><trkpt lat="43.939115" lon="12.7146733"><ele>29.0</ele><time>2026-04-26T11:30:52.937Z</time></trkpt><trkpt lat="43.9392017" lon="12.7147867"><ele>29.0</ele><time>2026-04-26T11:30:53.937Z</time></trkpt><trkpt lat="43.9392867" lon="12.7149017"><ele>28.75</ele><time>2026-04-26T11:30:54.937Z</time></trkpt><trkpt lat="43.9393717" lon="12.7150167"><ele>28.5</ele><time>2026-04-26T11:30:55.937Z</time></trkpt><trkpt lat="43.9394583" lon="12.7151383"><ele>28.25</ele><time>2026-04-26T11:30:56.937Z</time></trkpt><trkpt lat="43.93955" lon="12.71526"><ele>28.0</ele><time>2026-04-26T11:30:57.937Z</time></trkpt><trkpt lat="43.9396417" lon="12.7153817"><ele>27.75</ele><time>2026-04-26T11:30:58.937Z</time></trkpt><trkpt lat="43.9397333" lon="12.7155"><ele>27.5</ele><time>2026-04-26T11:30:59.937Z</time></trkpt><trkpt lat="43.9398267" lon="12.7156183"><ele>27.25</ele><time>2026-04-26T11:31:00.937Z</time></trkpt><trkpt lat="43.9399233" lon="12.7157383"><ele>27.0</ele><time>2026-04-26T11:31:01.937Z</time></trkpt><trkpt lat="43.9400167" lon="12.71586"><ele>27.0</ele><time>2026-04-26T11:31:02.937Z</time></trkpt><trkpt lat="43.9401083" lon="12.7159783"><ele>27.0</ele><time>2026-04-26T11:31:03.937Z</time></trkpt><trkpt lat="43.9402017" lon="12.71609"><ele>27.0</ele><time>2026-04-26T11:31:04.937Z</time></trkpt><trkpt lat="43.94029" lon="12.7162017"><ele>27.0</ele><time>2026-04-26T11:31:05.936Z</time></trkpt><trkpt lat="43.9403833" lon="12.7163133"><ele>27.25</ele><time>2026-04-26T11:31:06.937Z</time></trkpt><trkpt lat="43.9404717" lon="12.7164317"><ele>27.5</ele><time>2026-04-26T11:31:07.937Z</time></trkpt><trkpt lat="43.9405717" lon="12.7165417"><ele>27.75</ele><time>2026-04-26T11:31:08.937Z</time></trkpt><trkpt lat="43.9406633" lon="12.71666"><ele>28.0</ele><time>2026-04-26T11:31:09.937Z</time></trkpt><trkpt lat="43.9407583" lon="12.7167767"><ele>28.0</ele><time>2026-04-26T11:31:10.937Z</time></trkpt><trkpt lat="43.9408533" lon="12.7168833"><ele>27.999999999999996</ele><time>2026-04-26T11:31:11.937Z</time></trkpt><trkpt lat="43.9409333" lon="12.7169883"><ele>27.999999999999996</ele><time>2026-04-26T11:31:12.937Z</time></trkpt><trkpt lat="43.9410033" lon="12.7171"><ele>28.0</ele><time>2026-04-26T11:31:13.937Z</time></trkpt><trkpt lat="43.941065" lon="12.7172217"><ele>28.0</ele><time>2026-04-26T11:31:14.937Z</time></trkpt><trkpt lat="43.9411033" lon="12.7173617"><ele>28.0</ele><time>2026-04-26T11:31:15.937Z</time></trkpt><trkpt lat="43.941125" lon="12.7175117"><ele>27.999999999999996</ele><time>2026-04-26T11:31:16.937Z</time></trkpt><trkpt lat="43.94115" lon="12.71766"><ele>27.999999999999996</ele><time>2026-04-26T11:31:17.937Z</time></trkpt><trkpt lat="43.9411867" lon="12.7178067"><ele>28.0</ele><time>2026-04-26T11:31:18.936Z</time></trkpt><trkpt lat="43.9412217" lon="12.7179583"><ele>28.0</ele><time>2026-04-26T11:31:19.937Z</time></trkpt><trkpt lat="43.941265" lon="12.7181117"><ele>27.25</ele><time>2026-04-26T11:31:20.937Z</time></trkpt><trkpt lat="43.9413067" lon="12.7182683"><ele>26.5</ele><time>2026-04-26T11:31:21.937Z</time></trkpt><trkpt lat="43.9413533" lon="12.7184233"><ele>25.75</ele><time>2026-04-26T11:31:22.936Z</time></trkpt><trkpt lat="43.941395" lon="12.7185817"><ele>25.0</ele><time>2026-04-26T11:31:23.937Z</time></trkpt><trkpt lat="43.9414433" lon="12.7187417"><ele>25.0</ele><time>2026-04-26T11:31:24.937Z</time></trkpt><trkpt lat="43.9415033" lon="12.7188967"><ele>25.0</ele><time>2026-04-26T11:31:25.937Z</time></trkpt><trkpt lat="43.9415733" lon="12.7190483"><ele>25.0</ele><time>2026-04-26T11:31:26.936Z</time></trkpt><trkpt lat="43.94165" lon="12.7192017"><ele>25.0</ele><time>2026-04-26T11:31:27.937Z</time></trkpt><trkpt lat="43.941725" lon="12.71935"><ele>25.75</ele><time>2026-04-26T11:31:28.937Z</time></trkpt><trkpt lat="43.9418" lon="12.71949"><ele>26.5</ele><time>2026-04-26T11:31:29.937Z</time></trkpt><trkpt lat="43.941875" lon="12.7196317"><ele>27.25</ele><time>2026-04-26T11:31:30.937Z</time></trkpt><trkpt lat="43.94195" lon="12.7197733"><ele>28.0</ele><time>2026-04-26T11:31:31.936Z</time></trkpt><trkpt lat="43.9420283" lon="12.7199183"><ele>28.0</ele><time>2026-04-26T11:31:32.937Z</time></trkpt><trkpt lat="43.942105" lon="12.72006"><ele>28.0</ele><time>2026-04-26T11:31:33.937Z</time></trkpt><trkpt lat="43.9421817" lon="12.720195"><ele>28.0</ele><time>2026-04-26T11:31:34.937Z</time></trkpt><trkpt lat="43.9422517" lon="12.7203217"><ele>28.0</ele><time>2026-04-26T11:31:35.937Z</time></trkpt><trkpt lat="43.9423167" lon="12.7204433"><ele>27.5</ele><time>2026-04-26T11:31:36.937Z</time></trkpt><trkpt lat="43.9423767" lon="12.720565"><ele>27.0</ele><time>2026-04-26T11:31:37.936Z</time></trkpt><trkpt lat="43.9424367" lon="12.72069"><ele>26.5</ele><time>2026-04-26T11:31:38.937Z</time></trkpt><trkpt lat="43.942505" lon="12.7208167"><ele>26.0</ele><time>2026-04-26T11:31:39.936Z</time></trkpt><trkpt lat="43.94258" lon="12.7209517"><ele>25.5</ele><time>2026-04-26T11:31:40.937Z</time></trkpt><trkpt lat="43.94266" lon="12.72109"><ele>25.0</ele><time>2026-04-26T11:31:41.937Z</time></trkpt><trkpt lat="43.9427433" lon="12.7212267"><ele>24.5</ele><time>2026-04-26T11:31:42.937Z</time></trkpt><trkpt lat="43.942825" lon="12.7213567"><ele>24.0</ele><time>2026-04-26T11:31:43.937Z</time></trkpt><trkpt lat="43.9429033" lon="12.7214917"><ele>24.0</ele><time>2026-04-26T11:31:44.937Z</time></trkpt><trkpt lat="43.94298" lon="12.7216317"><ele>24.0</ele><time>2026-04-26T11:31:45.936Z</time></trkpt><trkpt lat="43.943065" lon="12.721775"><ele>24.0</ele><time>2026-04-26T11:31:46.937Z</time></trkpt><trkpt lat="43.94315" lon="12.7219183"><ele>24.0</ele><time>2026-04-26T11:31:47.937Z</time></trkpt><trkpt lat="43.9432367" lon="12.722065"><ele>23.75</ele><time>2026-04-26T11:31:48.937Z</time></trkpt><trkpt lat="43.943325" lon="12.7222167"><ele>23.5</ele><time>2026-04-26T11:31:49.937Z</time></trkpt><trkpt lat="43.9434167" lon="12.7223717"><ele>23.25</ele><time>2026-04-26T11:31:50.936Z</time></trkpt><trkpt lat="43.9435083" lon="12.722535"><ele>23.0</ele><time>2026-04-26T11:31:51.937Z</time></trkpt><trkpt lat="43.94361" lon="12.7227"><ele>24.333333333333336</ele><time>2026-04-26T11:31:52.937Z</time></trkpt><trkpt lat="43.94371" lon="12.722875"><ele>25.666666666666668</ele><time>2026-04-26T11:31:53.937Z</time></trkpt><trkpt lat="43.9438133" lon="12.72305"><ele>27.0</ele><time>2026-04-26T11:31:54.937Z</time></trkpt><trkpt lat="43.9439217" lon="12.723235"><ele>27.0</ele><time>2026-04-26T11:31:55.937Z</time></trkpt><trkpt lat="43.9440233" lon="12.7234217"><ele>27.0</ele><time>2026-04-26T11:31:56.937Z</time></trkpt><trkpt lat="43.9441183" lon="12.7235967"><ele>27.0</ele><time>2026-04-26T11:31:57.937Z</time></trkpt><trkpt lat="43.944215" lon="12.72377"><ele>26.0</ele><time>2026-04-26T11:31:58.937Z</time></trkpt><trkpt lat="43.9443067" lon="12.72394"><ele>25.0</ele><time>2026-04-26T11:31:59.937Z</time></trkpt><trkpt lat="43.9444033" lon="12.7241133"><ele>24.0</ele><time>2026-04-26T11:32:00.937Z</time></trkpt><trkpt lat="43.9445067" lon="12.7242883"><ele>23.333333333333332</ele><time>2026-04-26T11:32:01.937Z</time></trkpt><trkpt lat="43.9446067" lon="12.7244633"><ele>22.666666666666664</ele><time>2026-04-26T11:32:02.937Z</time></trkpt><trkpt lat="43.9447067" lon="12.7246367"><ele>22.0</ele><time>2026-04-26T11:32:03.937Z</time></trkpt><trkpt lat="43.9448133" lon="12.724815"><ele>22.0</ele><time>2026-04-26T11:32:04.937Z</time></trkpt><trkpt lat="43.9449167" lon="12.724995"><ele>22.0</ele><time>2026-04-26T11:32:05.937Z</time></trkpt><trkpt lat="43.9450233" lon="12.725175"><ele>22.0</ele><time>2026-04-26T11:32:06.937Z</time></trkpt><trkpt lat="43.9451367" lon="12.7253517"><ele>22.0</ele><time>2026-04-26T11:32:07.937Z</time></trkpt><trkpt lat="43.9452483" lon="12.7255317"><ele>22.0</ele><time>2026-04-26T11:32:08.937Z</time></trkpt><trkpt lat="43.9453633" lon="12.72571"><ele>22.0</ele><time>2026-04-26T11:32:09.937Z</time></trkpt><trkpt lat="43.9454767" lon="12.7258917"><ele>21.666666666666664</ele><time>2026-04-26T11:32:10.937Z</time></trkpt><trkpt lat="43.9455883" lon="12.7260717"><ele>21.333333333333332</ele><time>2026-04-26T11:32:11.937Z</time></trkpt><trkpt lat="43.9457033" lon="12.72625"><ele>21.0</ele><time>2026-04-26T11:32:12.937Z</time></trkpt><trkpt lat="43.9458183" lon="12.7264283"><ele>20.333333333333332</ele><time>2026-04-26T11:32:13.937Z</time></trkpt><trkpt lat="43.9459383" lon="12.7266067"><ele>19.666666666666664</ele><time>2026-04-26T11:32:14.937Z</time></trkpt><trkpt lat="43.9460567" lon="12.726785"><ele>19.0</ele><time>2026-04-26T11:32:15.936Z</time></trkpt><trkpt lat="43.9461783" lon="12.72696"><ele>19.0</ele><time>2026-04-26T11:32:16.937Z</time></trkpt><trkpt lat="43.9462983" lon="12.7271333"><ele>19.0</ele><time>2026-04-26T11:32:17.937Z</time></trkpt><trkpt lat="43.9464117" lon="12.7273117"><ele>19.0</ele><time>2026-04-26T11:32:18.936Z</time></trkpt><trkpt lat="43.9465267" lon="12.7274867"><ele>19.0</ele><time>2026-04-26T11:32:19.936Z</time></trkpt><trkpt lat="43.946635" lon="12.72767"><ele>19.0</ele><time>2026-04-26T11:32:20.937Z</time></trkpt><trkpt lat="43.9467383" lon="12.72785"><ele>19.0</ele><time>2026-04-26T11:32:21.937Z</time></trkpt><trkpt lat="43.9468417" lon="12.7280133"><ele>18.75</ele><time>2026-04-26T11:32:22.937Z</time></trkpt><trkpt lat="43.9469517" lon="12.7281517"><ele>18.5</ele><time>2026-04-26T11:32:23.937Z</time></trkpt><trkpt lat="43.94707" lon="12.7282583"><ele>18.25</ele><time>2026-04-26T11:32:24.937Z</time></trkpt><trkpt lat="43.9472017" lon="12.7283267"><ele>18.0</ele><time>2026-04-26T11:32:25.937Z</time></trkpt><trkpt lat="43.9473383" lon="12.7283583"><ele>18.0</ele><time>2026-04-26T11:32:26.937Z</time></trkpt><trkpt lat="43.947475" lon="12.728375"><ele>18.0</ele><time>2026-04-26T11:32:27.937Z</time></trkpt><trkpt lat="43.947605" lon="12.7283783"><ele>18.0</ele><time>2026-04-26T11:32:28.937Z</time></trkpt><trkpt lat="43.9477217" lon="12.7283933"><ele>18.0</ele><time>2026-04-26T11:32:29.937Z</time></trkpt><trkpt lat="43.9478133" lon="12.7284267"><ele>17.8</ele><time>2026-04-26T11:32:30.937Z</time></trkpt><trkpt lat="43.947885" lon="12.728465"><ele>17.6</ele><time>2026-04-26T11:32:31.937Z</time></trkpt><trkpt lat="43.94795" lon="12.728545"><ele>17.4</ele><time>2026-04-26T11:32:32.937Z</time></trkpt><trkpt lat="43.9480017" lon="12.7286633"><ele>17.2</ele><time>2026-04-26T11:32:33.937Z</time></trkpt><trkpt lat="43.9480267" lon="12.72883"><ele>17.0</ele><time>2026-04-26T11:32:34.937Z</time></trkpt><trkpt lat="43.9480567" lon="12.7290083"><ele>17.0</ele><time>2026-04-26T11:32:35.937Z</time></trkpt><trkpt lat="43.9480933" lon="12.7291983"><ele>17.0</ele><time>2026-04-26T11:32:36.936Z</time></trkpt><trkpt lat="43.9481383" lon="12.7293883"><ele>17.0</ele><time>2026-04-26T11:32:37.937Z</time></trkpt><trkpt lat="43.9481867" lon="12.7295833"><ele>17.0</ele><time>2026-04-26T11:32:38.937Z</time></trkpt><trkpt lat="43.9482417" lon="12.7297767"><ele>17.0</ele><time>2026-04-26T11:32:39.937Z</time></trkpt><trkpt lat="43.9483033" lon="12.729975"><ele>17.0</ele><time>2026-04-26T11:32:40.937Z</time></trkpt><trkpt lat="43.9483617" lon="12.7301783"><ele>17.0</ele><time>2026-04-26T11:32:41.937Z</time></trkpt><trkpt lat="43.9484233" lon="12.730385"><ele>17.333333333333336</ele><time>2026-04-26T11:32:42.937Z</time></trkpt><trkpt lat="43.94848" lon="12.730595"><ele>17.666666666666668</ele><time>2026-04-26T11:32:43.936Z</time></trkpt><trkpt lat="43.948535" lon="12.730805"><ele>18.0</ele><time>2026-04-26T11:32:44.937Z</time></trkpt><trkpt lat="43.9485917" lon="12.73102"><ele>17.666666666666668</ele><time>2026-04-26T11:32:45.936Z</time></trkpt><trkpt lat="43.94865" lon="12.7312333"><ele>17.333333333333336</ele><time>2026-04-26T11:32:46.937Z</time></trkpt><trkpt lat="43.9487083" lon="12.73144"><ele>17.0</ele><time>2026-04-26T11:32:47.937Z</time></trkpt><trkpt lat="43.9487617" lon="12.73164"><ele>17.0</ele><time>2026-04-26T11:32:48.937Z</time></trkpt><trkpt lat="43.9488133" lon="12.7318233"><ele>17.0</ele><time>2026-04-26T11:32:49.937Z</time></trkpt><trkpt lat="43.9488483" lon="12.7319817"><ele>17.0</ele><time>2026-04-26T11:32:50.936Z</time></trkpt><trkpt lat="43.94887" lon="12.73212"><ele>17.0</ele><time>2026-04-26T11:32:51.937Z</time></trkpt><trkpt lat="43.9488667" lon="12.732255"><ele>16.75</ele><time>2026-04-26T11:32:52.937Z</time></trkpt><trkpt lat="43.9488317" lon="12.7323967"><ele>16.5</ele><time>2026-04-26T11:32:53.936Z</time></trkpt><trkpt lat="43.9487817" lon="12.7325417"><ele>16.25</ele><time>2026-04-26T11:32:54.937Z</time></trkpt><trkpt lat="43.9487017" lon="12.7326733"><ele>16.0</ele><time>2026-04-26T11:32:55.937Z</time></trkpt><trkpt lat="43.948595" lon="12.7327833"><ele>15.25</ele><time>2026-04-26T11:32:56.937Z</time></trkpt><trkpt lat="43.948485" lon="12.7328883"><ele>14.5</ele><time>2026-04-26T11:32:57.937Z</time></trkpt><trkpt lat="43.9483783" lon="12.733"><ele>13.75</ele><time>2026-04-26T11:32:58.937Z</time></trkpt><trkpt lat="43.9482783" lon="12.7331217"><ele>13.0</ele><time>2026-04-26T11:32:59.936Z</time></trkpt><trkpt lat="43.9481783" lon="12.7332267"><ele>13.0</ele><time>2026-04-26T11:33:00.937Z</time></trkpt><trkpt lat="43.9480917" lon="12.7333317"><ele>13.0</ele><time>2026-04-26T11:33:01.937Z</time></trkpt><trkpt lat="43.94804" lon="12.7334567"><ele>13.0</ele><time>2026-04-26T11:33:02.937Z</time></trkpt><trkpt lat="43.948025" lon="12.7335883"><ele>13.0</ele><time>2026-04-26T11:33:03.937Z</time></trkpt><trkpt lat="43.948055" lon="12.7337167"><ele>13.0</ele><time>2026-04-26T11:33:04.937Z</time></trkpt><trkpt lat="43.9481117" lon="12.73384"><ele>13.0</ele><time>2026-04-26T11:33:05.937Z</time></trkpt><trkpt lat="43.9481867" lon="12.7339567"><ele>13.0</ele><time>2026-04-26T11:33:06.937Z</time></trkpt><trkpt lat="43.9482667" lon="12.7340833"><ele>13.0</ele><time>2026-04-26T11:33:07.936Z</time></trkpt><trkpt lat="43.9483433" lon="12.734225"><ele>13.0</ele><time>2026-04-26T11:33:08.937Z</time></trkpt><trkpt lat="43.9484233" lon="12.7343833"><ele>13.333333333333332</ele><time>2026-04-26T11:33:09.937Z</time></trkpt><trkpt lat="43.9485083" lon="12.7345517"><ele>13.666666666666668</ele><time>2026-04-26T11:33:10.937Z</time></trkpt><trkpt lat="43.9485983" lon="12.7347217"><ele>14.0</ele><time>2026-04-26T11:33:11.937Z</time></trkpt><trkpt lat="43.9486933" lon="12.734895"><ele>14.0</ele><time>2026-04-26T11:33:12.937Z</time></trkpt><trkpt lat="43.9487883" lon="12.73507"><ele>14.0</ele><time>2026-04-26T11:33:13.936Z</time></trkpt><trkpt lat="43.9488833" lon="12.735245"><ele>14.0</ele><time>2026-04-26T11:33:14.937Z</time></trkpt><trkpt lat="43.948975" lon="12.7354217"><ele>14.333333333333334</ele><time>2026-04-26T11:33:15.937Z</time></trkpt><trkpt lat="43.94907" lon="12.735595"><ele>14.666666666666668</ele><time>2026-04-26T11:33:16.937Z</time></trkpt><trkpt lat="43.9491683" lon="12.7357667"><ele>15.0</ele><time>2026-04-26T11:33:17.937Z</time></trkpt><trkpt lat="43.9492617" lon="12.735935"><ele>14.5</ele><time>2026-04-26T11:33:18.936Z</time></trkpt><trkpt lat="43.9493517" lon="12.7361017"><ele>14.0</ele><time>2026-04-26T11:33:19.937Z</time></trkpt><trkpt lat="43.9494383" lon="12.7362583"><ele>13.5</ele><time>2026-04-26T11:33:20.937Z</time></trkpt><trkpt lat="43.9495183" lon="12.7364033"><ele>13.0</ele><time>2026-04-26T11:33:21.936Z</time></trkpt><trkpt lat="43.9495867" lon="12.7365383"><ele>13.0</ele><time>2026-04-26T11:33:22.936Z</time></trkpt><trkpt lat="43.94964" lon="12.736655"><ele>13.0</ele><time>2026-04-26T11:33:23.937Z</time></trkpt><trkpt lat="43.9496533" lon="12.7367733"><ele>13.0</ele><time>2026-04-26T11:33:24.937Z</time></trkpt><trkpt lat="43.9496183" lon="12.7368983"><ele>13.0</ele><time>2026-04-26T11:33:25.937Z</time></trkpt><trkpt lat="43.9495517" lon="12.7370233"><ele>13.0</ele><time>2026-04-26T11:33:26.936Z</time></trkpt><trkpt lat="43.9494583" lon="12.73714"><ele>13.25</ele><time>2026-04-26T11:33:27.936Z</time></trkpt><trkpt lat="43.9493683" lon="12.73727"><ele>13.5</ele><time>2026-04-26T11:33:28.937Z</time></trkpt><trkpt lat="43.94928" lon="12.73742"><ele>13.75</ele><time>2026-04-26T11:33:29.937Z</time></trkpt><trkpt lat="43.94919" lon="12.7375783"><ele>14.0</ele><time>2026-04-26T11:33:30.937Z</time></trkpt><trkpt lat="43.9490967" lon="12.7377417"><ele>14.0</ele><time>2026-04-26T11:33:31.937Z</time></trkpt><trkpt lat="43.9490033" lon="12.737905"><ele>14.0</ele><time>2026-04-26T11:33:32.937Z</time></trkpt><trkpt lat="43.9489067" lon="12.7380667"><ele>14.0</ele><time>2026-04-26T11:33:33.937Z</time></trkpt><trkpt lat="43.948805" lon="12.7382217"><ele>14.0</ele><time>2026-04-26T11:33:34.937Z</time></trkpt><trkpt lat="43.948705" lon="12.7383817"><ele>14.0</ele><time>2026-04-26T11:33:35.937Z</time></trkpt><trkpt lat="43.9486083" lon="12.7385367"><ele>14.0</ele><time>2026-04-26T11:33:36.937Z</time></trkpt><trkpt lat="43.9485117" lon="12.7386817"><ele>14.0</ele><time>2026-04-26T11:33:37.936Z</time></trkpt><trkpt lat="43.9484283" lon="12.7388083"><ele>14.166666666666668</ele><time>2026-04-26T11:33:38.937Z</time></trkpt><trkpt lat="43.9483617" lon="12.73891"><ele>14.333333333333334</ele><time>2026-04-26T11:33:39.937Z</time></trkpt><trkpt lat="43.948315" lon="12.7389867"><ele>14.5</ele><time>2026-04-26T11:33:40.936Z</time></trkpt><trkpt lat="43.9482733" lon="12.7391317"><ele>14.666666666666668</ele><time>2026-04-26T11:33:42.937Z</time></trkpt><trkpt lat="43.9482867" lon="12.73922"><ele>14.833333333333334</ele><time>2026-04-26T11:33:43.937Z</time></trkpt><trkpt lat="43.948325" lon="12.739325"><ele>15.0</ele><time>2026-04-26T11:33:44.937Z</time></trkpt><trkpt lat="43.9483717" lon="12.739445"><ele>15.5</ele><time>2026-04-26T11:33:45.937Z</time></trkpt><trkpt lat="43.948415" lon="12.7395783"><ele>16.0</ele><time>2026-04-26T11:33:46.937Z</time></trkpt><trkpt lat="43.9484633" lon="12.7397233"><ele>16.5</ele><time>2026-04-26T11:33:47.937Z</time></trkpt><trkpt lat="43.94852" lon="12.7398733"><ele>17.0</ele><time>2026-04-26T11:33:48.937Z</time></trkpt><trkpt lat="43.9485833" lon="12.74003"><ele>17.0</ele><time>2026-04-26T11:33:49.937Z</time></trkpt><trkpt lat="43.94864" lon="12.7402017"><ele>17.0</ele><time>2026-04-26T11:33:50.936Z</time></trkpt><trkpt lat="43.9486967" lon="12.740385"><ele>17.0</ele><time>2026-04-26T11:33:51.937Z</time></trkpt><trkpt lat="43.9487583" lon="12.7405717"><ele>17.0</ele><time>2026-04-26T11:33:52.936Z</time></trkpt><trkpt lat="43.9488217" lon="12.74076"><ele>17.333333333333336</ele><time>2026-04-26T11:33:53.937Z</time></trkpt><trkpt lat="43.948885" lon="12.74095"><ele>17.666666666666668</ele><time>2026-04-26T11:33:54.937Z</time></trkpt><trkpt lat="43.9489483" lon="12.7411417"><ele>18.0</ele><time>2026-04-26T11:33:55.936Z</time></trkpt><trkpt lat="43.94901" lon="12.741335"><ele>18.0</ele><time>2026-04-26T11:33:56.937Z</time></trkpt><trkpt lat="43.9490817" lon="12.7415267"><ele>18.0</ele><time>2026-04-26T11:33:57.937Z</time></trkpt><trkpt lat="43.949155" lon="12.7417083"><ele>18.0</ele><time>2026-04-26T11:33:58.936Z</time></trkpt><trkpt lat="43.9492283" lon="12.7418683"><ele>18.0</ele><time>2026-04-26T11:33:59.937Z</time></trkpt><trkpt lat="43.94928" lon="12.742005"><ele>17.5</ele><time>2026-04-26T11:34:00.937Z</time></trkpt><trkpt lat="43.94932" lon="12.7421183"><ele>17.0</ele><time>2026-04-26T11:34:01.937Z</time></trkpt><trkpt lat="43.9493183" lon="12.7422333"><ele>16.5</ele><time>2026-04-26T11:34:02.937Z</time></trkpt><trkpt lat="43.9492883" lon="12.7423517"><ele>16.0</ele><time>2026-04-26T11:34:03.937Z</time></trkpt><trkpt lat="43.94929" lon="12.7424567"><ele>15.5</ele><time>2026-04-26T11:34:04.937Z</time></trkpt><trkpt lat="43.9493283" lon="12.7425383"><ele>15.0</ele><time>2026-04-26T11:34:05.937Z</time></trkpt><trkpt lat="43.9493917" lon="12.7425917"><ele>15.0</ele><time>2026-04-26T11:34:06.937Z</time></trkpt><trkpt lat="43.94949" lon="12.7426267"><ele>15.0</ele><time>2026-04-26T11:34:07.937Z</time></trkpt><trkpt lat="43.9495883" lon="12.7427033"><ele>15.0</ele><time>2026-04-26T11:34:08.937Z</time></trkpt><trkpt lat="43.9496867" lon="12.7428183"><ele>15.0</ele><time>2026-04-26T11:34:09.937Z</time></trkpt><trkpt lat="43.9497933" lon="12.7429517"><ele>15.0</ele><time>2026-04-26T11:34:10.937Z</time></trkpt><trkpt lat="43.94991" lon="12.7430933"><ele>15.0</ele><time>2026-04-26T11:34:11.936Z</time></trkpt><trkpt lat="43.9500317" lon="12.7432433"><ele>15.0</ele><time>2026-04-26T11:34:12.937Z</time></trkpt><trkpt lat="43.9501583" lon="12.743395"><ele>13.666666666666666</ele><time>2026-04-26T11:34:13.937Z</time></trkpt><trkpt lat="43.9502883" lon="12.7435517"><ele>12.333333333333332</ele><time>2026-04-26T11:34:14.937Z</time></trkpt><trkpt lat="43.9504233" lon="12.74371"><ele>11.0</ele><time>2026-04-26T11:34:15.937Z</time></trkpt><trkpt lat="43.9505517" lon="12.7438667"><ele>11.0</ele><time>2026-04-26T11:34:16.937Z</time></trkpt><trkpt lat="43.9506717" lon="12.7440233"><ele>11.0</ele><time>2026-04-26T11:34:17.937Z</time></trkpt><trkpt lat="43.950785" lon="12.7441783"><ele>11.0</ele><time>2026-04-26T11:34:18.937Z</time></trkpt><trkpt lat="43.9508967" lon="12.744325"><ele>11.25</ele><time>2026-04-26T11:34:19.937Z</time></trkpt><trkpt lat="43.9510067" lon="12.7444633"><ele>11.5</ele><time>2026-04-26T11:34:20.936Z</time></trkpt><trkpt lat="43.9511167" lon="12.744585"><ele>11.75</ele><time>2026-04-26T11:34:21.937Z</time></trkpt><trkpt lat="43.9512083" lon="12.7446983"><ele>12.0</ele><time>2026-04-26T11:34:22.937Z</time></trkpt><trkpt lat="43.9512783" lon="12.7447933"><ele>12.0</ele><time>2026-04-26T11:34:23.937Z</time></trkpt><trkpt lat="43.9513167" lon="12.7448833"><ele>12.0</ele><time>2026-04-26T11:34:24.937Z</time></trkpt><trkpt lat="43.9513167" lon="12.7449783"><ele>12.0</ele><time>2026-04-26T11:34:25.937Z</time></trkpt><trkpt lat="43.9512883" lon="12.7450783"><ele>12.0</ele><time>2026-04-26T11:34:26.937Z</time></trkpt><trkpt lat="43.9512367" lon="12.7451717"><ele>12.0</ele><time>2026-04-26T11:34:27.936Z</time></trkpt><trkpt lat="43.9511733" lon="12.745275"><ele>12.0</ele><time>2026-04-26T11:34:28.936Z</time></trkpt><trkpt lat="43.951115" lon="12.7453967"><ele>12.0</ele><time>2026-04-26T11:34:29.937Z</time></trkpt><trkpt lat="43.9510667" lon="12.7455233"><ele>12.0</ele><time>2026-04-26T11:34:30.937Z</time></trkpt><trkpt lat="43.9510317" lon="12.7456317"><ele>12.0</ele><time>2026-04-26T11:34:31.937Z</time></trkpt><trkpt lat="43.9510233" lon="12.745725"><ele>12.0</ele><time>2026-04-26T11:34:32.937Z</time></trkpt><trkpt lat="43.9510483" lon="12.7458067"><ele>12.0</ele><time>2026-04-26T11:34:33.937Z</time></trkpt><trkpt lat="43.9511033" lon="12.745885"><ele>12.0</ele><time>2026-04-26T11:34:34.937Z</time></trkpt><trkpt lat="43.95118" lon="12.7459633"><ele>12.0</ele><time>2026-04-26T11:34:35.937Z</time></trkpt><trkpt lat="43.9513117" lon="12.7460217"><ele>12.0</ele><time>2026-04-26T11:34:36.937Z</time></trkpt><trkpt lat="43.9514467" lon="12.7460783"><ele>12.0</ele><time>2026-04-26T11:34:37.937Z</time></trkpt><trkpt lat="43.951585" lon="12.7461467"><ele>12.0</ele><time>2026-04-26T11:34:38.937Z</time></trkpt><trkpt lat="43.9517233" lon="12.7462133"><ele>11.25</ele><time>2026-04-26T11:34:39.937Z</time></trkpt><trkpt lat="43.9518583" lon="12.74626"><ele>10.5</ele><time>2026-04-26T11:34:40.937Z</time></trkpt><trkpt lat="43.951985" lon="12.7463133"><ele>9.75</ele><time>2026-04-26T11:34:41.936Z</time></trkpt><trkpt lat="43.9521017" lon="12.746375"><ele>9.0</ele><time>2026-04-26T11:34:42.937Z</time></trkpt><trkpt lat="43.9522117" lon="12.7464367"><ele>9.0</ele><time>2026-04-26T11:34:43.937Z</time></trkpt><trkpt lat="43.9523083" lon="12.7465233"><ele>9.0</ele><time>2026-04-26T11:34:44.936Z</time></trkpt><trkpt lat="43.9523883" lon="12.74663"><ele>9.0</ele><time>2026-04-26T11:34:45.937Z</time></trkpt><trkpt lat="43.95246" lon="12.7467567"><ele>9.0</ele><time>2026-04-26T11:34:46.936Z</time></trkpt><trkpt lat="43.9525167" lon="12.74689"><ele>9.4</ele><time>2026-04-26T11:34:47.937Z</time></trkpt><trkpt lat="43.9525483" lon="12.747035"><ele>9.8</ele><time>2026-04-26T11:34:48.937Z</time></trkpt><trkpt lat="43.9525567" lon="12.74719"><ele>10.200000000000001</ele><time>2026-04-26T11:34:49.936Z</time></trkpt><trkpt lat="43.9525717" lon="12.7473333"><ele>10.600000000000001</ele><time>2026-04-26T11:34:50.936Z</time></trkpt><trkpt lat="43.9526317" lon="12.74745"><ele>11.0</ele><time>2026-04-26T11:34:51.937Z</time></trkpt><trkpt lat="43.9527167" lon="12.74753"><ele>11.0</ele><time>2026-04-26T11:34:52.937Z</time></trkpt><trkpt lat="43.9528083" lon="12.747605"><ele>11.0</ele><time>2026-04-26T11:34:53.937Z</time></trkpt><trkpt lat="43.952895" lon="12.7477"><ele>11.0</ele><time>2026-04-26T11:34:54.936Z</time></trkpt><trkpt lat="43.9529883" lon="12.7477917"><ele>11.0</ele><time>2026-04-26T11:34:55.937Z</time></trkpt><trkpt lat="43.95309" lon="12.7478683"><ele>11.0</ele><time>2026-04-26T11:34:56.937Z</time></trkpt><trkpt lat="43.9532167" lon="12.7479517"><ele>11.0</ele><time>2026-04-26T11:34:57.937Z</time></trkpt><trkpt lat="43.9533483" lon="12.74802"><ele>11.0</ele><time>2026-04-26T11:34:58.937Z</time></trkpt><trkpt lat="43.9534683" lon="12.7480867"><ele>11.0</ele><time>2026-04-26T11:34:59.937Z</time></trkpt><trkpt lat="43.9535867" lon="12.74816"><ele>11.0</ele><time>2026-04-26T11:35:00.937Z</time></trkpt><trkpt lat="43.9537017" lon="12.7482433"><ele>11.0</ele><time>2026-04-26T11:35:01.937Z</time></trkpt><trkpt lat="43.9538217" lon="12.7483333"><ele>11.0</ele><time>2026-04-26T11:35:02.937Z</time></trkpt><trkpt lat="43.9539433" lon="12.7484283"><ele>11.0</ele><time>2026-04-26T11:35:03.937Z</time></trkpt><trkpt lat="43.9540633" lon="12.748535"><ele>11.0</ele><time>2026-04-26T11:35:04.936Z</time></trkpt><trkpt lat="43.95418" lon="12.7486517"><ele>11.0</ele><time>2026-04-26T11:35:05.936Z</time></trkpt><trkpt lat="43.954295" lon="12.7487783"><ele>11.0</ele><time>2026-04-26T11:35:06.937Z</time></trkpt><trkpt lat="43.9544067" lon="12.74892"><ele>11.0</ele><time>2026-04-26T11:35:07.937Z</time></trkpt><trkpt lat="43.9545133" lon="12.749065"><ele>11.0</ele><time>2026-04-26T11:35:08.936Z</time></trkpt><trkpt lat="43.9546267" lon="12.7492067"><ele>11.0</ele><time>2026-04-26T11:35:09.937Z</time></trkpt><trkpt lat="43.9547383" lon="12.7493433"><ele>11.0</ele><time>2026-04-26T11:35:10.937Z</time></trkpt><trkpt lat="43.95485" lon="12.7494767"><ele>11.0</ele><time>2026-04-26T11:35:11.937Z</time></trkpt><trkpt lat="43.9549583" lon="12.7496033"><ele>11.0</ele><time>2026-04-26T11:35:12.937Z</time></trkpt><trkpt lat="43.955065" lon="12.7497083"><ele>10.8</ele><time>2026-04-26T11:35:13.937Z</time></trkpt><trkpt lat="43.95517" lon="12.74977"><ele>10.600000000000001</ele><time>2026-04-26T11:35:14.937Z</time></trkpt><trkpt lat="43.9552683" lon="12.74978"><ele>10.4</ele><time>2026-04-26T11:35:15.937Z</time></trkpt><trkpt lat="43.95535" lon="12.7497467"><ele>10.2</ele><time>2026-04-26T11:35:16.937Z</time></trkpt><trkpt lat="43.95542" lon="12.7496767"><ele>10.0</ele><time>2026-04-26T11:35:17.937Z</time></trkpt><trkpt lat="43.95548" lon="12.749565"><ele>10.0</ele><time>2026-04-26T11:35:18.937Z</time></trkpt><trkpt lat="43.9555367" lon="12.7494083"><ele>10.0</ele><time>2026-04-26T11:35:19.936Z</time></trkpt><trkpt lat="43.9556" lon="12.7492383"><ele>10.0</ele><time>2026-04-26T11:35:20.937Z</time></trkpt><trkpt lat="43.9556717" lon="12.749055"><ele>10.0</ele><time>2026-04-26T11:35:21.937Z</time></trkpt><trkpt lat="43.955755" lon="12.748885"><ele>10.0</ele><time>2026-04-26T11:35:22.937Z</time></trkpt><trkpt lat="43.9558283" lon="12.7487133"><ele>10.0</ele><time>2026-04-26T11:35:23.937Z</time></trkpt><trkpt lat="43.955905" lon="12.748555"><ele>10.0</ele><time>2026-04-26T11:35:24.937Z</time></trkpt><trkpt lat="43.9559817" lon="12.7484133"><ele>10.0</ele><time>2026-04-26T11:35:25.937Z</time></trkpt><trkpt lat="43.9560683" lon="12.7482933"><ele>10.2</ele><time>2026-04-26T11:35:26.937Z</time></trkpt><trkpt lat="43.956155" lon="12.748195"><ele>10.4</ele><time>2026-04-26T11:35:27.937Z</time></trkpt><trkpt lat="43.9562517" lon="12.7481233"><ele>10.600000000000001</ele><time>2026-04-26T11:35:28.937Z</time></trkpt><trkpt lat="43.9563517" lon="12.7480817"><ele>10.8</ele><time>2026-04-26T11:35:29.936Z</time></trkpt><trkpt lat="43.9564483" lon="12.7480817"><ele>11.0</ele><time>2026-04-26T11:35:30.936Z</time></trkpt><trkpt lat="43.9565383" lon="12.7481233"><ele>11.0</ele><time>2026-04-26T11:35:31.937Z</time></trkpt><trkpt lat="43.9566267" lon="12.7481967"><ele>11.0</ele><time>2026-04-26T11:35:32.937Z</time></trkpt><trkpt lat="43.9567133" lon="12.7482867"><ele>11.0</ele><time>2026-04-26T11:35:33.937Z</time></trkpt><trkpt lat="43.956805" lon="12.74839"><ele>11.0</ele><time>2026-04-26T11:35:34.937Z</time></trkpt><trkpt lat="43.9569" lon="12.7484983"><ele>10.5</ele><time>2026-04-26T11:35:35.937Z</time></trkpt><trkpt lat="43.9570017" lon="12.7486067"><ele>10.0</ele><time>2026-04-26T11:35:36.937Z</time></trkpt><trkpt lat="43.95711" lon="12.7487117"><ele>9.5</ele><time>2026-04-26T11:35:37.937Z</time></trkpt><trkpt lat="43.95722" lon="12.7488233"><ele>9.0</ele><time>2026-04-26T11:35:38.937Z</time></trkpt><trkpt lat="43.95733" lon="12.7489467"><ele>9.0</ele><time>2026-04-26T11:35:39.937Z</time></trkpt><trkpt lat="43.9574367" lon="12.7490883"><ele>9.0</ele><time>2026-04-26T11:35:40.937Z</time></trkpt><trkpt lat="43.95754" lon="12.7492433"><ele>9.0</ele><time>2026-04-26T11:35:41.937Z</time></trkpt><trkpt lat="43.9576467" lon="12.7493933"><ele>8.333333333333334</ele><time>2026-04-26T11:35:42.937Z</time></trkpt><trkpt lat="43.957765" lon="12.7495267"><ele>7.666666666666667</ele><time>2026-04-26T11:35:43.937Z</time></trkpt><trkpt lat="43.9578967" lon="12.7496483"><ele>7.0</ele><time>2026-04-26T11:35:44.937Z</time></trkpt><trkpt lat="43.95802" lon="12.74978"><ele>7.0</ele><time>2026-04-26T11:35:45.937Z</time></trkpt><trkpt lat="43.9581583" lon="12.749885"><ele>7.0</ele><time>2026-04-26T11:35:46.936Z</time></trkpt><trkpt lat="43.9582817" lon="12.7499867"><ele>7.0</ele><time>2026-04-26T11:35:47.937Z</time></trkpt><trkpt lat="43.958395" lon="12.7500767"><ele>7.0</ele><time>2026-04-26T11:35:48.937Z</time></trkpt><trkpt lat="43.9584883" lon="12.7501633"><ele>7.000000000000001</ele><time>2026-04-26T11:35:49.937Z</time></trkpt><trkpt lat="43.95857" lon="12.750235"><ele>7.0</ele><time>2026-04-26T11:35:50.936Z</time></trkpt><trkpt lat="43.95865" lon="12.7502767"><ele>7.0</ele><time>2026-04-26T11:35:51.937Z</time></trkpt><trkpt lat="43.95872" lon="12.75029"><ele>7.0</ele><time>2026-04-26T11:35:52.937Z</time></trkpt><trkpt lat="43.958785" lon="12.750245"><ele>7.000000000000001</ele><time>2026-04-26T11:35:53.937Z</time></trkpt><trkpt lat="43.95886" lon="12.750205"><ele>7.0</ele><time>2026-04-26T11:35:54.937Z</time></trkpt><trkpt lat="43.9589533" lon="12.7501917"><ele>7.0</ele><time>2026-04-26T11:35:55.937Z</time></trkpt><trkpt lat="43.9590583" lon="12.7502033"><ele>7.0</ele><time>2026-04-26T11:35:56.937Z</time></trkpt><trkpt lat="43.9591767" lon="12.7502317"><ele>7.0</ele><time>2026-04-26T11:35:57.936Z</time></trkpt><trkpt lat="43.9593" lon="12.75027"><ele>7.0</ele><time>2026-04-26T11:35:58.937Z</time></trkpt><trkpt lat="43.95943" lon="12.7503167"><ele>7.75</ele><time>2026-04-26T11:35:59.937Z</time></trkpt><trkpt lat="43.95956" lon="12.75036"><ele>8.5</ele><time>2026-04-26T11:36:00.937Z</time></trkpt><trkpt lat="43.9596833" lon="12.7503717"><ele>9.25</ele><time>2026-04-26T11:36:01.937Z</time></trkpt><trkpt lat="43.9597967" lon="12.750355"><ele>10.0</ele><time>2026-04-26T11:36:02.937Z</time></trkpt><trkpt lat="43.9598933" lon="12.7503283"><ele>10.0</ele><time>2026-04-26T11:36:03.936Z</time></trkpt><trkpt lat="43.959975" lon="12.750325"><ele>10.0</ele><time>2026-04-26T11:36:04.937Z</time></trkpt><trkpt lat="43.96004" lon="12.7503467"><ele>10.0</ele><time>2026-04-26T11:36:05.937Z</time></trkpt><trkpt lat="43.9601" lon="12.7504233"><ele>10.0</ele><time>2026-04-26T11:36:07.936Z</time></trkpt><trkpt lat="43.9600967" lon="12.750575"><ele>10.0</ele><time>2026-04-26T11:36:09.937Z</time></trkpt><trkpt lat="43.9601467" lon="12.7506783"><ele>10.0</ele><time>2026-04-26T11:36:11.936Z</time></trkpt><trkpt lat="43.960255" lon="12.7506967"><ele>9.857142857142858</ele><time>2026-04-26T11:36:13.937Z</time></trkpt><trkpt lat="43.9603183" lon="12.7507167"><ele>9.714285714285715</ele><time>2026-04-26T11:36:14.936Z</time></trkpt><trkpt lat="43.9603817" lon="12.7507383"><ele>9.571428571428573</ele><time>2026-04-26T11:36:15.936Z</time></trkpt><trkpt lat="43.9604467" lon="12.7507717"><ele>9.428571428571429</ele><time>2026-04-26T11:36:16.936Z</time></trkpt><trkpt lat="43.9605183" lon="12.7507933"><ele>9.285714285714286</ele><time>2026-04-26T11:36:17.937Z</time></trkpt><trkpt lat="43.960595" lon="12.7508067"><ele>9.142857142857144</ele><time>2026-04-26T11:36:18.937Z</time></trkpt><trkpt lat="43.960675" lon="12.750815"><ele>9.0</ele><time>2026-04-26T11:36:19.936Z</time></trkpt><trkpt lat="43.960755" lon="12.7508267"><ele>9.0</ele><time>2026-04-26T11:36:20.937Z</time></trkpt><trkpt lat="43.9608383" lon="12.7508317"><ele>9.0</ele><time>2026-04-26T11:36:21.937Z</time></trkpt><trkpt lat="43.960925" lon="12.7508467"><ele>9.0</ele><time>2026-04-26T11:36:22.937Z</time></trkpt><trkpt lat="43.96101" lon="12.75086"><ele>9.0</ele><time>2026-04-26T11:36:23.936Z</time></trkpt><trkpt lat="43.9610933" lon="12.7508883"><ele>9.0</ele><time>2026-04-26T11:36:24.937Z</time></trkpt><trkpt lat="43.961175" lon="12.75094"><ele>9.0</ele><time>2026-04-26T11:36:25.937Z</time></trkpt><trkpt lat="43.9612533" lon="12.7510083"><ele>9.0</ele><time>2026-04-26T11:36:26.937Z</time></trkpt><trkpt lat="43.9613367" lon="12.7510767"><ele>9.0</ele><time>2026-04-26T11:36:27.937Z</time></trkpt><trkpt lat="43.961425" lon="12.7511583"><ele>9.0</ele><time>2026-04-26T11:36:28.937Z</time></trkpt><trkpt lat="43.961525" lon="12.75125"><ele>9.0</ele><time>2026-04-26T11:36:29.937Z</time></trkpt><trkpt lat="43.96162" lon="12.7513467"><ele>9.0</ele><time>2026-04-26T11:36:30.937Z</time></trkpt><trkpt lat="43.9617217" lon="12.75144"><ele>9.0</ele><time>2026-04-26T11:36:31.936Z</time></trkpt><trkpt lat="43.9618233" lon="12.75153"><ele>9.0</ele><time>2026-04-26T11:36:32.937Z</time></trkpt><trkpt lat="43.9619217" lon="12.75162"><ele>9.0</ele><time>2026-04-26T11:36:33.936Z</time></trkpt><trkpt lat="43.96202" lon="12.7517117"><ele>9.0</ele><time>2026-04-26T11:36:34.937Z</time></trkpt><trkpt lat="43.9621217" lon="12.7518033"><ele>9.25</ele><time>2026-04-26T11:36:35.937Z</time></trkpt><trkpt lat="43.9622233" lon="12.7518933"><ele>9.5</ele><time>2026-04-26T11:36:36.937Z</time></trkpt><trkpt lat="43.9623217" lon="12.75198"><ele>9.75</ele><time>2026-04-26T11:36:37.937Z</time></trkpt><trkpt lat="43.9624133" lon="12.7520667"><ele>10.0</ele><time>2026-04-26T11:36:38.937Z</time></trkpt><trkpt lat="43.9625083" lon="12.7521483"><ele>9.75</ele><time>2026-04-26T11:36:39.937Z</time></trkpt><trkpt lat="43.9626067" lon="12.7522283"><ele>9.5</ele><time>2026-04-26T11:36:40.937Z</time></trkpt><trkpt lat="43.96271" lon="12.752305"><ele>9.25</ele><time>2026-04-26T11:36:41.937Z</time></trkpt><trkpt lat="43.96282" lon="12.7523933"><ele>9.0</ele><time>2026-04-26T11:36:42.936Z</time></trkpt><trkpt lat="43.9629267" lon="12.75248"><ele>9.0</ele><time>2026-04-26T11:36:43.937Z</time></trkpt><trkpt lat="43.963025" lon="12.7525733"><ele>9.0</ele><time>2026-04-26T11:36:44.936Z</time></trkpt><trkpt lat="43.9631183" lon="12.7526467"><ele>9.0</ele><time>2026-04-26T11:36:45.936Z</time></trkpt><trkpt lat="43.963205" lon="12.75273"><ele>9.0</ele><time>2026-04-26T11:36:46.937Z</time></trkpt><trkpt lat="43.9632783" lon="12.7528083"><ele>9.0</ele><time>2026-04-26T11:36:47.937Z</time></trkpt><trkpt lat="43.9633467" lon="12.7528867"><ele>8.8</ele><time>2026-04-26T11:36:48.937Z</time></trkpt><trkpt lat="43.9634183" lon="12.752965"><ele>8.600000000000001</ele><time>2026-04-26T11:36:49.937Z</time></trkpt><trkpt lat="43.9634933" lon="12.7530333"><ele>8.4</ele><time>2026-04-26T11:36:50.937Z</time></trkpt><trkpt lat="43.9635783" lon="12.7530983"><ele>8.200000000000001</ele><time>2026-04-26T11:36:51.937Z</time></trkpt><trkpt lat="43.9636583" lon="12.75317"><ele>8.0</ele><time>2026-04-26T11:36:52.937Z</time></trkpt><trkpt lat="43.963745" lon="12.7532417"><ele>8.0</ele><time>2026-04-26T11:36:53.937Z</time></trkpt><trkpt lat="43.96383" lon="12.7533167"><ele>8.0</ele><time>2026-04-26T11:36:54.937Z</time></trkpt><trkpt lat="43.96392" lon="12.753395"><ele>8.0</ele><time>2026-04-26T11:36:55.937Z</time></trkpt><trkpt lat="43.9640167" lon="12.7534817"><ele>8.0</ele><time>2026-04-26T11:36:56.936Z</time></trkpt><trkpt lat="43.964115" lon="12.753575"><ele>8.0</ele><time>2026-04-26T11:36:57.937Z</time></trkpt><trkpt lat="43.96422" lon="12.7536633"><ele>6.75</ele><time>2026-04-26T11:36:58.937Z</time></trkpt><trkpt lat="43.9643267" lon="12.753755"><ele>5.5</ele><time>2026-04-26T11:36:59.937Z</time></trkpt><trkpt lat="43.9644317" lon="12.753855"><ele>4.25</ele><time>2026-04-26T11:37:00.937Z</time></trkpt><trkpt lat="43.9645367" lon="12.753955"><ele>3.0</ele><time>2026-04-26T11:37:01.937Z</time></trkpt><trkpt lat="43.9646367" lon="12.75406"><ele>3.0</ele><time>2026-04-26T11:37:02.937Z</time></trkpt><trkpt lat="43.96474" lon="12.7541567"><ele>3.0</ele><time>2026-04-26T11:37:03.937Z</time></trkpt><trkpt lat="43.96484" lon="12.754255"><ele>3.0</ele><time>2026-04-26T11:37:04.937Z</time></trkpt><trkpt lat="43.9649333" lon="12.7543617"><ele>3.0</ele><time>2026-04-26T11:37:05.936Z</time></trkpt><trkpt lat="43.9650183" lon="12.7544783"><ele>4.25</ele><time>2026-04-26T11:37:06.937Z</time></trkpt><trkpt lat="43.965095" lon="12.7545967"><ele>5.5</ele><time>2026-04-26T11:37:07.936Z</time></trkpt><trkpt lat="43.9651733" lon="12.7547067"><ele>6.75</ele><time>2026-04-26T11:37:08.937Z</time></trkpt><trkpt lat="43.9652617" lon="12.7548017"><ele>8.0</ele><time>2026-04-26T11:37:09.937Z</time></trkpt><trkpt lat="43.965355" lon="12.754895"><ele>8.0</ele><time>2026-04-26T11:37:10.937Z</time></trkpt><trkpt lat="43.9654567" lon="12.75499"><ele>8.0</ele><time>2026-04-26T11:37:11.937Z</time></trkpt><trkpt lat="43.9655667" lon="12.755085"><ele>8.0</ele><time>2026-04-26T11:37:12.937Z</time></trkpt><trkpt lat="43.9656767" lon="12.7551817"><ele>8.0</ele><time>2026-04-26T11:37:13.937Z</time></trkpt><trkpt lat="43.9657817" lon="12.7552717"><ele>7.800000000000001</ele><time>2026-04-26T11:37:14.936Z</time></trkpt><trkpt lat="43.9658783" lon="12.75536"><ele>7.6000000000000005</ele><time>2026-04-26T11:37:15.937Z</time></trkpt><trkpt lat="43.96597" lon="12.755455"><ele>7.3999999999999995</ele><time>2026-04-26T11:37:16.936Z</time></trkpt><trkpt lat="43.9660633" lon="12.755535"><ele>7.199999999999999</ele><time>2026-04-26T11:37:17.937Z</time></trkpt><trkpt lat="43.966155" lon="12.7556117"><ele>7.0</ele><time>2026-04-26T11:37:18.937Z</time></trkpt><trkpt lat="43.9662417" lon="12.7556967"><ele>7.0</ele><time>2026-04-26T11:37:19.937Z</time></trkpt><trkpt lat="43.9663233" lon="12.7557833"><ele>6.999999999999999</ele><time>2026-04-26T11:37:20.937Z</time></trkpt><trkpt lat="43.9664167" lon="12.7558633"><ele>6.999999999999999</ele><time>2026-04-26T11:37:21.936Z</time></trkpt><trkpt lat="43.9665033" lon="12.755935"><ele>7.0</ele><time>2026-04-26T11:37:22.937Z</time></trkpt><trkpt lat="43.9665767" lon="12.756005"><ele>7.0</ele><time>2026-04-26T11:37:23.937Z</time></trkpt><trkpt lat="43.9666433" lon="12.7560583"><ele>6.833333333333334</ele><time>2026-04-26T11:37:24.936Z</time></trkpt><trkpt lat="43.9667367" lon="12.756125"><ele>6.666666666666667</ele><time>2026-04-26T11:37:26.937Z</time></trkpt><trkpt lat="43.96678" lon="12.7561933"><ele>6.5</ele><time>2026-04-26T11:37:29.937Z</time></trkpt><trkpt lat="43.9668433" lon="12.75618"><ele>6.333333333333334</ele><time>2026-04-26T11:37:34.936Z</time></trkpt><trkpt lat="43.966895" lon="12.7560683"><ele>6.166666666666667</ele><time>2026-04-26T11:37:36.937Z</time></trkpt><trkpt lat="43.9669183" lon="12.755985"><ele>6.0</ele><time>2026-04-26T11:37:37.937Z</time></trkpt><trkpt lat="43.9669433" lon="12.755885"><ele>6.0</ele><time>2026-04-26T11:37:38.937Z</time></trkpt><trkpt lat="43.96697" lon="12.755775"><ele>6.0</ele><time>2026-04-26T11:37:39.937Z</time></trkpt><trkpt lat="43.9669967" lon="12.7556617"><ele>6.0</ele><time>2026-04-26T11:37:40.937Z</time></trkpt><trkpt lat="43.967025" lon="12.75555"><ele>6.0</ele><time>2026-04-26T11:37:41.937Z</time></trkpt><trkpt lat="43.9670517" lon="12.7554383"><ele>6.0</ele><time>2026-04-26T11:37:42.937Z</time></trkpt><trkpt lat="43.9670767" lon="12.75533"><ele>6.0</ele><time>2026-04-26T11:37:43.937Z</time></trkpt><trkpt lat="43.9671017" lon="12.755225"><ele>6.166666666666667</ele><time>2026-04-26T11:37:44.936Z</time></trkpt><trkpt lat="43.9671283" lon="12.7551167"><ele>6.333333333333334</ele><time>2026-04-26T11:37:45.936Z</time></trkpt><trkpt lat="43.9671567" lon="12.7550067"><ele>6.5</ele><time>2026-04-26T11:37:46.937Z</time></trkpt><trkpt lat="43.9671833" lon="12.7548983"><ele>6.666666666666667</ele><time>2026-04-26T11:37:47.937Z</time></trkpt><trkpt lat="43.9672083" lon="12.75479"><ele>6.833333333333334</ele><time>2026-04-26T11:37:48.937Z</time></trkpt><trkpt lat="43.9672283" lon="12.7546833"><ele>7.0</ele><time>2026-04-26T11:37:49.936Z</time></trkpt><trkpt lat="43.9672483" lon="12.7545917"><ele>7.000000000000001</ele><time>2026-04-26T11:37:50.937Z</time></trkpt><trkpt lat="43.96729" lon="12.7544767"><ele>7.0</ele><time>2026-04-26T11:37:52.937Z</time></trkpt><trkpt lat="43.9673783" lon="12.7544567"><ele>7.0</ele><time>2026-04-26T11:37:55.937Z</time></trkpt><trkpt lat="43.96745" lon="12.7544817"><ele>7.0</ele><time>2026-04-26T11:37:57.937Z</time></trkpt><trkpt lat="43.9674783" lon="12.75437"><ele>7.000000000000001</ele><time>2026-04-26T11:38:56.937Z</time></trkpt><trkpt lat="43.9675117" lon="12.75423"><ele>7.0</ele><time>2026-04-26T11:38:58.937Z</time></trkpt><trkpt lat="43.967535" lon="12.7541383"><ele>6.166666666666667</ele><time>2026-04-26T11:38:59.937Z</time></trkpt><trkpt lat="43.9675583" lon="12.7540333"><ele>5.333333333333334</ele><time>2026-04-26T11:39:00.937Z</time></trkpt><trkpt lat="43.9675833" lon="12.7539217"><ele>4.5</ele><time>2026-04-26T11:39:01.936Z</time></trkpt><trkpt lat="43.9676133" lon="12.75381"><ele>3.666666666666667</ele><time>2026-04-26T11:39:02.936Z</time></trkpt><trkpt lat="43.9676417" lon="12.7536917"><ele>2.833333333333333</ele><time>2026-04-26T11:39:03.936Z</time></trkpt><trkpt lat="43.9676667" lon="12.75357"><ele>2.0</ele><time>2026-04-26T11:39:04.937Z</time></trkpt><trkpt lat="43.9676883" lon="12.7534467"><ele>1.9999999999999998</ele><time>2026-04-26T11:39:05.937Z</time></trkpt><trkpt lat="43.96771" lon="12.7533283"><ele>2.0</ele><time>2026-04-26T11:39:06.937Z</time></trkpt><trkpt lat="43.9677283" lon="12.75321"><ele>2.0</ele><time>2026-04-26T11:39:07.937Z</time></trkpt><trkpt lat="43.9677467" lon="12.7530933"><ele>2.0</ele><time>2026-04-26T11:39:08.937Z</time></trkpt><trkpt lat="43.9677667" lon="12.7529733"><ele>1.9999999999999998</ele><time>2026-04-26T11:39:09.937Z</time></trkpt><trkpt lat="43.967785" lon="12.752855"><ele>2.0</ele><time>2026-04-26T11:39:10.937Z</time></trkpt><trkpt lat="43.9678067" lon="12.7527417"><ele>2.0</ele><time>2026-04-26T11:39:11.937Z</time></trkpt><trkpt lat="43.9678267" lon="12.7526317"><ele>1.0</ele><time>2026-04-26T11:39:12.937Z</time></trkpt><trkpt lat="43.9678417" lon="12.7525283"><ele>1.0</ele><time>2026-04-26T11:39:13.936Z</time></trkpt><trkpt lat="43.96787" lon="12.7523917"><ele>1.0</ele><time>2026-04-26T11:39:15.937Z</time></trkpt></trkseg></trk></gpx>